<?xml version="1.0" encoding="UTF-8" standalone="no" ?>
<gpx xmlns="http://www.topografix.com/GPX/1/1" xmlns:xsi="http://www.w3.org/2001/XMLSchema-instance" xsi:schemaLocation="http://www.topografix.com/GPX/1/1 http://www.topografix.com/GPX/1/1/gpx.xsd" version="1.1" creator="VisuGPX - https://www.visugpx.com">
  <metadata>
    <name>82. Back to Ginals 8ème étape</name>
  </metadata>
  <trk>
    <name><![CDATA[82. Back to Ginals 8ème étape_1]]></name>
    <trkseg>
      <trkpt lat="43.90394" lon="0.15368">
        <ele>131.4</ele>
        <time>2023-07-03T05:30:44Z</time>
      </trkpt>
      <trkpt lat="43.90436" lon="0.15389">
        <ele>132</ele>
        <time>2023-07-03T05:30:55Z</time>
      </trkpt>
      <trkpt lat="43.90436" lon="0.1539">
        <ele>132.2</ele>
        <time>2023-07-03T05:30:56Z</time>
      </trkpt>
      <trkpt lat="43.90435" lon="0.15391">
        <ele>132.4</ele>
        <time>2023-07-03T05:30:57Z</time>
      </trkpt>
      <trkpt lat="43.90436" lon="0.15392">
        <ele>132.4</ele>
        <time>2023-07-03T05:30:58Z</time>
      </trkpt>
      <trkpt lat="43.9044" lon="0.15402">
        <ele>133.2</ele>
        <time>2023-07-03T05:31:06Z</time>
      </trkpt>
      <trkpt lat="43.90443" lon="0.15408">
        <ele>133.6</ele>
        <time>2023-07-03T05:31:10Z</time>
      </trkpt>
      <trkpt lat="43.90443" lon="0.15414">
        <ele>134.2</ele>
        <time>2023-07-03T05:31:17Z</time>
      </trkpt>
      <trkpt lat="43.90443" lon="0.15414">
        <ele>134.2</ele>
        <time>2023-07-03T05:31:18Z</time>
      </trkpt>
      <trkpt lat="43.90443" lon="0.15419">
        <ele>134.6</ele>
        <time>2023-07-03T05:31:22Z</time>
      </trkpt>
      <trkpt lat="43.90444" lon="0.15421">
        <ele>134.8</ele>
        <time>2023-07-03T05:31:25Z</time>
      </trkpt>
      <trkpt lat="43.90444" lon="0.15425">
        <ele>135.2</ele>
        <time>2023-07-03T05:31:29Z</time>
      </trkpt>
      <trkpt lat="43.90442" lon="0.1543">
        <ele>135.6</ele>
        <time>2023-07-03T05:31:33Z</time>
      </trkpt>
      <trkpt lat="43.90441" lon="0.15433">
        <ele>136</ele>
        <time>2023-07-03T05:31:36Z</time>
      </trkpt>
      <trkpt lat="43.9044" lon="0.15435">
        <ele>136.2</ele>
        <time>2023-07-03T05:31:37Z</time>
      </trkpt>
      <trkpt lat="43.90438" lon="0.15441">
        <ele>136.8</ele>
        <time>2023-07-03T05:31:42Z</time>
      </trkpt>
      <trkpt lat="43.90438" lon="0.15443">
        <ele>137.2</ele>
        <time>2023-07-03T05:31:45Z</time>
      </trkpt>
      <trkpt lat="43.90435" lon="0.15451">
        <ele>137.8</ele>
        <time>2023-07-03T05:31:52Z</time>
      </trkpt>
      <trkpt lat="43.90435" lon="0.15452">
        <ele>138</ele>
        <time>2023-07-03T05:31:53Z</time>
      </trkpt>
      <trkpt lat="43.90439" lon="0.15451">
        <ele>138</ele>
        <time>2023-07-03T05:31:55Z</time>
      </trkpt>
      <trkpt lat="43.90441" lon="0.15449">
        <ele>138.2</ele>
        <time>2023-07-03T05:31:57Z</time>
      </trkpt>
      <trkpt lat="43.90446" lon="0.1544">
        <ele>138</ele>
        <time>2023-07-03T05:32:03Z</time>
      </trkpt>
      <trkpt lat="43.90447" lon="0.15435">
        <ele>138</ele>
        <time>2023-07-03T05:32:06Z</time>
      </trkpt>
      <trkpt lat="43.90449" lon="0.15429">
        <ele>137.8</ele>
        <time>2023-07-03T05:32:10Z</time>
      </trkpt>
      <trkpt lat="43.90454" lon="0.1542">
        <ele>137.8</ele>
        <time>2023-07-03T05:32:16Z</time>
      </trkpt>
      <trkpt lat="43.90462" lon="0.15411">
        <ele>137.6</ele>
        <time>2023-07-03T05:32:24Z</time>
      </trkpt>
      <trkpt lat="43.90464" lon="0.15414">
        <ele>137.4</ele>
        <time>2023-07-03T05:32:28Z</time>
      </trkpt>
      <trkpt lat="43.90466" lon="0.15414">
        <ele>137.6</ele>
        <time>2023-07-03T05:32:30Z</time>
      </trkpt>
      <trkpt lat="43.90471" lon="0.15416">
        <ele>137.6</ele>
        <time>2023-07-03T05:32:35Z</time>
      </trkpt>
      <trkpt lat="43.90472" lon="0.15416">
        <ele>137.6</ele>
        <time>2023-07-03T05:32:36Z</time>
      </trkpt>
      <trkpt lat="43.90475" lon="0.15416">
        <ele>137.4</ele>
        <time>2023-07-03T05:32:39Z</time>
      </trkpt>
      <trkpt lat="43.90475" lon="0.15417">
        <ele>137.2</ele>
        <time>2023-07-03T05:32:42Z</time>
      </trkpt>
      <trkpt lat="43.90476" lon="0.1542">
        <ele>137.8</ele>
        <time>2023-07-03T05:32:47Z</time>
      </trkpt>
      <trkpt lat="43.90477" lon="0.1542">
        <ele>138</ele>
        <time>2023-07-03T05:32:48Z</time>
      </trkpt>
      <trkpt lat="43.90483" lon="0.1542">
        <ele>138</ele>
        <time>2023-07-03T05:32:54Z</time>
      </trkpt>
      <trkpt lat="43.90486" lon="0.15419">
        <ele>138</ele>
        <time>2023-07-03T05:32:56Z</time>
      </trkpt>
      <trkpt lat="43.90488" lon="0.15418">
        <ele>137.8</ele>
        <time>2023-07-03T05:32:59Z</time>
      </trkpt>
      <trkpt lat="43.90492" lon="0.15417">
        <ele>137</ele>
        <time>2023-07-03T05:33:03Z</time>
      </trkpt>
      <trkpt lat="43.90494" lon="0.15416">
        <ele>136.8</ele>
        <time>2023-07-03T05:33:05Z</time>
      </trkpt>
      <trkpt lat="43.90499" lon="0.15414">
        <ele>136.4</ele>
        <time>2023-07-03T05:33:09Z</time>
      </trkpt>
      <trkpt lat="43.90502" lon="0.15413">
        <ele>136</ele>
        <time>2023-07-03T05:33:12Z</time>
      </trkpt>
      <trkpt lat="43.90503" lon="0.15413">
        <ele>135.6</ele>
        <time>2023-07-03T05:33:13Z</time>
      </trkpt>
      <trkpt lat="43.90503" lon="0.15413">
        <ele>135.6</ele>
        <time>2023-07-03T05:33:14Z</time>
      </trkpt>
      <trkpt lat="43.90504" lon="0.15413">
        <ele>135.2</ele>
        <time>2023-07-03T05:33:18Z</time>
      </trkpt>
      <trkpt lat="43.90507" lon="0.15413">
        <ele>134.6</ele>
        <time>2023-07-03T05:33:22Z</time>
      </trkpt>
      <trkpt lat="43.90507" lon="0.15413">
        <ele>134.2</ele>
        <time>2023-07-03T05:33:24Z</time>
      </trkpt>
      <trkpt lat="43.90507" lon="0.15413">
        <ele>133.8</ele>
        <time>2023-07-03T05:33:26Z</time>
      </trkpt>
      <trkpt lat="43.90509" lon="0.15413">
        <ele>133.6</ele>
        <time>2023-07-03T05:33:27Z</time>
      </trkpt>
      <trkpt lat="43.90511" lon="0.15415">
        <ele>133.6</ele>
        <time>2023-07-03T05:33:29Z</time>
      </trkpt>
      <trkpt lat="43.90517" lon="0.15417">
        <ele>133</ele>
        <time>2023-07-03T05:33:33Z</time>
      </trkpt>
      <trkpt lat="43.90522" lon="0.15418">
        <ele>132.6</ele>
        <time>2023-07-03T05:33:36Z</time>
      </trkpt>
      <trkpt lat="43.90525" lon="0.15422">
        <ele>131.6</ele>
        <time>2023-07-03T05:33:41Z</time>
      </trkpt>
      <trkpt lat="43.90532" lon="0.15428">
        <ele>130.8</ele>
        <time>2023-07-03T05:33:47Z</time>
      </trkpt>
      <trkpt lat="43.90535" lon="0.1543">
        <ele>130.4</ele>
        <time>2023-07-03T05:33:50Z</time>
      </trkpt>
      <trkpt lat="43.90537" lon="0.15431">
        <ele>130</ele>
        <time>2023-07-03T05:33:53Z</time>
      </trkpt>
      <trkpt lat="43.90539" lon="0.1543">
        <ele>129.6</ele>
        <time>2023-07-03T05:33:56Z</time>
      </trkpt>
      <trkpt lat="43.90541" lon="0.1543">
        <ele>129.2</ele>
        <time>2023-07-03T05:33:59Z</time>
      </trkpt>
      <trkpt lat="43.90543" lon="0.15431">
        <ele>129</ele>
        <time>2023-07-03T05:34:00Z</time>
      </trkpt>
      <trkpt lat="43.90546" lon="0.15432">
        <ele>129</ele>
        <time>2023-07-03T05:34:02Z</time>
      </trkpt>
      <trkpt lat="43.90556" lon="0.15442">
        <ele>128.4</ele>
        <time>2023-07-03T05:34:08Z</time>
      </trkpt>
      <trkpt lat="43.90559" lon="0.15442">
        <ele>128</ele>
        <time>2023-07-03T05:34:10Z</time>
      </trkpt>
      <trkpt lat="43.90559" lon="0.15443">
        <ele>128</ele>
        <time>2023-07-03T05:34:11Z</time>
      </trkpt>
      <trkpt lat="43.9056" lon="0.15443">
        <ele>127.4</ele>
        <time>2023-07-03T05:34:14Z</time>
      </trkpt>
      <trkpt lat="43.90563" lon="0.15443">
        <ele>127</ele>
        <time>2023-07-03T05:34:16Z</time>
      </trkpt>
      <trkpt lat="43.90565" lon="0.15443">
        <ele>127</ele>
        <time>2023-07-03T05:34:17Z</time>
      </trkpt>
      <trkpt lat="43.90569" lon="0.15444">
        <ele>126.4</ele>
        <time>2023-07-03T05:34:20Z</time>
      </trkpt>
      <trkpt lat="43.90573" lon="0.15445">
        <ele>126.2</ele>
        <time>2023-07-03T05:34:23Z</time>
      </trkpt>
      <trkpt lat="43.90576" lon="0.15441">
        <ele>125.8</ele>
        <time>2023-07-03T05:34:26Z</time>
      </trkpt>
      <trkpt lat="43.9058" lon="0.15442">
        <ele>125.2</ele>
        <time>2023-07-03T05:34:30Z</time>
      </trkpt>
      <trkpt lat="43.90581" lon="0.15443">
        <ele>125.2</ele>
        <time>2023-07-03T05:34:31Z</time>
      </trkpt>
      <trkpt lat="43.90583" lon="0.15445">
        <ele>125.2</ele>
        <time>2023-07-03T05:34:34Z</time>
      </trkpt>
      <trkpt lat="43.90588" lon="0.15448">
        <ele>124.8</ele>
        <time>2023-07-03T05:34:38Z</time>
      </trkpt>
      <trkpt lat="43.9059" lon="0.15448">
        <ele>124.6</ele>
        <time>2023-07-03T05:34:40Z</time>
      </trkpt>
      <trkpt lat="43.90591" lon="0.15447">
        <ele>124.4</ele>
        <time>2023-07-03T05:34:42Z</time>
      </trkpt>
      <trkpt lat="43.90594" lon="0.15449">
        <ele>124.2</ele>
        <time>2023-07-03T05:34:44Z</time>
      </trkpt>
      <trkpt lat="43.90604" lon="0.1545">
        <ele>123.6</ele>
        <time>2023-07-03T05:34:49Z</time>
      </trkpt>
      <trkpt lat="43.90607" lon="0.15451">
        <ele>123.4</ele>
        <time>2023-07-03T05:34:51Z</time>
      </trkpt>
      <trkpt lat="43.90608" lon="0.15451">
        <ele>123.2</ele>
        <time>2023-07-03T05:34:52Z</time>
      </trkpt>
      <trkpt lat="43.90612" lon="0.15452">
        <ele>122.6</ele>
        <time>2023-07-03T05:34:56Z</time>
      </trkpt>
      <trkpt lat="43.90617" lon="0.15453">
        <ele>122</ele>
        <time>2023-07-03T05:35:00Z</time>
      </trkpt>
      <trkpt lat="43.90623" lon="0.15457">
        <ele>121.6</ele>
        <time>2023-07-03T05:35:05Z</time>
      </trkpt>
      <trkpt lat="43.90625" lon="0.15457">
        <ele>121.4</ele>
        <time>2023-07-03T05:35:07Z</time>
      </trkpt>
      <trkpt lat="43.90627" lon="0.15455">
        <ele>121.4</ele>
        <time>2023-07-03T05:35:10Z</time>
      </trkpt>
      <trkpt lat="43.90629" lon="0.15456">
        <ele>121.4</ele>
        <time>2023-07-03T05:35:13Z</time>
      </trkpt>
      <trkpt lat="43.9063" lon="0.15457">
        <ele>121.4</ele>
        <time>2023-07-03T05:35:14Z</time>
      </trkpt>
      <trkpt lat="43.90631" lon="0.15456">
        <ele>121.4</ele>
        <time>2023-07-03T05:35:15Z</time>
      </trkpt>
      <trkpt lat="43.90633" lon="0.1546">
        <ele>120.6</ele>
        <time>2023-07-03T05:35:19Z</time>
      </trkpt>
      <trkpt lat="43.90633" lon="0.15461">
        <ele>120.6</ele>
        <time>2023-07-03T05:35:20Z</time>
      </trkpt>
      <trkpt lat="43.90641" lon="0.15466">
        <ele>120</ele>
        <time>2023-07-03T05:35:27Z</time>
      </trkpt>
      <trkpt lat="43.90645" lon="0.15469">
        <ele>119.6</ele>
        <time>2023-07-03T05:35:31Z</time>
      </trkpt>
      <trkpt lat="43.90647" lon="0.15471">
        <ele>119.4</ele>
        <time>2023-07-03T05:35:34Z</time>
      </trkpt>
      <trkpt lat="43.90648" lon="0.15472">
        <ele>119.4</ele>
        <time>2023-07-03T05:35:35Z</time>
      </trkpt>
      <trkpt lat="43.9065" lon="0.15472">
        <ele>119.4</ele>
        <time>2023-07-03T05:35:38Z</time>
      </trkpt>
      <trkpt lat="43.90654" lon="0.15475">
        <ele>119.2</ele>
        <time>2023-07-03T05:35:41Z</time>
      </trkpt>
      <trkpt lat="43.90658" lon="0.15476">
        <ele>119</ele>
        <time>2023-07-03T05:35:44Z</time>
      </trkpt>
      <trkpt lat="43.90663" lon="0.15475">
        <ele>118.8</ele>
        <time>2023-07-03T05:35:47Z</time>
      </trkpt>
      <trkpt lat="43.90668" lon="0.15478">
        <ele>119</ele>
        <time>2023-07-03T05:35:53Z</time>
      </trkpt>
      <trkpt lat="43.9067" lon="0.15478">
        <ele>119</ele>
        <time>2023-07-03T05:35:54Z</time>
      </trkpt>
      <trkpt lat="43.90677" lon="0.15478">
        <ele>118.6</ele>
        <time>2023-07-03T05:36:01Z</time>
      </trkpt>
      <trkpt lat="43.9068" lon="0.15479">
        <ele>118.8</ele>
        <time>2023-07-03T05:36:03Z</time>
      </trkpt>
      <trkpt lat="43.90688" lon="0.15479">
        <ele>118.8</ele>
        <time>2023-07-03T05:36:09Z</time>
      </trkpt>
      <trkpt lat="43.90692" lon="0.15479">
        <ele>118.8</ele>
        <time>2023-07-03T05:36:12Z</time>
      </trkpt>
      <trkpt lat="43.90695" lon="0.15479">
        <ele>118.8</ele>
        <time>2023-07-03T05:36:13Z</time>
      </trkpt>
      <trkpt lat="43.90698" lon="0.1548">
        <ele>118.8</ele>
        <time>2023-07-03T05:36:17Z</time>
      </trkpt>
      <trkpt lat="43.907" lon="0.15482">
        <ele>118.4</ele>
        <time>2023-07-03T05:36:20Z</time>
      </trkpt>
      <trkpt lat="43.907" lon="0.15483">
        <ele>118.4</ele>
        <time>2023-07-03T05:36:21Z</time>
      </trkpt>
      <trkpt lat="43.90703" lon="0.15482">
        <ele>118</ele>
        <time>2023-07-03T05:36:24Z</time>
      </trkpt>
      <trkpt lat="43.90707" lon="0.15482">
        <ele>117.2</ele>
        <time>2023-07-03T05:36:29Z</time>
      </trkpt>
      <trkpt lat="43.90711" lon="0.15481">
        <ele>116.8</ele>
        <time>2023-07-03T05:36:32Z</time>
      </trkpt>
      <trkpt lat="43.90714" lon="0.15483">
        <ele>116.6</ele>
        <time>2023-07-03T05:36:35Z</time>
      </trkpt>
      <trkpt lat="43.90716" lon="0.15483">
        <ele>116.6</ele>
        <time>2023-07-03T05:36:36Z</time>
      </trkpt>
      <trkpt lat="43.90717" lon="0.15483">
        <ele>116.4</ele>
        <time>2023-07-03T05:36:37Z</time>
      </trkpt>
      <trkpt lat="43.90719" lon="0.15483">
        <ele>116.2</ele>
        <time>2023-07-03T05:36:38Z</time>
      </trkpt>
      <trkpt lat="43.90722" lon="0.15484">
        <ele>116.2</ele>
        <time>2023-07-03T05:36:39Z</time>
      </trkpt>
      <trkpt lat="43.90727" lon="0.15486">
        <ele>116</ele>
        <time>2023-07-03T05:36:43Z</time>
      </trkpt>
      <trkpt lat="43.90731" lon="0.15488">
        <ele>115.6</ele>
        <time>2023-07-03T05:36:47Z</time>
      </trkpt>
      <trkpt lat="43.90731" lon="0.15489">
        <ele>115.6</ele>
        <time>2023-07-03T05:36:48Z</time>
      </trkpt>
      <trkpt lat="43.90732" lon="0.15491">
        <ele>115.2</ele>
        <time>2023-07-03T05:36:50Z</time>
      </trkpt>
      <trkpt lat="43.90734" lon="0.15491">
        <ele>115</ele>
        <time>2023-07-03T05:36:51Z</time>
      </trkpt>
      <trkpt lat="43.90738" lon="0.15492">
        <ele>114.8</ele>
        <time>2023-07-03T05:36:54Z</time>
      </trkpt>
      <trkpt lat="43.90738" lon="0.15492">
        <ele>114.8</ele>
        <time>2023-07-03T05:36:55Z</time>
      </trkpt>
      <trkpt lat="43.90739" lon="0.15492">
        <ele>114.8</ele>
        <time>2023-07-03T05:36:56Z</time>
      </trkpt>
      <trkpt lat="43.90742" lon="0.15492">
        <ele>114.6</ele>
        <time>2023-07-03T05:36:59Z</time>
      </trkpt>
      <trkpt lat="43.90747" lon="0.15493">
        <ele>114</ele>
        <time>2023-07-03T05:37:02Z</time>
      </trkpt>
      <trkpt lat="43.9075" lon="0.15495">
        <ele>113.6</ele>
        <time>2023-07-03T05:37:05Z</time>
      </trkpt>
      <trkpt lat="43.90751" lon="0.15497">
        <ele>113.6</ele>
        <time>2023-07-03T05:37:07Z</time>
      </trkpt>
      <trkpt lat="43.90751" lon="0.15497">
        <ele>113.6</ele>
        <time>2023-07-03T05:37:08Z</time>
      </trkpt>
      <trkpt lat="43.90752" lon="0.15498">
        <ele>113.6</ele>
        <time>2023-07-03T05:37:09Z</time>
      </trkpt>
      <trkpt lat="43.90752" lon="0.15499">
        <ele>113.4</ele>
        <time>2023-07-03T05:37:11Z</time>
      </trkpt>
      <trkpt lat="43.90754" lon="0.15501">
        <ele>113.2</ele>
        <time>2023-07-03T05:37:13Z</time>
      </trkpt>
      <trkpt lat="43.90755" lon="0.15502">
        <ele>112.8</ele>
        <time>2023-07-03T05:37:16Z</time>
      </trkpt>
      <trkpt lat="43.90757" lon="0.15503">
        <ele>112.6</ele>
        <time>2023-07-03T05:37:18Z</time>
      </trkpt>
      <trkpt lat="43.90759" lon="0.15505">
        <ele>112.4</ele>
        <time>2023-07-03T05:37:21Z</time>
      </trkpt>
      <trkpt lat="43.9076" lon="0.15505">
        <ele>112.4</ele>
        <time>2023-07-03T05:37:22Z</time>
      </trkpt>
      <trkpt lat="43.90764" lon="0.15507">
        <ele>112.4</ele>
        <time>2023-07-03T05:37:25Z</time>
      </trkpt>
      <trkpt lat="43.90772" lon="0.15509">
        <ele>112.2</ele>
        <time>2023-07-03T05:37:29Z</time>
      </trkpt>
      <trkpt lat="43.90772" lon="0.1551">
        <ele>112.2</ele>
        <time>2023-07-03T05:37:30Z</time>
      </trkpt>
      <trkpt lat="43.90773" lon="0.15512">
        <ele>112.2</ele>
        <time>2023-07-03T05:37:33Z</time>
      </trkpt>
      <trkpt lat="43.90777" lon="0.15511">
        <ele>112.4</ele>
        <time>2023-07-03T05:37:35Z</time>
      </trkpt>
      <trkpt lat="43.90778" lon="0.15511">
        <ele>112.4</ele>
        <time>2023-07-03T05:37:36Z</time>
      </trkpt>
      <trkpt lat="43.90781" lon="0.15513">
        <ele>112.2</ele>
        <time>2023-07-03T05:37:39Z</time>
      </trkpt>
      <trkpt lat="43.90787" lon="0.15517">
        <ele>112</ele>
        <time>2023-07-03T05:37:43Z</time>
      </trkpt>
      <trkpt lat="43.90791" lon="0.15519">
        <ele>112</ele>
        <time>2023-07-03T05:37:47Z</time>
      </trkpt>
      <trkpt lat="43.908" lon="0.15525">
        <ele>111.8</ele>
        <time>2023-07-03T05:37:55Z</time>
      </trkpt>
      <trkpt lat="43.90806" lon="0.15525">
        <ele>111.8</ele>
        <time>2023-07-03T05:37:57Z</time>
      </trkpt>
      <trkpt lat="43.90812" lon="0.15529">
        <ele>111.4</ele>
        <time>2023-07-03T05:38:02Z</time>
      </trkpt>
      <trkpt lat="43.90818" lon="0.15534">
        <ele>111.4</ele>
        <time>2023-07-03T05:38:08Z</time>
      </trkpt>
      <trkpt lat="43.9082" lon="0.15536">
        <ele>111.4</ele>
        <time>2023-07-03T05:38:12Z</time>
      </trkpt>
      <trkpt lat="43.9082" lon="0.15537">
        <ele>111.2</ele>
        <time>2023-07-03T05:38:13Z</time>
      </trkpt>
      <trkpt lat="43.90821" lon="0.15538">
        <ele>111.4</ele>
        <time>2023-07-03T05:38:15Z</time>
      </trkpt>
      <trkpt lat="43.90827" lon="0.15544">
        <ele>111.6</ele>
        <time>2023-07-03T05:38:21Z</time>
      </trkpt>
      <trkpt lat="43.9083" lon="0.15549">
        <ele>111.6</ele>
        <time>2023-07-03T05:38:25Z</time>
      </trkpt>
      <trkpt lat="43.90834" lon="0.15552">
        <ele>111.6</ele>
        <time>2023-07-03T05:38:28Z</time>
      </trkpt>
      <trkpt lat="43.90841" lon="0.15561">
        <ele>111.6</ele>
        <time>2023-07-03T05:38:36Z</time>
      </trkpt>
      <trkpt lat="43.90846" lon="0.15568">
        <ele>111.8</ele>
        <time>2023-07-03T05:38:43Z</time>
      </trkpt>
      <trkpt lat="43.90847" lon="0.15568">
        <ele>112</ele>
        <time>2023-07-03T05:38:44Z</time>
      </trkpt>
      <trkpt lat="43.9085" lon="0.15572">
        <ele>112</ele>
        <time>2023-07-03T05:38:48Z</time>
      </trkpt>
      <trkpt lat="43.90851" lon="0.15575">
        <ele>112.4</ele>
        <time>2023-07-03T05:38:51Z</time>
      </trkpt>
      <trkpt lat="43.90851" lon="0.15575">
        <ele>112.4</ele>
        <time>2023-07-03T05:38:52Z</time>
      </trkpt>
      <trkpt lat="43.90858" lon="0.15579">
        <ele>112.6</ele>
        <time>2023-07-03T05:38:59Z</time>
      </trkpt>
      <trkpt lat="43.90861" lon="0.15581">
        <ele>112.8</ele>
        <time>2023-07-03T05:39:02Z</time>
      </trkpt>
      <trkpt lat="43.9087" lon="0.15584">
        <ele>113.4</ele>
        <time>2023-07-03T05:39:08Z</time>
      </trkpt>
      <trkpt lat="43.90883" lon="0.15584">
        <ele>113.6</ele>
        <time>2023-07-03T05:39:14Z</time>
      </trkpt>
      <trkpt lat="43.90887" lon="0.15583">
        <ele>113.6</ele>
        <time>2023-07-03T05:39:16Z</time>
      </trkpt>
      <trkpt lat="43.90888" lon="0.15582">
        <ele>113.8</ele>
        <time>2023-07-03T05:39:17Z</time>
      </trkpt>
      <trkpt lat="43.90888" lon="0.15581">
        <ele>114</ele>
        <time>2023-07-03T05:39:18Z</time>
      </trkpt>
      <trkpt lat="43.90891" lon="0.15574">
        <ele>114</ele>
        <time>2023-07-03T05:39:22Z</time>
      </trkpt>
      <trkpt lat="43.90893" lon="0.15571">
        <ele>114</ele>
        <time>2023-07-03T05:39:24Z</time>
      </trkpt>
      <trkpt lat="43.90895" lon="0.15564">
        <ele>114.2</ele>
        <time>2023-07-03T05:39:28Z</time>
      </trkpt>
      <trkpt lat="43.90897" lon="0.1556">
        <ele>114.2</ele>
        <time>2023-07-03T05:39:31Z</time>
      </trkpt>
      <trkpt lat="43.909" lon="0.15548">
        <ele>114</ele>
        <time>2023-07-03T05:39:37Z</time>
      </trkpt>
      <trkpt lat="43.90904" lon="0.15539">
        <ele>113.6</ele>
        <time>2023-07-03T05:39:44Z</time>
      </trkpt>
      <trkpt lat="43.90905" lon="0.15538">
        <ele>113.4</ele>
        <time>2023-07-03T05:39:45Z</time>
      </trkpt>
      <trkpt lat="43.9091" lon="0.15528">
        <ele>113.2</ele>
        <time>2023-07-03T05:39:53Z</time>
      </trkpt>
      <trkpt lat="43.90911" lon="0.15526">
        <ele>113</ele>
        <time>2023-07-03T05:39:54Z</time>
      </trkpt>
      <trkpt lat="43.90912" lon="0.15523">
        <ele>112.8</ele>
        <time>2023-07-03T05:39:56Z</time>
      </trkpt>
      <trkpt lat="43.90913" lon="0.15522">
        <ele>112.6</ele>
        <time>2023-07-03T05:39:57Z</time>
      </trkpt>
      <trkpt lat="43.90915" lon="0.15521">
        <ele>112.4</ele>
        <time>2023-07-03T05:39:59Z</time>
      </trkpt>
      <trkpt lat="43.90919" lon="0.15512">
        <ele>112</ele>
        <time>2023-07-03T05:40:07Z</time>
      </trkpt>
      <trkpt lat="43.9092" lon="0.15509">
        <ele>111.6</ele>
        <time>2023-07-03T05:40:10Z</time>
      </trkpt>
      <trkpt lat="43.90925" lon="0.15505">
        <ele>111.4</ele>
        <time>2023-07-03T05:40:15Z</time>
      </trkpt>
      <trkpt lat="43.90931" lon="0.15497">
        <ele>110.8</ele>
        <time>2023-07-03T05:40:22Z</time>
      </trkpt>
      <trkpt lat="43.90933" lon="0.15494">
        <ele>110.6</ele>
        <time>2023-07-03T05:40:25Z</time>
      </trkpt>
      <trkpt lat="43.90935" lon="0.1549">
        <ele>110.6</ele>
        <time>2023-07-03T05:40:28Z</time>
      </trkpt>
      <trkpt lat="43.90935" lon="0.15489">
        <ele>110.4</ele>
        <time>2023-07-03T05:40:29Z</time>
      </trkpt>
      <trkpt lat="43.90936" lon="0.15488">
        <ele>110.4</ele>
        <time>2023-07-03T05:40:30Z</time>
      </trkpt>
      <trkpt lat="43.90937" lon="0.15487">
        <ele>110.2</ele>
        <time>2023-07-03T05:40:31Z</time>
      </trkpt>
      <trkpt lat="43.90938" lon="0.15486">
        <ele>110.2</ele>
        <time>2023-07-03T05:40:32Z</time>
      </trkpt>
      <trkpt lat="43.90939" lon="0.15484">
        <ele>110</ele>
        <time>2023-07-03T05:40:34Z</time>
      </trkpt>
      <trkpt lat="43.90942" lon="0.15476">
        <ele>109.8</ele>
        <time>2023-07-03T05:40:39Z</time>
      </trkpt>
      <trkpt lat="43.90943" lon="0.15474">
        <ele>109.6</ele>
        <time>2023-07-03T05:40:40Z</time>
      </trkpt>
      <trkpt lat="43.90943" lon="0.15474">
        <ele>109.4</ele>
        <time>2023-07-03T05:40:41Z</time>
      </trkpt>
      <trkpt lat="43.90944" lon="0.15473">
        <ele>109.4</ele>
        <time>2023-07-03T05:40:42Z</time>
      </trkpt>
      <trkpt lat="43.90944" lon="0.15471">
        <ele>109.4</ele>
        <time>2023-07-03T05:40:43Z</time>
      </trkpt>
      <trkpt lat="43.90946" lon="0.15467">
        <ele>108.8</ele>
        <time>2023-07-03T05:40:47Z</time>
      </trkpt>
      <trkpt lat="43.90946" lon="0.15466">
        <ele>108.8</ele>
        <time>2023-07-03T05:40:48Z</time>
      </trkpt>
      <trkpt lat="43.90948" lon="0.15464">
        <ele>108.8</ele>
        <time>2023-07-03T05:40:50Z</time>
      </trkpt>
      <trkpt lat="43.90951" lon="0.15459">
        <ele>108.6</ele>
        <time>2023-07-03T05:40:53Z</time>
      </trkpt>
      <trkpt lat="43.90955" lon="0.15447">
        <ele>108</ele>
        <time>2023-07-03T05:41:00Z</time>
      </trkpt>
      <trkpt lat="43.90961" lon="0.15437">
        <ele>107.6</ele>
        <time>2023-07-03T05:41:06Z</time>
      </trkpt>
      <trkpt lat="43.90963" lon="0.15432">
        <ele>107</ele>
        <time>2023-07-03T05:41:09Z</time>
      </trkpt>
      <trkpt lat="43.90964" lon="0.15429">
        <ele>106.8</ele>
        <time>2023-07-03T05:41:11Z</time>
      </trkpt>
      <trkpt lat="43.90964" lon="0.15427">
        <ele>106.8</ele>
        <time>2023-07-03T05:41:12Z</time>
      </trkpt>
      <trkpt lat="43.90964" lon="0.15427">
        <ele>106.6</ele>
        <time>2023-07-03T05:41:13Z</time>
      </trkpt>
      <trkpt lat="43.90965" lon="0.15429">
        <ele>106.6</ele>
        <time>2023-07-03T05:41:15Z</time>
      </trkpt>
      <trkpt lat="43.90967" lon="0.15432">
        <ele>106.6</ele>
        <time>2023-07-03T05:41:18Z</time>
      </trkpt>
      <trkpt lat="43.9097" lon="0.15433">
        <ele>106.8</ele>
        <time>2023-07-03T05:41:20Z</time>
      </trkpt>
      <trkpt lat="43.90973" lon="0.15437">
        <ele>106.8</ele>
        <time>2023-07-03T05:41:24Z</time>
      </trkpt>
      <trkpt lat="43.90974" lon="0.15438">
        <ele>106.8</ele>
        <time>2023-07-03T05:41:25Z</time>
      </trkpt>
      <trkpt lat="43.90978" lon="0.1544">
        <ele>106.6</ele>
        <time>2023-07-03T05:41:31Z</time>
      </trkpt>
      <trkpt lat="43.90979" lon="0.15441">
        <ele>106.6</ele>
        <time>2023-07-03T05:41:32Z</time>
      </trkpt>
      <trkpt lat="43.90984" lon="0.15443">
        <ele>106.8</ele>
        <time>2023-07-03T05:41:35Z</time>
      </trkpt>
      <trkpt lat="43.90988" lon="0.15444">
        <ele>107</ele>
        <time>2023-07-03T05:41:37Z</time>
      </trkpt>
      <trkpt lat="43.90997" lon="0.15449">
        <ele>107</ele>
        <time>2023-07-03T05:41:45Z</time>
      </trkpt>
      <trkpt lat="43.91003" lon="0.15457">
        <ele>107.2</ele>
        <time>2023-07-03T05:41:53Z</time>
      </trkpt>
      <trkpt lat="43.91008" lon="0.15464">
        <ele>107.2</ele>
        <time>2023-07-03T05:41:58Z</time>
      </trkpt>
      <trkpt lat="43.91012" lon="0.15467">
        <ele>107.2</ele>
        <time>2023-07-03T05:42:01Z</time>
      </trkpt>
      <trkpt lat="43.91016" lon="0.15469">
        <ele>107.2</ele>
        <time>2023-07-03T05:42:04Z</time>
      </trkpt>
      <trkpt lat="43.91019" lon="0.1547">
        <ele>107</ele>
        <time>2023-07-03T05:42:08Z</time>
      </trkpt>
      <trkpt lat="43.91019" lon="0.1547">
        <ele>107</ele>
        <time>2023-07-03T05:42:09Z</time>
      </trkpt>
      <trkpt lat="43.91021" lon="0.15471">
        <ele>107.2</ele>
        <time>2023-07-03T05:42:11Z</time>
      </trkpt>
      <trkpt lat="43.91022" lon="0.15473">
        <ele>107</ele>
        <time>2023-07-03T05:42:13Z</time>
      </trkpt>
      <trkpt lat="43.91025" lon="0.15474">
        <ele>107</ele>
        <time>2023-07-03T05:42:15Z</time>
      </trkpt>
      <trkpt lat="43.91026" lon="0.15474">
        <ele>107</ele>
        <time>2023-07-03T05:42:16Z</time>
      </trkpt>
      <trkpt lat="43.91037" lon="0.15478">
        <ele>107.2</ele>
        <time>2023-07-03T05:42:22Z</time>
      </trkpt>
      <trkpt lat="43.91044" lon="0.15484">
        <ele>107.2</ele>
        <time>2023-07-03T05:42:27Z</time>
      </trkpt>
      <trkpt lat="43.91047" lon="0.15486">
        <ele>107.2</ele>
        <time>2023-07-03T05:42:29Z</time>
      </trkpt>
      <trkpt lat="43.91049" lon="0.15488">
        <ele>107.2</ele>
        <time>2023-07-03T05:42:31Z</time>
      </trkpt>
      <trkpt lat="43.9105" lon="0.15489">
        <ele>107.4</ele>
        <time>2023-07-03T05:42:33Z</time>
      </trkpt>
      <trkpt lat="43.91055" lon="0.15493">
        <ele>107.4</ele>
        <time>2023-07-03T05:42:36Z</time>
      </trkpt>
      <trkpt lat="43.9106" lon="0.15497">
        <ele>107.4</ele>
        <time>2023-07-03T05:42:40Z</time>
      </trkpt>
      <trkpt lat="43.91063" lon="0.15499">
        <ele>107.2</ele>
        <time>2023-07-03T05:42:43Z</time>
      </trkpt>
      <trkpt lat="43.91064" lon="0.155">
        <ele>107.4</ele>
        <time>2023-07-03T05:42:44Z</time>
      </trkpt>
      <trkpt lat="43.91065" lon="0.15501">
        <ele>107.4</ele>
        <time>2023-07-03T05:42:45Z</time>
      </trkpt>
      <trkpt lat="43.91072" lon="0.15505">
        <ele>107.4</ele>
        <time>2023-07-03T05:42:50Z</time>
      </trkpt>
      <trkpt lat="43.91073" lon="0.15506">
        <ele>107.4</ele>
        <time>2023-07-03T05:42:52Z</time>
      </trkpt>
      <trkpt lat="43.9108" lon="0.15511">
        <ele>107.6</ele>
        <time>2023-07-03T05:42:58Z</time>
      </trkpt>
      <trkpt lat="43.91086" lon="0.15516">
        <ele>107.4</ele>
        <time>2023-07-03T05:43:03Z</time>
      </trkpt>
      <trkpt lat="43.91089" lon="0.15519">
        <ele>107.4</ele>
        <time>2023-07-03T05:43:05Z</time>
      </trkpt>
      <trkpt lat="43.9109" lon="0.1552">
        <ele>107.4</ele>
        <time>2023-07-03T05:43:06Z</time>
      </trkpt>
      <trkpt lat="43.91092" lon="0.15521">
        <ele>107.6</ele>
        <time>2023-07-03T05:43:08Z</time>
      </trkpt>
      <trkpt lat="43.91094" lon="0.15522">
        <ele>107.6</ele>
        <time>2023-07-03T05:43:10Z</time>
      </trkpt>
      <trkpt lat="43.91098" lon="0.15525">
        <ele>107.6</ele>
        <time>2023-07-03T05:43:14Z</time>
      </trkpt>
      <trkpt lat="43.91104" lon="0.15528">
        <ele>107.8</ele>
        <time>2023-07-03T05:43:18Z</time>
      </trkpt>
      <trkpt lat="43.91105" lon="0.15528">
        <ele>107.8</ele>
        <time>2023-07-03T05:43:19Z</time>
      </trkpt>
      <trkpt lat="43.91106" lon="0.15528">
        <ele>107.8</ele>
        <time>2023-07-03T05:43:20Z</time>
      </trkpt>
      <trkpt lat="43.91112" lon="0.15532">
        <ele>107.8</ele>
        <time>2023-07-03T05:43:24Z</time>
      </trkpt>
      <trkpt lat="43.91114" lon="0.15535">
        <ele>107.6</ele>
        <time>2023-07-03T05:43:27Z</time>
      </trkpt>
      <trkpt lat="43.91115" lon="0.15536">
        <ele>107.6</ele>
        <time>2023-07-03T05:43:28Z</time>
      </trkpt>
      <trkpt lat="43.91117" lon="0.15538">
        <ele>107.8</ele>
        <time>2023-07-03T05:43:30Z</time>
      </trkpt>
      <trkpt lat="43.91121" lon="0.15544">
        <ele>108</ele>
        <time>2023-07-03T05:43:35Z</time>
      </trkpt>
      <trkpt lat="43.91129" lon="0.15551">
        <ele>107.8</ele>
        <time>2023-07-03T05:43:42Z</time>
      </trkpt>
      <trkpt lat="43.91133" lon="0.15555">
        <ele>107.8</ele>
        <time>2023-07-03T05:43:46Z</time>
      </trkpt>
      <trkpt lat="43.91141" lon="0.15559">
        <ele>107.8</ele>
        <time>2023-07-03T05:43:51Z</time>
      </trkpt>
      <trkpt lat="43.91149" lon="0.15566">
        <ele>108</ele>
        <time>2023-07-03T05:43:59Z</time>
      </trkpt>
      <trkpt lat="43.91162" lon="0.1557">
        <ele>108.2</ele>
        <time>2023-07-03T05:44:07Z</time>
      </trkpt>
      <trkpt lat="43.91171" lon="0.15578">
        <ele>108.6</ele>
        <time>2023-07-03T05:44:14Z</time>
      </trkpt>
      <trkpt lat="43.91173" lon="0.15582">
        <ele>108.6</ele>
        <time>2023-07-03T05:44:17Z</time>
      </trkpt>
      <trkpt lat="43.91176" lon="0.15588">
        <ele>108.6</ele>
        <time>2023-07-03T05:44:21Z</time>
      </trkpt>
      <trkpt lat="43.91176" lon="0.1559">
        <ele>108.6</ele>
        <time>2023-07-03T05:44:22Z</time>
      </trkpt>
      <trkpt lat="43.91177" lon="0.15596">
        <ele>109.2</ele>
        <time>2023-07-03T05:44:25Z</time>
      </trkpt>
      <trkpt lat="43.91177" lon="0.15598">
        <ele>109.2</ele>
        <time>2023-07-03T05:44:26Z</time>
      </trkpt>
      <trkpt lat="43.91177" lon="0.15599">
        <ele>109.2</ele>
        <time>2023-07-03T05:44:27Z</time>
      </trkpt>
      <trkpt lat="43.91177" lon="0.15603">
        <ele>109.4</ele>
        <time>2023-07-03T05:44:29Z</time>
      </trkpt>
      <trkpt lat="43.91175" lon="0.15613">
        <ele>109.6</ele>
        <time>2023-07-03T05:44:35Z</time>
      </trkpt>
      <trkpt lat="43.91175" lon="0.15615">
        <ele>109.6</ele>
        <time>2023-07-03T05:44:36Z</time>
      </trkpt>
      <trkpt lat="43.91175" lon="0.15619">
        <ele>109.6</ele>
        <time>2023-07-03T05:44:38Z</time>
      </trkpt>
      <trkpt lat="43.91174" lon="0.15626">
        <ele>110</ele>
        <time>2023-07-03T05:44:42Z</time>
      </trkpt>
      <trkpt lat="43.91172" lon="0.15629">
        <ele>110</ele>
        <time>2023-07-03T05:44:44Z</time>
      </trkpt>
      <trkpt lat="43.9117" lon="0.15637">
        <ele>110.4</ele>
        <time>2023-07-03T05:44:49Z</time>
      </trkpt>
      <trkpt lat="43.9117" lon="0.15639">
        <ele>110.6</ele>
        <time>2023-07-03T05:44:50Z</time>
      </trkpt>
      <trkpt lat="43.91169" lon="0.15641">
        <ele>110.8</ele>
        <time>2023-07-03T05:44:52Z</time>
      </trkpt>
      <trkpt lat="43.91164" lon="0.15649">
        <ele>111.2</ele>
        <time>2023-07-03T05:44:58Z</time>
      </trkpt>
      <trkpt lat="43.91159" lon="0.15656">
        <ele>111.8</ele>
        <time>2023-07-03T05:45:04Z</time>
      </trkpt>
      <trkpt lat="43.91157" lon="0.15659">
        <ele>112</ele>
        <time>2023-07-03T05:45:06Z</time>
      </trkpt>
      <trkpt lat="43.91151" lon="0.1567">
        <ele>112.4</ele>
        <time>2023-07-03T05:45:13Z</time>
      </trkpt>
      <trkpt lat="43.91149" lon="0.15672">
        <ele>112.8</ele>
        <time>2023-07-03T05:45:15Z</time>
      </trkpt>
      <trkpt lat="43.91149" lon="0.15674">
        <ele>112.6</ele>
        <time>2023-07-03T05:45:16Z</time>
      </trkpt>
      <trkpt lat="43.91144" lon="0.15679">
        <ele>112.8</ele>
        <time>2023-07-03T05:45:21Z</time>
      </trkpt>
      <trkpt lat="43.91134" lon="0.15688">
        <ele>112.6</ele>
        <time>2023-07-03T05:45:30Z</time>
      </trkpt>
      <trkpt lat="43.91133" lon="0.15689">
        <ele>112.6</ele>
        <time>2023-07-03T05:45:31Z</time>
      </trkpt>
      <trkpt lat="43.91126" lon="0.15704">
        <ele>112.4</ele>
        <time>2023-07-03T05:45:40Z</time>
      </trkpt>
      <trkpt lat="43.91124" lon="0.15719">
        <ele>112.8</ele>
        <time>2023-07-03T05:45:48Z</time>
      </trkpt>
      <trkpt lat="43.91121" lon="0.15737">
        <ele>113</ele>
        <time>2023-07-03T05:45:58Z</time>
      </trkpt>
      <trkpt lat="43.91121" lon="0.15739">
        <ele>113</ele>
        <time>2023-07-03T05:45:59Z</time>
      </trkpt>
      <trkpt lat="43.91119" lon="0.15755">
        <ele>113</ele>
        <time>2023-07-03T05:46:08Z</time>
      </trkpt>
      <trkpt lat="43.91119" lon="0.15759">
        <ele>113</ele>
        <time>2023-07-03T05:46:10Z</time>
      </trkpt>
      <trkpt lat="43.91117" lon="0.15775">
        <ele>113.6</ele>
        <time>2023-07-03T05:46:20Z</time>
      </trkpt>
      <trkpt lat="43.91116" lon="0.15781">
        <ele>113.8</ele>
        <time>2023-07-03T05:46:23Z</time>
      </trkpt>
      <trkpt lat="43.91115" lon="0.15786">
        <ele>114</ele>
        <time>2023-07-03T05:46:26Z</time>
      </trkpt>
      <trkpt lat="43.91114" lon="0.15793">
        <ele>114.2</ele>
        <time>2023-07-03T05:46:30Z</time>
      </trkpt>
      <trkpt lat="43.91113" lon="0.1581">
        <ele>114.8</ele>
        <time>2023-07-03T05:46:39Z</time>
      </trkpt>
      <trkpt lat="43.91113" lon="0.15812">
        <ele>114.8</ele>
        <time>2023-07-03T05:46:40Z</time>
      </trkpt>
      <trkpt lat="43.91112" lon="0.15828">
        <ele>115</ele>
        <time>2023-07-03T05:46:49Z</time>
      </trkpt>
      <trkpt lat="43.91112" lon="0.15838">
        <ele>115.2</ele>
        <time>2023-07-03T05:46:55Z</time>
      </trkpt>
      <trkpt lat="43.91112" lon="0.1584">
        <ele>115.2</ele>
        <time>2023-07-03T05:46:56Z</time>
      </trkpt>
      <trkpt lat="43.91111" lon="0.15845">
        <ele>115.2</ele>
        <time>2023-07-03T05:46:59Z</time>
      </trkpt>
      <trkpt lat="43.9111" lon="0.15858">
        <ele>115.8</ele>
        <time>2023-07-03T05:47:06Z</time>
      </trkpt>
      <trkpt lat="43.9111" lon="0.1586">
        <ele>115.8</ele>
        <time>2023-07-03T05:47:07Z</time>
      </trkpt>
      <trkpt lat="43.9111" lon="0.15862">
        <ele>116</ele>
        <time>2023-07-03T05:47:08Z</time>
      </trkpt>
      <trkpt lat="43.9111" lon="0.15868">
        <ele>115.8</ele>
        <time>2023-07-03T05:47:11Z</time>
      </trkpt>
      <trkpt lat="43.9111" lon="0.15881">
        <ele>116.4</ele>
        <time>2023-07-03T05:47:19Z</time>
      </trkpt>
      <trkpt lat="43.9111" lon="0.15886">
        <ele>116.6</ele>
        <time>2023-07-03T05:47:22Z</time>
      </trkpt>
      <trkpt lat="43.91109" lon="0.15892">
        <ele>116.8</ele>
        <time>2023-07-03T05:47:25Z</time>
      </trkpt>
      <trkpt lat="43.91109" lon="0.15899">
        <ele>117</ele>
        <time>2023-07-03T05:47:29Z</time>
      </trkpt>
      <trkpt lat="43.91108" lon="0.15913">
        <ele>117.4</ele>
        <time>2023-07-03T05:47:37Z</time>
      </trkpt>
      <trkpt lat="43.91107" lon="0.1592">
        <ele>117.8</ele>
        <time>2023-07-03T05:47:41Z</time>
      </trkpt>
      <trkpt lat="43.91107" lon="0.15922">
        <ele>117.8</ele>
        <time>2023-07-03T05:47:42Z</time>
      </trkpt>
      <trkpt lat="43.91107" lon="0.15927">
        <ele>118.2</ele>
        <time>2023-07-03T05:47:45Z</time>
      </trkpt>
      <trkpt lat="43.91107" lon="0.15934">
        <ele>118.2</ele>
        <time>2023-07-03T05:47:50Z</time>
      </trkpt>
      <trkpt lat="43.91107" lon="0.1594">
        <ele>118.6</ele>
        <time>2023-07-03T05:47:54Z</time>
      </trkpt>
      <trkpt lat="43.91112" lon="0.15955">
        <ele>119</ele>
        <time>2023-07-03T05:48:03Z</time>
      </trkpt>
      <trkpt lat="43.91113" lon="0.15957">
        <ele>119</ele>
        <time>2023-07-03T05:48:04Z</time>
      </trkpt>
      <trkpt lat="43.91115" lon="0.1597">
        <ele>119.2</ele>
        <time>2023-07-03T05:48:12Z</time>
      </trkpt>
      <trkpt lat="43.91119" lon="0.15985">
        <ele>119.2</ele>
        <time>2023-07-03T05:48:20Z</time>
      </trkpt>
      <trkpt lat="43.91123" lon="0.15996">
        <ele>119.4</ele>
        <time>2023-07-03T05:48:27Z</time>
      </trkpt>
      <trkpt lat="43.91127" lon="0.16005">
        <ele>120</ele>
        <time>2023-07-03T05:48:32Z</time>
      </trkpt>
      <trkpt lat="43.91128" lon="0.1601">
        <ele>120.2</ele>
        <time>2023-07-03T05:48:35Z</time>
      </trkpt>
      <trkpt lat="43.91128" lon="0.16014">
        <ele>120.2</ele>
        <time>2023-07-03T05:48:37Z</time>
      </trkpt>
      <trkpt lat="43.91128" lon="0.16017">
        <ele>120.6</ele>
        <time>2023-07-03T05:48:39Z</time>
      </trkpt>
      <trkpt lat="43.91128" lon="0.16019">
        <ele>120.4</ele>
        <time>2023-07-03T05:48:40Z</time>
      </trkpt>
      <trkpt lat="43.91128" lon="0.1602">
        <ele>120.4</ele>
        <time>2023-07-03T05:48:41Z</time>
      </trkpt>
      <trkpt lat="43.91128" lon="0.16024">
        <ele>120.4</ele>
        <time>2023-07-03T05:48:43Z</time>
      </trkpt>
      <trkpt lat="43.91131" lon="0.1603">
        <ele>120.2</ele>
        <time>2023-07-03T05:48:46Z</time>
      </trkpt>
      <trkpt lat="43.91131" lon="0.16035">
        <ele>120.4</ele>
        <time>2023-07-03T05:48:49Z</time>
      </trkpt>
      <trkpt lat="43.91133" lon="0.16041">
        <ele>120.6</ele>
        <time>2023-07-03T05:48:52Z</time>
      </trkpt>
      <trkpt lat="43.91135" lon="0.16047">
        <ele>120.8</ele>
        <time>2023-07-03T05:48:56Z</time>
      </trkpt>
      <trkpt lat="43.91135" lon="0.16052">
        <ele>120.8</ele>
        <time>2023-07-03T05:48:59Z</time>
      </trkpt>
      <trkpt lat="43.91135" lon="0.16062">
        <ele>120.8</ele>
        <time>2023-07-03T05:49:04Z</time>
      </trkpt>
      <trkpt lat="43.91135" lon="0.16065">
        <ele>121</ele>
        <time>2023-07-03T05:49:06Z</time>
      </trkpt>
      <trkpt lat="43.91134" lon="0.16069">
        <ele>121.2</ele>
        <time>2023-07-03T05:49:08Z</time>
      </trkpt>
      <trkpt lat="43.91134" lon="0.16071">
        <ele>121.4</ele>
        <time>2023-07-03T05:49:09Z</time>
      </trkpt>
      <trkpt lat="43.91134" lon="0.16077">
        <ele>121.4</ele>
        <time>2023-07-03T05:49:12Z</time>
      </trkpt>
      <trkpt lat="43.91133" lon="0.16085">
        <ele>121.6</ele>
        <time>2023-07-03T05:49:17Z</time>
      </trkpt>
      <trkpt lat="43.91136" lon="0.161">
        <ele>122</ele>
        <time>2023-07-03T05:49:25Z</time>
      </trkpt>
      <trkpt lat="43.91137" lon="0.16105">
        <ele>122</ele>
        <time>2023-07-03T05:49:28Z</time>
      </trkpt>
      <trkpt lat="43.91138" lon="0.16108">
        <ele>122.2</ele>
        <time>2023-07-03T05:49:30Z</time>
      </trkpt>
      <trkpt lat="43.91139" lon="0.1612">
        <ele>122.6</ele>
        <time>2023-07-03T05:49:37Z</time>
      </trkpt>
      <trkpt lat="43.91139" lon="0.16132">
        <ele>123</ele>
        <time>2023-07-03T05:49:44Z</time>
      </trkpt>
      <trkpt lat="43.91139" lon="0.16136">
        <ele>123.2</ele>
        <time>2023-07-03T05:49:47Z</time>
      </trkpt>
      <trkpt lat="43.9114" lon="0.16144">
        <ele>123.6</ele>
        <time>2023-07-03T05:49:51Z</time>
      </trkpt>
      <trkpt lat="43.91141" lon="0.16149">
        <ele>124</ele>
        <time>2023-07-03T05:49:54Z</time>
      </trkpt>
      <trkpt lat="43.91141" lon="0.16151">
        <ele>124.2</ele>
        <time>2023-07-03T05:49:55Z</time>
      </trkpt>
      <trkpt lat="43.91141" lon="0.16158">
        <ele>124.6</ele>
        <time>2023-07-03T05:50:00Z</time>
      </trkpt>
      <trkpt lat="43.91141" lon="0.16161">
        <ele>124.8</ele>
        <time>2023-07-03T05:50:02Z</time>
      </trkpt>
      <trkpt lat="43.91141" lon="0.16166">
        <ele>125.4</ele>
        <time>2023-07-03T05:50:05Z</time>
      </trkpt>
      <trkpt lat="43.91141" lon="0.16177">
        <ele>126</ele>
        <time>2023-07-03T05:50:11Z</time>
      </trkpt>
      <trkpt lat="43.91141" lon="0.16182">
        <ele>126.4</ele>
        <time>2023-07-03T05:50:14Z</time>
      </trkpt>
      <trkpt lat="43.91139" lon="0.16193">
        <ele>127.4</ele>
        <time>2023-07-03T05:50:21Z</time>
      </trkpt>
      <trkpt lat="43.91139" lon="0.16194">
        <ele>127.6</ele>
        <time>2023-07-03T05:50:22Z</time>
      </trkpt>
      <trkpt lat="43.91139" lon="0.16196">
        <ele>127.8</ele>
        <time>2023-07-03T05:50:23Z</time>
      </trkpt>
      <trkpt lat="43.91139" lon="0.16199">
        <ele>128.2</ele>
        <time>2023-07-03T05:50:25Z</time>
      </trkpt>
      <trkpt lat="43.91138" lon="0.16206">
        <ele>128.8</ele>
        <time>2023-07-03T05:50:29Z</time>
      </trkpt>
      <trkpt lat="43.91138" lon="0.16211">
        <ele>128.8</ele>
        <time>2023-07-03T05:50:32Z</time>
      </trkpt>
      <trkpt lat="43.91138" lon="0.16213">
        <ele>128.8</ele>
        <time>2023-07-03T05:50:33Z</time>
      </trkpt>
      <trkpt lat="43.91138" lon="0.16221">
        <ele>129.8</ele>
        <time>2023-07-03T05:50:38Z</time>
      </trkpt>
      <trkpt lat="43.91138" lon="0.16228">
        <ele>130.4</ele>
        <time>2023-07-03T05:50:42Z</time>
      </trkpt>
      <trkpt lat="43.91138" lon="0.16229">
        <ele>130.4</ele>
        <time>2023-07-03T05:50:43Z</time>
      </trkpt>
      <trkpt lat="43.91137" lon="0.16234">
        <ele>130.8</ele>
        <time>2023-07-03T05:50:46Z</time>
      </trkpt>
      <trkpt lat="43.91136" lon="0.16246">
        <ele>131.8</ele>
        <time>2023-07-03T05:50:53Z</time>
      </trkpt>
      <trkpt lat="43.91133" lon="0.1626">
        <ele>132.8</ele>
        <time>2023-07-03T05:51:02Z</time>
      </trkpt>
      <trkpt lat="43.91132" lon="0.16262">
        <ele>133</ele>
        <time>2023-07-03T05:51:03Z</time>
      </trkpt>
      <trkpt lat="43.91132" lon="0.16272">
        <ele>134</ele>
        <time>2023-07-03T05:51:09Z</time>
      </trkpt>
      <trkpt lat="43.91131" lon="0.16281">
        <ele>135.2</ele>
        <time>2023-07-03T05:51:15Z</time>
      </trkpt>
      <trkpt lat="43.9113" lon="0.16282">
        <ele>135.2</ele>
        <time>2023-07-03T05:51:16Z</time>
      </trkpt>
      <trkpt lat="43.91131" lon="0.16287">
        <ele>135.6</ele>
        <time>2023-07-03T05:51:19Z</time>
      </trkpt>
      <trkpt lat="43.91131" lon="0.16289">
        <ele>135.6</ele>
        <time>2023-07-03T05:51:22Z</time>
      </trkpt>
      <trkpt lat="43.91133" lon="0.16291">
        <ele>136.2</ele>
        <time>2023-07-03T05:51:26Z</time>
      </trkpt>
      <trkpt lat="43.91134" lon="0.16292">
        <ele>136.2</ele>
        <time>2023-07-03T05:51:27Z</time>
      </trkpt>
      <trkpt lat="43.91142" lon="0.16291">
        <ele>136.6</ele>
        <time>2023-07-03T05:51:33Z</time>
      </trkpt>
      <trkpt lat="43.91144" lon="0.16292">
        <ele>136.6</ele>
        <time>2023-07-03T05:51:35Z</time>
      </trkpt>
      <trkpt lat="43.91146" lon="0.16298">
        <ele>136.4</ele>
        <time>2023-07-03T05:51:39Z</time>
      </trkpt>
      <trkpt lat="43.91142" lon="0.16301">
        <ele>136.4</ele>
        <time>2023-07-03T05:51:44Z</time>
      </trkpt>
      <trkpt lat="43.91141" lon="0.16301">
        <ele>136.6</ele>
        <time>2023-07-03T05:51:45Z</time>
      </trkpt>
      <trkpt lat="43.91133" lon="0.16304">
        <ele>136.8</ele>
        <time>2023-07-03T05:51:52Z</time>
      </trkpt>
      <trkpt lat="43.91131" lon="0.16306">
        <ele>136.8</ele>
        <time>2023-07-03T05:51:54Z</time>
      </trkpt>
      <trkpt lat="43.91129" lon="0.16318">
        <ele>137</ele>
        <time>2023-07-03T05:52:00Z</time>
      </trkpt>
      <trkpt lat="43.91128" lon="0.16324">
        <ele>137.4</ele>
        <time>2023-07-03T05:52:03Z</time>
      </trkpt>
      <trkpt lat="43.91128" lon="0.16327">
        <ele>137.4</ele>
        <time>2023-07-03T05:52:04Z</time>
      </trkpt>
      <trkpt lat="43.91127" lon="0.16333">
        <ele>137.4</ele>
        <time>2023-07-03T05:52:07Z</time>
      </trkpt>
      <trkpt lat="43.91126" lon="0.16339">
        <ele>137.4</ele>
        <time>2023-07-03T05:52:10Z</time>
      </trkpt>
      <trkpt lat="43.91124" lon="0.1635">
        <ele>137.2</ele>
        <time>2023-07-03T05:52:16Z</time>
      </trkpt>
      <trkpt lat="43.91123" lon="0.16363">
        <ele>137.4</ele>
        <time>2023-07-03T05:52:24Z</time>
      </trkpt>
      <trkpt lat="43.91122" lon="0.16365">
        <ele>137.4</ele>
        <time>2023-07-03T05:52:25Z</time>
      </trkpt>
      <trkpt lat="43.9112" lon="0.1638">
        <ele>138</ele>
        <time>2023-07-03T05:52:34Z</time>
      </trkpt>
      <trkpt lat="43.9112" lon="0.16382">
        <ele>138</ele>
        <time>2023-07-03T05:52:35Z</time>
      </trkpt>
      <trkpt lat="43.9112" lon="0.16384">
        <ele>138</ele>
        <time>2023-07-03T05:52:36Z</time>
      </trkpt>
      <trkpt lat="43.91119" lon="0.16391">
        <ele>138.2</ele>
        <time>2023-07-03T05:52:40Z</time>
      </trkpt>
      <trkpt lat="43.91118" lon="0.16402">
        <ele>138</ele>
        <time>2023-07-03T05:52:46Z</time>
      </trkpt>
      <trkpt lat="43.91117" lon="0.16412">
        <ele>138.4</ele>
        <time>2023-07-03T05:52:52Z</time>
      </trkpt>
      <trkpt lat="43.91117" lon="0.16415">
        <ele>138.4</ele>
        <time>2023-07-03T05:52:54Z</time>
      </trkpt>
      <trkpt lat="43.91116" lon="0.1642">
        <ele>138.6</ele>
        <time>2023-07-03T05:52:57Z</time>
      </trkpt>
      <trkpt lat="43.91115" lon="0.16432">
        <ele>138.8</ele>
        <time>2023-07-03T05:53:04Z</time>
      </trkpt>
      <trkpt lat="43.91114" lon="0.16439">
        <ele>138.6</ele>
        <time>2023-07-03T05:53:08Z</time>
      </trkpt>
      <trkpt lat="43.91112" lon="0.16454">
        <ele>138.8</ele>
        <time>2023-07-03T05:53:16Z</time>
      </trkpt>
      <trkpt lat="43.91112" lon="0.16455">
        <ele>138.8</ele>
        <time>2023-07-03T05:53:17Z</time>
      </trkpt>
      <trkpt lat="43.91111" lon="0.16466">
        <ele>138.8</ele>
        <time>2023-07-03T05:53:22Z</time>
      </trkpt>
      <trkpt lat="43.91111" lon="0.16473">
        <ele>139.2</ele>
        <time>2023-07-03T05:53:26Z</time>
      </trkpt>
      <trkpt lat="43.9111" lon="0.16475">
        <ele>139.2</ele>
        <time>2023-07-03T05:53:27Z</time>
      </trkpt>
      <trkpt lat="43.91109" lon="0.16478">
        <ele>139.2</ele>
        <time>2023-07-03T05:53:29Z</time>
      </trkpt>
      <trkpt lat="43.91108" lon="0.16487">
        <ele>139.4</ele>
        <time>2023-07-03T05:53:34Z</time>
      </trkpt>
      <trkpt lat="43.91108" lon="0.16489">
        <ele>139.4</ele>
        <time>2023-07-03T05:53:35Z</time>
      </trkpt>
      <trkpt lat="43.91108" lon="0.1649">
        <ele>139.4</ele>
        <time>2023-07-03T05:53:36Z</time>
      </trkpt>
      <trkpt lat="43.91107" lon="0.16499">
        <ele>139.4</ele>
        <time>2023-07-03T05:53:42Z</time>
      </trkpt>
      <trkpt lat="43.91105" lon="0.16505">
        <ele>139.2</ele>
        <time>2023-07-03T05:53:46Z</time>
      </trkpt>
      <trkpt lat="43.91103" lon="0.16516">
        <ele>139.2</ele>
        <time>2023-07-03T05:53:53Z</time>
      </trkpt>
      <trkpt lat="43.91099" lon="0.16528">
        <ele>139</ele>
        <time>2023-07-03T05:54:01Z</time>
      </trkpt>
      <trkpt lat="43.91098" lon="0.16536">
        <ele>139</ele>
        <time>2023-07-03T05:54:06Z</time>
      </trkpt>
      <trkpt lat="43.91098" lon="0.16538">
        <ele>139</ele>
        <time>2023-07-03T05:54:07Z</time>
      </trkpt>
      <trkpt lat="43.911" lon="0.16543">
        <ele>139</ele>
        <time>2023-07-03T05:54:11Z</time>
      </trkpt>
      <trkpt lat="43.91099" lon="0.1655">
        <ele>139.2</ele>
        <time>2023-07-03T05:54:14Z</time>
      </trkpt>
      <trkpt lat="43.91099" lon="0.16551">
        <ele>139</ele>
        <time>2023-07-03T05:54:15Z</time>
      </trkpt>
      <trkpt lat="43.91097" lon="0.16563">
        <ele>139.2</ele>
        <time>2023-07-03T05:54:21Z</time>
      </trkpt>
      <trkpt lat="43.91098" lon="0.16567">
        <ele>139.2</ele>
        <time>2023-07-03T05:54:23Z</time>
      </trkpt>
      <trkpt lat="43.91096" lon="0.16576">
        <ele>139.4</ele>
        <time>2023-07-03T05:54:29Z</time>
      </trkpt>
      <trkpt lat="43.91089" lon="0.16574">
        <ele>139.6</ele>
        <time>2023-07-03T05:54:34Z</time>
      </trkpt>
      <trkpt lat="43.91079" lon="0.16568">
        <ele>139.8</ele>
        <time>2023-07-03T05:54:43Z</time>
      </trkpt>
      <trkpt lat="43.91075" lon="0.16568">
        <ele>140</ele>
        <time>2023-07-03T05:54:46Z</time>
      </trkpt>
      <trkpt lat="43.9107" lon="0.16567">
        <ele>140.2</ele>
        <time>2023-07-03T05:54:50Z</time>
      </trkpt>
      <trkpt lat="43.91068" lon="0.16566">
        <ele>140.4</ele>
        <time>2023-07-03T05:54:51Z</time>
      </trkpt>
      <trkpt lat="43.91067" lon="0.16565">
        <ele>140.4</ele>
        <time>2023-07-03T05:54:52Z</time>
      </trkpt>
      <trkpt lat="43.91062" lon="0.16563">
        <ele>140.4</ele>
        <time>2023-07-03T05:54:56Z</time>
      </trkpt>
      <trkpt lat="43.91057" lon="0.16563">
        <ele>140.6</ele>
        <time>2023-07-03T05:54:59Z</time>
      </trkpt>
      <trkpt lat="43.91048" lon="0.16561">
        <ele>140.6</ele>
        <time>2023-07-03T05:55:07Z</time>
      </trkpt>
      <trkpt lat="43.91036" lon="0.16561">
        <ele>140.8</ele>
        <time>2023-07-03T05:55:15Z</time>
      </trkpt>
      <trkpt lat="43.91031" lon="0.16562">
        <ele>140.6</ele>
        <time>2023-07-03T05:55:20Z</time>
      </trkpt>
      <trkpt lat="43.9103" lon="0.16562">
        <ele>140.6</ele>
        <time>2023-07-03T05:55:21Z</time>
      </trkpt>
      <trkpt lat="43.91028" lon="0.16562">
        <ele>140.6</ele>
        <time>2023-07-03T05:55:23Z</time>
      </trkpt>
      <trkpt lat="43.91019" lon="0.16562">
        <ele>141</ele>
        <time>2023-07-03T05:55:29Z</time>
      </trkpt>
      <trkpt lat="43.91011" lon="0.16563">
        <ele>141</ele>
        <time>2023-07-03T05:55:36Z</time>
      </trkpt>
      <trkpt lat="43.91001" lon="0.16561">
        <ele>140.4</ele>
        <time>2023-07-03T05:55:44Z</time>
      </trkpt>
      <trkpt lat="43.90994" lon="0.1656">
        <ele>140.4</ele>
        <time>2023-07-03T05:55:49Z</time>
      </trkpt>
      <trkpt lat="43.9099" lon="0.1656">
        <ele>140.2</ele>
        <time>2023-07-03T05:55:52Z</time>
      </trkpt>
      <trkpt lat="43.90977" lon="0.16561">
        <ele>139.4</ele>
        <time>2023-07-03T05:56:02Z</time>
      </trkpt>
      <trkpt lat="43.90975" lon="0.16562">
        <ele>139.4</ele>
        <time>2023-07-03T05:56:03Z</time>
      </trkpt>
      <trkpt lat="43.90973" lon="0.16561">
        <ele>139.2</ele>
        <time>2023-07-03T05:56:05Z</time>
      </trkpt>
      <trkpt lat="43.90968" lon="0.16558">
        <ele>138.8</ele>
        <time>2023-07-03T05:56:09Z</time>
      </trkpt>
      <trkpt lat="43.90966" lon="0.16558">
        <ele>138.8</ele>
        <time>2023-07-03T05:56:10Z</time>
      </trkpt>
      <trkpt lat="43.90956" lon="0.16557">
        <ele>138.2</ele>
        <time>2023-07-03T05:56:18Z</time>
      </trkpt>
      <trkpt lat="43.90954" lon="0.16556">
        <ele>138.2</ele>
        <time>2023-07-03T05:56:19Z</time>
      </trkpt>
      <trkpt lat="43.90949" lon="0.16558">
        <ele>137.8</ele>
        <time>2023-07-03T05:56:23Z</time>
      </trkpt>
      <trkpt lat="43.90945" lon="0.1656">
        <ele>137.4</ele>
        <time>2023-07-03T05:56:26Z</time>
      </trkpt>
      <trkpt lat="43.90944" lon="0.16565">
        <ele>137.4</ele>
        <time>2023-07-03T05:56:28Z</time>
      </trkpt>
      <trkpt lat="43.90944" lon="0.16573">
        <ele>137.4</ele>
        <time>2023-07-03T05:56:31Z</time>
      </trkpt>
      <trkpt lat="43.9095" lon="0.16587">
        <ele>137.2</ele>
        <time>2023-07-03T05:56:39Z</time>
      </trkpt>
      <trkpt lat="43.9095" lon="0.16588">
        <ele>137.2</ele>
        <time>2023-07-03T05:56:40Z</time>
      </trkpt>
      <trkpt lat="43.90952" lon="0.16602">
        <ele>137</ele>
        <time>2023-07-03T05:56:48Z</time>
      </trkpt>
      <trkpt lat="43.90963" lon="0.16617">
        <ele>136.6</ele>
        <time>2023-07-03T05:56:58Z</time>
      </trkpt>
      <trkpt lat="43.90966" lon="0.16621">
        <ele>136.6</ele>
        <time>2023-07-03T05:57:00Z</time>
      </trkpt>
      <trkpt lat="43.90971" lon="0.16627">
        <ele>136.4</ele>
        <time>2023-07-03T05:57:04Z</time>
      </trkpt>
      <trkpt lat="43.90973" lon="0.16631">
        <ele>136.4</ele>
        <time>2023-07-03T05:57:06Z</time>
      </trkpt>
      <trkpt lat="43.90974" lon="0.16632">
        <ele>136.4</ele>
        <time>2023-07-03T05:57:07Z</time>
      </trkpt>
      <trkpt lat="43.90975" lon="0.16634">
        <ele>136.4</ele>
        <time>2023-07-03T05:57:08Z</time>
      </trkpt>
      <trkpt lat="43.90981" lon="0.16641">
        <ele>136.4</ele>
        <time>2023-07-03T05:57:13Z</time>
      </trkpt>
      <trkpt lat="43.90983" lon="0.16644">
        <ele>136.4</ele>
        <time>2023-07-03T05:57:15Z</time>
      </trkpt>
      <trkpt lat="43.90986" lon="0.16653">
        <ele>136.6</ele>
        <time>2023-07-03T05:57:21Z</time>
      </trkpt>
      <trkpt lat="43.9099" lon="0.16665">
        <ele>136.2</ele>
        <time>2023-07-03T05:57:29Z</time>
      </trkpt>
      <trkpt lat="43.90994" lon="0.16671">
        <ele>136.2</ele>
        <time>2023-07-03T05:57:33Z</time>
      </trkpt>
      <trkpt lat="43.90996" lon="0.16676">
        <ele>136</ele>
        <time>2023-07-03T05:57:36Z</time>
      </trkpt>
      <trkpt lat="43.90997" lon="0.16678">
        <ele>136</ele>
        <time>2023-07-03T05:57:37Z</time>
      </trkpt>
      <trkpt lat="43.90999" lon="0.16681">
        <ele>136</ele>
        <time>2023-07-03T05:57:39Z</time>
      </trkpt>
      <trkpt lat="43.91003" lon="0.16692">
        <ele>135.6</ele>
        <time>2023-07-03T05:57:46Z</time>
      </trkpt>
      <trkpt lat="43.91012" lon="0.16704">
        <ele>135.6</ele>
        <time>2023-07-03T05:57:54Z</time>
      </trkpt>
      <trkpt lat="43.91017" lon="0.16714">
        <ele>135.6</ele>
        <time>2023-07-03T05:58:00Z</time>
      </trkpt>
      <trkpt lat="43.9102" lon="0.16719">
        <ele>135.6</ele>
        <time>2023-07-03T05:58:04Z</time>
      </trkpt>
      <trkpt lat="43.91029" lon="0.16736">
        <ele>135.2</ele>
        <time>2023-07-03T05:58:15Z</time>
      </trkpt>
      <trkpt lat="43.91034" lon="0.16749">
        <ele>135</ele>
        <time>2023-07-03T05:58:23Z</time>
      </trkpt>
      <trkpt lat="43.91036" lon="0.16753">
        <ele>135</ele>
        <time>2023-07-03T05:58:25Z</time>
      </trkpt>
      <trkpt lat="43.91043" lon="0.16767">
        <ele>134.6</ele>
        <time>2023-07-03T05:58:34Z</time>
      </trkpt>
      <trkpt lat="43.91043" lon="0.16768">
        <ele>134.4</ele>
        <time>2023-07-03T05:58:35Z</time>
      </trkpt>
      <trkpt lat="43.91049" lon="0.16779">
        <ele>134.4</ele>
        <time>2023-07-03T05:58:42Z</time>
      </trkpt>
      <trkpt lat="43.91057" lon="0.16793">
        <ele>134.2</ele>
        <time>2023-07-03T05:58:52Z</time>
      </trkpt>
      <trkpt lat="43.91062" lon="0.16806">
        <ele>134</ele>
        <time>2023-07-03T05:58:59Z</time>
      </trkpt>
      <trkpt lat="43.91069" lon="0.16823">
        <ele>133.8</ele>
        <time>2023-07-03T05:59:09Z</time>
      </trkpt>
      <trkpt lat="43.91075" lon="0.16833">
        <ele>133.6</ele>
        <time>2023-07-03T05:59:17Z</time>
      </trkpt>
      <trkpt lat="43.9108" lon="0.16839">
        <ele>133.4</ele>
        <time>2023-07-03T05:59:22Z</time>
      </trkpt>
      <trkpt lat="43.91081" lon="0.16842">
        <ele>133.6</ele>
        <time>2023-07-03T05:59:24Z</time>
      </trkpt>
      <trkpt lat="43.91084" lon="0.16844">
        <ele>133.4</ele>
        <time>2023-07-03T05:59:25Z</time>
      </trkpt>
      <trkpt lat="43.91091" lon="0.16851">
        <ele>133.2</ele>
        <time>2023-07-03T05:59:31Z</time>
      </trkpt>
      <trkpt lat="43.91094" lon="0.16854">
        <ele>133.2</ele>
        <time>2023-07-03T05:59:33Z</time>
      </trkpt>
      <trkpt lat="43.91098" lon="0.1686">
        <ele>133</ele>
        <time>2023-07-03T05:59:37Z</time>
      </trkpt>
      <trkpt lat="43.911" lon="0.16865">
        <ele>133</ele>
        <time>2023-07-03T05:59:40Z</time>
      </trkpt>
      <trkpt lat="43.91102" lon="0.1687">
        <ele>133</ele>
        <time>2023-07-03T05:59:43Z</time>
      </trkpt>
      <trkpt lat="43.91107" lon="0.16877">
        <ele>133</ele>
        <time>2023-07-03T05:59:47Z</time>
      </trkpt>
      <trkpt lat="43.91109" lon="0.1688">
        <ele>132.8</ele>
        <time>2023-07-03T05:59:49Z</time>
      </trkpt>
      <trkpt lat="43.91115" lon="0.16891">
        <ele>132.8</ele>
        <time>2023-07-03T05:59:56Z</time>
      </trkpt>
      <trkpt lat="43.91118" lon="0.16896">
        <ele>132.8</ele>
        <time>2023-07-03T06:00:00Z</time>
      </trkpt>
      <trkpt lat="43.91119" lon="0.16896">
        <ele>132.8</ele>
        <time>2023-07-03T06:00:05Z</time>
      </trkpt>
      <trkpt lat="43.91119" lon="0.16897">
        <ele>132.8</ele>
        <time>2023-07-03T06:00:06Z</time>
      </trkpt>
      <trkpt lat="43.91123" lon="0.16906">
        <ele>132.8</ele>
        <time>2023-07-03T06:00:12Z</time>
      </trkpt>
      <trkpt lat="43.91124" lon="0.16907">
        <ele>132.6</ele>
        <time>2023-07-03T06:00:13Z</time>
      </trkpt>
      <trkpt lat="43.91129" lon="0.16918">
        <ele>132.4</ele>
        <time>2023-07-03T06:00:19Z</time>
      </trkpt>
      <trkpt lat="43.9113" lon="0.16919">
        <ele>132.4</ele>
        <time>2023-07-03T06:00:20Z</time>
      </trkpt>
      <trkpt lat="43.91137" lon="0.16928">
        <ele>132.2</ele>
        <time>2023-07-03T06:00:26Z</time>
      </trkpt>
      <trkpt lat="43.91137" lon="0.1693">
        <ele>132</ele>
        <time>2023-07-03T06:00:27Z</time>
      </trkpt>
      <trkpt lat="43.91141" lon="0.16939">
        <ele>131.8</ele>
        <time>2023-07-03T06:00:33Z</time>
      </trkpt>
      <trkpt lat="43.91142" lon="0.16942">
        <ele>131.6</ele>
        <time>2023-07-03T06:00:35Z</time>
      </trkpt>
      <trkpt lat="43.91143" lon="0.16946">
        <ele>131.4</ele>
        <time>2023-07-03T06:00:37Z</time>
      </trkpt>
      <trkpt lat="43.91145" lon="0.16953">
        <ele>130.8</ele>
        <time>2023-07-03T06:00:41Z</time>
      </trkpt>
      <trkpt lat="43.91148" lon="0.16961">
        <ele>130.6</ele>
        <time>2023-07-03T06:00:46Z</time>
      </trkpt>
      <trkpt lat="43.91154" lon="0.16975">
        <ele>129.8</ele>
        <time>2023-07-03T06:00:54Z</time>
      </trkpt>
      <trkpt lat="43.91155" lon="0.16979">
        <ele>129.6</ele>
        <time>2023-07-03T06:00:56Z</time>
      </trkpt>
      <trkpt lat="43.91159" lon="0.16987">
        <ele>129.2</ele>
        <time>2023-07-03T06:01:01Z</time>
      </trkpt>
      <trkpt lat="43.91163" lon="0.16995">
        <ele>128.8</ele>
        <time>2023-07-03T06:01:06Z</time>
      </trkpt>
      <trkpt lat="43.91164" lon="0.16997">
        <ele>128.8</ele>
        <time>2023-07-03T06:01:07Z</time>
      </trkpt>
      <trkpt lat="43.91171" lon="0.17009">
        <ele>127.6</ele>
        <time>2023-07-03T06:01:14Z</time>
      </trkpt>
      <trkpt lat="43.91174" lon="0.17014">
        <ele>127.4</ele>
        <time>2023-07-03T06:01:17Z</time>
      </trkpt>
      <trkpt lat="43.91176" lon="0.17017">
        <ele>127.2</ele>
        <time>2023-07-03T06:01:19Z</time>
      </trkpt>
      <trkpt lat="43.91184" lon="0.17032">
        <ele>126.4</ele>
        <time>2023-07-03T06:01:29Z</time>
      </trkpt>
      <trkpt lat="43.91184" lon="0.17034">
        <ele>126.2</ele>
        <time>2023-07-03T06:01:30Z</time>
      </trkpt>
      <trkpt lat="43.91194" lon="0.17053">
        <ele>125.4</ele>
        <time>2023-07-03T06:01:41Z</time>
      </trkpt>
      <trkpt lat="43.91195" lon="0.17054">
        <ele>125.2</ele>
        <time>2023-07-03T06:01:42Z</time>
      </trkpt>
      <trkpt lat="43.91197" lon="0.17059">
        <ele>125</ele>
        <time>2023-07-03T06:01:45Z</time>
      </trkpt>
      <trkpt lat="43.91204" lon="0.17071">
        <ele>124.2</ele>
        <time>2023-07-03T06:01:53Z</time>
      </trkpt>
      <trkpt lat="43.91208" lon="0.1708">
        <ele>123.8</ele>
        <time>2023-07-03T06:01:58Z</time>
      </trkpt>
      <trkpt lat="43.91213" lon="0.17089">
        <ele>123.6</ele>
        <time>2023-07-03T06:02:03Z</time>
      </trkpt>
      <trkpt lat="43.91216" lon="0.17094">
        <ele>123.2</ele>
        <time>2023-07-03T06:02:06Z</time>
      </trkpt>
      <trkpt lat="43.91223" lon="0.17107">
        <ele>122.2</ele>
        <time>2023-07-03T06:02:14Z</time>
      </trkpt>
      <trkpt lat="43.91224" lon="0.17109">
        <ele>122</ele>
        <time>2023-07-03T06:02:15Z</time>
      </trkpt>
      <trkpt lat="43.91232" lon="0.17124">
        <ele>121.2</ele>
        <time>2023-07-03T06:02:24Z</time>
      </trkpt>
      <trkpt lat="43.91234" lon="0.17128">
        <ele>120.8</ele>
        <time>2023-07-03T06:02:27Z</time>
      </trkpt>
      <trkpt lat="43.91237" lon="0.17133">
        <ele>120.6</ele>
        <time>2023-07-03T06:02:30Z</time>
      </trkpt>
      <trkpt lat="43.91238" lon="0.17135">
        <ele>120.6</ele>
        <time>2023-07-03T06:02:31Z</time>
      </trkpt>
      <trkpt lat="43.9124" lon="0.17139">
        <ele>120.4</ele>
        <time>2023-07-03T06:02:34Z</time>
      </trkpt>
      <trkpt lat="43.91242" lon="0.17144">
        <ele>120</ele>
        <time>2023-07-03T06:02:37Z</time>
      </trkpt>
      <trkpt lat="43.91244" lon="0.17148">
        <ele>120</ele>
        <time>2023-07-03T06:02:39Z</time>
      </trkpt>
      <trkpt lat="43.91248" lon="0.17156">
        <ele>119.6</ele>
        <time>2023-07-03T06:02:44Z</time>
      </trkpt>
      <trkpt lat="43.91248" lon="0.17158">
        <ele>119.4</ele>
        <time>2023-07-03T06:02:45Z</time>
      </trkpt>
      <trkpt lat="43.9125" lon="0.17161">
        <ele>119.2</ele>
        <time>2023-07-03T06:02:47Z</time>
      </trkpt>
      <trkpt lat="43.91253" lon="0.17166">
        <ele>119.2</ele>
        <time>2023-07-03T06:02:50Z</time>
      </trkpt>
      <trkpt lat="43.91254" lon="0.17169">
        <ele>119.2</ele>
        <time>2023-07-03T06:02:52Z</time>
      </trkpt>
      <trkpt lat="43.91256" lon="0.17171">
        <ele>119.2</ele>
        <time>2023-07-03T06:02:53Z</time>
      </trkpt>
      <trkpt lat="43.91258" lon="0.17174">
        <ele>119</ele>
        <time>2023-07-03T06:02:55Z</time>
      </trkpt>
      <trkpt lat="43.9126" lon="0.17177">
        <ele>118.4</ele>
        <time>2023-07-03T06:02:57Z</time>
      </trkpt>
      <trkpt lat="43.91261" lon="0.17181">
        <ele>118.2</ele>
        <time>2023-07-03T06:02:59Z</time>
      </trkpt>
      <trkpt lat="43.91267" lon="0.17191">
        <ele>118</ele>
        <time>2023-07-03T06:03:05Z</time>
      </trkpt>
      <trkpt lat="43.91267" lon="0.17192">
        <ele>118</ele>
        <time>2023-07-03T06:03:06Z</time>
      </trkpt>
      <trkpt lat="43.91271" lon="0.172">
        <ele>118</ele>
        <time>2023-07-03T06:03:10Z</time>
      </trkpt>
      <trkpt lat="43.91271" lon="0.172">
        <ele>117.8</ele>
        <time>2023-07-03T06:03:11Z</time>
      </trkpt>
      <trkpt lat="43.91273" lon="0.17205">
        <ele>117.6</ele>
        <time>2023-07-03T06:03:14Z</time>
      </trkpt>
      <trkpt lat="43.91281" lon="0.17221">
        <ele>116.8</ele>
        <time>2023-07-03T06:03:24Z</time>
      </trkpt>
      <trkpt lat="43.91282" lon="0.17223">
        <ele>116.8</ele>
        <time>2023-07-03T06:03:25Z</time>
      </trkpt>
      <trkpt lat="43.91288" lon="0.17234">
        <ele>116.4</ele>
        <time>2023-07-03T06:03:32Z</time>
      </trkpt>
      <trkpt lat="43.91298" lon="0.17249">
        <ele>115.8</ele>
        <time>2023-07-03T06:03:41Z</time>
      </trkpt>
      <trkpt lat="43.91305" lon="0.17257">
        <ele>115.4</ele>
        <time>2023-07-03T06:03:46Z</time>
      </trkpt>
      <trkpt lat="43.91308" lon="0.1726">
        <ele>115.2</ele>
        <time>2023-07-03T06:03:48Z</time>
      </trkpt>
      <trkpt lat="43.91309" lon="0.17261">
        <ele>115.2</ele>
        <time>2023-07-03T06:03:49Z</time>
      </trkpt>
      <trkpt lat="43.91311" lon="0.17267">
        <ele>114.8</ele>
        <time>2023-07-03T06:03:53Z</time>
      </trkpt>
      <trkpt lat="43.91315" lon="0.17271">
        <ele>114.6</ele>
        <time>2023-07-03T06:03:56Z</time>
      </trkpt>
      <trkpt lat="43.91324" lon="0.17286">
        <ele>114.4</ele>
        <time>2023-07-03T06:04:04Z</time>
      </trkpt>
      <trkpt lat="43.91327" lon="0.1729">
        <ele>114</ele>
        <time>2023-07-03T06:04:07Z</time>
      </trkpt>
      <trkpt lat="43.91329" lon="0.17296">
        <ele>113.6</ele>
        <time>2023-07-03T06:04:10Z</time>
      </trkpt>
      <trkpt lat="43.9133" lon="0.17298">
        <ele>113.6</ele>
        <time>2023-07-03T06:04:11Z</time>
      </trkpt>
      <trkpt lat="43.91334" lon="0.17308">
        <ele>113.2</ele>
        <time>2023-07-03T06:04:16Z</time>
      </trkpt>
      <trkpt lat="43.91334" lon="0.17309">
        <ele>113.2</ele>
        <time>2023-07-03T06:04:17Z</time>
      </trkpt>
      <trkpt lat="43.91341" lon="0.17317">
        <ele>112.8</ele>
        <time>2023-07-03T06:04:23Z</time>
      </trkpt>
      <trkpt lat="43.91343" lon="0.17321">
        <ele>112.6</ele>
        <time>2023-07-03T06:04:25Z</time>
      </trkpt>
      <trkpt lat="43.91348" lon="0.1733">
        <ele>112.4</ele>
        <time>2023-07-03T06:04:30Z</time>
      </trkpt>
      <trkpt lat="43.91352" lon="0.17339">
        <ele>112</ele>
        <time>2023-07-03T06:04:36Z</time>
      </trkpt>
      <trkpt lat="43.91353" lon="0.17341">
        <ele>112</ele>
        <time>2023-07-03T06:04:37Z</time>
      </trkpt>
      <trkpt lat="43.91359" lon="0.1735">
        <ele>111.6</ele>
        <time>2023-07-03T06:04:43Z</time>
      </trkpt>
      <trkpt lat="43.9136" lon="0.17352">
        <ele>111.6</ele>
        <time>2023-07-03T06:04:44Z</time>
      </trkpt>
      <trkpt lat="43.91366" lon="0.17364">
        <ele>111.4</ele>
        <time>2023-07-03T06:04:51Z</time>
      </trkpt>
      <trkpt lat="43.91368" lon="0.1737">
        <ele>111.2</ele>
        <time>2023-07-03T06:04:55Z</time>
      </trkpt>
      <trkpt lat="43.9137" lon="0.17374">
        <ele>111</ele>
        <time>2023-07-03T06:04:58Z</time>
      </trkpt>
      <trkpt lat="43.91372" lon="0.17377">
        <ele>111</ele>
        <time>2023-07-03T06:05:00Z</time>
      </trkpt>
      <trkpt lat="43.91379" lon="0.17387">
        <ele>110.6</ele>
        <time>2023-07-03T06:05:07Z</time>
      </trkpt>
      <trkpt lat="43.91381" lon="0.17393">
        <ele>110.6</ele>
        <time>2023-07-03T06:05:10Z</time>
      </trkpt>
      <trkpt lat="43.91383" lon="0.17398">
        <ele>110.4</ele>
        <time>2023-07-03T06:05:13Z</time>
      </trkpt>
      <trkpt lat="43.91384" lon="0.174">
        <ele>110.2</ele>
        <time>2023-07-03T06:05:15Z</time>
      </trkpt>
      <trkpt lat="43.91388" lon="0.17409">
        <ele>110.2</ele>
        <time>2023-07-03T06:05:20Z</time>
      </trkpt>
      <trkpt lat="43.91394" lon="0.17422">
        <ele>110.4</ele>
        <time>2023-07-03T06:05:27Z</time>
      </trkpt>
      <trkpt lat="43.91398" lon="0.17433">
        <ele>110</ele>
        <time>2023-07-03T06:05:33Z</time>
      </trkpt>
      <trkpt lat="43.91402" lon="0.1744">
        <ele>110</ele>
        <time>2023-07-03T06:05:37Z</time>
      </trkpt>
      <trkpt lat="43.91403" lon="0.17441">
        <ele>110</ele>
        <time>2023-07-03T06:05:38Z</time>
      </trkpt>
      <trkpt lat="43.91406" lon="0.17443">
        <ele>110</ele>
        <time>2023-07-03T06:05:40Z</time>
      </trkpt>
      <trkpt lat="43.91412" lon="0.17448">
        <ele>109.8</ele>
        <time>2023-07-03T06:05:44Z</time>
      </trkpt>
      <trkpt lat="43.91414" lon="0.17451">
        <ele>109.8</ele>
        <time>2023-07-03T06:05:46Z</time>
      </trkpt>
      <trkpt lat="43.9142" lon="0.17461">
        <ele>109.8</ele>
        <time>2023-07-03T06:05:52Z</time>
      </trkpt>
      <trkpt lat="43.91426" lon="0.17477">
        <ele>109.6</ele>
        <time>2023-07-03T06:06:00Z</time>
      </trkpt>
      <trkpt lat="43.91429" lon="0.17482">
        <ele>110</ele>
        <time>2023-07-03T06:06:03Z</time>
      </trkpt>
      <trkpt lat="43.91433" lon="0.17492">
        <ele>109.8</ele>
        <time>2023-07-03T06:06:09Z</time>
      </trkpt>
      <trkpt lat="43.91434" lon="0.175">
        <ele>109.8</ele>
        <time>2023-07-03T06:06:14Z</time>
      </trkpt>
      <trkpt lat="43.91435" lon="0.17502">
        <ele>109.8</ele>
        <time>2023-07-03T06:06:15Z</time>
      </trkpt>
      <trkpt lat="43.91436" lon="0.17505">
        <ele>109.8</ele>
        <time>2023-07-03T06:06:17Z</time>
      </trkpt>
      <trkpt lat="43.91441" lon="0.1752">
        <ele>109.8</ele>
        <time>2023-07-03T06:06:26Z</time>
      </trkpt>
      <trkpt lat="43.91446" lon="0.17532">
        <ele>110</ele>
        <time>2023-07-03T06:06:33Z</time>
      </trkpt>
      <trkpt lat="43.91451" lon="0.17546">
        <ele>110</ele>
        <time>2023-07-03T06:06:41Z</time>
      </trkpt>
      <trkpt lat="43.91455" lon="0.17552">
        <ele>109.8</ele>
        <time>2023-07-03T06:06:45Z</time>
      </trkpt>
      <trkpt lat="43.91461" lon="0.1756">
        <ele>109.8</ele>
        <time>2023-07-03T06:06:50Z</time>
      </trkpt>
      <trkpt lat="43.91469" lon="0.17572">
        <ele>109.8</ele>
        <time>2023-07-03T06:06:58Z</time>
      </trkpt>
      <trkpt lat="43.91474" lon="0.17581">
        <ele>109.6</ele>
        <time>2023-07-03T06:07:04Z</time>
      </trkpt>
      <trkpt lat="43.91476" lon="0.17586">
        <ele>109.6</ele>
        <time>2023-07-03T06:07:07Z</time>
      </trkpt>
      <trkpt lat="43.9148" lon="0.17601">
        <ele>110</ele>
        <time>2023-07-03T06:07:15Z</time>
      </trkpt>
      <trkpt lat="43.91485" lon="0.17612">
        <ele>109.6</ele>
        <time>2023-07-03T06:07:22Z</time>
      </trkpt>
      <trkpt lat="43.9149" lon="0.17625">
        <ele>109.6</ele>
        <time>2023-07-03T06:07:30Z</time>
      </trkpt>
      <trkpt lat="43.91497" lon="0.1764">
        <ele>109.6</ele>
        <time>2023-07-03T06:07:39Z</time>
      </trkpt>
      <trkpt lat="43.91497" lon="0.17642">
        <ele>109.6</ele>
        <time>2023-07-03T06:07:40Z</time>
      </trkpt>
      <trkpt lat="43.91503" lon="0.17654">
        <ele>109.4</ele>
        <time>2023-07-03T06:07:47Z</time>
      </trkpt>
      <trkpt lat="43.91511" lon="0.17664">
        <ele>109.4</ele>
        <time>2023-07-03T06:07:54Z</time>
      </trkpt>
      <trkpt lat="43.91515" lon="0.17672">
        <ele>109.4</ele>
        <time>2023-07-03T06:07:59Z</time>
      </trkpt>
      <trkpt lat="43.91517" lon="0.17676">
        <ele>109.2</ele>
        <time>2023-07-03T06:08:02Z</time>
      </trkpt>
      <trkpt lat="43.91521" lon="0.17682">
        <ele>109.4</ele>
        <time>2023-07-03T06:08:06Z</time>
      </trkpt>
      <trkpt lat="43.91528" lon="0.1769">
        <ele>109.4</ele>
        <time>2023-07-03T06:08:12Z</time>
      </trkpt>
      <trkpt lat="43.91531" lon="0.17697">
        <ele>109.4</ele>
        <time>2023-07-03T06:08:15Z</time>
      </trkpt>
      <trkpt lat="43.91532" lon="0.177">
        <ele>109.4</ele>
        <time>2023-07-03T06:08:18Z</time>
      </trkpt>
      <trkpt lat="43.91536" lon="0.17705">
        <ele>109.4</ele>
        <time>2023-07-03T06:08:21Z</time>
      </trkpt>
      <trkpt lat="43.91542" lon="0.17718">
        <ele>109.2</ele>
        <time>2023-07-03T06:08:29Z</time>
      </trkpt>
      <trkpt lat="43.91549" lon="0.17732">
        <ele>109.2</ele>
        <time>2023-07-03T06:08:38Z</time>
      </trkpt>
      <trkpt lat="43.91557" lon="0.17742">
        <ele>109.2</ele>
        <time>2023-07-03T06:08:45Z</time>
      </trkpt>
      <trkpt lat="43.91564" lon="0.17758">
        <ele>108.8</ele>
        <time>2023-07-03T06:08:55Z</time>
      </trkpt>
      <trkpt lat="43.91571" lon="0.17775">
        <ele>109</ele>
        <time>2023-07-03T06:09:05Z</time>
      </trkpt>
      <trkpt lat="43.91578" lon="0.17786">
        <ele>109</ele>
        <time>2023-07-03T06:09:13Z</time>
      </trkpt>
      <trkpt lat="43.91578" lon="0.17788">
        <ele>109.2</ele>
        <time>2023-07-03T06:09:14Z</time>
      </trkpt>
      <trkpt lat="43.9158" lon="0.17792">
        <ele>109</ele>
        <time>2023-07-03T06:09:17Z</time>
      </trkpt>
      <trkpt lat="43.91582" lon="0.17797">
        <ele>109</ele>
        <time>2023-07-03T06:09:20Z</time>
      </trkpt>
      <trkpt lat="43.91583" lon="0.17799">
        <ele>108.8</ele>
        <time>2023-07-03T06:09:21Z</time>
      </trkpt>
      <trkpt lat="43.91589" lon="0.17807">
        <ele>108.6</ele>
        <time>2023-07-03T06:09:27Z</time>
      </trkpt>
      <trkpt lat="43.91596" lon="0.17815">
        <ele>108.4</ele>
        <time>2023-07-03T06:09:33Z</time>
      </trkpt>
      <trkpt lat="43.91602" lon="0.17824">
        <ele>108.4</ele>
        <time>2023-07-03T06:09:39Z</time>
      </trkpt>
      <trkpt lat="43.91602" lon="0.17826">
        <ele>108.4</ele>
        <time>2023-07-03T06:09:40Z</time>
      </trkpt>
      <trkpt lat="43.91603" lon="0.1783">
        <ele>108.2</ele>
        <time>2023-07-03T06:09:42Z</time>
      </trkpt>
      <trkpt lat="43.91605" lon="0.17838">
        <ele>108</ele>
        <time>2023-07-03T06:09:46Z</time>
      </trkpt>
      <trkpt lat="43.91606" lon="0.17839">
        <ele>108</ele>
        <time>2023-07-03T06:09:47Z</time>
      </trkpt>
      <trkpt lat="43.9161" lon="0.17846">
        <ele>108</ele>
        <time>2023-07-03T06:09:51Z</time>
      </trkpt>
      <trkpt lat="43.91612" lon="0.17849">
        <ele>108</ele>
        <time>2023-07-03T06:09:53Z</time>
      </trkpt>
      <trkpt lat="43.91613" lon="0.17851">
        <ele>108.2</ele>
        <time>2023-07-03T06:09:54Z</time>
      </trkpt>
      <trkpt lat="43.91614" lon="0.17855">
        <ele>108.2</ele>
        <time>2023-07-03T06:09:56Z</time>
      </trkpt>
      <trkpt lat="43.91619" lon="0.17865">
        <ele>108</ele>
        <time>2023-07-03T06:10:03Z</time>
      </trkpt>
      <trkpt lat="43.91621" lon="0.17867">
        <ele>108</ele>
        <time>2023-07-03T06:10:05Z</time>
      </trkpt>
      <trkpt lat="43.91627" lon="0.17876">
        <ele>107.8</ele>
        <time>2023-07-03T06:10:11Z</time>
      </trkpt>
      <trkpt lat="43.91629" lon="0.17879">
        <ele>107.8</ele>
        <time>2023-07-03T06:10:13Z</time>
      </trkpt>
      <trkpt lat="43.91632" lon="0.17885">
        <ele>107.8</ele>
        <time>2023-07-03T06:10:16Z</time>
      </trkpt>
      <trkpt lat="43.91636" lon="0.17889">
        <ele>108</ele>
        <time>2023-07-03T06:10:19Z</time>
      </trkpt>
      <trkpt lat="43.91637" lon="0.1789">
        <ele>108</ele>
        <time>2023-07-03T06:10:20Z</time>
      </trkpt>
      <trkpt lat="43.91641" lon="0.17897">
        <ele>108</ele>
        <time>2023-07-03T06:10:25Z</time>
      </trkpt>
      <trkpt lat="43.91641" lon="0.17899">
        <ele>108</ele>
        <time>2023-07-03T06:10:26Z</time>
      </trkpt>
      <trkpt lat="43.91646" lon="0.17904">
        <ele>108</ele>
        <time>2023-07-03T06:10:30Z</time>
      </trkpt>
      <trkpt lat="43.91647" lon="0.17905">
        <ele>108</ele>
        <time>2023-07-03T06:10:31Z</time>
      </trkpt>
      <trkpt lat="43.91648" lon="0.17907">
        <ele>108</ele>
        <time>2023-07-03T06:10:32Z</time>
      </trkpt>
      <trkpt lat="43.91649" lon="0.17913">
        <ele>108</ele>
        <time>2023-07-03T06:10:35Z</time>
      </trkpt>
      <trkpt lat="43.91653" lon="0.1792">
        <ele>108</ele>
        <time>2023-07-03T06:10:39Z</time>
      </trkpt>
      <trkpt lat="43.91654" lon="0.17921">
        <ele>108</ele>
        <time>2023-07-03T06:10:40Z</time>
      </trkpt>
      <trkpt lat="43.91658" lon="0.17934">
        <ele>108.2</ele>
        <time>2023-07-03T06:10:47Z</time>
      </trkpt>
      <trkpt lat="43.91665" lon="0.17948">
        <ele>108</ele>
        <time>2023-07-03T06:10:56Z</time>
      </trkpt>
      <trkpt lat="43.91673" lon="0.1796">
        <ele>108</ele>
        <time>2023-07-03T06:11:04Z</time>
      </trkpt>
      <trkpt lat="43.91676" lon="0.17963">
        <ele>108</ele>
        <time>2023-07-03T06:11:06Z</time>
      </trkpt>
      <trkpt lat="43.91679" lon="0.17967">
        <ele>108</ele>
        <time>2023-07-03T06:11:10Z</time>
      </trkpt>
      <trkpt lat="43.9168" lon="0.17968">
        <ele>108</ele>
        <time>2023-07-03T06:11:11Z</time>
      </trkpt>
      <trkpt lat="43.91686" lon="0.17977">
        <ele>108</ele>
        <time>2023-07-03T06:11:17Z</time>
      </trkpt>
      <trkpt lat="43.91687" lon="0.17978">
        <ele>108</ele>
        <time>2023-07-03T06:11:18Z</time>
      </trkpt>
      <trkpt lat="43.91692" lon="0.17989">
        <ele>108</ele>
        <time>2023-07-03T06:11:24Z</time>
      </trkpt>
      <trkpt lat="43.91696" lon="0.17994">
        <ele>108</ele>
        <time>2023-07-03T06:11:27Z</time>
      </trkpt>
      <trkpt lat="43.917" lon="0.18">
        <ele>107.6</ele>
        <time>2023-07-03T06:11:31Z</time>
      </trkpt>
      <trkpt lat="43.91707" lon="0.1801">
        <ele>107.8</ele>
        <time>2023-07-03T06:11:37Z</time>
      </trkpt>
      <trkpt lat="43.91709" lon="0.18012">
        <ele>107.8</ele>
        <time>2023-07-03T06:11:39Z</time>
      </trkpt>
      <trkpt lat="43.91711" lon="0.18024">
        <ele>108</ele>
        <time>2023-07-03T06:11:45Z</time>
      </trkpt>
      <trkpt lat="43.91712" lon="0.18026">
        <ele>108</ele>
        <time>2023-07-03T06:11:46Z</time>
      </trkpt>
      <trkpt lat="43.91719" lon="0.18037">
        <ele>107.8</ele>
        <time>2023-07-03T06:11:53Z</time>
      </trkpt>
      <trkpt lat="43.91723" lon="0.18046">
        <ele>108</ele>
        <time>2023-07-03T06:11:59Z</time>
      </trkpt>
      <trkpt lat="43.91726" lon="0.18051">
        <ele>108</ele>
        <time>2023-07-03T06:12:02Z</time>
      </trkpt>
      <trkpt lat="43.91729" lon="0.18058">
        <ele>108.2</ele>
        <time>2023-07-03T06:12:06Z</time>
      </trkpt>
      <trkpt lat="43.91736" lon="0.18068">
        <ele>108</ele>
        <time>2023-07-03T06:12:13Z</time>
      </trkpt>
      <trkpt lat="43.91737" lon="0.1807">
        <ele>108</ele>
        <time>2023-07-03T06:12:14Z</time>
      </trkpt>
      <trkpt lat="43.9174" lon="0.18078">
        <ele>108</ele>
        <time>2023-07-03T06:12:19Z</time>
      </trkpt>
      <trkpt lat="43.91745" lon="0.1809">
        <ele>108</ele>
        <time>2023-07-03T06:12:26Z</time>
      </trkpt>
      <trkpt lat="43.91749" lon="0.18098">
        <ele>108</ele>
        <time>2023-07-03T06:12:31Z</time>
      </trkpt>
      <trkpt lat="43.91751" lon="0.18101">
        <ele>107.8</ele>
        <time>2023-07-03T06:12:33Z</time>
      </trkpt>
      <trkpt lat="43.91757" lon="0.18111">
        <ele>108</ele>
        <time>2023-07-03T06:12:39Z</time>
      </trkpt>
      <trkpt lat="43.91759" lon="0.18119">
        <ele>107.8</ele>
        <time>2023-07-03T06:12:43Z</time>
      </trkpt>
      <trkpt lat="43.91763" lon="0.18123">
        <ele>107.8</ele>
        <time>2023-07-03T06:12:46Z</time>
      </trkpt>
      <trkpt lat="43.91768" lon="0.18134">
        <ele>107.8</ele>
        <time>2023-07-03T06:12:53Z</time>
      </trkpt>
      <trkpt lat="43.91773" lon="0.18146">
        <ele>107.8</ele>
        <time>2023-07-03T06:13:00Z</time>
      </trkpt>
      <trkpt lat="43.91775" lon="0.18154">
        <ele>108</ele>
        <time>2023-07-03T06:13:04Z</time>
      </trkpt>
      <trkpt lat="43.91775" lon="0.18155">
        <ele>108</ele>
        <time>2023-07-03T06:13:05Z</time>
      </trkpt>
      <trkpt lat="43.91776" lon="0.18159">
        <ele>108</ele>
        <time>2023-07-03T06:13:07Z</time>
      </trkpt>
      <trkpt lat="43.91779" lon="0.18172">
        <ele>108</ele>
        <time>2023-07-03T06:13:15Z</time>
      </trkpt>
      <trkpt lat="43.91781" lon="0.18176">
        <ele>108</ele>
        <time>2023-07-03T06:13:17Z</time>
      </trkpt>
      <trkpt lat="43.91785" lon="0.18179">
        <ele>107.8</ele>
        <time>2023-07-03T06:13:19Z</time>
      </trkpt>
      <trkpt lat="43.9179" lon="0.18182">
        <ele>107.8</ele>
        <time>2023-07-03T06:13:21Z</time>
      </trkpt>
      <trkpt lat="43.91792" lon="0.18183">
        <ele>107.6</ele>
        <time>2023-07-03T06:13:22Z</time>
      </trkpt>
      <trkpt lat="43.91795" lon="0.18186">
        <ele>107.6</ele>
        <time>2023-07-03T06:13:24Z</time>
      </trkpt>
      <trkpt lat="43.91797" lon="0.18189">
        <ele>107.6</ele>
        <time>2023-07-03T06:13:26Z</time>
      </trkpt>
      <trkpt lat="43.91801" lon="0.18195">
        <ele>107.8</ele>
        <time>2023-07-03T06:13:30Z</time>
      </trkpt>
      <trkpt lat="43.91803" lon="0.18198">
        <ele>107.8</ele>
        <time>2023-07-03T06:13:32Z</time>
      </trkpt>
      <trkpt lat="43.91804" lon="0.18202">
        <ele>107.8</ele>
        <time>2023-07-03T06:13:34Z</time>
      </trkpt>
      <trkpt lat="43.91806" lon="0.18207">
        <ele>108</ele>
        <time>2023-07-03T06:13:37Z</time>
      </trkpt>
      <trkpt lat="43.9181" lon="0.18213">
        <ele>107.8</ele>
        <time>2023-07-03T06:13:41Z</time>
      </trkpt>
      <trkpt lat="43.91813" lon="0.18218">
        <ele>107.8</ele>
        <time>2023-07-03T06:13:44Z</time>
      </trkpt>
      <trkpt lat="43.91816" lon="0.18226">
        <ele>107.6</ele>
        <time>2023-07-03T06:13:49Z</time>
      </trkpt>
      <trkpt lat="43.91818" lon="0.18232">
        <ele>107.6</ele>
        <time>2023-07-03T06:13:53Z</time>
      </trkpt>
      <trkpt lat="43.91821" lon="0.1824">
        <ele>107.2</ele>
        <time>2023-07-03T06:13:58Z</time>
      </trkpt>
      <trkpt lat="43.91822" lon="0.18245">
        <ele>107.2</ele>
        <time>2023-07-03T06:14:01Z</time>
      </trkpt>
      <trkpt lat="43.91823" lon="0.18247">
        <ele>107.2</ele>
        <time>2023-07-03T06:14:02Z</time>
      </trkpt>
      <trkpt lat="43.91828" lon="0.18259">
        <ele>107.4</ele>
        <time>2023-07-03T06:14:09Z</time>
      </trkpt>
      <trkpt lat="43.91832" lon="0.18267">
        <ele>107</ele>
        <time>2023-07-03T06:14:14Z</time>
      </trkpt>
      <trkpt lat="43.91833" lon="0.18269">
        <ele>107</ele>
        <time>2023-07-03T06:14:15Z</time>
      </trkpt>
      <trkpt lat="43.91837" lon="0.18273">
        <ele>107.4</ele>
        <time>2023-07-03T06:14:18Z</time>
      </trkpt>
      <trkpt lat="43.91844" lon="0.18286">
        <ele>107.6</ele>
        <time>2023-07-03T06:14:26Z</time>
      </trkpt>
      <trkpt lat="43.91845" lon="0.18289">
        <ele>107.4</ele>
        <time>2023-07-03T06:14:28Z</time>
      </trkpt>
      <trkpt lat="43.9185" lon="0.18304">
        <ele>106.8</ele>
        <time>2023-07-03T06:14:38Z</time>
      </trkpt>
      <trkpt lat="43.91851" lon="0.18307">
        <ele>106.8</ele>
        <time>2023-07-03T06:14:40Z</time>
      </trkpt>
      <trkpt lat="43.91855" lon="0.1831">
        <ele>106.8</ele>
        <time>2023-07-03T06:14:42Z</time>
      </trkpt>
      <trkpt lat="43.91858" lon="0.18315">
        <ele>106.8</ele>
        <time>2023-07-03T06:14:45Z</time>
      </trkpt>
      <trkpt lat="43.91858" lon="0.18318">
        <ele>106.8</ele>
        <time>2023-07-03T06:14:47Z</time>
      </trkpt>
      <trkpt lat="43.91859" lon="0.1832">
        <ele>106.8</ele>
        <time>2023-07-03T06:14:48Z</time>
      </trkpt>
      <trkpt lat="43.9186" lon="0.18324">
        <ele>106.8</ele>
        <time>2023-07-03T06:14:50Z</time>
      </trkpt>
      <trkpt lat="43.91861" lon="0.18326">
        <ele>106.8</ele>
        <time>2023-07-03T06:14:51Z</time>
      </trkpt>
      <trkpt lat="43.91863" lon="0.1833">
        <ele>106.8</ele>
        <time>2023-07-03T06:14:54Z</time>
      </trkpt>
      <trkpt lat="43.91871" lon="0.18348">
        <ele>106.6</ele>
        <time>2023-07-03T06:15:05Z</time>
      </trkpt>
      <trkpt lat="43.91874" lon="0.18355">
        <ele>106.4</ele>
        <time>2023-07-03T06:15:09Z</time>
      </trkpt>
      <trkpt lat="43.91878" lon="0.18365">
        <ele>106</ele>
        <time>2023-07-03T06:15:15Z</time>
      </trkpt>
      <trkpt lat="43.91887" lon="0.1838">
        <ele>107</ele>
        <time>2023-07-03T06:15:25Z</time>
      </trkpt>
      <trkpt lat="43.91889" lon="0.18384">
        <ele>106.2</ele>
        <time>2023-07-03T06:15:27Z</time>
      </trkpt>
      <trkpt lat="43.9189" lon="0.18387">
        <ele>106</ele>
        <time>2023-07-03T06:15:29Z</time>
      </trkpt>
      <trkpt lat="43.91898" lon="0.18394">
        <ele>106</ele>
        <time>2023-07-03T06:15:34Z</time>
      </trkpt>
      <trkpt lat="43.91902" lon="0.18403">
        <ele>106</ele>
        <time>2023-07-03T06:15:39Z</time>
      </trkpt>
      <trkpt lat="43.91906" lon="0.18411">
        <ele>105.8</ele>
        <time>2023-07-03T06:15:44Z</time>
      </trkpt>
      <trkpt lat="43.91907" lon="0.18416">
        <ele>106</ele>
        <time>2023-07-03T06:15:47Z</time>
      </trkpt>
      <trkpt lat="43.91914" lon="0.18432">
        <ele>106</ele>
        <time>2023-07-03T06:15:57Z</time>
      </trkpt>
      <trkpt lat="43.91922" lon="0.18451">
        <ele>106</ele>
        <time>2023-07-03T06:16:08Z</time>
      </trkpt>
      <trkpt lat="43.91931" lon="0.18467">
        <ele>105.8</ele>
        <time>2023-07-03T06:16:18Z</time>
      </trkpt>
      <trkpt lat="43.91942" lon="0.18479">
        <ele>105.8</ele>
        <time>2023-07-03T06:16:26Z</time>
      </trkpt>
      <trkpt lat="43.9195" lon="0.18495">
        <ele>105.8</ele>
        <time>2023-07-03T06:16:36Z</time>
      </trkpt>
      <trkpt lat="43.91951" lon="0.18495">
        <ele>105.8</ele>
        <time>2023-07-03T06:16:37Z</time>
      </trkpt>
      <trkpt lat="43.91953" lon="0.18497">
        <ele>105.8</ele>
        <time>2023-07-03T06:16:40Z</time>
      </trkpt>
      <trkpt lat="43.91955" lon="0.185">
        <ele>106</ele>
        <time>2023-07-03T06:16:42Z</time>
      </trkpt>
      <trkpt lat="43.91959" lon="0.18509">
        <ele>105.4</ele>
        <time>2023-07-03T06:16:47Z</time>
      </trkpt>
      <trkpt lat="43.91961" lon="0.18515">
        <ele>105</ele>
        <time>2023-07-03T06:16:51Z</time>
      </trkpt>
      <trkpt lat="43.91969" lon="0.18535">
        <ele>105.2</ele>
        <time>2023-07-03T06:17:03Z</time>
      </trkpt>
      <trkpt lat="43.91969" lon="0.18536">
        <ele>105.2</ele>
        <time>2023-07-03T06:17:04Z</time>
      </trkpt>
      <trkpt lat="43.91984" lon="0.18552">
        <ele>104.8</ele>
        <time>2023-07-03T06:17:14Z</time>
      </trkpt>
      <trkpt lat="43.91987" lon="0.18563">
        <ele>104.8</ele>
        <time>2023-07-03T06:17:21Z</time>
      </trkpt>
      <trkpt lat="43.91988" lon="0.18565">
        <ele>104.8</ele>
        <time>2023-07-03T06:17:22Z</time>
      </trkpt>
      <trkpt lat="43.9199" lon="0.18568">
        <ele>104.8</ele>
        <time>2023-07-03T06:17:24Z</time>
      </trkpt>
      <trkpt lat="43.91997" lon="0.18585">
        <ele>104.6</ele>
        <time>2023-07-03T06:17:35Z</time>
      </trkpt>
      <trkpt lat="43.92007" lon="0.18596">
        <ele>104.4</ele>
        <time>2023-07-03T06:17:42Z</time>
      </trkpt>
      <trkpt lat="43.92007" lon="0.18598">
        <ele>104.4</ele>
        <time>2023-07-03T06:17:43Z</time>
      </trkpt>
      <trkpt lat="43.92009" lon="0.18603">
        <ele>104.4</ele>
        <time>2023-07-03T06:17:46Z</time>
      </trkpt>
      <trkpt lat="43.92009" lon="0.18605">
        <ele>104.4</ele>
        <time>2023-07-03T06:17:47Z</time>
      </trkpt>
      <trkpt lat="43.92013" lon="0.18614">
        <ele>104.4</ele>
        <time>2023-07-03T06:17:52Z</time>
      </trkpt>
      <trkpt lat="43.92014" lon="0.18616">
        <ele>104.4</ele>
        <time>2023-07-03T06:17:53Z</time>
      </trkpt>
      <trkpt lat="43.92015" lon="0.18617">
        <ele>104.2</ele>
        <time>2023-07-03T06:17:54Z</time>
      </trkpt>
      <trkpt lat="43.92024" lon="0.1863">
        <ele>103.8</ele>
        <time>2023-07-03T06:18:03Z</time>
      </trkpt>
      <trkpt lat="43.9203" lon="0.18643">
        <ele>104</ele>
        <time>2023-07-03T06:18:11Z</time>
      </trkpt>
      <trkpt lat="43.9203" lon="0.18644">
        <ele>103.8</ele>
        <time>2023-07-03T06:18:12Z</time>
      </trkpt>
      <trkpt lat="43.92036" lon="0.18656">
        <ele>103.8</ele>
        <time>2023-07-03T06:18:19Z</time>
      </trkpt>
      <trkpt lat="43.92038" lon="0.18662">
        <ele>103.4</ele>
        <time>2023-07-03T06:18:22Z</time>
      </trkpt>
      <trkpt lat="43.9204" lon="0.18663">
        <ele>103.4</ele>
        <time>2023-07-03T06:18:23Z</time>
      </trkpt>
      <trkpt lat="43.92042" lon="0.18666">
        <ele>103.2</ele>
        <time>2023-07-03T06:18:25Z</time>
      </trkpt>
      <trkpt lat="43.92048" lon="0.18679">
        <ele>103.2</ele>
        <time>2023-07-03T06:18:33Z</time>
      </trkpt>
      <trkpt lat="43.92049" lon="0.1868">
        <ele>103.2</ele>
        <time>2023-07-03T06:18:34Z</time>
      </trkpt>
      <trkpt lat="43.92055" lon="0.18694">
        <ele>103.2</ele>
        <time>2023-07-03T06:18:42Z</time>
      </trkpt>
      <trkpt lat="43.92061" lon="0.18707">
        <ele>103</ele>
        <time>2023-07-03T06:18:50Z</time>
      </trkpt>
      <trkpt lat="43.92066" lon="0.1871">
        <ele>103</ele>
        <time>2023-07-03T06:18:52Z</time>
      </trkpt>
      <trkpt lat="43.92067" lon="0.18711">
        <ele>103</ele>
        <time>2023-07-03T06:18:53Z</time>
      </trkpt>
      <trkpt lat="43.92075" lon="0.1872">
        <ele>102.8</ele>
        <time>2023-07-03T06:18:59Z</time>
      </trkpt>
      <trkpt lat="43.9208" lon="0.18731">
        <ele>102.8</ele>
        <time>2023-07-03T06:19:05Z</time>
      </trkpt>
      <trkpt lat="43.92085" lon="0.18743">
        <ele>102.6</ele>
        <time>2023-07-03T06:19:12Z</time>
      </trkpt>
      <trkpt lat="43.92088" lon="0.18755">
        <ele>102.2</ele>
        <time>2023-07-03T06:19:19Z</time>
      </trkpt>
      <trkpt lat="43.92089" lon="0.18759">
        <ele>102</ele>
        <time>2023-07-03T06:19:21Z</time>
      </trkpt>
      <trkpt lat="43.9209" lon="0.18762">
        <ele>102</ele>
        <time>2023-07-03T06:19:23Z</time>
      </trkpt>
      <trkpt lat="43.92092" lon="0.18769">
        <ele>102</ele>
        <time>2023-07-03T06:19:27Z</time>
      </trkpt>
      <trkpt lat="43.92095" lon="0.18777">
        <ele>101.8</ele>
        <time>2023-07-03T06:19:31Z</time>
      </trkpt>
      <trkpt lat="43.92101" lon="0.18789">
        <ele>101.2</ele>
        <time>2023-07-03T06:19:39Z</time>
      </trkpt>
      <trkpt lat="43.92102" lon="0.18792">
        <ele>101</ele>
        <time>2023-07-03T06:19:41Z</time>
      </trkpt>
      <trkpt lat="43.92111" lon="0.18804">
        <ele>100.2</ele>
        <time>2023-07-03T06:19:49Z</time>
      </trkpt>
      <trkpt lat="43.92114" lon="0.18809">
        <ele>100</ele>
        <time>2023-07-03T06:19:52Z</time>
      </trkpt>
      <trkpt lat="43.92115" lon="0.18811">
        <ele>99.8</ele>
        <time>2023-07-03T06:19:53Z</time>
      </trkpt>
      <trkpt lat="43.92116" lon="0.18812">
        <ele>99.8</ele>
        <time>2023-07-03T06:19:54Z</time>
      </trkpt>
      <trkpt lat="43.9212" lon="0.18818">
        <ele>99.6</ele>
        <time>2023-07-03T06:19:57Z</time>
      </trkpt>
      <trkpt lat="43.92127" lon="0.18828">
        <ele>99.2</ele>
        <time>2023-07-03T06:20:04Z</time>
      </trkpt>
      <trkpt lat="43.92133" lon="0.18835">
        <ele>98.6</ele>
        <time>2023-07-03T06:20:09Z</time>
      </trkpt>
      <trkpt lat="43.92138" lon="0.1884">
        <ele>98.2</ele>
        <time>2023-07-03T06:20:13Z</time>
      </trkpt>
      <trkpt lat="43.92139" lon="0.18841">
        <ele>98</ele>
        <time>2023-07-03T06:20:14Z</time>
      </trkpt>
      <trkpt lat="43.92144" lon="0.18851">
        <ele>97.4</ele>
        <time>2023-07-03T06:20:21Z</time>
      </trkpt>
      <trkpt lat="43.92149" lon="0.18858">
        <ele>97.2</ele>
        <time>2023-07-03T06:20:25Z</time>
      </trkpt>
      <trkpt lat="43.92149" lon="0.18862">
        <ele>97</ele>
        <time>2023-07-03T06:20:27Z</time>
      </trkpt>
      <trkpt lat="43.9215" lon="0.18866">
        <ele>96.8</ele>
        <time>2023-07-03T06:20:29Z</time>
      </trkpt>
      <trkpt lat="43.92154" lon="0.18875">
        <ele>96.2</ele>
        <time>2023-07-03T06:20:34Z</time>
      </trkpt>
      <trkpt lat="43.92156" lon="0.18879">
        <ele>95.8</ele>
        <time>2023-07-03T06:20:37Z</time>
      </trkpt>
      <trkpt lat="43.92157" lon="0.1888">
        <ele>95.8</ele>
        <time>2023-07-03T06:20:38Z</time>
      </trkpt>
      <trkpt lat="43.92157" lon="0.18884">
        <ele>95.8</ele>
        <time>2023-07-03T06:20:40Z</time>
      </trkpt>
      <trkpt lat="43.92161" lon="0.1889">
        <ele>95.4</ele>
        <time>2023-07-03T06:20:44Z</time>
      </trkpt>
      <trkpt lat="43.92165" lon="0.18894">
        <ele>95.2</ele>
        <time>2023-07-03T06:20:47Z</time>
      </trkpt>
      <trkpt lat="43.92166" lon="0.18898">
        <ele>95</ele>
        <time>2023-07-03T06:20:50Z</time>
      </trkpt>
      <trkpt lat="43.92167" lon="0.18899">
        <ele>95</ele>
        <time>2023-07-03T06:20:51Z</time>
      </trkpt>
      <trkpt lat="43.92169" lon="0.18906">
        <ele>94.8</ele>
        <time>2023-07-03T06:20:54Z</time>
      </trkpt>
      <trkpt lat="43.92172" lon="0.18909">
        <ele>94.6</ele>
        <time>2023-07-03T06:20:56Z</time>
      </trkpt>
      <trkpt lat="43.92173" lon="0.18914">
        <ele>94.4</ele>
        <time>2023-07-03T06:20:59Z</time>
      </trkpt>
      <trkpt lat="43.92174" lon="0.18918">
        <ele>94</ele>
        <time>2023-07-03T06:21:01Z</time>
      </trkpt>
      <trkpt lat="43.92175" lon="0.18921">
        <ele>93.8</ele>
        <time>2023-07-03T06:21:03Z</time>
      </trkpt>
      <trkpt lat="43.92175" lon="0.18923">
        <ele>93.8</ele>
        <time>2023-07-03T06:21:04Z</time>
      </trkpt>
      <trkpt lat="43.92177" lon="0.18926">
        <ele>93.6</ele>
        <time>2023-07-03T06:21:06Z</time>
      </trkpt>
      <trkpt lat="43.92178" lon="0.18928">
        <ele>93.4</ele>
        <time>2023-07-03T06:21:07Z</time>
      </trkpt>
      <trkpt lat="43.92178" lon="0.18932">
        <ele>93.2</ele>
        <time>2023-07-03T06:21:09Z</time>
      </trkpt>
      <trkpt lat="43.92183" lon="0.18942">
        <ele>93</ele>
        <time>2023-07-03T06:21:15Z</time>
      </trkpt>
      <trkpt lat="43.92184" lon="0.18948">
        <ele>92.8</ele>
        <time>2023-07-03T06:21:18Z</time>
      </trkpt>
      <trkpt lat="43.92188" lon="0.18957">
        <ele>92.2</ele>
        <time>2023-07-03T06:21:23Z</time>
      </trkpt>
      <trkpt lat="43.9219" lon="0.18968">
        <ele>91.8</ele>
        <time>2023-07-03T06:21:29Z</time>
      </trkpt>
      <trkpt lat="43.92191" lon="0.18969">
        <ele>91.6</ele>
        <time>2023-07-03T06:21:30Z</time>
      </trkpt>
      <trkpt lat="43.92201" lon="0.1898">
        <ele>90.6</ele>
        <time>2023-07-03T06:21:36Z</time>
      </trkpt>
      <trkpt lat="43.92201" lon="0.18985">
        <ele>90.6</ele>
        <time>2023-07-03T06:21:38Z</time>
      </trkpt>
      <trkpt lat="43.92203" lon="0.18988">
        <ele>90.6</ele>
        <time>2023-07-03T06:21:40Z</time>
      </trkpt>
      <trkpt lat="43.92206" lon="0.19003">
        <ele>89.8</ele>
        <time>2023-07-03T06:21:48Z</time>
      </trkpt>
      <trkpt lat="43.92209" lon="0.19008">
        <ele>89.6</ele>
        <time>2023-07-03T06:21:51Z</time>
      </trkpt>
      <trkpt lat="43.92215" lon="0.19011">
        <ele>89.4</ele>
        <time>2023-07-03T06:21:53Z</time>
      </trkpt>
      <trkpt lat="43.92215" lon="0.19013">
        <ele>89.2</ele>
        <time>2023-07-03T06:21:54Z</time>
      </trkpt>
      <trkpt lat="43.92217" lon="0.19018">
        <ele>88.8</ele>
        <time>2023-07-03T06:21:57Z</time>
      </trkpt>
      <trkpt lat="43.92217" lon="0.19019">
        <ele>88.6</ele>
        <time>2023-07-03T06:21:58Z</time>
      </trkpt>
      <trkpt lat="43.92222" lon="0.19022">
        <ele>88.6</ele>
        <time>2023-07-03T06:22:00Z</time>
      </trkpt>
      <trkpt lat="43.92225" lon="0.19027">
        <ele>88.4</ele>
        <time>2023-07-03T06:22:03Z</time>
      </trkpt>
      <trkpt lat="43.92226" lon="0.19031">
        <ele>88</ele>
        <time>2023-07-03T06:22:05Z</time>
      </trkpt>
      <trkpt lat="43.92231" lon="0.19045">
        <ele>87.6</ele>
        <time>2023-07-03T06:22:13Z</time>
      </trkpt>
      <trkpt lat="43.92231" lon="0.19047">
        <ele>87.4</ele>
        <time>2023-07-03T06:22:14Z</time>
      </trkpt>
      <trkpt lat="43.92232" lon="0.19049">
        <ele>87.4</ele>
        <time>2023-07-03T06:22:15Z</time>
      </trkpt>
      <trkpt lat="43.92232" lon="0.19051">
        <ele>87.2</ele>
        <time>2023-07-03T06:22:16Z</time>
      </trkpt>
      <trkpt lat="43.92237" lon="0.1906">
        <ele>86.6</ele>
        <time>2023-07-03T06:22:22Z</time>
      </trkpt>
      <trkpt lat="43.92244" lon="0.19075">
        <ele>86</ele>
        <time>2023-07-03T06:22:31Z</time>
      </trkpt>
      <trkpt lat="43.92249" lon="0.19083">
        <ele>85.2</ele>
        <time>2023-07-03T06:22:37Z</time>
      </trkpt>
      <trkpt lat="43.9225" lon="0.19084">
        <ele>85.2</ele>
        <time>2023-07-03T06:22:38Z</time>
      </trkpt>
      <trkpt lat="43.92252" lon="0.19086">
        <ele>85</ele>
        <time>2023-07-03T06:22:40Z</time>
      </trkpt>
      <trkpt lat="43.92254" lon="0.1909">
        <ele>84.8</ele>
        <time>2023-07-03T06:22:43Z</time>
      </trkpt>
      <trkpt lat="43.92259" lon="0.19095">
        <ele>84.6</ele>
        <time>2023-07-03T06:22:47Z</time>
      </trkpt>
      <trkpt lat="43.92262" lon="0.19097">
        <ele>84.4</ele>
        <time>2023-07-03T06:22:49Z</time>
      </trkpt>
      <trkpt lat="43.92264" lon="0.19098">
        <ele>84.4</ele>
        <time>2023-07-03T06:22:50Z</time>
      </trkpt>
      <trkpt lat="43.92271" lon="0.19102">
        <ele>84</ele>
        <time>2023-07-03T06:22:55Z</time>
      </trkpt>
      <trkpt lat="43.92274" lon="0.19104">
        <ele>83.8</ele>
        <time>2023-07-03T06:22:57Z</time>
      </trkpt>
      <trkpt lat="43.92284" lon="0.19108">
        <ele>83</ele>
        <time>2023-07-03T06:23:05Z</time>
      </trkpt>
      <trkpt lat="43.92285" lon="0.19108">
        <ele>82.8</ele>
        <time>2023-07-03T06:23:06Z</time>
      </trkpt>
      <trkpt lat="43.92295" lon="0.19111">
        <ele>82.4</ele>
        <time>2023-07-03T06:23:12Z</time>
      </trkpt>
      <trkpt lat="43.92296" lon="0.19112">
        <ele>82.4</ele>
        <time>2023-07-03T06:23:13Z</time>
      </trkpt>
      <trkpt lat="43.92299" lon="0.19112">
        <ele>82.2</ele>
        <time>2023-07-03T06:23:15Z</time>
      </trkpt>
      <trkpt lat="43.92305" lon="0.19113">
        <ele>82</ele>
        <time>2023-07-03T06:23:19Z</time>
      </trkpt>
      <trkpt lat="43.92311" lon="0.19113">
        <ele>81.4</ele>
        <time>2023-07-03T06:23:24Z</time>
      </trkpt>
      <trkpt lat="43.92313" lon="0.19113">
        <ele>81.2</ele>
        <time>2023-07-03T06:23:25Z</time>
      </trkpt>
      <trkpt lat="43.92316" lon="0.19114">
        <ele>80.8</ele>
        <time>2023-07-03T06:23:27Z</time>
      </trkpt>
      <trkpt lat="43.92322" lon="0.19115">
        <ele>80.6</ele>
        <time>2023-07-03T06:23:30Z</time>
      </trkpt>
      <trkpt lat="43.92327" lon="0.19117">
        <ele>80.4</ele>
        <time>2023-07-03T06:23:33Z</time>
      </trkpt>
      <trkpt lat="43.92329" lon="0.19117">
        <ele>80.4</ele>
        <time>2023-07-03T06:23:34Z</time>
      </trkpt>
      <trkpt lat="43.92341" lon="0.19115">
        <ele>80</ele>
        <time>2023-07-03T06:23:41Z</time>
      </trkpt>
      <trkpt lat="43.92343" lon="0.19116">
        <ele>79.8</ele>
        <time>2023-07-03T06:23:43Z</time>
      </trkpt>
      <trkpt lat="43.92352" lon="0.19116">
        <ele>79.2</ele>
        <time>2023-07-03T06:23:49Z</time>
      </trkpt>
      <trkpt lat="43.92355" lon="0.19115">
        <ele>79.2</ele>
        <time>2023-07-03T06:23:51Z</time>
      </trkpt>
      <trkpt lat="43.92363" lon="0.19115">
        <ele>78.8</ele>
        <time>2023-07-03T06:23:57Z</time>
      </trkpt>
      <trkpt lat="43.92367" lon="0.19115">
        <ele>78.6</ele>
        <time>2023-07-03T06:24:00Z</time>
      </trkpt>
      <trkpt lat="43.92377" lon="0.19116">
        <ele>78.2</ele>
        <time>2023-07-03T06:24:07Z</time>
      </trkpt>
      <trkpt lat="43.9238" lon="0.19115">
        <ele>78</ele>
        <time>2023-07-03T06:24:09Z</time>
      </trkpt>
      <trkpt lat="43.92384" lon="0.19114">
        <ele>77.8</ele>
        <time>2023-07-03T06:24:12Z</time>
      </trkpt>
      <trkpt lat="43.92385" lon="0.19113">
        <ele>77.6</ele>
        <time>2023-07-03T06:24:13Z</time>
      </trkpt>
      <trkpt lat="43.92387" lon="0.1911">
        <ele>77.6</ele>
        <time>2023-07-03T06:24:15Z</time>
      </trkpt>
      <trkpt lat="43.92389" lon="0.19109">
        <ele>77.4</ele>
        <time>2023-07-03T06:24:17Z</time>
      </trkpt>
      <trkpt lat="43.92391" lon="0.1911">
        <ele>77.2</ele>
        <time>2023-07-03T06:24:19Z</time>
      </trkpt>
      <trkpt lat="43.92394" lon="0.19111">
        <ele>77.2</ele>
        <time>2023-07-03T06:24:21Z</time>
      </trkpt>
      <trkpt lat="43.92398" lon="0.19111">
        <ele>77</ele>
        <time>2023-07-03T06:24:23Z</time>
      </trkpt>
      <trkpt lat="43.92403" lon="0.19111">
        <ele>77</ele>
        <time>2023-07-03T06:24:26Z</time>
      </trkpt>
      <trkpt lat="43.92409" lon="0.19111">
        <ele>76.8</ele>
        <time>2023-07-03T06:24:30Z</time>
      </trkpt>
      <trkpt lat="43.92413" lon="0.1911">
        <ele>76.6</ele>
        <time>2023-07-03T06:24:33Z</time>
      </trkpt>
      <trkpt lat="43.92421" lon="0.19109">
        <ele>76.2</ele>
        <time>2023-07-03T06:24:39Z</time>
      </trkpt>
      <trkpt lat="43.92431" lon="0.19109">
        <ele>75.8</ele>
        <time>2023-07-03T06:24:47Z</time>
      </trkpt>
      <trkpt lat="43.92439" lon="0.19109">
        <ele>75.6</ele>
        <time>2023-07-03T06:24:52Z</time>
      </trkpt>
      <trkpt lat="43.92445" lon="0.19107">
        <ele>75.4</ele>
        <time>2023-07-03T06:24:56Z</time>
      </trkpt>
      <trkpt lat="43.92451" lon="0.19107">
        <ele>75.2</ele>
        <time>2023-07-03T06:25:01Z</time>
      </trkpt>
      <trkpt lat="43.9246" lon="0.19109">
        <ele>75</ele>
        <time>2023-07-03T06:25:07Z</time>
      </trkpt>
      <trkpt lat="43.92464" lon="0.1911">
        <ele>74.8</ele>
        <time>2023-07-03T06:25:09Z</time>
      </trkpt>
      <trkpt lat="43.92465" lon="0.1911">
        <ele>74.8</ele>
        <time>2023-07-03T06:25:10Z</time>
      </trkpt>
      <trkpt lat="43.92468" lon="0.19111">
        <ele>74.6</ele>
        <time>2023-07-03T06:25:12Z</time>
      </trkpt>
      <trkpt lat="43.9247" lon="0.19111">
        <ele>74.4</ele>
        <time>2023-07-03T06:25:13Z</time>
      </trkpt>
      <trkpt lat="43.92472" lon="0.19111">
        <ele>74.4</ele>
        <time>2023-07-03T06:25:14Z</time>
      </trkpt>
      <trkpt lat="43.92472" lon="0.19112">
        <ele>74.4</ele>
        <time>2023-07-03T06:25:15Z</time>
      </trkpt>
      <trkpt lat="43.92474" lon="0.19112">
        <ele>74.4</ele>
        <time>2023-07-03T06:25:16Z</time>
      </trkpt>
      <trkpt lat="43.92481" lon="0.19115">
        <ele>74.2</ele>
        <time>2023-07-03T06:25:22Z</time>
      </trkpt>
      <trkpt lat="43.92488" lon="0.19119">
        <ele>73.6</ele>
        <time>2023-07-03T06:25:28Z</time>
      </trkpt>
      <trkpt lat="43.92489" lon="0.19119">
        <ele>73.6</ele>
        <time>2023-07-03T06:25:29Z</time>
      </trkpt>
      <trkpt lat="43.925" lon="0.19122">
        <ele>73.6</ele>
        <time>2023-07-03T06:25:36Z</time>
      </trkpt>
      <trkpt lat="43.92505" lon="0.19126">
        <ele>73</ele>
        <time>2023-07-03T06:25:41Z</time>
      </trkpt>
      <trkpt lat="43.92507" lon="0.19126">
        <ele>72.8</ele>
        <time>2023-07-03T06:25:42Z</time>
      </trkpt>
      <trkpt lat="43.92512" lon="0.19128">
        <ele>72.6</ele>
        <time>2023-07-03T06:25:45Z</time>
      </trkpt>
      <trkpt lat="43.92513" lon="0.19129">
        <ele>72.6</ele>
        <time>2023-07-03T06:25:46Z</time>
      </trkpt>
      <trkpt lat="43.9252" lon="0.19133">
        <ele>72.4</ele>
        <time>2023-07-03T06:25:51Z</time>
      </trkpt>
      <trkpt lat="43.92521" lon="0.19133">
        <ele>72.4</ele>
        <time>2023-07-03T06:25:52Z</time>
      </trkpt>
      <trkpt lat="43.92531" lon="0.19137">
        <ele>72.2</ele>
        <time>2023-07-03T06:25:59Z</time>
      </trkpt>
      <trkpt lat="43.92543" lon="0.19141">
        <ele>71.6</ele>
        <time>2023-07-03T06:26:05Z</time>
      </trkpt>
      <trkpt lat="43.92545" lon="0.19142">
        <ele>71.6</ele>
        <time>2023-07-03T06:26:06Z</time>
      </trkpt>
      <trkpt lat="43.92546" lon="0.19142">
        <ele>71.4</ele>
        <time>2023-07-03T06:26:07Z</time>
      </trkpt>
      <trkpt lat="43.92547" lon="0.19143">
        <ele>71.4</ele>
        <time>2023-07-03T06:26:08Z</time>
      </trkpt>
      <trkpt lat="43.92551" lon="0.19144">
        <ele>71.4</ele>
        <time>2023-07-03T06:26:10Z</time>
      </trkpt>
      <trkpt lat="43.9256" lon="0.19147">
        <ele>71</ele>
        <time>2023-07-03T06:26:18Z</time>
      </trkpt>
      <trkpt lat="43.92565" lon="0.19149">
        <ele>70.8</ele>
        <time>2023-07-03T06:26:22Z</time>
      </trkpt>
      <trkpt lat="43.92569" lon="0.19149">
        <ele>70.6</ele>
        <time>2023-07-03T06:26:25Z</time>
      </trkpt>
      <trkpt lat="43.92575" lon="0.19149">
        <ele>70.4</ele>
        <time>2023-07-03T06:26:29Z</time>
      </trkpt>
      <trkpt lat="43.92575" lon="0.19149">
        <ele>70.4</ele>
        <time>2023-07-03T06:26:30Z</time>
      </trkpt>
      <trkpt lat="43.92575" lon="0.19149">
        <ele>70.2</ele>
        <time>2023-07-03T06:26:31Z</time>
      </trkpt>
      <trkpt lat="43.92575" lon="0.19149">
        <ele>70</ele>
        <time>2023-07-03T06:26:32Z</time>
      </trkpt>
      <trkpt lat="43.92581" lon="0.1915">
        <ele>69.8</ele>
        <time>2023-07-03T06:26:37Z</time>
      </trkpt>
      <trkpt lat="43.92586" lon="0.1915">
        <ele>69.8</ele>
        <time>2023-07-03T06:26:42Z</time>
      </trkpt>
      <trkpt lat="43.92587" lon="0.1915">
        <ele>69.8</ele>
        <time>2023-07-03T06:26:43Z</time>
      </trkpt>
      <trkpt lat="43.92589" lon="0.1915">
        <ele>69.8</ele>
        <time>2023-07-03T06:26:44Z</time>
      </trkpt>
      <trkpt lat="43.9259" lon="0.1915">
        <ele>69.8</ele>
        <time>2023-07-03T06:26:45Z</time>
      </trkpt>
      <trkpt lat="43.92591" lon="0.1915">
        <ele>69.6</ele>
        <time>2023-07-03T06:26:46Z</time>
      </trkpt>
      <trkpt lat="43.92595" lon="0.19151">
        <ele>69.4</ele>
        <time>2023-07-03T06:26:50Z</time>
      </trkpt>
      <trkpt lat="43.92596" lon="0.19151">
        <ele>69.4</ele>
        <time>2023-07-03T06:26:51Z</time>
      </trkpt>
      <trkpt lat="43.92598" lon="0.1915">
        <ele>69.2</ele>
        <time>2023-07-03T06:26:53Z</time>
      </trkpt>
      <trkpt lat="43.9261" lon="0.19151">
        <ele>69.2</ele>
        <time>2023-07-03T06:27:00Z</time>
      </trkpt>
      <trkpt lat="43.92612" lon="0.19151">
        <ele>69.2</ele>
        <time>2023-07-03T06:27:02Z</time>
      </trkpt>
      <trkpt lat="43.92613" lon="0.1915">
        <ele>69.2</ele>
        <time>2023-07-03T06:27:03Z</time>
      </trkpt>
      <trkpt lat="43.92619" lon="0.19148">
        <ele>69</ele>
        <time>2023-07-03T06:27:07Z</time>
      </trkpt>
      <trkpt lat="43.92628" lon="0.19146">
        <ele>68.6</ele>
        <time>2023-07-03T06:27:12Z</time>
      </trkpt>
      <trkpt lat="43.92629" lon="0.19146">
        <ele>68.6</ele>
        <time>2023-07-03T06:27:13Z</time>
      </trkpt>
      <trkpt lat="43.92636" lon="0.19145">
        <ele>68.4</ele>
        <time>2023-07-03T06:27:17Z</time>
      </trkpt>
      <trkpt lat="43.92639" lon="0.19144">
        <ele>68.4</ele>
        <time>2023-07-03T06:27:19Z</time>
      </trkpt>
      <trkpt lat="43.92641" lon="0.19144">
        <ele>68.2</ele>
        <time>2023-07-03T06:27:20Z</time>
      </trkpt>
      <trkpt lat="43.92651" lon="0.1914">
        <ele>68.2</ele>
        <time>2023-07-03T06:27:27Z</time>
      </trkpt>
      <trkpt lat="43.92655" lon="0.19139">
        <ele>67.6</ele>
        <time>2023-07-03T06:27:30Z</time>
      </trkpt>
      <trkpt lat="43.92661" lon="0.19138">
        <ele>67.4</ele>
        <time>2023-07-03T06:27:34Z</time>
      </trkpt>
      <trkpt lat="43.92672" lon="0.19136">
        <ele>67.2</ele>
        <time>2023-07-03T06:27:41Z</time>
      </trkpt>
      <trkpt lat="43.92685" lon="0.19133">
        <ele>67.4</ele>
        <time>2023-07-03T06:27:50Z</time>
      </trkpt>
      <trkpt lat="43.92686" lon="0.19133">
        <ele>67.2</ele>
        <time>2023-07-03T06:27:51Z</time>
      </trkpt>
      <trkpt lat="43.92695" lon="0.19131">
        <ele>66.8</ele>
        <time>2023-07-03T06:27:58Z</time>
      </trkpt>
      <trkpt lat="43.92703" lon="0.19127">
        <ele>66.6</ele>
        <time>2023-07-03T06:28:05Z</time>
      </trkpt>
      <trkpt lat="43.92714" lon="0.19126">
        <ele>67</ele>
        <time>2023-07-03T06:28:12Z</time>
      </trkpt>
      <trkpt lat="43.9272" lon="0.19127">
        <ele>67</ele>
        <time>2023-07-03T06:28:16Z</time>
      </trkpt>
      <trkpt lat="43.92723" lon="0.19127">
        <ele>67</ele>
        <time>2023-07-03T06:28:19Z</time>
      </trkpt>
      <trkpt lat="43.92733" lon="0.19125">
        <ele>67</ele>
        <time>2023-07-03T06:28:25Z</time>
      </trkpt>
      <trkpt lat="43.92738" lon="0.19126">
        <ele>66.8</ele>
        <time>2023-07-03T06:28:29Z</time>
      </trkpt>
      <trkpt lat="43.92741" lon="0.19126">
        <ele>66.8</ele>
        <time>2023-07-03T06:28:31Z</time>
      </trkpt>
      <trkpt lat="43.92746" lon="0.19126">
        <ele>67</ele>
        <time>2023-07-03T06:28:34Z</time>
      </trkpt>
      <trkpt lat="43.92748" lon="0.19126">
        <ele>67.2</ele>
        <time>2023-07-03T06:28:36Z</time>
      </trkpt>
      <trkpt lat="43.92751" lon="0.19127">
        <ele>67.2</ele>
        <time>2023-07-03T06:28:38Z</time>
      </trkpt>
      <trkpt lat="43.92755" lon="0.19127">
        <ele>67.2</ele>
        <time>2023-07-03T06:28:41Z</time>
      </trkpt>
      <trkpt lat="43.92759" lon="0.19128">
        <ele>67</ele>
        <time>2023-07-03T06:28:44Z</time>
      </trkpt>
      <trkpt lat="43.92762" lon="0.19129">
        <ele>67</ele>
        <time>2023-07-03T06:28:46Z</time>
      </trkpt>
      <trkpt lat="43.92763" lon="0.19129">
        <ele>67</ele>
        <time>2023-07-03T06:28:47Z</time>
      </trkpt>
      <trkpt lat="43.92764" lon="0.19129">
        <ele>66.8</ele>
        <time>2023-07-03T06:28:48Z</time>
      </trkpt>
      <trkpt lat="43.92766" lon="0.19129">
        <ele>66.8</ele>
        <time>2023-07-03T06:28:50Z</time>
      </trkpt>
      <trkpt lat="43.92769" lon="0.1913">
        <ele>67</ele>
        <time>2023-07-03T06:28:53Z</time>
      </trkpt>
      <trkpt lat="43.92782" lon="0.19132">
        <ele>67</ele>
        <time>2023-07-03T06:29:02Z</time>
      </trkpt>
      <trkpt lat="43.92788" lon="0.19135">
        <ele>67.4</ele>
        <time>2023-07-03T06:29:08Z</time>
      </trkpt>
      <trkpt lat="43.9279" lon="0.19137">
        <ele>67.6</ele>
        <time>2023-07-03T06:29:10Z</time>
      </trkpt>
      <trkpt lat="43.9279" lon="0.19138">
        <ele>67.6</ele>
        <time>2023-07-03T06:29:11Z</time>
      </trkpt>
      <trkpt lat="43.92792" lon="0.19138">
        <ele>67.6</ele>
        <time>2023-07-03T06:29:12Z</time>
      </trkpt>
      <trkpt lat="43.92794" lon="0.1914">
        <ele>67.4</ele>
        <time>2023-07-03T06:29:14Z</time>
      </trkpt>
      <trkpt lat="43.92799" lon="0.19141">
        <ele>67.6</ele>
        <time>2023-07-03T06:29:17Z</time>
      </trkpt>
      <trkpt lat="43.92803" lon="0.19141">
        <ele>67.6</ele>
        <time>2023-07-03T06:29:20Z</time>
      </trkpt>
      <trkpt lat="43.92807" lon="0.1914">
        <ele>67.8</ele>
        <time>2023-07-03T06:29:23Z</time>
      </trkpt>
      <trkpt lat="43.9281" lon="0.1914">
        <ele>68</ele>
        <time>2023-07-03T06:29:26Z</time>
      </trkpt>
      <trkpt lat="43.92812" lon="0.19142">
        <ele>68</ele>
        <time>2023-07-03T06:29:28Z</time>
      </trkpt>
      <trkpt lat="43.92814" lon="0.19144">
        <ele>68.2</ele>
        <time>2023-07-03T06:29:30Z</time>
      </trkpt>
      <trkpt lat="43.92815" lon="0.19145">
        <ele>68.4</ele>
        <time>2023-07-03T06:29:31Z</time>
      </trkpt>
      <trkpt lat="43.92818" lon="0.19145">
        <ele>68.4</ele>
        <time>2023-07-03T06:29:33Z</time>
      </trkpt>
      <trkpt lat="43.9282" lon="0.19145">
        <ele>68.6</ele>
        <time>2023-07-03T06:29:34Z</time>
      </trkpt>
      <trkpt lat="43.92826" lon="0.19147">
        <ele>68.6</ele>
        <time>2023-07-03T06:29:37Z</time>
      </trkpt>
      <trkpt lat="43.92831" lon="0.19149">
        <ele>68.6</ele>
        <time>2023-07-03T06:29:41Z</time>
      </trkpt>
      <trkpt lat="43.92837" lon="0.19153">
        <ele>68.6</ele>
        <time>2023-07-03T06:29:45Z</time>
      </trkpt>
      <trkpt lat="43.92838" lon="0.19153">
        <ele>68.8</ele>
        <time>2023-07-03T06:29:46Z</time>
      </trkpt>
      <trkpt lat="43.9284" lon="0.19155">
        <ele>69</ele>
        <time>2023-07-03T06:29:48Z</time>
      </trkpt>
      <trkpt lat="43.92844" lon="0.19157">
        <ele>69.2</ele>
        <time>2023-07-03T06:29:52Z</time>
      </trkpt>
      <trkpt lat="43.92851" lon="0.19158">
        <ele>69.4</ele>
        <time>2023-07-03T06:29:58Z</time>
      </trkpt>
      <trkpt lat="43.92853" lon="0.19158">
        <ele>69.4</ele>
        <time>2023-07-03T06:29:59Z</time>
      </trkpt>
      <trkpt lat="43.92863" lon="0.19164">
        <ele>69.4</ele>
        <time>2023-07-03T06:30:06Z</time>
      </trkpt>
      <trkpt lat="43.92867" lon="0.19165">
        <ele>69.6</ele>
        <time>2023-07-03T06:30:08Z</time>
      </trkpt>
      <trkpt lat="43.92875" lon="0.19167">
        <ele>69.8</ele>
        <time>2023-07-03T06:30:13Z</time>
      </trkpt>
      <trkpt lat="43.92879" lon="0.19168">
        <ele>69.8</ele>
        <time>2023-07-03T06:30:15Z</time>
      </trkpt>
      <trkpt lat="43.9288" lon="0.19169">
        <ele>69.6</ele>
        <time>2023-07-03T06:30:16Z</time>
      </trkpt>
      <trkpt lat="43.92886" lon="0.19169">
        <ele>69.6</ele>
        <time>2023-07-03T06:30:19Z</time>
      </trkpt>
      <trkpt lat="43.92887" lon="0.19169">
        <ele>69.4</ele>
        <time>2023-07-03T06:30:20Z</time>
      </trkpt>
      <trkpt lat="43.92893" lon="0.1917">
        <ele>69.2</ele>
        <time>2023-07-03T06:30:24Z</time>
      </trkpt>
      <trkpt lat="43.92894" lon="0.1917">
        <ele>69.2</ele>
        <time>2023-07-03T06:30:25Z</time>
      </trkpt>
      <trkpt lat="43.929" lon="0.19173">
        <ele>69.6</ele>
        <time>2023-07-03T06:30:31Z</time>
      </trkpt>
      <trkpt lat="43.92905" lon="0.19175">
        <ele>69.6</ele>
        <time>2023-07-03T06:30:35Z</time>
      </trkpt>
      <trkpt lat="43.92907" lon="0.19176">
        <ele>69.4</ele>
        <time>2023-07-03T06:30:37Z</time>
      </trkpt>
      <trkpt lat="43.92908" lon="0.19176">
        <ele>69.2</ele>
        <time>2023-07-03T06:30:38Z</time>
      </trkpt>
      <trkpt lat="43.92909" lon="0.19177">
        <ele>69.2</ele>
        <time>2023-07-03T06:30:39Z</time>
      </trkpt>
      <trkpt lat="43.92912" lon="0.19178">
        <ele>69.4</ele>
        <time>2023-07-03T06:30:42Z</time>
      </trkpt>
      <trkpt lat="43.92915" lon="0.1918">
        <ele>69.6</ele>
        <time>2023-07-03T06:30:45Z</time>
      </trkpt>
      <trkpt lat="43.9292" lon="0.19184">
        <ele>69.8</ele>
        <time>2023-07-03T06:30:50Z</time>
      </trkpt>
      <trkpt lat="43.92922" lon="0.19185">
        <ele>69.8</ele>
        <time>2023-07-03T06:30:51Z</time>
      </trkpt>
      <trkpt lat="43.92923" lon="0.19186">
        <ele>69.8</ele>
        <time>2023-07-03T06:30:52Z</time>
      </trkpt>
      <trkpt lat="43.92924" lon="0.19186">
        <ele>69.6</ele>
        <time>2023-07-03T06:30:53Z</time>
      </trkpt>
      <trkpt lat="43.92926" lon="0.19186">
        <ele>69.4</ele>
        <time>2023-07-03T06:30:54Z</time>
      </trkpt>
      <trkpt lat="43.92937" lon="0.19189">
        <ele>69.4</ele>
        <time>2023-07-03T06:31:00Z</time>
      </trkpt>
      <trkpt lat="43.92941" lon="0.1919">
        <ele>69.4</ele>
        <time>2023-07-03T06:31:02Z</time>
      </trkpt>
      <trkpt lat="43.92949" lon="0.19192">
        <ele>69.4</ele>
        <time>2023-07-03T06:31:06Z</time>
      </trkpt>
      <trkpt lat="43.92953" lon="0.19192">
        <ele>69.4</ele>
        <time>2023-07-03T06:31:07Z</time>
      </trkpt>
      <trkpt lat="43.92956" lon="0.19193">
        <ele>69.4</ele>
        <time>2023-07-03T06:31:10Z</time>
      </trkpt>
      <trkpt lat="43.92964" lon="0.19197">
        <ele>69.4</ele>
        <time>2023-07-03T06:31:17Z</time>
      </trkpt>
      <trkpt lat="43.92968" lon="0.19199">
        <ele>69.4</ele>
        <time>2023-07-03T06:31:20Z</time>
      </trkpt>
      <trkpt lat="43.92969" lon="0.19199">
        <ele>69.4</ele>
        <time>2023-07-03T06:31:21Z</time>
      </trkpt>
      <trkpt lat="43.92976" lon="0.19202">
        <ele>69.4</ele>
        <time>2023-07-03T06:31:26Z</time>
      </trkpt>
      <trkpt lat="43.92983" lon="0.19204">
        <ele>69.4</ele>
        <time>2023-07-03T06:31:32Z</time>
      </trkpt>
      <trkpt lat="43.92991" lon="0.19208">
        <ele>69.4</ele>
        <time>2023-07-03T06:31:41Z</time>
      </trkpt>
      <trkpt lat="43.93003" lon="0.19211">
        <ele>69.8</ele>
        <time>2023-07-03T06:31:49Z</time>
      </trkpt>
      <trkpt lat="43.93014" lon="0.19215">
        <ele>69.4</ele>
        <time>2023-07-03T06:31:56Z</time>
      </trkpt>
      <trkpt lat="43.9302" lon="0.19218">
        <ele>69.4</ele>
        <time>2023-07-03T06:32:01Z</time>
      </trkpt>
      <trkpt lat="43.93025" lon="0.1922">
        <ele>69.4</ele>
        <time>2023-07-03T06:32:05Z</time>
      </trkpt>
      <trkpt lat="43.93034" lon="0.19224">
        <ele>69.4</ele>
        <time>2023-07-03T06:32:12Z</time>
      </trkpt>
      <trkpt lat="43.93035" lon="0.19224">
        <ele>69.4</ele>
        <time>2023-07-03T06:32:13Z</time>
      </trkpt>
      <trkpt lat="43.9304" lon="0.19227">
        <ele>69.6</ele>
        <time>2023-07-03T06:32:17Z</time>
      </trkpt>
      <trkpt lat="43.93045" lon="0.19227">
        <ele>69.8</ele>
        <time>2023-07-03T06:32:21Z</time>
      </trkpt>
      <trkpt lat="43.93056" lon="0.19228">
        <ele>69.4</ele>
        <time>2023-07-03T06:32:28Z</time>
      </trkpt>
      <trkpt lat="43.93068" lon="0.19227">
        <ele>69.6</ele>
        <time>2023-07-03T06:32:36Z</time>
      </trkpt>
      <trkpt lat="43.93078" lon="0.19224">
        <ele>69.6</ele>
        <time>2023-07-03T06:32:45Z</time>
      </trkpt>
      <trkpt lat="43.93092" lon="0.19219">
        <ele>69.6</ele>
        <time>2023-07-03T06:32:52Z</time>
      </trkpt>
      <trkpt lat="43.93101" lon="0.19214">
        <ele>70</ele>
        <time>2023-07-03T06:32:59Z</time>
      </trkpt>
      <trkpt lat="43.93103" lon="0.19213">
        <ele>70.2</ele>
        <time>2023-07-03T06:33:00Z</time>
      </trkpt>
      <trkpt lat="43.9311" lon="0.19209">
        <ele>70</ele>
        <time>2023-07-03T06:33:05Z</time>
      </trkpt>
      <trkpt lat="43.93119" lon="0.19203">
        <ele>70</ele>
        <time>2023-07-03T06:33:14Z</time>
      </trkpt>
      <trkpt lat="43.93125" lon="0.19201">
        <ele>69.8</ele>
        <time>2023-07-03T06:33:18Z</time>
      </trkpt>
      <trkpt lat="43.93128" lon="0.192">
        <ele>69.8</ele>
        <time>2023-07-03T06:33:20Z</time>
      </trkpt>
      <trkpt lat="43.93142" lon="0.19201">
        <ele>70.2</ele>
        <time>2023-07-03T06:33:28Z</time>
      </trkpt>
      <trkpt lat="43.93154" lon="0.19204">
        <ele>70</ele>
        <time>2023-07-03T06:33:36Z</time>
      </trkpt>
      <trkpt lat="43.93167" lon="0.19204">
        <ele>70.2</ele>
        <time>2023-07-03T06:33:46Z</time>
      </trkpt>
      <trkpt lat="43.93169" lon="0.19206">
        <ele>70.2</ele>
        <time>2023-07-03T06:33:47Z</time>
      </trkpt>
      <trkpt lat="43.9317" lon="0.19208">
        <ele>70.2</ele>
        <time>2023-07-03T06:33:48Z</time>
      </trkpt>
      <trkpt lat="43.93171" lon="0.19212">
        <ele>70.2</ele>
        <time>2023-07-03T06:33:50Z</time>
      </trkpt>
      <trkpt lat="43.93172" lon="0.19214">
        <ele>70.2</ele>
        <time>2023-07-03T06:33:51Z</time>
      </trkpt>
      <trkpt lat="43.9317" lon="0.19222">
        <ele>69.6</ele>
        <time>2023-07-03T06:33:57Z</time>
      </trkpt>
      <trkpt lat="43.93168" lon="0.19232">
        <ele>69.2</ele>
        <time>2023-07-03T06:34:03Z</time>
      </trkpt>
      <trkpt lat="43.93168" lon="0.19234">
        <ele>69.2</ele>
        <time>2023-07-03T06:34:04Z</time>
      </trkpt>
      <trkpt lat="43.93167" lon="0.19236">
        <ele>69</ele>
        <time>2023-07-03T06:34:05Z</time>
      </trkpt>
      <trkpt lat="43.93167" lon="0.19237">
        <ele>69</ele>
        <time>2023-07-03T06:34:06Z</time>
      </trkpt>
      <trkpt lat="43.93166" lon="0.19239">
        <ele>68.8</ele>
        <time>2023-07-03T06:34:07Z</time>
      </trkpt>
      <trkpt lat="43.93166" lon="0.19241">
        <ele>68.6</ele>
        <time>2023-07-03T06:34:08Z</time>
      </trkpt>
      <trkpt lat="43.93164" lon="0.19244">
        <ele>68.2</ele>
        <time>2023-07-03T06:34:10Z</time>
      </trkpt>
      <trkpt lat="43.93163" lon="0.19247">
        <ele>68</ele>
        <time>2023-07-03T06:34:12Z</time>
      </trkpt>
      <trkpt lat="43.9316" lon="0.1926">
        <ele>67.6</ele>
        <time>2023-07-03T06:34:19Z</time>
      </trkpt>
      <trkpt lat="43.93158" lon="0.19267">
        <ele>67.4</ele>
        <time>2023-07-03T06:34:21Z</time>
      </trkpt>
      <trkpt lat="43.93157" lon="0.19273">
        <ele>67.2</ele>
        <time>2023-07-03T06:34:25Z</time>
      </trkpt>
      <trkpt lat="43.93156" lon="0.19284">
        <ele>66.2</ele>
        <time>2023-07-03T06:34:30Z</time>
      </trkpt>
      <trkpt lat="43.93155" lon="0.19286">
        <ele>66.2</ele>
        <time>2023-07-03T06:34:31Z</time>
      </trkpt>
      <trkpt lat="43.93154" lon="0.1929">
        <ele>66.2</ele>
        <time>2023-07-03T06:34:33Z</time>
      </trkpt>
      <trkpt lat="43.93147" lon="0.19304">
        <ele>66.2</ele>
        <time>2023-07-03T06:34:40Z</time>
      </trkpt>
      <trkpt lat="43.93145" lon="0.19307">
        <ele>66.2</ele>
        <time>2023-07-03T06:34:42Z</time>
      </trkpt>
      <trkpt lat="43.93143" lon="0.1931">
        <ele>66</ele>
        <time>2023-07-03T06:34:44Z</time>
      </trkpt>
      <trkpt lat="43.93141" lon="0.19314">
        <ele>66</ele>
        <time>2023-07-03T06:34:47Z</time>
      </trkpt>
      <trkpt lat="43.93142" lon="0.19315">
        <ele>66</ele>
        <time>2023-07-03T06:34:48Z</time>
      </trkpt>
      <trkpt lat="43.9314" lon="0.19321">
        <ele>65.8</ele>
        <time>2023-07-03T06:34:53Z</time>
      </trkpt>
      <trkpt lat="43.93139" lon="0.19324">
        <ele>65.6</ele>
        <time>2023-07-03T06:34:55Z</time>
      </trkpt>
      <trkpt lat="43.93135" lon="0.1933">
        <ele>65.6</ele>
        <time>2023-07-03T06:34:59Z</time>
      </trkpt>
      <trkpt lat="43.93134" lon="0.1933">
        <ele>65.8</ele>
        <time>2023-07-03T06:35:01Z</time>
      </trkpt>
      <trkpt lat="43.93131" lon="0.19334">
        <ele>65.6</ele>
        <time>2023-07-03T06:35:07Z</time>
      </trkpt>
      <trkpt lat="43.93123" lon="0.19344">
        <ele>65.6</ele>
        <time>2023-07-03T06:35:15Z</time>
      </trkpt>
      <trkpt lat="43.93122" lon="0.19346">
        <ele>65.8</ele>
        <time>2023-07-03T06:35:16Z</time>
      </trkpt>
      <trkpt lat="43.93115" lon="0.19354">
        <ele>65.8</ele>
        <time>2023-07-03T06:35:24Z</time>
      </trkpt>
      <trkpt lat="43.93111" lon="0.19358">
        <ele>65.8</ele>
        <time>2023-07-03T06:35:28Z</time>
      </trkpt>
      <trkpt lat="43.93109" lon="0.1936">
        <ele>66</ele>
        <time>2023-07-03T06:35:30Z</time>
      </trkpt>
      <trkpt lat="43.93106" lon="0.19364">
        <ele>66</ele>
        <time>2023-07-03T06:35:34Z</time>
      </trkpt>
      <trkpt lat="43.93103" lon="0.19369">
        <ele>66</ele>
        <time>2023-07-03T06:35:36Z</time>
      </trkpt>
      <trkpt lat="43.93103" lon="0.1937">
        <ele>65.8</ele>
        <time>2023-07-03T06:35:37Z</time>
      </trkpt>
      <trkpt lat="43.93102" lon="0.19372">
        <ele>65.8</ele>
        <time>2023-07-03T06:35:38Z</time>
      </trkpt>
      <trkpt lat="43.93101" lon="0.19373">
        <ele>65.8</ele>
        <time>2023-07-03T06:35:39Z</time>
      </trkpt>
      <trkpt lat="43.93101" lon="0.19375">
        <ele>65.8</ele>
        <time>2023-07-03T06:35:40Z</time>
      </trkpt>
      <trkpt lat="43.931" lon="0.19376">
        <ele>65.8</ele>
        <time>2023-07-03T06:35:41Z</time>
      </trkpt>
      <trkpt lat="43.93098" lon="0.19381">
        <ele>65.8</ele>
        <time>2023-07-03T06:35:43Z</time>
      </trkpt>
      <trkpt lat="43.93098" lon="0.19383">
        <ele>65.8</ele>
        <time>2023-07-03T06:35:44Z</time>
      </trkpt>
      <trkpt lat="43.93097" lon="0.1939">
        <ele>66</ele>
        <time>2023-07-03T06:35:47Z</time>
      </trkpt>
      <trkpt lat="43.93096" lon="0.19395">
        <ele>66</ele>
        <time>2023-07-03T06:35:49Z</time>
      </trkpt>
      <trkpt lat="43.93097" lon="0.19397">
        <ele>66.2</ele>
        <time>2023-07-03T06:35:51Z</time>
      </trkpt>
      <trkpt lat="43.93097" lon="0.19398">
        <ele>66.2</ele>
        <time>2023-07-03T06:35:52Z</time>
      </trkpt>
      <trkpt lat="43.93098" lon="0.19405">
        <ele>66</ele>
        <time>2023-07-03T06:35:56Z</time>
      </trkpt>
      <trkpt lat="43.93099" lon="0.19409">
        <ele>66</ele>
        <time>2023-07-03T06:35:58Z</time>
      </trkpt>
      <trkpt lat="43.93098" lon="0.19411">
        <ele>66</ele>
        <time>2023-07-03T06:35:59Z</time>
      </trkpt>
      <trkpt lat="43.93098" lon="0.19421">
        <ele>66.2</ele>
        <time>2023-07-03T06:36:03Z</time>
      </trkpt>
      <trkpt lat="43.93097" lon="0.19429">
        <ele>66</ele>
        <time>2023-07-03T06:36:07Z</time>
      </trkpt>
      <trkpt lat="43.93098" lon="0.19445">
        <ele>66</ele>
        <time>2023-07-03T06:36:16Z</time>
      </trkpt>
      <trkpt lat="43.9309" lon="0.19461">
        <ele>66</ele>
        <time>2023-07-03T06:36:25Z</time>
      </trkpt>
      <trkpt lat="43.93089" lon="0.19464">
        <ele>66</ele>
        <time>2023-07-03T06:36:27Z</time>
      </trkpt>
      <trkpt lat="43.93089" lon="0.19476">
        <ele>66.2</ele>
        <time>2023-07-03T06:36:34Z</time>
      </trkpt>
      <trkpt lat="43.93085" lon="0.19491">
        <ele>66.4</ele>
        <time>2023-07-03T06:36:42Z</time>
      </trkpt>
      <trkpt lat="43.93083" lon="0.19495">
        <ele>66.6</ele>
        <time>2023-07-03T06:36:44Z</time>
      </trkpt>
      <trkpt lat="43.9308" lon="0.19503">
        <ele>66.6</ele>
        <time>2023-07-03T06:36:48Z</time>
      </trkpt>
      <trkpt lat="43.9308" lon="0.19505">
        <ele>66.8</ele>
        <time>2023-07-03T06:36:49Z</time>
      </trkpt>
      <trkpt lat="43.9308" lon="0.19509">
        <ele>66.8</ele>
        <time>2023-07-03T06:36:51Z</time>
      </trkpt>
      <trkpt lat="43.93079" lon="0.19517">
        <ele>66.8</ele>
        <time>2023-07-03T06:36:55Z</time>
      </trkpt>
      <trkpt lat="43.93078" lon="0.1952">
        <ele>67</ele>
        <time>2023-07-03T06:36:57Z</time>
      </trkpt>
      <trkpt lat="43.93077" lon="0.19524">
        <ele>67</ele>
        <time>2023-07-03T06:36:59Z</time>
      </trkpt>
      <trkpt lat="43.93075" lon="0.19529">
        <ele>67.2</ele>
        <time>2023-07-03T06:37:02Z</time>
      </trkpt>
      <trkpt lat="43.93074" lon="0.19532">
        <ele>67.2</ele>
        <time>2023-07-03T06:37:04Z</time>
      </trkpt>
      <trkpt lat="43.93077" lon="0.19544">
        <ele>67.4</ele>
        <time>2023-07-03T06:37:10Z</time>
      </trkpt>
      <trkpt lat="43.93077" lon="0.19546">
        <ele>67.4</ele>
        <time>2023-07-03T06:37:11Z</time>
      </trkpt>
      <trkpt lat="43.93082" lon="0.19553">
        <ele>67.8</ele>
        <time>2023-07-03T06:37:17Z</time>
      </trkpt>
      <trkpt lat="43.93082" lon="0.19554">
        <ele>67.8</ele>
        <time>2023-07-03T06:37:18Z</time>
      </trkpt>
      <trkpt lat="43.93086" lon="0.19559">
        <ele>68.2</ele>
        <time>2023-07-03T06:37:23Z</time>
      </trkpt>
      <trkpt lat="43.93087" lon="0.1956">
        <ele>68.2</ele>
        <time>2023-07-03T06:37:24Z</time>
      </trkpt>
      <trkpt lat="43.93088" lon="0.19561">
        <ele>68.4</ele>
        <time>2023-07-03T06:37:25Z</time>
      </trkpt>
      <trkpt lat="43.93089" lon="0.19562">
        <ele>68.4</ele>
        <time>2023-07-03T06:37:27Z</time>
      </trkpt>
      <trkpt lat="43.9309" lon="0.19564">
        <ele>68.6</ele>
        <time>2023-07-03T06:37:29Z</time>
      </trkpt>
      <trkpt lat="43.93092" lon="0.19566">
        <ele>69</ele>
        <time>2023-07-03T06:37:31Z</time>
      </trkpt>
      <trkpt lat="43.93095" lon="0.1957">
        <ele>69.4</ele>
        <time>2023-07-03T06:37:35Z</time>
      </trkpt>
      <trkpt lat="43.93096" lon="0.19571">
        <ele>69.4</ele>
        <time>2023-07-03T06:37:37Z</time>
      </trkpt>
      <trkpt lat="43.93102" lon="0.19576">
        <ele>69.8</ele>
        <time>2023-07-03T06:37:43Z</time>
      </trkpt>
      <trkpt lat="43.93104" lon="0.19578">
        <ele>69.8</ele>
        <time>2023-07-03T06:37:45Z</time>
      </trkpt>
      <trkpt lat="43.93108" lon="0.19582">
        <ele>70</ele>
        <time>2023-07-03T06:37:48Z</time>
      </trkpt>
      <trkpt lat="43.93112" lon="0.19585">
        <ele>70.4</ele>
        <time>2023-07-03T06:37:51Z</time>
      </trkpt>
      <trkpt lat="43.93113" lon="0.19585">
        <ele>70.4</ele>
        <time>2023-07-03T06:37:52Z</time>
      </trkpt>
      <trkpt lat="43.93116" lon="0.19587">
        <ele>70.6</ele>
        <time>2023-07-03T06:37:54Z</time>
      </trkpt>
      <trkpt lat="43.93122" lon="0.1959">
        <ele>70.8</ele>
        <time>2023-07-03T06:37:59Z</time>
      </trkpt>
      <trkpt lat="43.93124" lon="0.19591">
        <ele>70.8</ele>
        <time>2023-07-03T06:38:01Z</time>
      </trkpt>
      <trkpt lat="43.93128" lon="0.19593">
        <ele>71</ele>
        <time>2023-07-03T06:38:04Z</time>
      </trkpt>
      <trkpt lat="43.93131" lon="0.19596">
        <ele>71.6</ele>
        <time>2023-07-03T06:38:08Z</time>
      </trkpt>
      <trkpt lat="43.93133" lon="0.19597">
        <ele>71.6</ele>
        <time>2023-07-03T06:38:09Z</time>
      </trkpt>
      <trkpt lat="43.93139" lon="0.196">
        <ele>72</ele>
        <time>2023-07-03T06:38:16Z</time>
      </trkpt>
      <trkpt lat="43.93141" lon="0.19601">
        <ele>71.6</ele>
        <time>2023-07-03T06:38:18Z</time>
      </trkpt>
      <trkpt lat="43.93145" lon="0.19601">
        <ele>71.6</ele>
        <time>2023-07-03T06:38:20Z</time>
      </trkpt>
      <trkpt lat="43.93146" lon="0.19602">
        <ele>71.4</ele>
        <time>2023-07-03T06:38:22Z</time>
      </trkpt>
      <trkpt lat="43.93147" lon="0.19602">
        <ele>71.4</ele>
        <time>2023-07-03T06:38:23Z</time>
      </trkpt>
      <trkpt lat="43.93153" lon="0.19604">
        <ele>71</ele>
        <time>2023-07-03T06:38:28Z</time>
      </trkpt>
      <trkpt lat="43.9316" lon="0.19606">
        <ele>70.6</ele>
        <time>2023-07-03T06:38:32Z</time>
      </trkpt>
      <trkpt lat="43.93161" lon="0.19607">
        <ele>70.6</ele>
        <time>2023-07-03T06:38:33Z</time>
      </trkpt>
      <trkpt lat="43.93163" lon="0.19606">
        <ele>70.6</ele>
        <time>2023-07-03T06:38:35Z</time>
      </trkpt>
      <trkpt lat="43.93173" lon="0.19608">
        <ele>70.2</ele>
        <time>2023-07-03T06:38:43Z</time>
      </trkpt>
      <trkpt lat="43.93181" lon="0.19606">
        <ele>69.6</ele>
        <time>2023-07-03T06:38:50Z</time>
      </trkpt>
      <trkpt lat="43.93184" lon="0.19605">
        <ele>69.4</ele>
        <time>2023-07-03T06:38:52Z</time>
      </trkpt>
      <trkpt lat="43.93191" lon="0.19604">
        <ele>69.2</ele>
        <time>2023-07-03T06:38:57Z</time>
      </trkpt>
      <trkpt lat="43.93197" lon="0.19604">
        <ele>68.8</ele>
        <time>2023-07-03T06:39:01Z</time>
      </trkpt>
      <trkpt lat="43.93199" lon="0.19605">
        <ele>69</ele>
        <time>2023-07-03T06:39:03Z</time>
      </trkpt>
      <trkpt lat="43.93205" lon="0.19605">
        <ele>69</ele>
        <time>2023-07-03T06:39:07Z</time>
      </trkpt>
      <trkpt lat="43.9321" lon="0.19606">
        <ele>68.4</ele>
        <time>2023-07-03T06:39:11Z</time>
      </trkpt>
      <trkpt lat="43.93211" lon="0.19606">
        <ele>68.2</ele>
        <time>2023-07-03T06:39:12Z</time>
      </trkpt>
      <trkpt lat="43.9322" lon="0.19607">
        <ele>68</ele>
        <time>2023-07-03T06:39:18Z</time>
      </trkpt>
      <trkpt lat="43.93222" lon="0.19606">
        <ele>68</ele>
        <time>2023-07-03T06:39:20Z</time>
      </trkpt>
      <trkpt lat="43.93226" lon="0.19607">
        <ele>68.2</ele>
        <time>2023-07-03T06:39:23Z</time>
      </trkpt>
      <trkpt lat="43.93238" lon="0.19608">
        <ele>67.6</ele>
        <time>2023-07-03T06:39:31Z</time>
      </trkpt>
      <trkpt lat="43.93241" lon="0.19608">
        <ele>67.6</ele>
        <time>2023-07-03T06:39:34Z</time>
      </trkpt>
      <trkpt lat="43.93244" lon="0.19608">
        <ele>67.6</ele>
        <time>2023-07-03T06:39:37Z</time>
      </trkpt>
      <trkpt lat="43.93245" lon="0.19608">
        <ele>67.6</ele>
        <time>2023-07-03T06:39:38Z</time>
      </trkpt>
      <trkpt lat="43.93247" lon="0.19608">
        <ele>67.6</ele>
        <time>2023-07-03T06:39:41Z</time>
      </trkpt>
      <trkpt lat="43.93248" lon="0.19609">
        <ele>67.6</ele>
        <time>2023-07-03T06:39:42Z</time>
      </trkpt>
      <trkpt lat="43.9325" lon="0.1961">
        <ele>67.4</ele>
        <time>2023-07-03T06:39:43Z</time>
      </trkpt>
      <trkpt lat="43.93251" lon="0.1961">
        <ele>67.4</ele>
        <time>2023-07-03T06:39:44Z</time>
      </trkpt>
      <trkpt lat="43.93261" lon="0.19612">
        <ele>67.4</ele>
        <time>2023-07-03T06:39:50Z</time>
      </trkpt>
      <trkpt lat="43.93269" lon="0.19615">
        <ele>67</ele>
        <time>2023-07-03T06:39:56Z</time>
      </trkpt>
      <trkpt lat="43.93272" lon="0.19615">
        <ele>66.8</ele>
        <time>2023-07-03T06:39:58Z</time>
      </trkpt>
      <trkpt lat="43.93276" lon="0.19616">
        <ele>66.6</ele>
        <time>2023-07-03T06:40:01Z</time>
      </trkpt>
      <trkpt lat="43.93277" lon="0.19617">
        <ele>66.8</ele>
        <time>2023-07-03T06:40:03Z</time>
      </trkpt>
      <trkpt lat="43.93278" lon="0.19617">
        <ele>66.8</ele>
        <time>2023-07-03T06:40:04Z</time>
      </trkpt>
      <trkpt lat="43.9328" lon="0.19618">
        <ele>66.8</ele>
        <time>2023-07-03T06:40:07Z</time>
      </trkpt>
      <trkpt lat="43.93285" lon="0.1962">
        <ele>66.8</ele>
        <time>2023-07-03T06:40:11Z</time>
      </trkpt>
      <trkpt lat="43.9329" lon="0.19621">
        <ele>66.8</ele>
        <time>2023-07-03T06:40:14Z</time>
      </trkpt>
      <trkpt lat="43.93299" lon="0.19623">
        <ele>67.2</ele>
        <time>2023-07-03T06:40:21Z</time>
      </trkpt>
      <trkpt lat="43.93307" lon="0.19626">
        <ele>67.6</ele>
        <time>2023-07-03T06:40:28Z</time>
      </trkpt>
      <trkpt lat="43.93315" lon="0.19625">
        <ele>68.2</ele>
        <time>2023-07-03T06:40:35Z</time>
      </trkpt>
      <trkpt lat="43.9332" lon="0.19625">
        <ele>68.2</ele>
        <time>2023-07-03T06:40:39Z</time>
      </trkpt>
      <trkpt lat="43.93324" lon="0.19625">
        <ele>68.4</ele>
        <time>2023-07-03T06:40:42Z</time>
      </trkpt>
      <trkpt lat="43.93326" lon="0.19626">
        <ele>68.2</ele>
        <time>2023-07-03T06:40:43Z</time>
      </trkpt>
      <trkpt lat="43.93333" lon="0.19626">
        <ele>68</ele>
        <time>2023-07-03T06:40:49Z</time>
      </trkpt>
      <trkpt lat="43.93337" lon="0.19625">
        <ele>67.8</ele>
        <time>2023-07-03T06:40:51Z</time>
      </trkpt>
      <trkpt lat="43.93343" lon="0.19623">
        <ele>67.6</ele>
        <time>2023-07-03T06:40:56Z</time>
      </trkpt>
      <trkpt lat="43.93345" lon="0.19622">
        <ele>67.8</ele>
        <time>2023-07-03T06:40:58Z</time>
      </trkpt>
      <trkpt lat="43.93353" lon="0.1962">
        <ele>67.4</ele>
        <time>2023-07-03T06:41:03Z</time>
      </trkpt>
      <trkpt lat="43.93355" lon="0.1962">
        <ele>67.2</ele>
        <time>2023-07-03T06:41:05Z</time>
      </trkpt>
      <trkpt lat="43.93363" lon="0.19617">
        <ele>66.8</ele>
        <time>2023-07-03T06:41:11Z</time>
      </trkpt>
      <trkpt lat="43.9337" lon="0.19611">
        <ele>66.4</ele>
        <time>2023-07-03T06:41:15Z</time>
      </trkpt>
      <trkpt lat="43.93372" lon="0.19609">
        <ele>66.2</ele>
        <time>2023-07-03T06:41:17Z</time>
      </trkpt>
      <trkpt lat="43.93372" lon="0.19608">
        <ele>66</ele>
        <time>2023-07-03T06:41:19Z</time>
      </trkpt>
      <trkpt lat="43.93374" lon="0.19605">
        <ele>65.8</ele>
        <time>2023-07-03T06:41:21Z</time>
      </trkpt>
      <trkpt lat="43.93378" lon="0.19601">
        <ele>65.6</ele>
        <time>2023-07-03T06:41:25Z</time>
      </trkpt>
      <trkpt lat="43.93387" lon="0.19595">
        <ele>65.4</ele>
        <time>2023-07-03T06:41:33Z</time>
      </trkpt>
      <trkpt lat="43.93388" lon="0.19595">
        <ele>65.2</ele>
        <time>2023-07-03T06:41:34Z</time>
      </trkpt>
      <trkpt lat="43.93389" lon="0.19596">
        <ele>65</ele>
        <time>2023-07-03T06:41:35Z</time>
      </trkpt>
      <trkpt lat="43.93391" lon="0.19596">
        <ele>65</ele>
        <time>2023-07-03T06:41:36Z</time>
      </trkpt>
      <trkpt lat="43.93396" lon="0.19599">
        <ele>65</ele>
        <time>2023-07-03T06:41:40Z</time>
      </trkpt>
      <trkpt lat="43.93406" lon="0.19601">
        <ele>65</ele>
        <time>2023-07-03T06:41:48Z</time>
      </trkpt>
      <trkpt lat="43.93418" lon="0.19602">
        <ele>64.8</ele>
        <time>2023-07-03T06:41:56Z</time>
      </trkpt>
      <trkpt lat="43.93428" lon="0.19596">
        <ele>65.2</ele>
        <time>2023-07-03T06:42:04Z</time>
      </trkpt>
      <trkpt lat="43.93439" lon="0.19595">
        <ele>65.4</ele>
        <time>2023-07-03T06:42:13Z</time>
      </trkpt>
      <trkpt lat="43.9345" lon="0.19598">
        <ele>65.6</ele>
        <time>2023-07-03T06:42:21Z</time>
      </trkpt>
      <trkpt lat="43.93451" lon="0.19598">
        <ele>65.6</ele>
        <time>2023-07-03T06:42:22Z</time>
      </trkpt>
      <trkpt lat="43.93458" lon="0.196">
        <ele>65.8</ele>
        <time>2023-07-03T06:42:28Z</time>
      </trkpt>
      <trkpt lat="43.93466" lon="0.19601">
        <ele>66.2</ele>
        <time>2023-07-03T06:42:36Z</time>
      </trkpt>
      <trkpt lat="43.93474" lon="0.196">
        <ele>66.2</ele>
        <time>2023-07-03T06:42:42Z</time>
      </trkpt>
      <trkpt lat="43.93478" lon="0.196">
        <ele>66.2</ele>
        <time>2023-07-03T06:42:45Z</time>
      </trkpt>
      <trkpt lat="43.93479" lon="0.19601">
        <ele>66.2</ele>
        <time>2023-07-03T06:42:46Z</time>
      </trkpt>
      <trkpt lat="43.93481" lon="0.196">
        <ele>66.4</ele>
        <time>2023-07-03T06:42:48Z</time>
      </trkpt>
      <trkpt lat="43.93482" lon="0.196">
        <ele>66.6</ele>
        <time>2023-07-03T06:42:49Z</time>
      </trkpt>
      <trkpt lat="43.93483" lon="0.19598">
        <ele>66.6</ele>
        <time>2023-07-03T06:42:51Z</time>
      </trkpt>
      <trkpt lat="43.93485" lon="0.19599">
        <ele>66.4</ele>
        <time>2023-07-03T06:42:54Z</time>
      </trkpt>
      <trkpt lat="43.93485" lon="0.19599">
        <ele>66.4</ele>
        <time>2023-07-03T06:42:55Z</time>
      </trkpt>
      <trkpt lat="43.93486" lon="0.19603">
        <ele>66.8</ele>
        <time>2023-07-03T06:43:00Z</time>
      </trkpt>
      <trkpt lat="43.93488" lon="0.19603">
        <ele>66.8</ele>
        <time>2023-07-03T06:43:02Z</time>
      </trkpt>
      <trkpt lat="43.93493" lon="0.19602">
        <ele>66.8</ele>
        <time>2023-07-03T06:43:06Z</time>
      </trkpt>
      <trkpt lat="43.93495" lon="0.19602">
        <ele>66.8</ele>
        <time>2023-07-03T06:43:08Z</time>
      </trkpt>
      <trkpt lat="43.93496" lon="0.19602">
        <ele>66.8</ele>
        <time>2023-07-03T06:43:09Z</time>
      </trkpt>
      <trkpt lat="43.93498" lon="0.19602">
        <ele>66.6</ele>
        <time>2023-07-03T06:43:10Z</time>
      </trkpt>
      <trkpt lat="43.93499" lon="0.19601">
        <ele>66.6</ele>
        <time>2023-07-03T06:43:11Z</time>
      </trkpt>
      <trkpt lat="43.93501" lon="0.19599">
        <ele>66</ele>
        <time>2023-07-03T06:43:13Z</time>
      </trkpt>
      <trkpt lat="43.93504" lon="0.19597">
        <ele>65.8</ele>
        <time>2023-07-03T06:43:16Z</time>
      </trkpt>
      <trkpt lat="43.93509" lon="0.19596">
        <ele>65.6</ele>
        <time>2023-07-03T06:43:19Z</time>
      </trkpt>
      <trkpt lat="43.9351" lon="0.19595">
        <ele>65.4</ele>
        <time>2023-07-03T06:43:20Z</time>
      </trkpt>
      <trkpt lat="43.93515" lon="0.19594">
        <ele>65.4</ele>
        <time>2023-07-03T06:43:23Z</time>
      </trkpt>
      <trkpt lat="43.93516" lon="0.19594">
        <ele>65.2</ele>
        <time>2023-07-03T06:43:24Z</time>
      </trkpt>
      <trkpt lat="43.93516" lon="0.19592">
        <ele>65.2</ele>
        <time>2023-07-03T06:43:25Z</time>
      </trkpt>
      <trkpt lat="43.93519" lon="0.19587">
        <ele>65.2</ele>
        <time>2023-07-03T06:43:29Z</time>
      </trkpt>
      <trkpt lat="43.93524" lon="0.19584">
        <ele>65.2</ele>
        <time>2023-07-03T06:43:33Z</time>
      </trkpt>
      <trkpt lat="43.93527" lon="0.19583">
        <ele>65.2</ele>
        <time>2023-07-03T06:43:35Z</time>
      </trkpt>
      <trkpt lat="43.93531" lon="0.19582">
        <ele>65.2</ele>
        <time>2023-07-03T06:43:37Z</time>
      </trkpt>
      <trkpt lat="43.93535" lon="0.19582">
        <ele>65.2</ele>
        <time>2023-07-03T06:43:39Z</time>
      </trkpt>
      <trkpt lat="43.93538" lon="0.19582">
        <ele>65</ele>
        <time>2023-07-03T06:43:41Z</time>
      </trkpt>
      <trkpt lat="43.93546" lon="0.1958">
        <ele>65.2</ele>
        <time>2023-07-03T06:43:47Z</time>
      </trkpt>
      <trkpt lat="43.9355" lon="0.19579">
        <ele>65.2</ele>
        <time>2023-07-03T06:43:50Z</time>
      </trkpt>
      <trkpt lat="43.93562" lon="0.19576">
        <ele>65.6</ele>
        <time>2023-07-03T06:43:59Z</time>
      </trkpt>
      <trkpt lat="43.93565" lon="0.19575">
        <ele>65.6</ele>
        <time>2023-07-03T06:44:00Z</time>
      </trkpt>
      <trkpt lat="43.93567" lon="0.19575">
        <ele>65.4</ele>
        <time>2023-07-03T06:44:03Z</time>
      </trkpt>
      <trkpt lat="43.93571" lon="0.19574">
        <ele>65.4</ele>
        <time>2023-07-03T06:44:07Z</time>
      </trkpt>
      <trkpt lat="43.93582" lon="0.19574">
        <ele>65.4</ele>
        <time>2023-07-03T06:44:16Z</time>
      </trkpt>
      <trkpt lat="43.93586" lon="0.19574">
        <ele>65.6</ele>
        <time>2023-07-03T06:44:19Z</time>
      </trkpt>
      <trkpt lat="43.9359" lon="0.19574">
        <ele>65.8</ele>
        <time>2023-07-03T06:44:23Z</time>
      </trkpt>
      <trkpt lat="43.936" lon="0.19575">
        <ele>66</ele>
        <time>2023-07-03T06:44:30Z</time>
      </trkpt>
      <trkpt lat="43.93607" lon="0.19573">
        <ele>66</ele>
        <time>2023-07-03T06:44:35Z</time>
      </trkpt>
      <trkpt lat="43.93608" lon="0.19573">
        <ele>66</ele>
        <time>2023-07-03T06:44:36Z</time>
      </trkpt>
      <trkpt lat="43.93611" lon="0.1957">
        <ele>66</ele>
        <time>2023-07-03T06:44:38Z</time>
      </trkpt>
      <trkpt lat="43.9362" lon="0.19569">
        <ele>65.8</ele>
        <time>2023-07-03T06:44:45Z</time>
      </trkpt>
      <trkpt lat="43.93627" lon="0.1957">
        <ele>66</ele>
        <time>2023-07-03T06:44:51Z</time>
      </trkpt>
      <trkpt lat="43.93636" lon="0.19566">
        <ele>66</ele>
        <time>2023-07-03T06:44:58Z</time>
      </trkpt>
      <trkpt lat="43.93647" lon="0.19565">
        <ele>66</ele>
        <time>2023-07-03T06:45:07Z</time>
      </trkpt>
      <trkpt lat="43.93659" lon="0.19564">
        <ele>65.4</ele>
        <time>2023-07-03T06:45:16Z</time>
      </trkpt>
      <trkpt lat="43.93666" lon="0.19563">
        <ele>65.4</ele>
        <time>2023-07-03T06:45:22Z</time>
      </trkpt>
      <trkpt lat="43.93675" lon="0.19563">
        <ele>65.4</ele>
        <time>2023-07-03T06:45:29Z</time>
      </trkpt>
      <trkpt lat="43.93686" lon="0.19566">
        <ele>65.6</ele>
        <time>2023-07-03T06:45:37Z</time>
      </trkpt>
      <trkpt lat="43.93698" lon="0.19569">
        <ele>65.8</ele>
        <time>2023-07-03T06:45:45Z</time>
      </trkpt>
      <trkpt lat="43.93709" lon="0.19573">
        <ele>66.2</ele>
        <time>2023-07-03T06:45:53Z</time>
      </trkpt>
      <trkpt lat="43.9371" lon="0.19574">
        <ele>66.2</ele>
        <time>2023-07-03T06:45:54Z</time>
      </trkpt>
      <trkpt lat="43.93717" lon="0.19575">
        <ele>66.6</ele>
        <time>2023-07-03T06:46:00Z</time>
      </trkpt>
      <trkpt lat="43.93726" lon="0.19578">
        <ele>66.6</ele>
        <time>2023-07-03T06:46:07Z</time>
      </trkpt>
      <trkpt lat="43.93737" lon="0.19581">
        <ele>66.8</ele>
        <time>2023-07-03T06:46:15Z</time>
      </trkpt>
      <trkpt lat="43.93746" lon="0.19582">
        <ele>67.2</ele>
        <time>2023-07-03T06:46:21Z</time>
      </trkpt>
      <trkpt lat="43.93748" lon="0.19582">
        <ele>67.4</ele>
        <time>2023-07-03T06:46:22Z</time>
      </trkpt>
      <trkpt lat="43.93762" lon="0.19587">
        <ele>67.6</ele>
        <time>2023-07-03T06:46:32Z</time>
      </trkpt>
      <trkpt lat="43.93771" lon="0.19593">
        <ele>68</ele>
        <time>2023-07-03T06:46:41Z</time>
      </trkpt>
      <trkpt lat="43.9378" lon="0.19593">
        <ele>68</ele>
        <time>2023-07-03T06:46:48Z</time>
      </trkpt>
      <trkpt lat="43.93791" lon="0.19598">
        <ele>67.8</ele>
        <time>2023-07-03T06:46:57Z</time>
      </trkpt>
      <trkpt lat="43.93803" lon="0.19601">
        <ele>68</ele>
        <time>2023-07-03T06:47:06Z</time>
      </trkpt>
      <trkpt lat="43.9381" lon="0.19603">
        <ele>67.6</ele>
        <time>2023-07-03T06:47:12Z</time>
      </trkpt>
      <trkpt lat="43.93814" lon="0.19604">
        <ele>67.2</ele>
        <time>2023-07-03T06:47:15Z</time>
      </trkpt>
      <trkpt lat="43.9382" lon="0.19606">
        <ele>67.2</ele>
        <time>2023-07-03T06:47:19Z</time>
      </trkpt>
      <trkpt lat="43.93826" lon="0.19607">
        <ele>67.2</ele>
        <time>2023-07-03T06:47:23Z</time>
      </trkpt>
      <trkpt lat="43.93829" lon="0.19608">
        <ele>67</ele>
        <time>2023-07-03T06:47:26Z</time>
      </trkpt>
      <trkpt lat="43.93837" lon="0.19612">
        <ele>66.2</ele>
        <time>2023-07-03T06:47:32Z</time>
      </trkpt>
      <trkpt lat="43.93838" lon="0.19613">
        <ele>66</ele>
        <time>2023-07-03T06:47:33Z</time>
      </trkpt>
      <trkpt lat="43.93845" lon="0.19616">
        <ele>65</ele>
        <time>2023-07-03T06:47:39Z</time>
      </trkpt>
      <trkpt lat="43.93854" lon="0.19616">
        <ele>65.2</ele>
        <time>2023-07-03T06:47:46Z</time>
      </trkpt>
      <trkpt lat="43.93861" lon="0.1962">
        <ele>65.2</ele>
        <time>2023-07-03T06:47:52Z</time>
      </trkpt>
      <trkpt lat="43.93865" lon="0.19622">
        <ele>65.6</ele>
        <time>2023-07-03T06:47:56Z</time>
      </trkpt>
      <trkpt lat="43.93866" lon="0.19622">
        <ele>65.6</ele>
        <time>2023-07-03T06:47:58Z</time>
      </trkpt>
      <trkpt lat="43.93868" lon="0.19623">
        <ele>65.6</ele>
        <time>2023-07-03T06:48:00Z</time>
      </trkpt>
      <trkpt lat="43.9387" lon="0.19624">
        <ele>65.6</ele>
        <time>2023-07-03T06:48:02Z</time>
      </trkpt>
      <trkpt lat="43.93872" lon="0.19626">
        <ele>65.6</ele>
        <time>2023-07-03T06:48:06Z</time>
      </trkpt>
      <trkpt lat="43.93874" lon="0.19626">
        <ele>65.6</ele>
        <time>2023-07-03T06:48:07Z</time>
      </trkpt>
      <trkpt lat="43.93875" lon="0.19627">
        <ele>65.6</ele>
        <time>2023-07-03T06:48:08Z</time>
      </trkpt>
      <trkpt lat="43.93881" lon="0.19628">
        <ele>65.6</ele>
        <time>2023-07-03T06:48:12Z</time>
      </trkpt>
      <trkpt lat="43.93883" lon="0.19629">
        <ele>65.4</ele>
        <time>2023-07-03T06:48:13Z</time>
      </trkpt>
      <trkpt lat="43.93893" lon="0.19631">
        <ele>65.4</ele>
        <time>2023-07-03T06:48:20Z</time>
      </trkpt>
      <trkpt lat="43.93894" lon="0.19631">
        <ele>65.4</ele>
        <time>2023-07-03T06:48:21Z</time>
      </trkpt>
      <trkpt lat="43.93896" lon="0.19631">
        <ele>65.4</ele>
        <time>2023-07-03T06:48:23Z</time>
      </trkpt>
      <trkpt lat="43.93898" lon="0.19632">
        <ele>65.4</ele>
        <time>2023-07-03T06:48:25Z</time>
      </trkpt>
      <trkpt lat="43.93901" lon="0.19633">
        <ele>65.6</ele>
        <time>2023-07-03T06:48:28Z</time>
      </trkpt>
      <trkpt lat="43.9391" lon="0.19637">
        <ele>65.6</ele>
        <time>2023-07-03T06:48:35Z</time>
      </trkpt>
      <trkpt lat="43.93912" lon="0.19638">
        <ele>65.4</ele>
        <time>2023-07-03T06:48:36Z</time>
      </trkpt>
      <trkpt lat="43.93914" lon="0.19638">
        <ele>65.4</ele>
        <time>2023-07-03T06:48:38Z</time>
      </trkpt>
      <trkpt lat="43.93919" lon="0.19641">
        <ele>65.6</ele>
        <time>2023-07-03T06:48:41Z</time>
      </trkpt>
      <trkpt lat="43.93923" lon="0.19642">
        <ele>65.8</ele>
        <time>2023-07-03T06:48:43Z</time>
      </trkpt>
      <trkpt lat="43.93928" lon="0.19645">
        <ele>65.8</ele>
        <time>2023-07-03T06:48:46Z</time>
      </trkpt>
      <trkpt lat="43.93929" lon="0.19645">
        <ele>65.8</ele>
        <time>2023-07-03T06:48:47Z</time>
      </trkpt>
      <trkpt lat="43.93937" lon="0.19645">
        <ele>65.4</ele>
        <time>2023-07-03T06:48:53Z</time>
      </trkpt>
      <trkpt lat="43.93948" lon="0.19646">
        <ele>65.4</ele>
        <time>2023-07-03T06:49:01Z</time>
      </trkpt>
      <trkpt lat="43.93955" lon="0.19646">
        <ele>65</ele>
        <time>2023-07-03T06:49:06Z</time>
      </trkpt>
      <trkpt lat="43.93957" lon="0.19646">
        <ele>65</ele>
        <time>2023-07-03T06:49:08Z</time>
      </trkpt>
      <trkpt lat="43.93963" lon="0.19648">
        <ele>64.6</ele>
        <time>2023-07-03T06:49:13Z</time>
      </trkpt>
      <trkpt lat="43.93965" lon="0.19649">
        <ele>64.6</ele>
        <time>2023-07-03T06:49:15Z</time>
      </trkpt>
      <trkpt lat="43.93973" lon="0.19641">
        <ele>65.2</ele>
        <time>2023-07-03T06:52:09Z</time>
      </trkpt>
      <trkpt lat="43.93973" lon="0.19641">
        <ele>65.2</ele>
        <time>2023-07-03T06:52:10Z</time>
      </trkpt>
      <trkpt lat="43.9398" lon="0.19642">
        <ele>65.8</ele>
        <time>2023-07-03T06:52:16Z</time>
      </trkpt>
      <trkpt lat="43.93983" lon="0.19643">
        <ele>66</ele>
        <time>2023-07-03T06:52:19Z</time>
      </trkpt>
      <trkpt lat="43.93985" lon="0.19644">
        <ele>66</ele>
        <time>2023-07-03T06:52:21Z</time>
      </trkpt>
      <trkpt lat="43.93989" lon="0.19647">
        <ele>65.8</ele>
        <time>2023-07-03T06:52:24Z</time>
      </trkpt>
      <trkpt lat="43.93993" lon="0.19649">
        <ele>65.8</ele>
        <time>2023-07-03T06:52:28Z</time>
      </trkpt>
      <trkpt lat="43.93995" lon="0.1965">
        <ele>65.8</ele>
        <time>2023-07-03T06:52:30Z</time>
      </trkpt>
      <trkpt lat="43.93996" lon="0.19651">
        <ele>65.8</ele>
        <time>2023-07-03T06:52:31Z</time>
      </trkpt>
      <trkpt lat="43.93997" lon="0.19651">
        <ele>65.8</ele>
        <time>2023-07-03T06:52:32Z</time>
      </trkpt>
      <trkpt lat="43.93998" lon="0.19653">
        <ele>65.8</ele>
        <time>2023-07-03T06:52:33Z</time>
      </trkpt>
      <trkpt lat="43.94" lon="0.19653">
        <ele>65.8</ele>
        <time>2023-07-03T06:52:34Z</time>
      </trkpt>
      <trkpt lat="43.94001" lon="0.19654">
        <ele>65.6</ele>
        <time>2023-07-03T06:52:35Z</time>
      </trkpt>
      <trkpt lat="43.94004" lon="0.19654">
        <ele>65.8</ele>
        <time>2023-07-03T06:52:37Z</time>
      </trkpt>
      <trkpt lat="43.94005" lon="0.19654">
        <ele>65.8</ele>
        <time>2023-07-03T06:52:38Z</time>
      </trkpt>
      <trkpt lat="43.94008" lon="0.19654">
        <ele>65.8</ele>
        <time>2023-07-03T06:52:40Z</time>
      </trkpt>
      <trkpt lat="43.94009" lon="0.19654">
        <ele>65.8</ele>
        <time>2023-07-03T06:52:41Z</time>
      </trkpt>
      <trkpt lat="43.94011" lon="0.19655">
        <ele>66</ele>
        <time>2023-07-03T06:52:42Z</time>
      </trkpt>
      <trkpt lat="43.94014" lon="0.19655">
        <ele>66.4</ele>
        <time>2023-07-03T06:52:44Z</time>
      </trkpt>
      <trkpt lat="43.94016" lon="0.19657">
        <ele>66.4</ele>
        <time>2023-07-03T06:52:46Z</time>
      </trkpt>
      <trkpt lat="43.9402" lon="0.19659">
        <ele>66.4</ele>
        <time>2023-07-03T06:52:49Z</time>
      </trkpt>
      <trkpt lat="43.94021" lon="0.1966">
        <ele>66.4</ele>
        <time>2023-07-03T06:52:50Z</time>
      </trkpt>
      <trkpt lat="43.94024" lon="0.19662">
        <ele>66.4</ele>
        <time>2023-07-03T06:52:53Z</time>
      </trkpt>
      <trkpt lat="43.94031" lon="0.19672">
        <ele>66.8</ele>
        <time>2023-07-03T06:52:57Z</time>
      </trkpt>
      <trkpt lat="43.94035" lon="0.19676">
        <ele>67.2</ele>
        <time>2023-07-03T06:53:00Z</time>
      </trkpt>
      <trkpt lat="43.94037" lon="0.1968">
        <ele>67.4</ele>
        <time>2023-07-03T06:53:03Z</time>
      </trkpt>
      <trkpt lat="43.94038" lon="0.19681">
        <ele>67.6</ele>
        <time>2023-07-03T06:53:04Z</time>
      </trkpt>
      <trkpt lat="43.94039" lon="0.19686">
        <ele>67.8</ele>
        <time>2023-07-03T06:53:08Z</time>
      </trkpt>
      <trkpt lat="43.9404" lon="0.19689">
        <ele>68</ele>
        <time>2023-07-03T06:53:10Z</time>
      </trkpt>
      <trkpt lat="43.94041" lon="0.19694">
        <ele>68.2</ele>
        <time>2023-07-03T06:53:13Z</time>
      </trkpt>
      <trkpt lat="43.94042" lon="0.19696">
        <ele>68.2</ele>
        <time>2023-07-03T06:53:15Z</time>
      </trkpt>
      <trkpt lat="43.94044" lon="0.19699">
        <ele>68.4</ele>
        <time>2023-07-03T06:53:18Z</time>
      </trkpt>
      <trkpt lat="43.94053" lon="0.1971">
        <ele>68.6</ele>
        <time>2023-07-03T06:53:25Z</time>
      </trkpt>
      <trkpt lat="43.94056" lon="0.19714">
        <ele>68.4</ele>
        <time>2023-07-03T06:53:28Z</time>
      </trkpt>
      <trkpt lat="43.94058" lon="0.19719">
        <ele>68</ele>
        <time>2023-07-03T06:53:31Z</time>
      </trkpt>
      <trkpt lat="43.94064" lon="0.19728">
        <ele>67.2</ele>
        <time>2023-07-03T06:53:37Z</time>
      </trkpt>
      <trkpt lat="43.94066" lon="0.1973">
        <ele>67</ele>
        <time>2023-07-03T06:53:38Z</time>
      </trkpt>
      <trkpt lat="43.94067" lon="0.19733">
        <ele>66.6</ele>
        <time>2023-07-03T06:53:41Z</time>
      </trkpt>
      <trkpt lat="43.94068" lon="0.19735">
        <ele>66.2</ele>
        <time>2023-07-03T06:53:42Z</time>
      </trkpt>
      <trkpt lat="43.94069" lon="0.19736">
        <ele>66</ele>
        <time>2023-07-03T06:53:43Z</time>
      </trkpt>
      <trkpt lat="43.94073" lon="0.19746">
        <ele>65.4</ele>
        <time>2023-07-03T06:53:48Z</time>
      </trkpt>
      <trkpt lat="43.94075" lon="0.19749">
        <ele>65.2</ele>
        <time>2023-07-03T06:53:50Z</time>
      </trkpt>
      <trkpt lat="43.94081" lon="0.19759">
        <ele>65</ele>
        <time>2023-07-03T06:53:56Z</time>
      </trkpt>
      <trkpt lat="43.94081" lon="0.1976">
        <ele>65</ele>
        <time>2023-07-03T06:53:57Z</time>
      </trkpt>
      <trkpt lat="43.94082" lon="0.19761">
        <ele>64.8</ele>
        <time>2023-07-03T06:53:58Z</time>
      </trkpt>
      <trkpt lat="43.94084" lon="0.19764">
        <ele>64.6</ele>
        <time>2023-07-03T06:54:00Z</time>
      </trkpt>
      <trkpt lat="43.94085" lon="0.19766">
        <ele>64.4</ele>
        <time>2023-07-03T06:54:01Z</time>
      </trkpt>
      <trkpt lat="43.9409" lon="0.19772">
        <ele>64.2</ele>
        <time>2023-07-03T06:54:05Z</time>
      </trkpt>
      <trkpt lat="43.94097" lon="0.1978">
        <ele>64</ele>
        <time>2023-07-03T06:54:10Z</time>
      </trkpt>
      <trkpt lat="43.94108" lon="0.19787">
        <ele>63.8</ele>
        <time>2023-07-03T06:54:16Z</time>
      </trkpt>
      <trkpt lat="43.94112" lon="0.19793">
        <ele>63.8</ele>
        <time>2023-07-03T06:54:21Z</time>
      </trkpt>
      <trkpt lat="43.94114" lon="0.19795">
        <ele>63.8</ele>
        <time>2023-07-03T06:54:23Z</time>
      </trkpt>
      <trkpt lat="43.94116" lon="0.19796">
        <ele>63.8</ele>
        <time>2023-07-03T06:54:24Z</time>
      </trkpt>
      <trkpt lat="43.94119" lon="0.19797">
        <ele>63.8</ele>
        <time>2023-07-03T06:54:26Z</time>
      </trkpt>
      <trkpt lat="43.94121" lon="0.19798">
        <ele>63.8</ele>
        <time>2023-07-03T06:54:28Z</time>
      </trkpt>
      <trkpt lat="43.94123" lon="0.198">
        <ele>64.2</ele>
        <time>2023-07-03T06:54:30Z</time>
      </trkpt>
      <trkpt lat="43.94127" lon="0.19804">
        <ele>64.4</ele>
        <time>2023-07-03T06:54:34Z</time>
      </trkpt>
      <trkpt lat="43.94129" lon="0.19806">
        <ele>64.4</ele>
        <time>2023-07-03T06:54:36Z</time>
      </trkpt>
      <trkpt lat="43.9413" lon="0.19807">
        <ele>64.4</ele>
        <time>2023-07-03T06:54:37Z</time>
      </trkpt>
      <trkpt lat="43.94133" lon="0.1981">
        <ele>64.4</ele>
        <time>2023-07-03T06:54:41Z</time>
      </trkpt>
      <trkpt lat="43.94136" lon="0.19816">
        <ele>65</ele>
        <time>2023-07-03T06:54:46Z</time>
      </trkpt>
      <trkpt lat="43.94137" lon="0.19817">
        <ele>65</ele>
        <time>2023-07-03T06:54:47Z</time>
      </trkpt>
      <trkpt lat="43.94139" lon="0.19819">
        <ele>65.2</ele>
        <time>2023-07-03T06:54:50Z</time>
      </trkpt>
      <trkpt lat="43.94144" lon="0.19825">
        <ele>65.8</ele>
        <time>2023-07-03T06:54:56Z</time>
      </trkpt>
      <trkpt lat="43.94148" lon="0.19827">
        <ele>66.2</ele>
        <time>2023-07-03T06:54:58Z</time>
      </trkpt>
      <trkpt lat="43.94153" lon="0.19829">
        <ele>66.6</ele>
        <time>2023-07-03T06:55:02Z</time>
      </trkpt>
      <trkpt lat="43.94154" lon="0.1983">
        <ele>66.8</ele>
        <time>2023-07-03T06:55:03Z</time>
      </trkpt>
      <trkpt lat="43.94158" lon="0.19832">
        <ele>67</ele>
        <time>2023-07-03T06:55:06Z</time>
      </trkpt>
      <trkpt lat="43.94164" lon="0.19835">
        <ele>67.2</ele>
        <time>2023-07-03T06:55:09Z</time>
      </trkpt>
      <trkpt lat="43.94166" lon="0.19835">
        <ele>67.2</ele>
        <time>2023-07-03T06:55:10Z</time>
      </trkpt>
      <trkpt lat="43.94175" lon="0.19838">
        <ele>67.4</ele>
        <time>2023-07-03T06:55:15Z</time>
      </trkpt>
      <trkpt lat="43.94176" lon="0.19839">
        <ele>67.4</ele>
        <time>2023-07-03T06:55:16Z</time>
      </trkpt>
      <trkpt lat="43.94179" lon="0.19841">
        <ele>67.6</ele>
        <time>2023-07-03T06:55:19Z</time>
      </trkpt>
      <trkpt lat="43.9418" lon="0.19843">
        <ele>67.6</ele>
        <time>2023-07-03T06:55:21Z</time>
      </trkpt>
      <trkpt lat="43.94183" lon="0.19846">
        <ele>67.8</ele>
        <time>2023-07-03T06:55:24Z</time>
      </trkpt>
      <trkpt lat="43.94185" lon="0.19848">
        <ele>68</ele>
        <time>2023-07-03T06:55:26Z</time>
      </trkpt>
      <trkpt lat="43.94191" lon="0.19852">
        <ele>68</ele>
        <time>2023-07-03T06:55:30Z</time>
      </trkpt>
      <trkpt lat="43.94194" lon="0.19854">
        <ele>68.2</ele>
        <time>2023-07-03T06:55:33Z</time>
      </trkpt>
      <trkpt lat="43.94198" lon="0.19858">
        <ele>68.6</ele>
        <time>2023-07-03T06:55:37Z</time>
      </trkpt>
      <trkpt lat="43.94201" lon="0.1986">
        <ele>68.6</ele>
        <time>2023-07-03T06:55:39Z</time>
      </trkpt>
      <trkpt lat="43.94211" lon="0.19866">
        <ele>69.4</ele>
        <time>2023-07-03T06:55:47Z</time>
      </trkpt>
      <trkpt lat="43.94212" lon="0.19868">
        <ele>69.6</ele>
        <time>2023-07-03T06:55:49Z</time>
      </trkpt>
      <trkpt lat="43.94218" lon="0.19872">
        <ele>69.8</ele>
        <time>2023-07-03T06:55:55Z</time>
      </trkpt>
      <trkpt lat="43.94229" lon="0.19877">
        <ele>70</ele>
        <time>2023-07-03T06:56:03Z</time>
      </trkpt>
      <trkpt lat="43.94233" lon="0.19879">
        <ele>70.4</ele>
        <time>2023-07-03T06:56:07Z</time>
      </trkpt>
      <trkpt lat="43.94235" lon="0.1988">
        <ele>70.6</ele>
        <time>2023-07-03T06:56:09Z</time>
      </trkpt>
      <trkpt lat="43.9424" lon="0.1988">
        <ele>70.6</ele>
        <time>2023-07-03T06:56:12Z</time>
      </trkpt>
      <trkpt lat="43.94246" lon="0.19881">
        <ele>71</ele>
        <time>2023-07-03T06:56:15Z</time>
      </trkpt>
      <trkpt lat="43.94252" lon="0.19883">
        <ele>71.4</ele>
        <time>2023-07-03T06:56:19Z</time>
      </trkpt>
      <trkpt lat="43.94257" lon="0.19883">
        <ele>71.6</ele>
        <time>2023-07-03T06:56:23Z</time>
      </trkpt>
      <trkpt lat="43.94267" lon="0.19886">
        <ele>72.2</ele>
        <time>2023-07-03T06:56:32Z</time>
      </trkpt>
      <trkpt lat="43.9427" lon="0.19887">
        <ele>72.6</ele>
        <time>2023-07-03T06:56:35Z</time>
      </trkpt>
      <trkpt lat="43.94276" lon="0.19888">
        <ele>72.8</ele>
        <time>2023-07-03T06:56:38Z</time>
      </trkpt>
      <trkpt lat="43.94282" lon="0.1989">
        <ele>73</ele>
        <time>2023-07-03T06:56:41Z</time>
      </trkpt>
      <trkpt lat="43.94295" lon="0.19893">
        <ele>72.6</ele>
        <time>2023-07-03T06:56:51Z</time>
      </trkpt>
      <trkpt lat="43.94303" lon="0.19895">
        <ele>72.4</ele>
        <time>2023-07-03T06:56:56Z</time>
      </trkpt>
      <trkpt lat="43.94306" lon="0.19896">
        <ele>72.2</ele>
        <time>2023-07-03T06:56:58Z</time>
      </trkpt>
      <trkpt lat="43.94309" lon="0.19898">
        <ele>72.4</ele>
        <time>2023-07-03T06:57:01Z</time>
      </trkpt>
      <trkpt lat="43.94314" lon="0.199">
        <ele>72.2</ele>
        <time>2023-07-03T06:57:04Z</time>
      </trkpt>
      <trkpt lat="43.94316" lon="0.199">
        <ele>72.2</ele>
        <time>2023-07-03T06:57:05Z</time>
      </trkpt>
      <trkpt lat="43.94328" lon="0.19906">
        <ele>71.6</ele>
        <time>2023-07-03T06:57:13Z</time>
      </trkpt>
      <trkpt lat="43.94335" lon="0.19909">
        <ele>71.2</ele>
        <time>2023-07-03T06:57:18Z</time>
      </trkpt>
      <trkpt lat="43.94341" lon="0.1991">
        <ele>70.8</ele>
        <time>2023-07-03T06:57:23Z</time>
      </trkpt>
      <trkpt lat="43.94344" lon="0.19911">
        <ele>70.6</ele>
        <time>2023-07-03T06:57:25Z</time>
      </trkpt>
      <trkpt lat="43.94345" lon="0.19912">
        <ele>70.6</ele>
        <time>2023-07-03T06:57:26Z</time>
      </trkpt>
      <trkpt lat="43.94348" lon="0.19912">
        <ele>70.4</ele>
        <time>2023-07-03T06:57:28Z</time>
      </trkpt>
      <trkpt lat="43.94354" lon="0.19913">
        <ele>70.2</ele>
        <time>2023-07-03T06:57:32Z</time>
      </trkpt>
      <trkpt lat="43.94364" lon="0.19918">
        <ele>69.8</ele>
        <time>2023-07-03T06:57:40Z</time>
      </trkpt>
      <trkpt lat="43.94365" lon="0.19918">
        <ele>69.8</ele>
        <time>2023-07-03T06:57:41Z</time>
      </trkpt>
      <trkpt lat="43.94377" lon="0.19921">
        <ele>69.6</ele>
        <time>2023-07-03T06:57:50Z</time>
      </trkpt>
      <trkpt lat="43.94381" lon="0.19922">
        <ele>69.4</ele>
        <time>2023-07-03T06:57:53Z</time>
      </trkpt>
      <trkpt lat="43.94384" lon="0.19923">
        <ele>69.2</ele>
        <time>2023-07-03T06:57:55Z</time>
      </trkpt>
      <trkpt lat="43.94389" lon="0.19926">
        <ele>69</ele>
        <time>2023-07-03T06:57:59Z</time>
      </trkpt>
      <trkpt lat="43.94395" lon="0.19927">
        <ele>68.6</ele>
        <time>2023-07-03T06:58:03Z</time>
      </trkpt>
      <trkpt lat="43.94401" lon="0.19928">
        <ele>68.4</ele>
        <time>2023-07-03T06:58:07Z</time>
      </trkpt>
      <trkpt lat="43.94402" lon="0.19928">
        <ele>68.4</ele>
        <time>2023-07-03T06:58:08Z</time>
      </trkpt>
      <trkpt lat="43.94414" lon="0.19931">
        <ele>68</ele>
        <time>2023-07-03T06:58:16Z</time>
      </trkpt>
      <trkpt lat="43.94416" lon="0.19931">
        <ele>68</ele>
        <time>2023-07-03T06:58:18Z</time>
      </trkpt>
      <trkpt lat="43.94425" lon="0.19933">
        <ele>67.6</ele>
        <time>2023-07-03T06:58:25Z</time>
      </trkpt>
      <trkpt lat="43.94429" lon="0.19933">
        <ele>67.4</ele>
        <time>2023-07-03T06:58:28Z</time>
      </trkpt>
      <trkpt lat="43.94434" lon="0.19934">
        <ele>67</ele>
        <time>2023-07-03T06:58:33Z</time>
      </trkpt>
      <trkpt lat="43.94445" lon="0.19936">
        <ele>67.2</ele>
        <time>2023-07-03T06:58:40Z</time>
      </trkpt>
      <trkpt lat="43.94456" lon="0.19936">
        <ele>67</ele>
        <time>2023-07-03T06:58:48Z</time>
      </trkpt>
      <trkpt lat="43.94467" lon="0.19932">
        <ele>67</ele>
        <time>2023-07-03T06:58:56Z</time>
      </trkpt>
      <trkpt lat="43.94479" lon="0.19926">
        <ele>67.4</ele>
        <time>2023-07-03T06:59:05Z</time>
      </trkpt>
      <trkpt lat="43.9449" lon="0.19921">
        <ele>67.2</ele>
        <time>2023-07-03T06:59:14Z</time>
      </trkpt>
      <trkpt lat="43.94495" lon="0.19917">
        <ele>67.4</ele>
        <time>2023-07-03T06:59:18Z</time>
      </trkpt>
      <trkpt lat="43.945" lon="0.19914">
        <ele>67.4</ele>
        <time>2023-07-03T06:59:22Z</time>
      </trkpt>
      <trkpt lat="43.94505" lon="0.19912">
        <ele>67.6</ele>
        <time>2023-07-03T06:59:26Z</time>
      </trkpt>
      <trkpt lat="43.94509" lon="0.1991">
        <ele>67.6</ele>
        <time>2023-07-03T06:59:29Z</time>
      </trkpt>
      <trkpt lat="43.94515" lon="0.19909">
        <ele>67.6</ele>
        <time>2023-07-03T06:59:33Z</time>
      </trkpt>
      <trkpt lat="43.94519" lon="0.19905">
        <ele>67.4</ele>
        <time>2023-07-03T06:59:37Z</time>
      </trkpt>
      <trkpt lat="43.94528" lon="0.19905">
        <ele>67.4</ele>
        <time>2023-07-03T06:59:43Z</time>
      </trkpt>
      <trkpt lat="43.94529" lon="0.19906">
        <ele>67.4</ele>
        <time>2023-07-03T06:59:44Z</time>
      </trkpt>
      <trkpt lat="43.94537" lon="0.19904">
        <ele>67</ele>
        <time>2023-07-03T06:59:50Z</time>
      </trkpt>
      <trkpt lat="43.94539" lon="0.19903">
        <ele>67</ele>
        <time>2023-07-03T06:59:52Z</time>
      </trkpt>
      <trkpt lat="43.9455" lon="0.19897">
        <ele>67</ele>
        <time>2023-07-03T07:00:00Z</time>
      </trkpt>
      <trkpt lat="43.94559" lon="0.19895">
        <ele>66.8</ele>
        <time>2023-07-03T07:00:08Z</time>
      </trkpt>
      <trkpt lat="43.94562" lon="0.19894">
        <ele>66.8</ele>
        <time>2023-07-03T07:00:11Z</time>
      </trkpt>
      <trkpt lat="43.94568" lon="0.19894">
        <ele>66.6</ele>
        <time>2023-07-03T07:00:16Z</time>
      </trkpt>
      <trkpt lat="43.94576" lon="0.19892">
        <ele>67</ele>
        <time>2023-07-03T07:00:23Z</time>
      </trkpt>
      <trkpt lat="43.94585" lon="0.19889">
        <ele>66.8</ele>
        <time>2023-07-03T07:00:29Z</time>
      </trkpt>
      <trkpt lat="43.94593" lon="0.19886">
        <ele>66.6</ele>
        <time>2023-07-03T07:00:35Z</time>
      </trkpt>
      <trkpt lat="43.94603" lon="0.19882">
        <ele>67</ele>
        <time>2023-07-03T07:00:41Z</time>
      </trkpt>
      <trkpt lat="43.94611" lon="0.19878">
        <ele>66.8</ele>
        <time>2023-07-03T07:00:48Z</time>
      </trkpt>
      <trkpt lat="43.94617" lon="0.19878">
        <ele>66.6</ele>
        <time>2023-07-03T07:00:53Z</time>
      </trkpt>
      <trkpt lat="43.9462" lon="0.19878">
        <ele>66.6</ele>
        <time>2023-07-03T07:00:55Z</time>
      </trkpt>
      <trkpt lat="43.94624" lon="0.19878">
        <ele>66.6</ele>
        <time>2023-07-03T07:00:57Z</time>
      </trkpt>
      <trkpt lat="43.94627" lon="0.1988">
        <ele>66.6</ele>
        <time>2023-07-03T07:01:00Z</time>
      </trkpt>
      <trkpt lat="43.9463" lon="0.1988">
        <ele>66.6</ele>
        <time>2023-07-03T07:01:02Z</time>
      </trkpt>
      <trkpt lat="43.94634" lon="0.19878">
        <ele>66.8</ele>
        <time>2023-07-03T07:01:05Z</time>
      </trkpt>
      <trkpt lat="43.94637" lon="0.19877">
        <ele>66.8</ele>
        <time>2023-07-03T07:01:07Z</time>
      </trkpt>
      <trkpt lat="43.94639" lon="0.19876">
        <ele>66.8</ele>
        <time>2023-07-03T07:01:09Z</time>
      </trkpt>
      <trkpt lat="43.9464" lon="0.19877">
        <ele>66.8</ele>
        <time>2023-07-03T07:01:10Z</time>
      </trkpt>
      <trkpt lat="43.94645" lon="0.19878">
        <ele>66.6</ele>
        <time>2023-07-03T07:01:14Z</time>
      </trkpt>
      <trkpt lat="43.94648" lon="0.19877">
        <ele>66.6</ele>
        <time>2023-07-03T07:01:16Z</time>
      </trkpt>
      <trkpt lat="43.9465" lon="0.19877">
        <ele>66.6</ele>
        <time>2023-07-03T07:01:17Z</time>
      </trkpt>
      <trkpt lat="43.94658" lon="0.19877">
        <ele>66.6</ele>
        <time>2023-07-03T07:01:24Z</time>
      </trkpt>
      <trkpt lat="43.9467" lon="0.19875">
        <ele>66.6</ele>
        <time>2023-07-03T07:01:31Z</time>
      </trkpt>
      <trkpt lat="43.94671" lon="0.19874">
        <ele>66.6</ele>
        <time>2023-07-03T07:01:32Z</time>
      </trkpt>
      <trkpt lat="43.94674" lon="0.19874">
        <ele>66.8</ele>
        <time>2023-07-03T07:01:34Z</time>
      </trkpt>
      <trkpt lat="43.94676" lon="0.19875">
        <ele>67</ele>
        <time>2023-07-03T07:01:35Z</time>
      </trkpt>
      <trkpt lat="43.94677" lon="0.19875">
        <ele>67</ele>
        <time>2023-07-03T07:01:36Z</time>
      </trkpt>
      <trkpt lat="43.94682" lon="0.19876">
        <ele>67.2</ele>
        <time>2023-07-03T07:01:40Z</time>
      </trkpt>
      <trkpt lat="43.94688" lon="0.19876">
        <ele>67</ele>
        <time>2023-07-03T07:01:44Z</time>
      </trkpt>
      <trkpt lat="43.94691" lon="0.19876">
        <ele>67</ele>
        <time>2023-07-03T07:01:46Z</time>
      </trkpt>
      <trkpt lat="43.94695" lon="0.19876">
        <ele>67.2</ele>
        <time>2023-07-03T07:01:49Z</time>
      </trkpt>
      <trkpt lat="43.94701" lon="0.19875">
        <ele>67.8</ele>
        <time>2023-07-03T07:01:54Z</time>
      </trkpt>
      <trkpt lat="43.94702" lon="0.19875">
        <ele>67.8</ele>
        <time>2023-07-03T07:01:55Z</time>
      </trkpt>
      <trkpt lat="43.94704" lon="0.19873">
        <ele>67.8</ele>
        <time>2023-07-03T07:01:57Z</time>
      </trkpt>
      <trkpt lat="43.94708" lon="0.19874">
        <ele>68</ele>
        <time>2023-07-03T07:02:00Z</time>
      </trkpt>
      <trkpt lat="43.94712" lon="0.19874">
        <ele>67.8</ele>
        <time>2023-07-03T07:02:04Z</time>
      </trkpt>
      <trkpt lat="43.94714" lon="0.19874">
        <ele>67.8</ele>
        <time>2023-07-03T07:02:06Z</time>
      </trkpt>
      <trkpt lat="43.94717" lon="0.19874">
        <ele>67.8</ele>
        <time>2023-07-03T07:02:08Z</time>
      </trkpt>
      <trkpt lat="43.94721" lon="0.19874">
        <ele>67.4</ele>
        <time>2023-07-03T07:02:12Z</time>
      </trkpt>
      <trkpt lat="43.94724" lon="0.19874">
        <ele>67.4</ele>
        <time>2023-07-03T07:02:14Z</time>
      </trkpt>
      <trkpt lat="43.94735" lon="0.19873">
        <ele>67.4</ele>
        <time>2023-07-03T07:02:22Z</time>
      </trkpt>
      <trkpt lat="43.94737" lon="0.19873">
        <ele>67.6</ele>
        <time>2023-07-03T07:02:23Z</time>
      </trkpt>
      <trkpt lat="43.94742" lon="0.19871">
        <ele>67.6</ele>
        <time>2023-07-03T07:02:28Z</time>
      </trkpt>
      <trkpt lat="43.94748" lon="0.19868">
        <ele>67.4</ele>
        <time>2023-07-03T07:02:33Z</time>
      </trkpt>
      <trkpt lat="43.94759" lon="0.19864">
        <ele>68</ele>
        <time>2023-07-03T07:02:40Z</time>
      </trkpt>
      <trkpt lat="43.94769" lon="0.19858">
        <ele>67.6</ele>
        <time>2023-07-03T07:02:47Z</time>
      </trkpt>
      <trkpt lat="43.94772" lon="0.19857">
        <ele>67.6</ele>
        <time>2023-07-03T07:02:49Z</time>
      </trkpt>
      <trkpt lat="43.94774" lon="0.19856">
        <ele>67.6</ele>
        <time>2023-07-03T07:02:50Z</time>
      </trkpt>
      <trkpt lat="43.94784" lon="0.19853">
        <ele>66.6</ele>
        <time>2023-07-03T07:02:58Z</time>
      </trkpt>
      <trkpt lat="43.94789" lon="0.19853">
        <ele>66.2</ele>
        <time>2023-07-03T07:03:02Z</time>
      </trkpt>
      <trkpt lat="43.94795" lon="0.19852">
        <ele>65.6</ele>
        <time>2023-07-03T07:03:06Z</time>
      </trkpt>
      <trkpt lat="43.94796" lon="0.19852">
        <ele>65.4</ele>
        <time>2023-07-03T07:03:07Z</time>
      </trkpt>
      <trkpt lat="43.94798" lon="0.19852">
        <ele>65.2</ele>
        <time>2023-07-03T07:03:08Z</time>
      </trkpt>
      <trkpt lat="43.94799" lon="0.19852">
        <ele>65.2</ele>
        <time>2023-07-03T07:03:09Z</time>
      </trkpt>
      <trkpt lat="43.948" lon="0.19852">
        <ele>65</ele>
        <time>2023-07-03T07:03:10Z</time>
      </trkpt>
      <trkpt lat="43.94802" lon="0.19852">
        <ele>64.8</ele>
        <time>2023-07-03T07:03:11Z</time>
      </trkpt>
      <trkpt lat="43.94805" lon="0.19852">
        <ele>64.4</ele>
        <time>2023-07-03T07:03:13Z</time>
      </trkpt>
      <trkpt lat="43.94807" lon="0.19852">
        <ele>64.4</ele>
        <time>2023-07-03T07:03:14Z</time>
      </trkpt>
      <trkpt lat="43.9481" lon="0.19852">
        <ele>64.2</ele>
        <time>2023-07-03T07:03:16Z</time>
      </trkpt>
      <trkpt lat="43.94817" lon="0.19851">
        <ele>63.2</ele>
        <time>2023-07-03T07:03:21Z</time>
      </trkpt>
      <trkpt lat="43.9482" lon="0.19851">
        <ele>63.2</ele>
        <time>2023-07-03T07:03:23Z</time>
      </trkpt>
      <trkpt lat="43.94824" lon="0.19851">
        <ele>63.2</ele>
        <time>2023-07-03T07:03:26Z</time>
      </trkpt>
      <trkpt lat="43.94829" lon="0.1985">
        <ele>63.2</ele>
        <time>2023-07-03T07:03:29Z</time>
      </trkpt>
      <trkpt lat="43.94833" lon="0.19849">
        <ele>62.8</ele>
        <time>2023-07-03T07:03:32Z</time>
      </trkpt>
      <trkpt lat="43.94839" lon="0.19847">
        <ele>63</ele>
        <time>2023-07-03T07:03:37Z</time>
      </trkpt>
      <trkpt lat="43.94846" lon="0.19843">
        <ele>63</ele>
        <time>2023-07-03T07:03:42Z</time>
      </trkpt>
      <trkpt lat="43.94847" lon="0.19842">
        <ele>62.8</ele>
        <time>2023-07-03T07:03:43Z</time>
      </trkpt>
      <trkpt lat="43.94851" lon="0.19839">
        <ele>62.8</ele>
        <time>2023-07-03T07:03:47Z</time>
      </trkpt>
      <trkpt lat="43.94854" lon="0.19835">
        <ele>63</ele>
        <time>2023-07-03T07:03:51Z</time>
      </trkpt>
      <trkpt lat="43.94856" lon="0.19832">
        <ele>62.8</ele>
        <time>2023-07-03T07:03:53Z</time>
      </trkpt>
      <trkpt lat="43.94864" lon="0.19822">
        <ele>63</ele>
        <time>2023-07-03T07:04:00Z</time>
      </trkpt>
      <trkpt lat="43.94867" lon="0.19816">
        <ele>63</ele>
        <time>2023-07-03T07:04:04Z</time>
      </trkpt>
      <trkpt lat="43.94871" lon="0.19812">
        <ele>63.2</ele>
        <time>2023-07-03T07:04:08Z</time>
      </trkpt>
      <trkpt lat="43.94872" lon="0.19811">
        <ele>63.2</ele>
        <time>2023-07-03T07:04:09Z</time>
      </trkpt>
      <trkpt lat="43.94875" lon="0.19805">
        <ele>63</ele>
        <time>2023-07-03T07:04:14Z</time>
      </trkpt>
      <trkpt lat="43.94922" lon="0.19722">
        <ele>66.4</ele>
        <time>2023-07-03T07:38:01Z</time>
      </trkpt>
      <trkpt lat="43.94874" lon="0.19795">
        <ele>66.4</ele>
        <time>2023-07-03T07:38:03Z</time>
      </trkpt>
      <trkpt lat="43.94877" lon="0.19794">
        <ele>66.4</ele>
        <time>2023-07-03T07:38:05Z</time>
      </trkpt>
      <trkpt lat="43.94877" lon="0.19795">
        <ele>66.2</ele>
        <time>2023-07-03T07:38:07Z</time>
      </trkpt>
      <trkpt lat="43.94881" lon="0.19796">
        <ele>66</ele>
        <time>2023-07-03T07:38:12Z</time>
      </trkpt>
      <trkpt lat="43.94889" lon="0.19788">
        <ele>66.4</ele>
        <time>2023-07-03T07:38:23Z</time>
      </trkpt>
      <trkpt lat="43.94896" lon="0.1978">
        <ele>67</ele>
        <time>2023-07-03T07:38:30Z</time>
      </trkpt>
      <trkpt lat="43.94899" lon="0.19778">
        <ele>67.2</ele>
        <time>2023-07-03T07:38:33Z</time>
      </trkpt>
      <trkpt lat="43.94902" lon="0.19773">
        <ele>67.4</ele>
        <time>2023-07-03T07:38:37Z</time>
      </trkpt>
      <trkpt lat="43.94904" lon="0.19771">
        <ele>67.6</ele>
        <time>2023-07-03T07:38:39Z</time>
      </trkpt>
      <trkpt lat="43.94905" lon="0.19769">
        <ele>67.8</ele>
        <time>2023-07-03T07:38:40Z</time>
      </trkpt>
      <trkpt lat="43.94907" lon="0.19767">
        <ele>68</ele>
        <time>2023-07-03T07:38:42Z</time>
      </trkpt>
      <trkpt lat="43.94909" lon="0.19765">
        <ele>68</ele>
        <time>2023-07-03T07:38:45Z</time>
      </trkpt>
      <trkpt lat="43.94909" lon="0.19763">
        <ele>68.2</ele>
        <time>2023-07-03T07:38:46Z</time>
      </trkpt>
      <trkpt lat="43.94911" lon="0.19762">
        <ele>68.2</ele>
        <time>2023-07-03T07:38:48Z</time>
      </trkpt>
      <trkpt lat="43.94912" lon="0.19761">
        <ele>68.8</ele>
        <time>2023-07-03T07:38:49Z</time>
      </trkpt>
      <trkpt lat="43.94914" lon="0.1976">
        <ele>69.2</ele>
        <time>2023-07-03T07:38:51Z</time>
      </trkpt>
      <trkpt lat="43.94917" lon="0.19757">
        <ele>69.8</ele>
        <time>2023-07-03T07:38:55Z</time>
      </trkpt>
      <trkpt lat="43.94919" lon="0.19756">
        <ele>69.8</ele>
        <time>2023-07-03T07:38:57Z</time>
      </trkpt>
      <trkpt lat="43.9492" lon="0.19754">
        <ele>70</ele>
        <time>2023-07-03T07:38:59Z</time>
      </trkpt>
      <trkpt lat="43.94923" lon="0.19751">
        <ele>70.2</ele>
        <time>2023-07-03T07:39:02Z</time>
      </trkpt>
      <trkpt lat="43.94925" lon="0.19748">
        <ele>71</ele>
        <time>2023-07-03T07:39:06Z</time>
      </trkpt>
      <trkpt lat="43.94929" lon="0.19747">
        <ele>71.6</ele>
        <time>2023-07-03T07:39:09Z</time>
      </trkpt>
      <trkpt lat="43.9493" lon="0.19748">
        <ele>71.6</ele>
        <time>2023-07-03T07:39:10Z</time>
      </trkpt>
      <trkpt lat="43.94932" lon="0.19752">
        <ele>71.8</ele>
        <time>2023-07-03T07:39:13Z</time>
      </trkpt>
      <trkpt lat="43.94933" lon="0.19753">
        <ele>71.8</ele>
        <time>2023-07-03T07:39:14Z</time>
      </trkpt>
      <trkpt lat="43.94933" lon="0.19755">
        <ele>72</ele>
        <time>2023-07-03T07:39:15Z</time>
      </trkpt>
      <trkpt lat="43.94933" lon="0.19757">
        <ele>72.2</ele>
        <time>2023-07-03T07:39:16Z</time>
      </trkpt>
      <trkpt lat="43.94928" lon="0.1977">
        <ele>73</ele>
        <time>2023-07-03T07:39:24Z</time>
      </trkpt>
      <trkpt lat="43.94928" lon="0.19772">
        <ele>73</ele>
        <time>2023-07-03T07:39:25Z</time>
      </trkpt>
      <trkpt lat="43.94927" lon="0.19774">
        <ele>73.2</ele>
        <time>2023-07-03T07:39:27Z</time>
      </trkpt>
      <trkpt lat="43.94926" lon="0.19776">
        <ele>73.2</ele>
        <time>2023-07-03T07:39:28Z</time>
      </trkpt>
      <trkpt lat="43.94924" lon="0.19782">
        <ele>73.4</ele>
        <time>2023-07-03T07:39:32Z</time>
      </trkpt>
      <trkpt lat="43.94922" lon="0.19785">
        <ele>73.6</ele>
        <time>2023-07-03T07:39:35Z</time>
      </trkpt>
      <trkpt lat="43.94923" lon="0.19791">
        <ele>74</ele>
        <time>2023-07-03T07:39:38Z</time>
      </trkpt>
      <trkpt lat="43.94924" lon="0.19803">
        <ele>74</ele>
        <time>2023-07-03T07:39:44Z</time>
      </trkpt>
      <trkpt lat="43.94927" lon="0.19806">
        <ele>74</ele>
        <time>2023-07-03T07:39:49Z</time>
      </trkpt>
      <trkpt lat="43.94926" lon="0.19804">
        <ele>74.4</ele>
        <time>2023-07-03T07:39:50Z</time>
      </trkpt>
      <trkpt lat="43.94926" lon="0.19799">
        <ele>74.8</ele>
        <time>2023-07-03T07:39:53Z</time>
      </trkpt>
      <trkpt lat="43.94926" lon="0.19797">
        <ele>75</ele>
        <time>2023-07-03T07:39:54Z</time>
      </trkpt>
      <trkpt lat="43.94927" lon="0.19795">
        <ele>75.2</ele>
        <time>2023-07-03T07:39:55Z</time>
      </trkpt>
      <trkpt lat="43.9493" lon="0.19785">
        <ele>75.8</ele>
        <time>2023-07-03T07:40:02Z</time>
      </trkpt>
      <trkpt lat="43.94931" lon="0.19784">
        <ele>76.2</ele>
        <time>2023-07-03T07:40:03Z</time>
      </trkpt>
      <trkpt lat="43.94932" lon="0.19782">
        <ele>76.6</ele>
        <time>2023-07-03T07:40:05Z</time>
      </trkpt>
      <trkpt lat="43.94934" lon="0.19779">
        <ele>76.8</ele>
        <time>2023-07-03T07:40:09Z</time>
      </trkpt>
      <trkpt lat="43.94938" lon="0.19776">
        <ele>77.4</ele>
        <time>2023-07-03T07:40:14Z</time>
      </trkpt>
      <trkpt lat="43.9494" lon="0.19775">
        <ele>77.8</ele>
        <time>2023-07-03T07:40:16Z</time>
      </trkpt>
      <trkpt lat="43.94943" lon="0.19775">
        <ele>78.6</ele>
        <time>2023-07-03T07:40:20Z</time>
      </trkpt>
      <trkpt lat="43.94945" lon="0.19772">
        <ele>78.8</ele>
        <time>2023-07-03T07:40:23Z</time>
      </trkpt>
      <trkpt lat="43.94946" lon="0.19772">
        <ele>79</ele>
        <time>2023-07-03T07:40:24Z</time>
      </trkpt>
      <trkpt lat="43.94946" lon="0.19772">
        <ele>79.2</ele>
        <time>2023-07-03T07:40:25Z</time>
      </trkpt>
      <trkpt lat="43.9495" lon="0.19772">
        <ele>79.8</ele>
        <time>2023-07-03T07:40:28Z</time>
      </trkpt>
      <trkpt lat="43.94954" lon="0.19771">
        <ele>80.4</ele>
        <time>2023-07-03T07:40:32Z</time>
      </trkpt>
      <trkpt lat="43.94957" lon="0.19771">
        <ele>80.8</ele>
        <time>2023-07-03T07:40:36Z</time>
      </trkpt>
      <trkpt lat="43.94957" lon="0.19771">
        <ele>81</ele>
        <time>2023-07-03T07:40:37Z</time>
      </trkpt>
      <trkpt lat="43.9496" lon="0.19771">
        <ele>81.6</ele>
        <time>2023-07-03T07:40:40Z</time>
      </trkpt>
      <trkpt lat="43.94964" lon="0.19772">
        <ele>82</ele>
        <time>2023-07-03T07:40:43Z</time>
      </trkpt>
      <trkpt lat="43.94966" lon="0.19773">
        <ele>82.4</ele>
        <time>2023-07-03T07:40:45Z</time>
      </trkpt>
      <trkpt lat="43.94971" lon="0.19776">
        <ele>83</ele>
        <time>2023-07-03T07:40:50Z</time>
      </trkpt>
      <trkpt lat="43.94973" lon="0.19779">
        <ele>83.4</ele>
        <time>2023-07-03T07:40:52Z</time>
      </trkpt>
      <trkpt lat="43.94975" lon="0.19781">
        <ele>83.6</ele>
        <time>2023-07-03T07:40:54Z</time>
      </trkpt>
      <trkpt lat="43.94977" lon="0.19783">
        <ele>83.8</ele>
        <time>2023-07-03T07:40:56Z</time>
      </trkpt>
      <trkpt lat="43.94978" lon="0.19784">
        <ele>83.8</ele>
        <time>2023-07-03T07:40:57Z</time>
      </trkpt>
      <trkpt lat="43.94978" lon="0.19785">
        <ele>84</ele>
        <time>2023-07-03T07:40:58Z</time>
      </trkpt>
      <trkpt lat="43.9498" lon="0.19786">
        <ele>84</ele>
        <time>2023-07-03T07:40:59Z</time>
      </trkpt>
      <trkpt lat="43.94985" lon="0.19792">
        <ele>85.2</ele>
        <time>2023-07-03T07:41:05Z</time>
      </trkpt>
      <trkpt lat="43.94987" lon="0.19798">
        <ele>85.4</ele>
        <time>2023-07-03T07:41:11Z</time>
      </trkpt>
      <trkpt lat="43.9499" lon="0.19802">
        <ele>86.2</ele>
        <time>2023-07-03T07:41:14Z</time>
      </trkpt>
      <trkpt lat="43.94994" lon="0.19806">
        <ele>86.8</ele>
        <time>2023-07-03T07:41:18Z</time>
      </trkpt>
      <trkpt lat="43.94996" lon="0.19809">
        <ele>87.2</ele>
        <time>2023-07-03T07:41:21Z</time>
      </trkpt>
      <trkpt lat="43.94996" lon="0.1981">
        <ele>87.8</ele>
        <time>2023-07-03T07:41:25Z</time>
      </trkpt>
      <trkpt lat="43.94999" lon="0.19813">
        <ele>88</ele>
        <time>2023-07-03T07:41:29Z</time>
      </trkpt>
      <trkpt lat="43.95001" lon="0.19814">
        <ele>88.2</ele>
        <time>2023-07-03T07:41:31Z</time>
      </trkpt>
      <trkpt lat="43.95002" lon="0.19815">
        <ele>88.4</ele>
        <time>2023-07-03T07:41:32Z</time>
      </trkpt>
      <trkpt lat="43.95004" lon="0.19818">
        <ele>89</ele>
        <time>2023-07-03T07:41:35Z</time>
      </trkpt>
      <trkpt lat="43.95007" lon="0.19821">
        <ele>89.4</ele>
        <time>2023-07-03T07:41:38Z</time>
      </trkpt>
      <trkpt lat="43.95007" lon="0.19822">
        <ele>89.6</ele>
        <time>2023-07-03T07:41:39Z</time>
      </trkpt>
      <trkpt lat="43.9501" lon="0.19828">
        <ele>90.4</ele>
        <time>2023-07-03T07:41:45Z</time>
      </trkpt>
      <trkpt lat="43.95009" lon="0.19829">
        <ele>90.6</ele>
        <time>2023-07-03T07:41:46Z</time>
      </trkpt>
      <trkpt lat="43.9501" lon="0.19829">
        <ele>90.6</ele>
        <time>2023-07-03T07:41:47Z</time>
      </trkpt>
      <trkpt lat="43.95009" lon="0.19831">
        <ele>90.8</ele>
        <time>2023-07-03T07:41:50Z</time>
      </trkpt>
      <trkpt lat="43.95008" lon="0.19832">
        <ele>90.8</ele>
        <time>2023-07-03T07:41:51Z</time>
      </trkpt>
      <trkpt lat="43.95009" lon="0.19837">
        <ele>91.6</ele>
        <time>2023-07-03T07:42:09Z</time>
      </trkpt>
      <trkpt lat="43.9501" lon="0.19838">
        <ele>91.6</ele>
        <time>2023-07-03T07:42:10Z</time>
      </trkpt>
      <trkpt lat="43.9501" lon="0.1984">
        <ele>92</ele>
        <time>2023-07-03T07:42:12Z</time>
      </trkpt>
      <trkpt lat="43.95011" lon="0.19843">
        <ele>92.4</ele>
        <time>2023-07-03T07:42:14Z</time>
      </trkpt>
      <trkpt lat="43.95012" lon="0.19844">
        <ele>92.4</ele>
        <time>2023-07-03T07:42:15Z</time>
      </trkpt>
      <trkpt lat="43.95013" lon="0.19846">
        <ele>92.8</ele>
        <time>2023-07-03T07:42:17Z</time>
      </trkpt>
      <trkpt lat="43.95013" lon="0.19851">
        <ele>93.2</ele>
        <time>2023-07-03T07:42:20Z</time>
      </trkpt>
      <trkpt lat="43.95011" lon="0.19862">
        <ele>94</ele>
        <time>2023-07-03T07:42:27Z</time>
      </trkpt>
      <trkpt lat="43.95016" lon="0.19872">
        <ele>94.8</ele>
        <time>2023-07-03T07:42:34Z</time>
      </trkpt>
      <trkpt lat="43.95017" lon="0.19873">
        <ele>95</ele>
        <time>2023-07-03T07:42:35Z</time>
      </trkpt>
      <trkpt lat="43.95016" lon="0.19874">
        <ele>95</ele>
        <time>2023-07-03T07:42:36Z</time>
      </trkpt>
      <trkpt lat="43.95015" lon="0.19875">
        <ele>95.2</ele>
        <time>2023-07-03T07:42:37Z</time>
      </trkpt>
      <trkpt lat="43.95013" lon="0.19876">
        <ele>95.4</ele>
        <time>2023-07-03T07:42:38Z</time>
      </trkpt>
      <trkpt lat="43.95012" lon="0.19876">
        <ele>95.8</ele>
        <time>2023-07-03T07:42:39Z</time>
      </trkpt>
      <trkpt lat="43.95009" lon="0.19875">
        <ele>95.8</ele>
        <time>2023-07-03T07:42:40Z</time>
      </trkpt>
      <trkpt lat="43.95003" lon="0.19874">
        <ele>96</ele>
        <time>2023-07-03T07:42:44Z</time>
      </trkpt>
      <trkpt lat="43.95002" lon="0.19875">
        <ele>96.2</ele>
        <time>2023-07-03T07:42:45Z</time>
      </trkpt>
      <trkpt lat="43.94999" lon="0.19875">
        <ele>96.6</ele>
        <time>2023-07-03T07:42:47Z</time>
      </trkpt>
      <trkpt lat="43.94996" lon="0.19875">
        <ele>97.2</ele>
        <time>2023-07-03T07:42:50Z</time>
      </trkpt>
      <trkpt lat="43.9499" lon="0.19875">
        <ele>98.2</ele>
        <time>2023-07-03T07:42:56Z</time>
      </trkpt>
      <trkpt lat="43.94989" lon="0.19875">
        <ele>98.6</ele>
        <time>2023-07-03T07:42:57Z</time>
      </trkpt>
      <trkpt lat="43.94988" lon="0.19873">
        <ele>99.2</ele>
        <time>2023-07-03T07:43:00Z</time>
      </trkpt>
      <trkpt lat="43.94988" lon="0.19874">
        <ele>99.4</ele>
        <time>2023-07-03T07:43:02Z</time>
      </trkpt>
      <trkpt lat="43.94988" lon="0.19876">
        <ele>99.4</ele>
        <time>2023-07-03T07:43:03Z</time>
      </trkpt>
      <trkpt lat="43.94989" lon="0.19878">
        <ele>99.8</ele>
        <time>2023-07-03T07:43:05Z</time>
      </trkpt>
      <trkpt lat="43.94989" lon="0.19881">
        <ele>100</ele>
        <time>2023-07-03T07:43:07Z</time>
      </trkpt>
      <trkpt lat="43.94989" lon="0.19884">
        <ele>100.2</ele>
        <time>2023-07-03T07:43:09Z</time>
      </trkpt>
      <trkpt lat="43.94991" lon="0.19891">
        <ele>100.8</ele>
        <time>2023-07-03T07:43:13Z</time>
      </trkpt>
      <trkpt lat="43.94991" lon="0.19896">
        <ele>101</ele>
        <time>2023-07-03T07:43:16Z</time>
      </trkpt>
      <trkpt lat="43.94992" lon="0.19907">
        <ele>101</ele>
        <time>2023-07-03T07:43:24Z</time>
      </trkpt>
      <trkpt lat="43.94992" lon="0.19907">
        <ele>101</ele>
        <time>2023-07-03T07:43:25Z</time>
      </trkpt>
      <trkpt lat="43.94992" lon="0.19907">
        <ele>101.2</ele>
        <time>2023-07-03T07:43:27Z</time>
      </trkpt>
      <trkpt lat="43.9499" lon="0.19906">
        <ele>101.4</ele>
        <time>2023-07-03T07:43:29Z</time>
      </trkpt>
      <trkpt lat="43.94989" lon="0.19903">
        <ele>101.2</ele>
        <time>2023-07-03T07:43:31Z</time>
      </trkpt>
      <trkpt lat="43.94989" lon="0.199">
        <ele>101.2</ele>
        <time>2023-07-03T07:43:33Z</time>
      </trkpt>
      <trkpt lat="43.94989" lon="0.19896">
        <ele>101.4</ele>
        <time>2023-07-03T07:43:36Z</time>
      </trkpt>
      <trkpt lat="43.94989" lon="0.19881">
        <ele>101.2</ele>
        <time>2023-07-03T07:43:44Z</time>
      </trkpt>
      <trkpt lat="43.94987" lon="0.19874">
        <ele>101</ele>
        <time>2023-07-03T07:43:48Z</time>
      </trkpt>
      <trkpt lat="43.94983" lon="0.19872">
        <ele>100.8</ele>
        <time>2023-07-03T07:43:50Z</time>
      </trkpt>
      <trkpt lat="43.94975" lon="0.19872">
        <ele>100.4</ele>
        <time>2023-07-03T07:43:55Z</time>
      </trkpt>
      <trkpt lat="43.94973" lon="0.19871">
        <ele>100.2</ele>
        <time>2023-07-03T07:43:58Z</time>
      </trkpt>
      <trkpt lat="43.94969" lon="0.1987">
        <ele>100.8</ele>
        <time>2023-07-03T07:44:02Z</time>
      </trkpt>
      <trkpt lat="43.94968" lon="0.19872">
        <ele>100.8</ele>
        <time>2023-07-03T07:44:04Z</time>
      </trkpt>
      <trkpt lat="43.94969" lon="0.19876">
        <ele>100.8</ele>
        <time>2023-07-03T07:44:07Z</time>
      </trkpt>
      <trkpt lat="43.94969" lon="0.19882">
        <ele>101</ele>
        <time>2023-07-03T07:44:11Z</time>
      </trkpt>
      <trkpt lat="43.94967" lon="0.19884">
        <ele>101.2</ele>
        <time>2023-07-03T07:44:13Z</time>
      </trkpt>
      <trkpt lat="43.94967" lon="0.19888">
        <ele>101.2</ele>
        <time>2023-07-03T07:44:15Z</time>
      </trkpt>
      <trkpt lat="43.94972" lon="0.19902">
        <ele>101.4</ele>
        <time>2023-07-03T07:44:23Z</time>
      </trkpt>
      <trkpt lat="43.9497" lon="0.19915">
        <ele>101.6</ele>
        <time>2023-07-03T07:44:31Z</time>
      </trkpt>
      <trkpt lat="43.94971" lon="0.19921">
        <ele>101.6</ele>
        <time>2023-07-03T07:44:34Z</time>
      </trkpt>
      <trkpt lat="43.94971" lon="0.19924">
        <ele>101.4</ele>
        <time>2023-07-03T07:44:37Z</time>
      </trkpt>
      <trkpt lat="43.9497" lon="0.19925">
        <ele>101.4</ele>
        <time>2023-07-03T07:44:38Z</time>
      </trkpt>
      <trkpt lat="43.9497" lon="0.19926">
        <ele>101.4</ele>
        <time>2023-07-03T07:44:40Z</time>
      </trkpt>
      <trkpt lat="43.9497" lon="0.19929">
        <ele>102</ele>
        <time>2023-07-03T07:44:43Z</time>
      </trkpt>
      <trkpt lat="43.9497" lon="0.1993">
        <ele>102</ele>
        <time>2023-07-03T07:44:44Z</time>
      </trkpt>
      <trkpt lat="43.94972" lon="0.19983">
        <ele>103</ele>
        <time>2023-07-03T07:46:15Z</time>
      </trkpt>
      <trkpt lat="43.94972" lon="0.19984">
        <ele>103</ele>
        <time>2023-07-03T07:46:16Z</time>
      </trkpt>
      <trkpt lat="43.94972" lon="0.19986">
        <ele>103</ele>
        <time>2023-07-03T07:46:17Z</time>
      </trkpt>
      <trkpt lat="43.94974" lon="0.19991">
        <ele>103</ele>
        <time>2023-07-03T07:46:21Z</time>
      </trkpt>
      <trkpt lat="43.94974" lon="0.19993">
        <ele>102.8</ele>
        <time>2023-07-03T07:46:22Z</time>
      </trkpt>
      <trkpt lat="43.94974" lon="0.19996">
        <ele>102.8</ele>
        <time>2023-07-03T07:46:30Z</time>
      </trkpt>
      <trkpt lat="43.94975" lon="0.19996">
        <ele>102.8</ele>
        <time>2023-07-03T07:46:31Z</time>
      </trkpt>
      <trkpt lat="43.94975" lon="0.19996">
        <ele>102.6</ele>
        <time>2023-07-03T07:46:33Z</time>
      </trkpt>
      <trkpt lat="43.94986" lon="0.19999">
        <ele>104</ele>
        <time>2023-07-03T08:20:11Z</time>
      </trkpt>
      <trkpt lat="43.94985" lon="0.19999">
        <ele>104</ele>
        <time>2023-07-03T08:20:12Z</time>
      </trkpt>
      <trkpt lat="43.9498" lon="0.2002">
        <ele>104.2</ele>
        <time>2023-07-03T08:20:14Z</time>
      </trkpt>
      <trkpt lat="43.9498" lon="0.2002">
        <ele>104.2</ele>
        <time>2023-07-03T08:20:15Z</time>
      </trkpt>
      <trkpt lat="43.9498" lon="0.20021">
        <ele>104.4</ele>
        <time>2023-07-03T08:20:16Z</time>
      </trkpt>
      <trkpt lat="43.94979" lon="0.20025">
        <ele>104.4</ele>
        <time>2023-07-03T08:20:17Z</time>
      </trkpt>
      <trkpt lat="43.9498" lon="0.2003">
        <ele>104.6</ele>
        <time>2023-07-03T08:20:19Z</time>
      </trkpt>
      <trkpt lat="43.94978" lon="0.20028">
        <ele>104.6</ele>
        <time>2023-07-03T08:20:21Z</time>
      </trkpt>
      <trkpt lat="43.94977" lon="0.20032">
        <ele>104.8</ele>
        <time>2023-07-03T08:20:24Z</time>
      </trkpt>
      <trkpt lat="43.94976" lon="0.20037">
        <ele>104.4</ele>
        <time>2023-07-03T08:20:28Z</time>
      </trkpt>
      <trkpt lat="43.94977" lon="0.20039">
        <ele>104.4</ele>
        <time>2023-07-03T08:20:29Z</time>
      </trkpt>
      <trkpt lat="43.94977" lon="0.20044">
        <ele>104.4</ele>
        <time>2023-07-03T08:20:32Z</time>
      </trkpt>
      <trkpt lat="43.94978" lon="0.20047">
        <ele>104.4</ele>
        <time>2023-07-03T08:20:34Z</time>
      </trkpt>
      <trkpt lat="43.94978" lon="0.20049">
        <ele>104.4</ele>
        <time>2023-07-03T08:20:35Z</time>
      </trkpt>
      <trkpt lat="43.94978" lon="0.2005">
        <ele>104.4</ele>
        <time>2023-07-03T08:20:36Z</time>
      </trkpt>
      <trkpt lat="43.94979" lon="0.20058">
        <ele>104.8</ele>
        <time>2023-07-03T08:20:41Z</time>
      </trkpt>
      <trkpt lat="43.94979" lon="0.20063">
        <ele>105</ele>
        <time>2023-07-03T08:20:44Z</time>
      </trkpt>
      <trkpt lat="43.94979" lon="0.20065">
        <ele>105.2</ele>
        <time>2023-07-03T08:20:46Z</time>
      </trkpt>
      <trkpt lat="43.94979" lon="0.20068">
        <ele>105.4</ele>
        <time>2023-07-03T08:20:48Z</time>
      </trkpt>
      <trkpt lat="43.94975" lon="0.20068">
        <ele>105.4</ele>
        <time>2023-07-03T08:20:49Z</time>
      </trkpt>
      <trkpt lat="43.94972" lon="0.2007">
        <ele>105.4</ele>
        <time>2023-07-03T08:20:51Z</time>
      </trkpt>
      <trkpt lat="43.94969" lon="0.20075">
        <ele>105.4</ele>
        <time>2023-07-03T08:20:54Z</time>
      </trkpt>
      <trkpt lat="43.94971" lon="0.20084">
        <ele>106.2</ele>
        <time>2023-07-03T08:21:01Z</time>
      </trkpt>
      <trkpt lat="43.94972" lon="0.20085">
        <ele>106.2</ele>
        <time>2023-07-03T08:21:02Z</time>
      </trkpt>
      <trkpt lat="43.94975" lon="0.20085">
        <ele>106.4</ele>
        <time>2023-07-03T08:21:04Z</time>
      </trkpt>
      <trkpt lat="43.94981" lon="0.20084">
        <ele>106.4</ele>
        <time>2023-07-03T08:21:07Z</time>
      </trkpt>
      <trkpt lat="43.94992" lon="0.20082">
        <ele>106</ele>
        <time>2023-07-03T08:21:14Z</time>
      </trkpt>
      <trkpt lat="43.94996" lon="0.20089">
        <ele>106.6</ele>
        <time>2023-07-03T08:21:20Z</time>
      </trkpt>
      <trkpt lat="43.94996" lon="0.2009">
        <ele>106.6</ele>
        <time>2023-07-03T08:21:21Z</time>
      </trkpt>
      <trkpt lat="43.94996" lon="0.20101">
        <ele>106.6</ele>
        <time>2023-07-03T08:21:25Z</time>
      </trkpt>
      <trkpt lat="43.94996" lon="0.20103">
        <ele>106.6</ele>
        <time>2023-07-03T08:21:26Z</time>
      </trkpt>
      <trkpt lat="43.95001" lon="0.20116">
        <ele>106.4</ele>
        <time>2023-07-03T08:21:34Z</time>
      </trkpt>
      <trkpt lat="43.94999" lon="0.20122">
        <ele>106.4</ele>
        <time>2023-07-03T08:21:40Z</time>
      </trkpt>
      <trkpt lat="43.94998" lon="0.20131">
        <ele>106.2</ele>
        <time>2023-07-03T08:21:45Z</time>
      </trkpt>
      <trkpt lat="43.95002" lon="0.20135">
        <ele>106.2</ele>
        <time>2023-07-03T08:21:47Z</time>
      </trkpt>
      <trkpt lat="43.95001" lon="0.20144">
        <ele>106.4</ele>
        <time>2023-07-03T08:21:53Z</time>
      </trkpt>
      <trkpt lat="43.94998" lon="0.20154">
        <ele>106.2</ele>
        <time>2023-07-03T08:21:58Z</time>
      </trkpt>
      <trkpt lat="43.94994" lon="0.20165">
        <ele>106.6</ele>
        <time>2023-07-03T08:22:03Z</time>
      </trkpt>
      <trkpt lat="43.94994" lon="0.20168">
        <ele>106.8</ele>
        <time>2023-07-03T08:22:04Z</time>
      </trkpt>
      <trkpt lat="43.94993" lon="0.20169">
        <ele>106.8</ele>
        <time>2023-07-03T08:22:05Z</time>
      </trkpt>
      <trkpt lat="43.9499" lon="0.2018">
        <ele>106.8</ele>
        <time>2023-07-03T08:22:10Z</time>
      </trkpt>
      <trkpt lat="43.94988" lon="0.20185">
        <ele>107</ele>
        <time>2023-07-03T08:22:13Z</time>
      </trkpt>
      <trkpt lat="43.94989" lon="0.20189">
        <ele>106.8</ele>
        <time>2023-07-03T08:22:15Z</time>
      </trkpt>
      <trkpt lat="43.94993" lon="0.20199">
        <ele>106.8</ele>
        <time>2023-07-03T08:22:20Z</time>
      </trkpt>
      <trkpt lat="43.94993" lon="0.202">
        <ele>106.8</ele>
        <time>2023-07-03T08:22:21Z</time>
      </trkpt>
      <trkpt lat="43.94992" lon="0.20202">
        <ele>106.8</ele>
        <time>2023-07-03T08:22:22Z</time>
      </trkpt>
      <trkpt lat="43.94994" lon="0.20209">
        <ele>107.2</ele>
        <time>2023-07-03T08:22:27Z</time>
      </trkpt>
      <trkpt lat="43.94995" lon="0.20211">
        <ele>107</ele>
        <time>2023-07-03T08:22:28Z</time>
      </trkpt>
      <trkpt lat="43.94995" lon="0.20213">
        <ele>107</ele>
        <time>2023-07-03T08:22:29Z</time>
      </trkpt>
      <trkpt lat="43.94997" lon="0.20216">
        <ele>107</ele>
        <time>2023-07-03T08:22:31Z</time>
      </trkpt>
      <trkpt lat="43.94999" lon="0.20218">
        <ele>106.8</ele>
        <time>2023-07-03T08:22:33Z</time>
      </trkpt>
      <trkpt lat="43.95" lon="0.20218">
        <ele>106.8</ele>
        <time>2023-07-03T08:22:34Z</time>
      </trkpt>
      <trkpt lat="43.95002" lon="0.20218">
        <ele>107</ele>
        <time>2023-07-03T08:22:35Z</time>
      </trkpt>
      <trkpt lat="43.95005" lon="0.20217">
        <ele>107.2</ele>
        <time>2023-07-03T08:22:37Z</time>
      </trkpt>
      <trkpt lat="43.95007" lon="0.20216">
        <ele>107.4</ele>
        <time>2023-07-03T08:22:39Z</time>
      </trkpt>
      <trkpt lat="43.9501" lon="0.20214">
        <ele>107.4</ele>
        <time>2023-07-03T08:22:41Z</time>
      </trkpt>
      <trkpt lat="43.95018" lon="0.20219">
        <ele>107.6</ele>
        <time>2023-07-03T08:22:47Z</time>
      </trkpt>
      <trkpt lat="43.95019" lon="0.20221">
        <ele>107.6</ele>
        <time>2023-07-03T08:22:48Z</time>
      </trkpt>
      <trkpt lat="43.95021" lon="0.20233">
        <ele>107.8</ele>
        <time>2023-07-03T08:22:54Z</time>
      </trkpt>
      <trkpt lat="43.9502" lon="0.20235">
        <ele>107.8</ele>
        <time>2023-07-03T08:22:55Z</time>
      </trkpt>
      <trkpt lat="43.95019" lon="0.20249">
        <ele>108.2</ele>
        <time>2023-07-03T08:23:02Z</time>
      </trkpt>
      <trkpt lat="43.95021" lon="0.20257">
        <ele>107.8</ele>
        <time>2023-07-03T08:23:06Z</time>
      </trkpt>
      <trkpt lat="43.95021" lon="0.20259">
        <ele>107.8</ele>
        <time>2023-07-03T08:23:07Z</time>
      </trkpt>
      <trkpt lat="43.95026" lon="0.20269">
        <ele>107.8</ele>
        <time>2023-07-03T08:23:12Z</time>
      </trkpt>
      <trkpt lat="43.95026" lon="0.20271">
        <ele>108</ele>
        <time>2023-07-03T08:23:13Z</time>
      </trkpt>
      <trkpt lat="43.95026" lon="0.20274">
        <ele>108.4</ele>
        <time>2023-07-03T08:23:15Z</time>
      </trkpt>
      <trkpt lat="43.95028" lon="0.2028">
        <ele>108.8</ele>
        <time>2023-07-03T08:23:18Z</time>
      </trkpt>
      <trkpt lat="43.95026" lon="0.20294">
        <ele>109.2</ele>
        <time>2023-07-03T08:23:25Z</time>
      </trkpt>
      <trkpt lat="43.95026" lon="0.20306">
        <ele>109.2</ele>
        <time>2023-07-03T08:23:31Z</time>
      </trkpt>
      <trkpt lat="43.95025" lon="0.20312">
        <ele>109.2</ele>
        <time>2023-07-03T08:23:34Z</time>
      </trkpt>
      <trkpt lat="43.95022" lon="0.20317">
        <ele>109</ele>
        <time>2023-07-03T08:23:37Z</time>
      </trkpt>
      <trkpt lat="43.95023" lon="0.20326">
        <ele>109</ele>
        <time>2023-07-03T08:23:43Z</time>
      </trkpt>
      <trkpt lat="43.95023" lon="0.20337">
        <ele>109.4</ele>
        <time>2023-07-03T08:23:49Z</time>
      </trkpt>
      <trkpt lat="43.95023" lon="0.20341">
        <ele>109.4</ele>
        <time>2023-07-03T08:23:51Z</time>
      </trkpt>
      <trkpt lat="43.95023" lon="0.20344">
        <ele>109.6</ele>
        <time>2023-07-03T08:23:53Z</time>
      </trkpt>
      <trkpt lat="43.95023" lon="0.20352">
        <ele>109.8</ele>
        <time>2023-07-03T08:23:57Z</time>
      </trkpt>
      <trkpt lat="43.95022" lon="0.20355">
        <ele>109.8</ele>
        <time>2023-07-03T08:23:59Z</time>
      </trkpt>
      <trkpt lat="43.9502" lon="0.20364">
        <ele>110</ele>
        <time>2023-07-03T08:24:04Z</time>
      </trkpt>
      <trkpt lat="43.9502" lon="0.20372">
        <ele>110</ele>
        <time>2023-07-03T08:24:09Z</time>
      </trkpt>
      <trkpt lat="43.9502" lon="0.20373">
        <ele>110</ele>
        <time>2023-07-03T08:24:10Z</time>
      </trkpt>
      <trkpt lat="43.95019" lon="0.20375">
        <ele>110</ele>
        <time>2023-07-03T08:24:11Z</time>
      </trkpt>
      <trkpt lat="43.9502" lon="0.20383">
        <ele>110.6</ele>
        <time>2023-07-03T08:24:16Z</time>
      </trkpt>
      <trkpt lat="43.95021" lon="0.20392">
        <ele>110.8</ele>
        <time>2023-07-03T08:24:21Z</time>
      </trkpt>
      <trkpt lat="43.95021" lon="0.20396">
        <ele>110.6</ele>
        <time>2023-07-03T08:24:23Z</time>
      </trkpt>
      <trkpt lat="43.95021" lon="0.20399">
        <ele>110.8</ele>
        <time>2023-07-03T08:24:25Z</time>
      </trkpt>
      <trkpt lat="43.95021" lon="0.20407">
        <ele>111.2</ele>
        <time>2023-07-03T08:24:29Z</time>
      </trkpt>
      <trkpt lat="43.95022" lon="0.20412">
        <ele>111.4</ele>
        <time>2023-07-03T08:24:32Z</time>
      </trkpt>
      <trkpt lat="43.95022" lon="0.20414">
        <ele>111.6</ele>
        <time>2023-07-03T08:24:33Z</time>
      </trkpt>
      <trkpt lat="43.95022" lon="0.20419">
        <ele>112</ele>
        <time>2023-07-03T08:24:36Z</time>
      </trkpt>
      <trkpt lat="43.95022" lon="0.20421">
        <ele>112</ele>
        <time>2023-07-03T08:24:37Z</time>
      </trkpt>
      <trkpt lat="43.95022" lon="0.20428">
        <ele>112</ele>
        <time>2023-07-03T08:24:40Z</time>
      </trkpt>
      <trkpt lat="43.95023" lon="0.20433">
        <ele>112.2</ele>
        <time>2023-07-03T08:24:42Z</time>
      </trkpt>
      <trkpt lat="43.95022" lon="0.20445">
        <ele>112.4</ele>
        <time>2023-07-03T08:24:48Z</time>
      </trkpt>
      <trkpt lat="43.95023" lon="0.20447">
        <ele>112.4</ele>
        <time>2023-07-03T08:24:49Z</time>
      </trkpt>
      <trkpt lat="43.95025" lon="0.20455">
        <ele>112.6</ele>
        <time>2023-07-03T08:24:53Z</time>
      </trkpt>
      <trkpt lat="43.95023" lon="0.20468">
        <ele>113.2</ele>
        <time>2023-07-03T08:25:01Z</time>
      </trkpt>
      <trkpt lat="43.9502" lon="0.20474">
        <ele>113.6</ele>
        <time>2023-07-03T08:25:05Z</time>
      </trkpt>
      <trkpt lat="43.9502" lon="0.20476">
        <ele>113.6</ele>
        <time>2023-07-03T08:25:06Z</time>
      </trkpt>
      <trkpt lat="43.9502" lon="0.20482">
        <ele>114</ele>
        <time>2023-07-03T08:25:09Z</time>
      </trkpt>
      <trkpt lat="43.95019" lon="0.20487">
        <ele>114.2</ele>
        <time>2023-07-03T08:25:12Z</time>
      </trkpt>
      <trkpt lat="43.95019" lon="0.20489">
        <ele>114.2</ele>
        <time>2023-07-03T08:25:13Z</time>
      </trkpt>
      <trkpt lat="43.95019" lon="0.20491">
        <ele>114.2</ele>
        <time>2023-07-03T08:25:14Z</time>
      </trkpt>
      <trkpt lat="43.9502" lon="0.20501">
        <ele>114.4</ele>
        <time>2023-07-03T08:25:19Z</time>
      </trkpt>
      <trkpt lat="43.95023" lon="0.20509">
        <ele>114.6</ele>
        <time>2023-07-03T08:25:24Z</time>
      </trkpt>
      <trkpt lat="43.95024" lon="0.20511">
        <ele>114.8</ele>
        <time>2023-07-03T08:25:25Z</time>
      </trkpt>
      <trkpt lat="43.95024" lon="0.20512">
        <ele>114.8</ele>
        <time>2023-07-03T08:25:26Z</time>
      </trkpt>
      <trkpt lat="43.95024" lon="0.20518">
        <ele>114.8</ele>
        <time>2023-07-03T08:25:29Z</time>
      </trkpt>
      <trkpt lat="43.95025" lon="0.2052">
        <ele>115</ele>
        <time>2023-07-03T08:25:30Z</time>
      </trkpt>
      <trkpt lat="43.95024" lon="0.20523">
        <ele>115</ele>
        <time>2023-07-03T08:25:32Z</time>
      </trkpt>
      <trkpt lat="43.95024" lon="0.20527">
        <ele>115.2</ele>
        <time>2023-07-03T08:25:34Z</time>
      </trkpt>
      <trkpt lat="43.95024" lon="0.2053">
        <ele>115.2</ele>
        <time>2023-07-03T08:25:36Z</time>
      </trkpt>
      <trkpt lat="43.95023" lon="0.20538">
        <ele>115.8</ele>
        <time>2023-07-03T08:25:40Z</time>
      </trkpt>
      <trkpt lat="43.95022" lon="0.20539">
        <ele>115.8</ele>
        <time>2023-07-03T08:25:41Z</time>
      </trkpt>
      <trkpt lat="43.95022" lon="0.20551">
        <ele>116</ele>
        <time>2023-07-03T08:25:48Z</time>
      </trkpt>
      <trkpt lat="43.95024" lon="0.20565">
        <ele>116.4</ele>
        <time>2023-07-03T08:25:55Z</time>
      </trkpt>
      <trkpt lat="43.95025" lon="0.20579">
        <ele>116.8</ele>
        <time>2023-07-03T08:26:02Z</time>
      </trkpt>
      <trkpt lat="43.95025" lon="0.20583">
        <ele>117</ele>
        <time>2023-07-03T08:26:04Z</time>
      </trkpt>
      <trkpt lat="43.95025" lon="0.20588">
        <ele>117.2</ele>
        <time>2023-07-03T08:26:06Z</time>
      </trkpt>
      <trkpt lat="43.95023" lon="0.20596">
        <ele>116.8</ele>
        <time>2023-07-03T08:26:10Z</time>
      </trkpt>
      <trkpt lat="43.95023" lon="0.20609">
        <ele>117.2</ele>
        <time>2023-07-03T08:26:18Z</time>
      </trkpt>
      <trkpt lat="43.95024" lon="0.20617">
        <ele>117</ele>
        <time>2023-07-03T08:26:23Z</time>
      </trkpt>
      <trkpt lat="43.95026" lon="0.2063">
        <ele>117.4</ele>
        <time>2023-07-03T08:26:30Z</time>
      </trkpt>
      <trkpt lat="43.95026" lon="0.20639">
        <ele>117.6</ele>
        <time>2023-07-03T08:26:35Z</time>
      </trkpt>
      <trkpt lat="43.95026" lon="0.20646">
        <ele>117.6</ele>
        <time>2023-07-03T08:26:38Z</time>
      </trkpt>
      <trkpt lat="43.95026" lon="0.20649">
        <ele>117.6</ele>
        <time>2023-07-03T08:26:40Z</time>
      </trkpt>
      <trkpt lat="43.95027" lon="0.20655">
        <ele>117.8</ele>
        <time>2023-07-03T08:26:43Z</time>
      </trkpt>
      <trkpt lat="43.95026" lon="0.20665">
        <ele>117.8</ele>
        <time>2023-07-03T08:26:48Z</time>
      </trkpt>
      <trkpt lat="43.95027" lon="0.20681">
        <ele>117.4</ele>
        <time>2023-07-03T08:26:57Z</time>
      </trkpt>
      <trkpt lat="43.95026" lon="0.2069">
        <ele>117.8</ele>
        <time>2023-07-03T08:27:02Z</time>
      </trkpt>
      <trkpt lat="43.95026" lon="0.20693">
        <ele>117.6</ele>
        <time>2023-07-03T08:27:04Z</time>
      </trkpt>
      <trkpt lat="43.95026" lon="0.20699">
        <ele>117.6</ele>
        <time>2023-07-03T08:27:07Z</time>
      </trkpt>
      <trkpt lat="43.95026" lon="0.20718">
        <ele>117.8</ele>
        <time>2023-07-03T08:27:17Z</time>
      </trkpt>
      <trkpt lat="43.95028" lon="0.20728">
        <ele>117.6</ele>
        <time>2023-07-03T08:27:23Z</time>
      </trkpt>
      <trkpt lat="43.95029" lon="0.20739">
        <ele>117.8</ele>
        <time>2023-07-03T08:27:29Z</time>
      </trkpt>
      <trkpt lat="43.95029" lon="0.20744">
        <ele>117.8</ele>
        <time>2023-07-03T08:27:32Z</time>
      </trkpt>
      <trkpt lat="43.95029" lon="0.20745">
        <ele>117.8</ele>
        <time>2023-07-03T08:27:33Z</time>
      </trkpt>
      <trkpt lat="43.95029" lon="0.20747">
        <ele>117.6</ele>
        <time>2023-07-03T08:27:34Z</time>
      </trkpt>
      <trkpt lat="43.9503" lon="0.20749">
        <ele>117.8</ele>
        <time>2023-07-03T08:27:35Z</time>
      </trkpt>
      <trkpt lat="43.9503" lon="0.20752">
        <ele>117.8</ele>
        <time>2023-07-03T08:27:37Z</time>
      </trkpt>
      <trkpt lat="43.95031" lon="0.20754">
        <ele>117.6</ele>
        <time>2023-07-03T08:27:38Z</time>
      </trkpt>
      <trkpt lat="43.95031" lon="0.20756">
        <ele>117.6</ele>
        <time>2023-07-03T08:27:39Z</time>
      </trkpt>
      <trkpt lat="43.95031" lon="0.20758">
        <ele>117.6</ele>
        <time>2023-07-03T08:27:40Z</time>
      </trkpt>
      <trkpt lat="43.95031" lon="0.2076">
        <ele>117.6</ele>
        <time>2023-07-03T08:27:41Z</time>
      </trkpt>
      <trkpt lat="43.95031" lon="0.20762">
        <ele>117.6</ele>
        <time>2023-07-03T08:27:42Z</time>
      </trkpt>
      <trkpt lat="43.95032" lon="0.20766">
        <ele>117.8</ele>
        <time>2023-07-03T08:27:44Z</time>
      </trkpt>
      <trkpt lat="43.95032" lon="0.20768">
        <ele>117.8</ele>
        <time>2023-07-03T08:27:45Z</time>
      </trkpt>
      <trkpt lat="43.95031" lon="0.20771">
        <ele>117.8</ele>
        <time>2023-07-03T08:27:47Z</time>
      </trkpt>
      <trkpt lat="43.95032" lon="0.20773">
        <ele>117.8</ele>
        <time>2023-07-03T08:27:48Z</time>
      </trkpt>
      <trkpt lat="43.95032" lon="0.20775">
        <ele>117.8</ele>
        <time>2023-07-03T08:27:49Z</time>
      </trkpt>
      <trkpt lat="43.95032" lon="0.20776">
        <ele>117.8</ele>
        <time>2023-07-03T08:27:50Z</time>
      </trkpt>
      <trkpt lat="43.95033" lon="0.20782">
        <ele>117.6</ele>
        <time>2023-07-03T08:27:53Z</time>
      </trkpt>
      <trkpt lat="43.95034" lon="0.20789">
        <ele>117.6</ele>
        <time>2023-07-03T08:27:57Z</time>
      </trkpt>
      <trkpt lat="43.95035" lon="0.208">
        <ele>117.4</ele>
        <time>2023-07-03T08:28:03Z</time>
      </trkpt>
      <trkpt lat="43.95035" lon="0.20805">
        <ele>117.8</ele>
        <time>2023-07-03T08:28:06Z</time>
      </trkpt>
      <trkpt lat="43.95038" lon="0.20819">
        <ele>117.4</ele>
        <time>2023-07-03T08:28:13Z</time>
      </trkpt>
      <trkpt lat="43.95038" lon="0.20825">
        <ele>117.4</ele>
        <time>2023-07-03T08:28:16Z</time>
      </trkpt>
      <trkpt lat="43.95038" lon="0.20834">
        <ele>117.4</ele>
        <time>2023-07-03T08:28:21Z</time>
      </trkpt>
      <trkpt lat="43.95039" lon="0.20848">
        <ele>117</ele>
        <time>2023-07-03T08:28:29Z</time>
      </trkpt>
      <trkpt lat="43.95039" lon="0.20866">
        <ele>116.8</ele>
        <time>2023-07-03T08:28:38Z</time>
      </trkpt>
      <trkpt lat="43.9504" lon="0.2088">
        <ele>117.2</ele>
        <time>2023-07-03T08:28:46Z</time>
      </trkpt>
      <trkpt lat="43.9504" lon="0.20896">
        <ele>117.2</ele>
        <time>2023-07-03T08:28:55Z</time>
      </trkpt>
      <trkpt lat="43.9504" lon="0.20909">
        <ele>117.2</ele>
        <time>2023-07-03T08:29:02Z</time>
      </trkpt>
      <trkpt lat="43.95041" lon="0.20915">
        <ele>117.4</ele>
        <time>2023-07-03T08:29:05Z</time>
      </trkpt>
      <trkpt lat="43.95041" lon="0.2092">
        <ele>117.6</ele>
        <time>2023-07-03T08:29:08Z</time>
      </trkpt>
      <trkpt lat="43.95042" lon="0.20924">
        <ele>117.6</ele>
        <time>2023-07-03T08:29:10Z</time>
      </trkpt>
      <trkpt lat="43.95045" lon="0.20937">
        <ele>117.8</ele>
        <time>2023-07-03T08:29:18Z</time>
      </trkpt>
      <trkpt lat="43.95047" lon="0.20941">
        <ele>117.8</ele>
        <time>2023-07-03T08:29:21Z</time>
      </trkpt>
      <trkpt lat="43.95049" lon="0.2095">
        <ele>118.2</ele>
        <time>2023-07-03T08:29:26Z</time>
      </trkpt>
      <trkpt lat="43.95051" lon="0.20958">
        <ele>118.4</ele>
        <time>2023-07-03T08:29:31Z</time>
      </trkpt>
      <trkpt lat="43.95052" lon="0.20964">
        <ele>118.6</ele>
        <time>2023-07-03T08:29:34Z</time>
      </trkpt>
      <trkpt lat="43.95054" lon="0.20978">
        <ele>119</ele>
        <time>2023-07-03T08:29:42Z</time>
      </trkpt>
      <trkpt lat="43.95054" lon="0.2098">
        <ele>119</ele>
        <time>2023-07-03T08:29:43Z</time>
      </trkpt>
      <trkpt lat="43.95051" lon="0.20985">
        <ele>119</ele>
        <time>2023-07-03T08:29:47Z</time>
      </trkpt>
      <trkpt lat="43.95049" lon="0.20989">
        <ele>118.8</ele>
        <time>2023-07-03T08:29:49Z</time>
      </trkpt>
      <trkpt lat="43.95048" lon="0.20991">
        <ele>118.6</ele>
        <time>2023-07-03T08:29:50Z</time>
      </trkpt>
      <trkpt lat="43.95047" lon="0.20996">
        <ele>118.6</ele>
        <time>2023-07-03T08:29:53Z</time>
      </trkpt>
      <trkpt lat="43.95045" lon="0.21002">
        <ele>118.6</ele>
        <time>2023-07-03T08:29:56Z</time>
      </trkpt>
      <trkpt lat="43.95043" lon="0.2101">
        <ele>118.4</ele>
        <time>2023-07-03T08:30:00Z</time>
      </trkpt>
      <trkpt lat="43.95041" lon="0.21015">
        <ele>118.4</ele>
        <time>2023-07-03T08:30:03Z</time>
      </trkpt>
      <trkpt lat="43.9504" lon="0.21019">
        <ele>118.4</ele>
        <time>2023-07-03T08:30:05Z</time>
      </trkpt>
      <trkpt lat="43.95037" lon="0.2103">
        <ele>118.8</ele>
        <time>2023-07-03T08:30:11Z</time>
      </trkpt>
      <trkpt lat="43.95035" lon="0.21044">
        <ele>118.2</ele>
        <time>2023-07-03T08:30:19Z</time>
      </trkpt>
      <trkpt lat="43.95033" lon="0.21052">
        <ele>118.2</ele>
        <time>2023-07-03T08:30:23Z</time>
      </trkpt>
      <trkpt lat="43.95029" lon="0.21063">
        <ele>118.8</ele>
        <time>2023-07-03T08:30:29Z</time>
      </trkpt>
      <trkpt lat="43.95027" lon="0.21073">
        <ele>118.2</ele>
        <time>2023-07-03T08:30:35Z</time>
      </trkpt>
      <trkpt lat="43.95027" lon="0.21075">
        <ele>118.2</ele>
        <time>2023-07-03T08:30:36Z</time>
      </trkpt>
      <trkpt lat="43.95026" lon="0.21085">
        <ele>118.4</ele>
        <time>2023-07-03T08:30:41Z</time>
      </trkpt>
      <trkpt lat="43.95021" lon="0.21099">
        <ele>118.2</ele>
        <time>2023-07-03T08:30:49Z</time>
      </trkpt>
      <trkpt lat="43.95018" lon="0.21105">
        <ele>118.4</ele>
        <time>2023-07-03T08:30:53Z</time>
      </trkpt>
      <trkpt lat="43.95018" lon="0.21107">
        <ele>118.4</ele>
        <time>2023-07-03T08:30:54Z</time>
      </trkpt>
      <trkpt lat="43.95018" lon="0.21108">
        <ele>118.4</ele>
        <time>2023-07-03T08:30:55Z</time>
      </trkpt>
      <trkpt lat="43.95017" lon="0.21111">
        <ele>118.4</ele>
        <time>2023-07-03T08:30:57Z</time>
      </trkpt>
      <trkpt lat="43.95016" lon="0.21115">
        <ele>118.6</ele>
        <time>2023-07-03T08:30:59Z</time>
      </trkpt>
      <trkpt lat="43.95014" lon="0.2112">
        <ele>118.8</ele>
        <time>2023-07-03T08:31:02Z</time>
      </trkpt>
      <trkpt lat="43.95014" lon="0.21122">
        <ele>118.8</ele>
        <time>2023-07-03T08:31:03Z</time>
      </trkpt>
      <trkpt lat="43.95012" lon="0.21125">
        <ele>118.8</ele>
        <time>2023-07-03T08:31:06Z</time>
      </trkpt>
      <trkpt lat="43.95011" lon="0.21129">
        <ele>118.4</ele>
        <time>2023-07-03T08:31:08Z</time>
      </trkpt>
      <trkpt lat="43.95005" lon="0.21141">
        <ele>118.6</ele>
        <time>2023-07-03T08:31:16Z</time>
      </trkpt>
      <trkpt lat="43.95001" lon="0.21146">
        <ele>119</ele>
        <time>2023-07-03T08:31:20Z</time>
      </trkpt>
      <trkpt lat="43.94998" lon="0.21152">
        <ele>119.2</ele>
        <time>2023-07-03T08:31:24Z</time>
      </trkpt>
      <trkpt lat="43.94994" lon="0.21167">
        <ele>119.6</ele>
        <time>2023-07-03T08:31:32Z</time>
      </trkpt>
      <trkpt lat="43.94992" lon="0.21174">
        <ele>120</ele>
        <time>2023-07-03T08:31:36Z</time>
      </trkpt>
      <trkpt lat="43.9499" lon="0.21178">
        <ele>120.2</ele>
        <time>2023-07-03T08:31:39Z</time>
      </trkpt>
      <trkpt lat="43.9499" lon="0.21189">
        <ele>120.6</ele>
        <time>2023-07-03T08:31:46Z</time>
      </trkpt>
      <trkpt lat="43.94987" lon="0.21194">
        <ele>121</ele>
        <time>2023-07-03T08:31:50Z</time>
      </trkpt>
      <trkpt lat="43.94985" lon="0.212">
        <ele>121.2</ele>
        <time>2023-07-03T08:31:53Z</time>
      </trkpt>
      <trkpt lat="43.94982" lon="0.21212">
        <ele>121.8</ele>
        <time>2023-07-03T08:32:00Z</time>
      </trkpt>
      <trkpt lat="43.94981" lon="0.21218">
        <ele>122</ele>
        <time>2023-07-03T08:32:03Z</time>
      </trkpt>
      <trkpt lat="43.9498" lon="0.2122">
        <ele>122</ele>
        <time>2023-07-03T08:32:04Z</time>
      </trkpt>
      <trkpt lat="43.9498" lon="0.21221">
        <ele>122</ele>
        <time>2023-07-03T08:32:05Z</time>
      </trkpt>
      <trkpt lat="43.94979" lon="0.21223">
        <ele>121.8</ele>
        <time>2023-07-03T08:32:06Z</time>
      </trkpt>
      <trkpt lat="43.9498" lon="0.21225">
        <ele>121.8</ele>
        <time>2023-07-03T08:32:07Z</time>
      </trkpt>
      <trkpt lat="43.94979" lon="0.21226">
        <ele>122</ele>
        <time>2023-07-03T08:32:08Z</time>
      </trkpt>
      <trkpt lat="43.94977" lon="0.21234">
        <ele>122.2</ele>
        <time>2023-07-03T08:32:13Z</time>
      </trkpt>
      <trkpt lat="43.94976" lon="0.21238">
        <ele>122.6</ele>
        <time>2023-07-03T08:32:15Z</time>
      </trkpt>
      <trkpt lat="43.94975" lon="0.21242">
        <ele>122.8</ele>
        <time>2023-07-03T08:32:17Z</time>
      </trkpt>
      <trkpt lat="43.94974" lon="0.21246">
        <ele>122.8</ele>
        <time>2023-07-03T08:32:19Z</time>
      </trkpt>
      <trkpt lat="43.94973" lon="0.21248">
        <ele>123</ele>
        <time>2023-07-03T08:32:20Z</time>
      </trkpt>
      <trkpt lat="43.94973" lon="0.2125">
        <ele>123.2</ele>
        <time>2023-07-03T08:32:21Z</time>
      </trkpt>
      <trkpt lat="43.94972" lon="0.21252">
        <ele>123.2</ele>
        <time>2023-07-03T08:32:22Z</time>
      </trkpt>
      <trkpt lat="43.9497" lon="0.21253">
        <ele>123.2</ele>
        <time>2023-07-03T08:32:23Z</time>
      </trkpt>
      <trkpt lat="43.94969" lon="0.21255">
        <ele>123.4</ele>
        <time>2023-07-03T08:32:24Z</time>
      </trkpt>
      <trkpt lat="43.94966" lon="0.21261">
        <ele>123.6</ele>
        <time>2023-07-03T08:32:28Z</time>
      </trkpt>
      <trkpt lat="43.94965" lon="0.21265">
        <ele>124</ele>
        <time>2023-07-03T08:32:31Z</time>
      </trkpt>
      <trkpt lat="43.94962" lon="0.21273">
        <ele>124.2</ele>
        <time>2023-07-03T08:32:35Z</time>
      </trkpt>
      <trkpt lat="43.94962" lon="0.21275">
        <ele>124.2</ele>
        <time>2023-07-03T08:32:36Z</time>
      </trkpt>
      <trkpt lat="43.94959" lon="0.21283">
        <ele>124.8</ele>
        <time>2023-07-03T08:32:40Z</time>
      </trkpt>
      <trkpt lat="43.94959" lon="0.21288">
        <ele>125</ele>
        <time>2023-07-03T08:32:42Z</time>
      </trkpt>
      <trkpt lat="43.94959" lon="0.21294">
        <ele>124.8</ele>
        <time>2023-07-03T08:32:45Z</time>
      </trkpt>
      <trkpt lat="43.9496" lon="0.21297">
        <ele>124.8</ele>
        <time>2023-07-03T08:32:47Z</time>
      </trkpt>
      <trkpt lat="43.94959" lon="0.21301">
        <ele>125.2</ele>
        <time>2023-07-03T08:32:49Z</time>
      </trkpt>
      <trkpt lat="43.94958" lon="0.2131">
        <ele>125.6</ele>
        <time>2023-07-03T08:32:54Z</time>
      </trkpt>
      <trkpt lat="43.94954" lon="0.21321">
        <ele>126</ele>
        <time>2023-07-03T08:33:01Z</time>
      </trkpt>
      <trkpt lat="43.94953" lon="0.21323">
        <ele>126</ele>
        <time>2023-07-03T08:33:02Z</time>
      </trkpt>
      <trkpt lat="43.94952" lon="0.21326">
        <ele>126.4</ele>
        <time>2023-07-03T08:33:04Z</time>
      </trkpt>
      <trkpt lat="43.9495" lon="0.21336">
        <ele>127</ele>
        <time>2023-07-03T08:33:09Z</time>
      </trkpt>
      <trkpt lat="43.94949" lon="0.21342">
        <ele>127.2</ele>
        <time>2023-07-03T08:33:13Z</time>
      </trkpt>
      <trkpt lat="43.94948" lon="0.21345">
        <ele>127.4</ele>
        <time>2023-07-03T08:33:15Z</time>
      </trkpt>
      <trkpt lat="43.94947" lon="0.21347">
        <ele>127.6</ele>
        <time>2023-07-03T08:33:16Z</time>
      </trkpt>
      <trkpt lat="43.94942" lon="0.2136">
        <ele>128.2</ele>
        <time>2023-07-03T08:33:24Z</time>
      </trkpt>
      <trkpt lat="43.94942" lon="0.21362">
        <ele>128.4</ele>
        <time>2023-07-03T08:33:25Z</time>
      </trkpt>
      <trkpt lat="43.94941" lon="0.21364">
        <ele>128.4</ele>
        <time>2023-07-03T08:33:26Z</time>
      </trkpt>
      <trkpt lat="43.94937" lon="0.21382">
        <ele>129.2</ele>
        <time>2023-07-03T08:33:36Z</time>
      </trkpt>
      <trkpt lat="43.94937" lon="0.21386">
        <ele>129.6</ele>
        <time>2023-07-03T08:33:39Z</time>
      </trkpt>
      <trkpt lat="43.94934" lon="0.21394">
        <ele>130.2</ele>
        <time>2023-07-03T08:33:44Z</time>
      </trkpt>
      <trkpt lat="43.94933" lon="0.21398">
        <ele>130.6</ele>
        <time>2023-07-03T08:33:46Z</time>
      </trkpt>
      <trkpt lat="43.94932" lon="0.21401">
        <ele>130.8</ele>
        <time>2023-07-03T08:33:48Z</time>
      </trkpt>
      <trkpt lat="43.94932" lon="0.21403">
        <ele>131</ele>
        <time>2023-07-03T08:33:49Z</time>
      </trkpt>
      <trkpt lat="43.94931" lon="0.21406">
        <ele>131.4</ele>
        <time>2023-07-03T08:33:51Z</time>
      </trkpt>
      <trkpt lat="43.9493" lon="0.2141">
        <ele>131.8</ele>
        <time>2023-07-03T08:33:53Z</time>
      </trkpt>
      <trkpt lat="43.94929" lon="0.21412">
        <ele>132</ele>
        <time>2023-07-03T08:33:54Z</time>
      </trkpt>
      <trkpt lat="43.94927" lon="0.21418">
        <ele>132.4</ele>
        <time>2023-07-03T08:33:58Z</time>
      </trkpt>
      <trkpt lat="43.94926" lon="0.21422">
        <ele>132.6</ele>
        <time>2023-07-03T08:34:00Z</time>
      </trkpt>
      <trkpt lat="43.94924" lon="0.21426">
        <ele>132.8</ele>
        <time>2023-07-03T08:34:03Z</time>
      </trkpt>
      <trkpt lat="43.94923" lon="0.21428">
        <ele>133</ele>
        <time>2023-07-03T08:34:04Z</time>
      </trkpt>
      <trkpt lat="43.94922" lon="0.21433">
        <ele>133</ele>
        <time>2023-07-03T08:34:07Z</time>
      </trkpt>
      <trkpt lat="43.94919" lon="0.21446">
        <ele>134.2</ele>
        <time>2023-07-03T08:34:15Z</time>
      </trkpt>
      <trkpt lat="43.94918" lon="0.21448">
        <ele>134.2</ele>
        <time>2023-07-03T08:34:16Z</time>
      </trkpt>
      <trkpt lat="43.94914" lon="0.21459">
        <ele>134.8</ele>
        <time>2023-07-03T08:34:23Z</time>
      </trkpt>
      <trkpt lat="43.94913" lon="0.21463">
        <ele>135</ele>
        <time>2023-07-03T08:34:25Z</time>
      </trkpt>
      <trkpt lat="43.94912" lon="0.21467">
        <ele>135.2</ele>
        <time>2023-07-03T08:34:28Z</time>
      </trkpt>
      <trkpt lat="43.9491" lon="0.21474">
        <ele>135.8</ele>
        <time>2023-07-03T08:34:32Z</time>
      </trkpt>
      <trkpt lat="43.9491" lon="0.21478">
        <ele>136</ele>
        <time>2023-07-03T08:34:34Z</time>
      </trkpt>
      <trkpt lat="43.94909" lon="0.21481">
        <ele>136.2</ele>
        <time>2023-07-03T08:34:36Z</time>
      </trkpt>
      <trkpt lat="43.94907" lon="0.21487">
        <ele>136.4</ele>
        <time>2023-07-03T08:34:39Z</time>
      </trkpt>
      <trkpt lat="43.94904" lon="0.21499">
        <ele>137.2</ele>
        <time>2023-07-03T08:34:46Z</time>
      </trkpt>
      <trkpt lat="43.94903" lon="0.21502">
        <ele>137.4</ele>
        <time>2023-07-03T08:34:48Z</time>
      </trkpt>
      <trkpt lat="43.94899" lon="0.21515">
        <ele>138</ele>
        <time>2023-07-03T08:34:56Z</time>
      </trkpt>
      <trkpt lat="43.94899" lon="0.21516">
        <ele>138.2</ele>
        <time>2023-07-03T08:34:57Z</time>
      </trkpt>
      <trkpt lat="43.94897" lon="0.21519">
        <ele>138.4</ele>
        <time>2023-07-03T08:34:59Z</time>
      </trkpt>
      <trkpt lat="43.94894" lon="0.21528">
        <ele>139</ele>
        <time>2023-07-03T08:35:05Z</time>
      </trkpt>
      <trkpt lat="43.94893" lon="0.21533">
        <ele>139.2</ele>
        <time>2023-07-03T08:35:08Z</time>
      </trkpt>
      <trkpt lat="43.94893" lon="0.21538">
        <ele>139.4</ele>
        <time>2023-07-03T08:35:11Z</time>
      </trkpt>
      <trkpt lat="43.94893" lon="0.21543">
        <ele>139.6</ele>
        <time>2023-07-03T08:35:14Z</time>
      </trkpt>
      <trkpt lat="43.94893" lon="0.2155">
        <ele>140</ele>
        <time>2023-07-03T08:35:18Z</time>
      </trkpt>
      <trkpt lat="43.94893" lon="0.21554">
        <ele>140.2</ele>
        <time>2023-07-03T08:35:20Z</time>
      </trkpt>
      <trkpt lat="43.94893" lon="0.21556">
        <ele>140.4</ele>
        <time>2023-07-03T08:35:21Z</time>
      </trkpt>
      <trkpt lat="43.94892" lon="0.21562">
        <ele>140.6</ele>
        <time>2023-07-03T08:35:25Z</time>
      </trkpt>
      <trkpt lat="43.94892" lon="0.21564">
        <ele>140.6</ele>
        <time>2023-07-03T08:35:26Z</time>
      </trkpt>
      <trkpt lat="43.94891" lon="0.21576">
        <ele>141</ele>
        <time>2023-07-03T08:35:32Z</time>
      </trkpt>
      <trkpt lat="43.94891" lon="0.21578">
        <ele>141.2</ele>
        <time>2023-07-03T08:35:33Z</time>
      </trkpt>
      <trkpt lat="43.94891" lon="0.21581">
        <ele>141.2</ele>
        <time>2023-07-03T08:35:35Z</time>
      </trkpt>
      <trkpt lat="43.94888" lon="0.21589">
        <ele>141.4</ele>
        <time>2023-07-03T08:35:39Z</time>
      </trkpt>
      <trkpt lat="43.94887" lon="0.2159">
        <ele>141.4</ele>
        <time>2023-07-03T08:35:40Z</time>
      </trkpt>
      <trkpt lat="43.94884" lon="0.21599">
        <ele>141.8</ele>
        <time>2023-07-03T08:35:46Z</time>
      </trkpt>
      <trkpt lat="43.94881" lon="0.21612">
        <ele>142.6</ele>
        <time>2023-07-03T08:35:55Z</time>
      </trkpt>
      <trkpt lat="43.94881" lon="0.21613">
        <ele>142.6</ele>
        <time>2023-07-03T08:35:56Z</time>
      </trkpt>
      <trkpt lat="43.9488" lon="0.21615">
        <ele>142.8</ele>
        <time>2023-07-03T08:35:57Z</time>
      </trkpt>
      <trkpt lat="43.94879" lon="0.21627">
        <ele>143.2</ele>
        <time>2023-07-03T08:36:04Z</time>
      </trkpt>
      <trkpt lat="43.94877" lon="0.21638">
        <ele>143.4</ele>
        <time>2023-07-03T08:36:11Z</time>
      </trkpt>
      <trkpt lat="43.94876" lon="0.21653">
        <ele>143.6</ele>
        <time>2023-07-03T08:36:19Z</time>
      </trkpt>
      <trkpt lat="43.94876" lon="0.21654">
        <ele>143.8</ele>
        <time>2023-07-03T08:36:20Z</time>
      </trkpt>
      <trkpt lat="43.94878" lon="0.21666">
        <ele>144.2</ele>
        <time>2023-07-03T08:36:27Z</time>
      </trkpt>
      <trkpt lat="43.94877" lon="0.2167">
        <ele>144.6</ele>
        <time>2023-07-03T08:36:30Z</time>
      </trkpt>
      <trkpt lat="43.94877" lon="0.21672">
        <ele>144.6</ele>
        <time>2023-07-03T08:36:32Z</time>
      </trkpt>
      <trkpt lat="43.94876" lon="0.21676">
        <ele>144.8</ele>
        <time>2023-07-03T08:36:35Z</time>
      </trkpt>
      <trkpt lat="43.94876" lon="0.21688">
        <ele>145</ele>
        <time>2023-07-03T08:36:42Z</time>
      </trkpt>
      <trkpt lat="43.94877" lon="0.21694">
        <ele>145</ele>
        <time>2023-07-03T08:36:45Z</time>
      </trkpt>
      <trkpt lat="43.94878" lon="0.21697">
        <ele>145.2</ele>
        <time>2023-07-03T08:36:47Z</time>
      </trkpt>
      <trkpt lat="43.94878" lon="0.21698">
        <ele>145.4</ele>
        <time>2023-07-03T08:36:48Z</time>
      </trkpt>
      <trkpt lat="43.94879" lon="0.21708">
        <ele>145.8</ele>
        <time>2023-07-03T08:36:53Z</time>
      </trkpt>
      <trkpt lat="43.94877" lon="0.21715">
        <ele>146.2</ele>
        <time>2023-07-03T08:36:57Z</time>
      </trkpt>
      <trkpt lat="43.94877" lon="0.21718">
        <ele>146.4</ele>
        <time>2023-07-03T08:36:59Z</time>
      </trkpt>
      <trkpt lat="43.94878" lon="0.21723">
        <ele>146.4</ele>
        <time>2023-07-03T08:37:02Z</time>
      </trkpt>
      <trkpt lat="43.94879" lon="0.21727">
        <ele>146.6</ele>
        <time>2023-07-03T08:37:05Z</time>
      </trkpt>
      <trkpt lat="43.9488" lon="0.21732">
        <ele>146.8</ele>
        <time>2023-07-03T08:37:08Z</time>
      </trkpt>
      <trkpt lat="43.94878" lon="0.21736">
        <ele>147.2</ele>
        <time>2023-07-03T08:37:11Z</time>
      </trkpt>
      <trkpt lat="43.94878" lon="0.21751">
        <ele>147.4</ele>
        <time>2023-07-03T08:37:20Z</time>
      </trkpt>
      <trkpt lat="43.94878" lon="0.21759">
        <ele>147.6</ele>
        <time>2023-07-03T08:37:25Z</time>
      </trkpt>
      <trkpt lat="43.94878" lon="0.21762">
        <ele>147.8</ele>
        <time>2023-07-03T08:37:27Z</time>
      </trkpt>
      <trkpt lat="43.94879" lon="0.21764">
        <ele>148</ele>
        <time>2023-07-03T08:37:28Z</time>
      </trkpt>
      <trkpt lat="43.94879" lon="0.21776">
        <ele>148.2</ele>
        <time>2023-07-03T08:37:35Z</time>
      </trkpt>
      <trkpt lat="43.94879" lon="0.21778">
        <ele>148.2</ele>
        <time>2023-07-03T08:37:36Z</time>
      </trkpt>
      <trkpt lat="43.94878" lon="0.21786">
        <ele>149</ele>
        <time>2023-07-03T08:37:41Z</time>
      </trkpt>
      <trkpt lat="43.94879" lon="0.21792">
        <ele>149.4</ele>
        <time>2023-07-03T08:37:45Z</time>
      </trkpt>
      <trkpt lat="43.94877" lon="0.21805">
        <ele>149.8</ele>
        <time>2023-07-03T08:37:54Z</time>
      </trkpt>
      <trkpt lat="43.94877" lon="0.21809">
        <ele>150.2</ele>
        <time>2023-07-03T08:37:57Z</time>
      </trkpt>
      <trkpt lat="43.94878" lon="0.21815">
        <ele>150.4</ele>
        <time>2023-07-03T08:38:00Z</time>
      </trkpt>
      <trkpt lat="43.94879" lon="0.2182">
        <ele>150.4</ele>
        <time>2023-07-03T08:38:02Z</time>
      </trkpt>
      <trkpt lat="43.94882" lon="0.21832">
        <ele>150.6</ele>
        <time>2023-07-03T08:38:08Z</time>
      </trkpt>
      <trkpt lat="43.94883" lon="0.21834">
        <ele>150.6</ele>
        <time>2023-07-03T08:38:09Z</time>
      </trkpt>
      <trkpt lat="43.94884" lon="0.21837">
        <ele>150.6</ele>
        <time>2023-07-03T08:38:11Z</time>
      </trkpt>
      <trkpt lat="43.94884" lon="0.21839">
        <ele>150.8</ele>
        <time>2023-07-03T08:38:12Z</time>
      </trkpt>
      <trkpt lat="43.94885" lon="0.21844">
        <ele>150.8</ele>
        <time>2023-07-03T08:38:15Z</time>
      </trkpt>
      <trkpt lat="43.94886" lon="0.21846">
        <ele>150.8</ele>
        <time>2023-07-03T08:38:16Z</time>
      </trkpt>
      <trkpt lat="43.94888" lon="0.21851">
        <ele>151.2</ele>
        <time>2023-07-03T08:38:19Z</time>
      </trkpt>
      <trkpt lat="43.94888" lon="0.21855">
        <ele>151.4</ele>
        <time>2023-07-03T08:38:21Z</time>
      </trkpt>
      <trkpt lat="43.94889" lon="0.21868">
        <ele>151.2</ele>
        <time>2023-07-03T08:38:28Z</time>
      </trkpt>
      <trkpt lat="43.9489" lon="0.21871">
        <ele>150.8</ele>
        <time>2023-07-03T08:38:30Z</time>
      </trkpt>
      <trkpt lat="43.94889" lon="0.21877">
        <ele>150.8</ele>
        <time>2023-07-03T08:38:33Z</time>
      </trkpt>
      <trkpt lat="43.94891" lon="0.21893">
        <ele>150.4</ele>
        <time>2023-07-03T08:38:41Z</time>
      </trkpt>
      <trkpt lat="43.94891" lon="0.21901">
        <ele>150</ele>
        <time>2023-07-03T08:38:46Z</time>
      </trkpt>
      <trkpt lat="43.94892" lon="0.21905">
        <ele>149.8</ele>
        <time>2023-07-03T08:38:48Z</time>
      </trkpt>
      <trkpt lat="43.94894" lon="0.21918">
        <ele>149.4</ele>
        <time>2023-07-03T08:38:55Z</time>
      </trkpt>
      <trkpt lat="43.94895" lon="0.2192">
        <ele>149.4</ele>
        <time>2023-07-03T08:38:56Z</time>
      </trkpt>
      <trkpt lat="43.94895" lon="0.21922">
        <ele>149.4</ele>
        <time>2023-07-03T08:38:57Z</time>
      </trkpt>
      <trkpt lat="43.94896" lon="0.21933">
        <ele>149</ele>
        <time>2023-07-03T08:39:03Z</time>
      </trkpt>
      <trkpt lat="43.94896" lon="0.21935">
        <ele>149</ele>
        <time>2023-07-03T08:39:04Z</time>
      </trkpt>
      <trkpt lat="43.94899" lon="0.21946">
        <ele>148.6</ele>
        <time>2023-07-03T08:39:11Z</time>
      </trkpt>
      <trkpt lat="43.94901" lon="0.21955">
        <ele>148</ele>
        <time>2023-07-03T08:39:16Z</time>
      </trkpt>
      <trkpt lat="43.94902" lon="0.21962">
        <ele>147.8</ele>
        <time>2023-07-03T08:39:20Z</time>
      </trkpt>
      <trkpt lat="43.94906" lon="0.21974">
        <ele>147.2</ele>
        <time>2023-07-03T08:39:27Z</time>
      </trkpt>
      <trkpt lat="43.94906" lon="0.21976">
        <ele>147.2</ele>
        <time>2023-07-03T08:39:28Z</time>
      </trkpt>
      <trkpt lat="43.94906" lon="0.2198">
        <ele>147</ele>
        <time>2023-07-03T08:39:31Z</time>
      </trkpt>
      <trkpt lat="43.94907" lon="0.21987">
        <ele>147</ele>
        <time>2023-07-03T08:39:36Z</time>
      </trkpt>
      <trkpt lat="43.9491" lon="0.21994">
        <ele>147</ele>
        <time>2023-07-03T08:39:41Z</time>
      </trkpt>
      <trkpt lat="43.9491" lon="0.21996">
        <ele>147</ele>
        <time>2023-07-03T08:39:42Z</time>
      </trkpt>
      <trkpt lat="43.94911" lon="0.21997">
        <ele>146.8</ele>
        <time>2023-07-03T08:39:43Z</time>
      </trkpt>
      <trkpt lat="43.94914" lon="0.22007">
        <ele>146.8</ele>
        <time>2023-07-03T08:39:50Z</time>
      </trkpt>
      <trkpt lat="43.94917" lon="0.22022">
        <ele>146</ele>
        <time>2023-07-03T08:39:58Z</time>
      </trkpt>
      <trkpt lat="43.94917" lon="0.22024">
        <ele>146</ele>
        <time>2023-07-03T08:39:59Z</time>
      </trkpt>
      <trkpt lat="43.94919" lon="0.22035">
        <ele>145.8</ele>
        <time>2023-07-03T08:40:06Z</time>
      </trkpt>
      <trkpt lat="43.9492" lon="0.22043">
        <ele>145.8</ele>
        <time>2023-07-03T08:40:11Z</time>
      </trkpt>
      <trkpt lat="43.94921" lon="0.22057">
        <ele>145.4</ele>
        <time>2023-07-03T08:40:18Z</time>
      </trkpt>
      <trkpt lat="43.94923" lon="0.22064">
        <ele>145</ele>
        <time>2023-07-03T08:40:21Z</time>
      </trkpt>
      <trkpt lat="43.94927" lon="0.2207">
        <ele>144.8</ele>
        <time>2023-07-03T08:40:24Z</time>
      </trkpt>
      <trkpt lat="43.94929" lon="0.22085">
        <ele>144.2</ele>
        <time>2023-07-03T08:40:32Z</time>
      </trkpt>
      <trkpt lat="43.94932" lon="0.2209">
        <ele>144</ele>
        <time>2023-07-03T08:40:35Z</time>
      </trkpt>
      <trkpt lat="43.94934" lon="0.22097">
        <ele>143.8</ele>
        <time>2023-07-03T08:40:39Z</time>
      </trkpt>
      <trkpt lat="43.94934" lon="0.22099">
        <ele>143.8</ele>
        <time>2023-07-03T08:40:40Z</time>
      </trkpt>
      <trkpt lat="43.94937" lon="0.22112">
        <ele>143.2</ele>
        <time>2023-07-03T08:40:48Z</time>
      </trkpt>
      <trkpt lat="43.94938" lon="0.22125">
        <ele>142.8</ele>
        <time>2023-07-03T08:40:55Z</time>
      </trkpt>
      <trkpt lat="43.94938" lon="0.22127">
        <ele>142.6</ele>
        <time>2023-07-03T08:40:56Z</time>
      </trkpt>
      <trkpt lat="43.94939" lon="0.22139">
        <ele>142.4</ele>
        <time>2023-07-03T08:41:03Z</time>
      </trkpt>
      <trkpt lat="43.9494" lon="0.22148">
        <ele>142</ele>
        <time>2023-07-03T08:41:09Z</time>
      </trkpt>
      <trkpt lat="43.94941" lon="0.22159">
        <ele>141.6</ele>
        <time>2023-07-03T08:41:15Z</time>
      </trkpt>
      <trkpt lat="43.94941" lon="0.22161">
        <ele>141.6</ele>
        <time>2023-07-03T08:41:16Z</time>
      </trkpt>
      <trkpt lat="43.94945" lon="0.22172">
        <ele>141.4</ele>
        <time>2023-07-03T08:41:22Z</time>
      </trkpt>
      <trkpt lat="43.94947" lon="0.22181">
        <ele>140.6</ele>
        <time>2023-07-03T08:41:27Z</time>
      </trkpt>
      <trkpt lat="43.94948" lon="0.22185">
        <ele>140.4</ele>
        <time>2023-07-03T08:41:29Z</time>
      </trkpt>
      <trkpt lat="43.94948" lon="0.22189">
        <ele>140.6</ele>
        <time>2023-07-03T08:41:31Z</time>
      </trkpt>
      <trkpt lat="43.94949" lon="0.22191">
        <ele>140.4</ele>
        <time>2023-07-03T08:41:32Z</time>
      </trkpt>
      <trkpt lat="43.94949" lon="0.22192">
        <ele>140.4</ele>
        <time>2023-07-03T08:41:33Z</time>
      </trkpt>
      <trkpt lat="43.94949" lon="0.22194">
        <ele>140.4</ele>
        <time>2023-07-03T08:41:34Z</time>
      </trkpt>
      <trkpt lat="43.9495" lon="0.22195">
        <ele>140.4</ele>
        <time>2023-07-03T08:41:35Z</time>
      </trkpt>
      <trkpt lat="43.94949" lon="0.22197">
        <ele>140.2</ele>
        <time>2023-07-03T08:41:36Z</time>
      </trkpt>
      <trkpt lat="43.94949" lon="0.22198">
        <ele>140.2</ele>
        <time>2023-07-03T08:41:37Z</time>
      </trkpt>
      <trkpt lat="43.94949" lon="0.222">
        <ele>140.2</ele>
        <time>2023-07-03T08:41:38Z</time>
      </trkpt>
      <trkpt lat="43.94949" lon="0.22207">
        <ele>140.2</ele>
        <time>2023-07-03T08:41:42Z</time>
      </trkpt>
      <trkpt lat="43.94949" lon="0.22211">
        <ele>140.2</ele>
        <time>2023-07-03T08:41:44Z</time>
      </trkpt>
      <trkpt lat="43.9495" lon="0.22213">
        <ele>140.2</ele>
        <time>2023-07-03T08:41:45Z</time>
      </trkpt>
      <trkpt lat="43.9495" lon="0.22214">
        <ele>140.2</ele>
        <time>2023-07-03T08:41:46Z</time>
      </trkpt>
      <trkpt lat="43.9495" lon="0.22225">
        <ele>139.6</ele>
        <time>2023-07-03T08:41:52Z</time>
      </trkpt>
      <trkpt lat="43.9495" lon="0.22231">
        <ele>139.8</ele>
        <time>2023-07-03T08:41:55Z</time>
      </trkpt>
      <trkpt lat="43.94951" lon="0.22235">
        <ele>139.6</ele>
        <time>2023-07-03T08:41:57Z</time>
      </trkpt>
      <trkpt lat="43.94951" lon="0.22237">
        <ele>139.6</ele>
        <time>2023-07-03T08:41:58Z</time>
      </trkpt>
      <trkpt lat="43.94951" lon="0.22239">
        <ele>139.4</ele>
        <time>2023-07-03T08:41:59Z</time>
      </trkpt>
      <trkpt lat="43.94951" lon="0.22245">
        <ele>139.2</ele>
        <time>2023-07-03T08:42:02Z</time>
      </trkpt>
      <trkpt lat="43.94953" lon="0.22254">
        <ele>139.2</ele>
        <time>2023-07-03T08:42:06Z</time>
      </trkpt>
      <trkpt lat="43.94957" lon="0.22267">
        <ele>139</ele>
        <time>2023-07-03T08:42:13Z</time>
      </trkpt>
      <trkpt lat="43.94957" lon="0.22269">
        <ele>138.8</ele>
        <time>2023-07-03T08:42:14Z</time>
      </trkpt>
      <trkpt lat="43.94959" lon="0.22278">
        <ele>138.8</ele>
        <time>2023-07-03T08:42:19Z</time>
      </trkpt>
      <trkpt lat="43.94961" lon="0.22287">
        <ele>138.6</ele>
        <time>2023-07-03T08:42:25Z</time>
      </trkpt>
      <trkpt lat="43.94962" lon="0.22293">
        <ele>138.6</ele>
        <time>2023-07-03T08:42:29Z</time>
      </trkpt>
      <trkpt lat="43.94964" lon="0.22297">
        <ele>138.6</ele>
        <time>2023-07-03T08:42:31Z</time>
      </trkpt>
      <trkpt lat="43.94966" lon="0.22302">
        <ele>138.4</ele>
        <time>2023-07-03T08:42:35Z</time>
      </trkpt>
      <trkpt lat="43.94966" lon="0.22303">
        <ele>138.4</ele>
        <time>2023-07-03T08:42:36Z</time>
      </trkpt>
      <trkpt lat="43.94968" lon="0.22307">
        <ele>138.6</ele>
        <time>2023-07-03T08:42:39Z</time>
      </trkpt>
      <trkpt lat="43.94971" lon="0.22315">
        <ele>138.4</ele>
        <time>2023-07-03T08:42:45Z</time>
      </trkpt>
      <trkpt lat="43.94972" lon="0.22318">
        <ele>138.2</ele>
        <time>2023-07-03T08:42:47Z</time>
      </trkpt>
      <trkpt lat="43.94975" lon="0.22325">
        <ele>137.8</ele>
        <time>2023-07-03T08:42:52Z</time>
      </trkpt>
      <trkpt lat="43.94975" lon="0.22327">
        <ele>137.8</ele>
        <time>2023-07-03T08:42:53Z</time>
      </trkpt>
      <trkpt lat="43.94976" lon="0.22328">
        <ele>137.8</ele>
        <time>2023-07-03T08:42:54Z</time>
      </trkpt>
      <trkpt lat="43.9498" lon="0.22339">
        <ele>137.6</ele>
        <time>2023-07-03T08:43:00Z</time>
      </trkpt>
      <trkpt lat="43.94983" lon="0.22348">
        <ele>137.4</ele>
        <time>2023-07-03T08:43:06Z</time>
      </trkpt>
      <trkpt lat="43.94987" lon="0.22354">
        <ele>137.4</ele>
        <time>2023-07-03T08:43:10Z</time>
      </trkpt>
      <trkpt lat="43.94989" lon="0.22357">
        <ele>137.2</ele>
        <time>2023-07-03T08:43:12Z</time>
      </trkpt>
      <trkpt lat="43.94994" lon="0.22367">
        <ele>136.6</ele>
        <time>2023-07-03T08:43:19Z</time>
      </trkpt>
      <trkpt lat="43.94997" lon="0.22376">
        <ele>136.2</ele>
        <time>2023-07-03T08:43:24Z</time>
      </trkpt>
      <trkpt lat="43.94999" lon="0.22379">
        <ele>136</ele>
        <time>2023-07-03T08:43:26Z</time>
      </trkpt>
      <trkpt lat="43.95003" lon="0.22389">
        <ele>135.6</ele>
        <time>2023-07-03T08:43:31Z</time>
      </trkpt>
      <trkpt lat="43.95004" lon="0.22391">
        <ele>135.6</ele>
        <time>2023-07-03T08:43:32Z</time>
      </trkpt>
      <trkpt lat="43.95008" lon="0.22399">
        <ele>135.2</ele>
        <time>2023-07-03T08:43:38Z</time>
      </trkpt>
      <trkpt lat="43.95008" lon="0.22399">
        <ele>135.2</ele>
        <time>2023-07-03T08:43:39Z</time>
      </trkpt>
      <trkpt lat="43.9501" lon="0.22404">
        <ele>135</ele>
        <time>2023-07-03T08:43:42Z</time>
      </trkpt>
      <trkpt lat="43.95012" lon="0.22407">
        <ele>134.8</ele>
        <time>2023-07-03T08:43:44Z</time>
      </trkpt>
      <trkpt lat="43.95013" lon="0.22408">
        <ele>134.6</ele>
        <time>2023-07-03T08:43:45Z</time>
      </trkpt>
      <trkpt lat="43.95015" lon="0.22409">
        <ele>134.4</ele>
        <time>2023-07-03T08:43:46Z</time>
      </trkpt>
      <trkpt lat="43.95016" lon="0.2241">
        <ele>134.2</ele>
        <time>2023-07-03T08:43:47Z</time>
      </trkpt>
      <trkpt lat="43.95023" lon="0.22421">
        <ele>133.4</ele>
        <time>2023-07-03T08:43:53Z</time>
      </trkpt>
      <trkpt lat="43.95026" lon="0.22428">
        <ele>133</ele>
        <time>2023-07-03T08:43:56Z</time>
      </trkpt>
      <trkpt lat="43.95028" lon="0.2243">
        <ele>132.8</ele>
        <time>2023-07-03T08:43:58Z</time>
      </trkpt>
      <trkpt lat="43.9503" lon="0.22432">
        <ele>132.8</ele>
        <time>2023-07-03T08:44:00Z</time>
      </trkpt>
      <trkpt lat="43.95035" lon="0.22437">
        <ele>132.6</ele>
        <time>2023-07-03T08:44:05Z</time>
      </trkpt>
      <trkpt lat="43.95037" lon="0.22438">
        <ele>132.4</ele>
        <time>2023-07-03T08:44:06Z</time>
      </trkpt>
      <trkpt lat="43.95039" lon="0.22439">
        <ele>132.2</ele>
        <time>2023-07-03T08:44:08Z</time>
      </trkpt>
      <trkpt lat="43.95043" lon="0.22441">
        <ele>131.8</ele>
        <time>2023-07-03T08:44:12Z</time>
      </trkpt>
      <trkpt lat="43.95048" lon="0.22444">
        <ele>130.8</ele>
        <time>2023-07-03T08:44:16Z</time>
      </trkpt>
      <trkpt lat="43.95049" lon="0.22445">
        <ele>130.6</ele>
        <time>2023-07-03T08:44:17Z</time>
      </trkpt>
      <trkpt lat="43.95052" lon="0.22446">
        <ele>130.6</ele>
        <time>2023-07-03T08:44:19Z</time>
      </trkpt>
      <trkpt lat="43.95053" lon="0.22447">
        <ele>130.4</ele>
        <time>2023-07-03T08:44:21Z</time>
      </trkpt>
      <trkpt lat="43.95054" lon="0.22448">
        <ele>130</ele>
        <time>2023-07-03T08:44:22Z</time>
      </trkpt>
      <trkpt lat="43.95057" lon="0.22449">
        <ele>129.8</ele>
        <time>2023-07-03T08:44:25Z</time>
      </trkpt>
      <trkpt lat="43.95058" lon="0.2245">
        <ele>129.6</ele>
        <time>2023-07-03T08:44:26Z</time>
      </trkpt>
      <trkpt lat="43.95059" lon="0.2245">
        <ele>129.6</ele>
        <time>2023-07-03T08:44:27Z</time>
      </trkpt>
      <trkpt lat="43.9506" lon="0.2245">
        <ele>129.6</ele>
        <time>2023-07-03T08:44:28Z</time>
      </trkpt>
      <trkpt lat="43.95061" lon="0.2245">
        <ele>129.4</ele>
        <time>2023-07-03T08:44:29Z</time>
      </trkpt>
      <trkpt lat="43.95065" lon="0.22452">
        <ele>128.8</ele>
        <time>2023-07-03T08:44:32Z</time>
      </trkpt>
      <trkpt lat="43.95066" lon="0.22452">
        <ele>128.6</ele>
        <time>2023-07-03T08:44:33Z</time>
      </trkpt>
      <trkpt lat="43.95068" lon="0.22452">
        <ele>128.4</ele>
        <time>2023-07-03T08:44:35Z</time>
      </trkpt>
      <trkpt lat="43.95071" lon="0.22453">
        <ele>128</ele>
        <time>2023-07-03T08:44:37Z</time>
      </trkpt>
      <trkpt lat="43.95073" lon="0.22454">
        <ele>127.6</ele>
        <time>2023-07-03T08:44:39Z</time>
      </trkpt>
      <trkpt lat="43.95074" lon="0.22454">
        <ele>127.6</ele>
        <time>2023-07-03T08:44:40Z</time>
      </trkpt>
      <trkpt lat="43.95077" lon="0.22454">
        <ele>127.2</ele>
        <time>2023-07-03T08:44:42Z</time>
      </trkpt>
      <trkpt lat="43.95078" lon="0.22454">
        <ele>127.2</ele>
        <time>2023-07-03T08:44:43Z</time>
      </trkpt>
      <trkpt lat="43.95079" lon="0.22454">
        <ele>127.2</ele>
        <time>2023-07-03T08:44:44Z</time>
      </trkpt>
      <trkpt lat="43.95082" lon="0.22454">
        <ele>127.2</ele>
        <time>2023-07-03T08:44:46Z</time>
      </trkpt>
      <trkpt lat="43.95089" lon="0.22455">
        <ele>126.4</ele>
        <time>2023-07-03T08:44:51Z</time>
      </trkpt>
      <trkpt lat="43.95095" lon="0.22456">
        <ele>125.8</ele>
        <time>2023-07-03T08:44:56Z</time>
      </trkpt>
      <trkpt lat="43.95098" lon="0.22459">
        <ele>125.4</ele>
        <time>2023-07-03T08:44:58Z</time>
      </trkpt>
      <trkpt lat="43.95099" lon="0.2246">
        <ele>125.4</ele>
        <time>2023-07-03T08:44:59Z</time>
      </trkpt>
      <trkpt lat="43.951" lon="0.22461">
        <ele>125.2</ele>
        <time>2023-07-03T08:45:00Z</time>
      </trkpt>
      <trkpt lat="43.95105" lon="0.22469">
        <ele>124.2</ele>
        <time>2023-07-03T08:45:04Z</time>
      </trkpt>
      <trkpt lat="43.95106" lon="0.22473">
        <ele>123.8</ele>
        <time>2023-07-03T08:45:06Z</time>
      </trkpt>
      <trkpt lat="43.95108" lon="0.22483">
        <ele>123.2</ele>
        <time>2023-07-03T08:45:11Z</time>
      </trkpt>
      <trkpt lat="43.95108" lon="0.22485">
        <ele>123</ele>
        <time>2023-07-03T08:45:12Z</time>
      </trkpt>
      <trkpt lat="43.95108" lon="0.22487">
        <ele>122.8</ele>
        <time>2023-07-03T08:45:13Z</time>
      </trkpt>
      <trkpt lat="43.95107" lon="0.22497">
        <ele>122</ele>
        <time>2023-07-03T08:45:19Z</time>
      </trkpt>
      <trkpt lat="43.95104" lon="0.22513">
        <ele>120.8</ele>
        <time>2023-07-03T08:45:26Z</time>
      </trkpt>
      <trkpt lat="43.95103" lon="0.22517">
        <ele>120.6</ele>
        <time>2023-07-03T08:45:28Z</time>
      </trkpt>
      <trkpt lat="43.95102" lon="0.22519">
        <ele>120.6</ele>
        <time>2023-07-03T08:45:29Z</time>
      </trkpt>
      <trkpt lat="43.95101" lon="0.22528">
        <ele>119.8</ele>
        <time>2023-07-03T08:45:34Z</time>
      </trkpt>
      <trkpt lat="43.951" lon="0.22532">
        <ele>119.6</ele>
        <time>2023-07-03T08:45:36Z</time>
      </trkpt>
      <trkpt lat="43.95095" lon="0.22545">
        <ele>118.8</ele>
        <time>2023-07-03T08:45:44Z</time>
      </trkpt>
      <trkpt lat="43.95094" lon="0.22548">
        <ele>118.8</ele>
        <time>2023-07-03T08:45:45Z</time>
      </trkpt>
      <trkpt lat="43.9509" lon="0.22563">
        <ele>118.2</ele>
        <time>2023-07-03T08:45:53Z</time>
      </trkpt>
      <trkpt lat="43.95087" lon="0.22577">
        <ele>117.6</ele>
        <time>2023-07-03T08:46:00Z</time>
      </trkpt>
      <trkpt lat="43.95084" lon="0.2259">
        <ele>117.4</ele>
        <time>2023-07-03T08:46:07Z</time>
      </trkpt>
      <trkpt lat="43.95084" lon="0.22594">
        <ele>117.4</ele>
        <time>2023-07-03T08:46:09Z</time>
      </trkpt>
      <trkpt lat="43.95081" lon="0.22611">
        <ele>117</ele>
        <time>2023-07-03T08:46:18Z</time>
      </trkpt>
      <trkpt lat="43.95077" lon="0.22626">
        <ele>116.8</ele>
        <time>2023-07-03T08:46:27Z</time>
      </trkpt>
      <trkpt lat="43.95072" lon="0.22644">
        <ele>117.2</ele>
        <time>2023-07-03T08:46:37Z</time>
      </trkpt>
      <trkpt lat="43.95071" lon="0.22663">
        <ele>117.6</ele>
        <time>2023-07-03T08:46:47Z</time>
      </trkpt>
      <trkpt lat="43.95066" lon="0.22678">
        <ele>117.6</ele>
        <time>2023-07-03T08:46:56Z</time>
      </trkpt>
      <trkpt lat="43.95063" lon="0.22691">
        <ele>117.4</ele>
        <time>2023-07-03T08:47:03Z</time>
      </trkpt>
      <trkpt lat="43.95057" lon="0.22706">
        <ele>118.4</ele>
        <time>2023-07-03T08:47:11Z</time>
      </trkpt>
      <trkpt lat="43.95057" lon="0.22715">
        <ele>118.4</ele>
        <time>2023-07-03T08:47:16Z</time>
      </trkpt>
      <trkpt lat="43.95056" lon="0.22722">
        <ele>118.6</ele>
        <time>2023-07-03T08:47:20Z</time>
      </trkpt>
      <trkpt lat="43.95055" lon="0.22728">
        <ele>118.6</ele>
        <time>2023-07-03T08:47:23Z</time>
      </trkpt>
      <trkpt lat="43.95054" lon="0.22739">
        <ele>118.8</ele>
        <time>2023-07-03T08:47:29Z</time>
      </trkpt>
      <trkpt lat="43.95053" lon="0.22741">
        <ele>118.8</ele>
        <time>2023-07-03T08:47:30Z</time>
      </trkpt>
      <trkpt lat="43.95052" lon="0.22743">
        <ele>118.8</ele>
        <time>2023-07-03T08:47:31Z</time>
      </trkpt>
      <trkpt lat="43.95051" lon="0.22744">
        <ele>118.8</ele>
        <time>2023-07-03T08:47:32Z</time>
      </trkpt>
      <trkpt lat="43.9505" lon="0.22746">
        <ele>118.8</ele>
        <time>2023-07-03T08:47:33Z</time>
      </trkpt>
      <trkpt lat="43.95049" lon="0.22749">
        <ele>118.8</ele>
        <time>2023-07-03T08:47:35Z</time>
      </trkpt>
      <trkpt lat="43.95048" lon="0.22753">
        <ele>118.6</ele>
        <time>2023-07-03T08:47:37Z</time>
      </trkpt>
      <trkpt lat="43.95047" lon="0.22759">
        <ele>118.8</ele>
        <time>2023-07-03T08:47:40Z</time>
      </trkpt>
      <trkpt lat="43.95045" lon="0.22768">
        <ele>119.4</ele>
        <time>2023-07-03T08:47:45Z</time>
      </trkpt>
      <trkpt lat="43.95044" lon="0.22772">
        <ele>119.4</ele>
        <time>2023-07-03T08:47:47Z</time>
      </trkpt>
      <trkpt lat="43.95041" lon="0.22786">
        <ele>118.8</ele>
        <time>2023-07-03T08:47:55Z</time>
      </trkpt>
      <trkpt lat="43.9504" lon="0.22798">
        <ele>118.6</ele>
        <time>2023-07-03T08:48:01Z</time>
      </trkpt>
      <trkpt lat="43.95036" lon="0.22814">
        <ele>118.6</ele>
        <time>2023-07-03T08:48:10Z</time>
      </trkpt>
      <trkpt lat="43.95033" lon="0.2283">
        <ele>118.8</ele>
        <time>2023-07-03T08:48:18Z</time>
      </trkpt>
      <trkpt lat="43.95031" lon="0.22849">
        <ele>119</ele>
        <time>2023-07-03T08:48:28Z</time>
      </trkpt>
      <trkpt lat="43.9503" lon="0.22862">
        <ele>119.4</ele>
        <time>2023-07-03T08:48:35Z</time>
      </trkpt>
      <trkpt lat="43.9503" lon="0.22864">
        <ele>119.4</ele>
        <time>2023-07-03T08:48:36Z</time>
      </trkpt>
      <trkpt lat="43.9503" lon="0.22868">
        <ele>119.4</ele>
        <time>2023-07-03T08:48:38Z</time>
      </trkpt>
      <trkpt lat="43.95029" lon="0.22884">
        <ele>119.6</ele>
        <time>2023-07-03T08:48:46Z</time>
      </trkpt>
      <trkpt lat="43.95029" lon="0.22889">
        <ele>119.6</ele>
        <time>2023-07-03T08:48:49Z</time>
      </trkpt>
      <trkpt lat="43.95029" lon="0.22891">
        <ele>119.4</ele>
        <time>2023-07-03T08:48:50Z</time>
      </trkpt>
      <trkpt lat="43.95029" lon="0.22898">
        <ele>119.4</ele>
        <time>2023-07-03T08:48:54Z</time>
      </trkpt>
      <trkpt lat="43.9503" lon="0.22904">
        <ele>119.2</ele>
        <time>2023-07-03T08:48:57Z</time>
      </trkpt>
      <trkpt lat="43.95031" lon="0.22916">
        <ele>119</ele>
        <time>2023-07-03T08:49:03Z</time>
      </trkpt>
      <trkpt lat="43.95031" lon="0.2293">
        <ele>118.8</ele>
        <time>2023-07-03T08:49:11Z</time>
      </trkpt>
      <trkpt lat="43.95031" lon="0.22943">
        <ele>118.6</ele>
        <time>2023-07-03T08:49:18Z</time>
      </trkpt>
      <trkpt lat="43.95031" lon="0.22958">
        <ele>117.6</ele>
        <time>2023-07-03T08:49:26Z</time>
      </trkpt>
      <trkpt lat="43.95031" lon="0.2296">
        <ele>117.6</ele>
        <time>2023-07-03T08:49:27Z</time>
      </trkpt>
      <trkpt lat="43.9503" lon="0.22977">
        <ele>117.6</ele>
        <time>2023-07-03T08:49:36Z</time>
      </trkpt>
      <trkpt lat="43.95031" lon="0.22997">
        <ele>116.6</ele>
        <time>2023-07-03T08:49:47Z</time>
      </trkpt>
      <trkpt lat="43.9503" lon="0.23017">
        <ele>115.6</ele>
        <time>2023-07-03T08:49:57Z</time>
      </trkpt>
      <trkpt lat="43.95031" lon="0.23021">
        <ele>115.2</ele>
        <time>2023-07-03T08:49:59Z</time>
      </trkpt>
      <trkpt lat="43.95031" lon="0.23032">
        <ele>114.2</ele>
        <time>2023-07-03T08:50:04Z</time>
      </trkpt>
      <trkpt lat="43.9503" lon="0.23034">
        <ele>114</ele>
        <time>2023-07-03T08:50:05Z</time>
      </trkpt>
      <trkpt lat="43.9503" lon="0.23045">
        <ele>113.2</ele>
        <time>2023-07-03T08:50:11Z</time>
      </trkpt>
      <trkpt lat="43.9503" lon="0.23049">
        <ele>113</ele>
        <time>2023-07-03T08:50:13Z</time>
      </trkpt>
      <trkpt lat="43.95028" lon="0.2306">
        <ele>112.2</ele>
        <time>2023-07-03T08:50:19Z</time>
      </trkpt>
      <trkpt lat="43.95028" lon="0.23062">
        <ele>112</ele>
        <time>2023-07-03T08:50:20Z</time>
      </trkpt>
      <trkpt lat="43.95026" lon="0.23078">
        <ele>111</ele>
        <time>2023-07-03T08:50:28Z</time>
      </trkpt>
      <trkpt lat="43.95025" lon="0.23084">
        <ele>110.6</ele>
        <time>2023-07-03T08:50:31Z</time>
      </trkpt>
      <trkpt lat="43.95024" lon="0.2309">
        <ele>110.2</ele>
        <time>2023-07-03T08:50:35Z</time>
      </trkpt>
      <trkpt lat="43.95024" lon="0.23092">
        <ele>110.2</ele>
        <time>2023-07-03T08:50:36Z</time>
      </trkpt>
      <trkpt lat="43.95023" lon="0.23098">
        <ele>109.8</ele>
        <time>2023-07-03T08:50:39Z</time>
      </trkpt>
      <trkpt lat="43.95022" lon="0.23104">
        <ele>109.6</ele>
        <time>2023-07-03T08:50:42Z</time>
      </trkpt>
      <trkpt lat="43.95022" lon="0.23108">
        <ele>109.2</ele>
        <time>2023-07-03T08:50:44Z</time>
      </trkpt>
      <trkpt lat="43.95021" lon="0.23113">
        <ele>108.8</ele>
        <time>2023-07-03T08:50:47Z</time>
      </trkpt>
      <trkpt lat="43.95021" lon="0.23117">
        <ele>108.4</ele>
        <time>2023-07-03T08:50:49Z</time>
      </trkpt>
      <trkpt lat="43.9502" lon="0.23123">
        <ele>108.2</ele>
        <time>2023-07-03T08:50:52Z</time>
      </trkpt>
      <trkpt lat="43.9502" lon="0.2313">
        <ele>107.6</ele>
        <time>2023-07-03T08:50:56Z</time>
      </trkpt>
      <trkpt lat="43.95019" lon="0.23137">
        <ele>106.6</ele>
        <time>2023-07-03T08:51:00Z</time>
      </trkpt>
      <trkpt lat="43.95019" lon="0.2314">
        <ele>106.4</ele>
        <time>2023-07-03T08:51:01Z</time>
      </trkpt>
      <trkpt lat="43.95019" lon="0.23149">
        <ele>105.8</ele>
        <time>2023-07-03T08:51:06Z</time>
      </trkpt>
      <trkpt lat="43.95019" lon="0.23151">
        <ele>105.8</ele>
        <time>2023-07-03T08:51:07Z</time>
      </trkpt>
      <trkpt lat="43.9502" lon="0.23153">
        <ele>105.4</ele>
        <time>2023-07-03T08:51:08Z</time>
      </trkpt>
      <trkpt lat="43.95019" lon="0.23159">
        <ele>105</ele>
        <time>2023-07-03T08:51:11Z</time>
      </trkpt>
      <trkpt lat="43.95018" lon="0.23165">
        <ele>104.4</ele>
        <time>2023-07-03T08:51:14Z</time>
      </trkpt>
      <trkpt lat="43.95018" lon="0.2317">
        <ele>104</ele>
        <time>2023-07-03T08:51:17Z</time>
      </trkpt>
      <trkpt lat="43.95017" lon="0.23174">
        <ele>103.4</ele>
        <time>2023-07-03T08:51:19Z</time>
      </trkpt>
      <trkpt lat="43.95017" lon="0.23178">
        <ele>103.2</ele>
        <time>2023-07-03T08:51:21Z</time>
      </trkpt>
      <trkpt lat="43.95017" lon="0.23187">
        <ele>103</ele>
        <time>2023-07-03T08:51:26Z</time>
      </trkpt>
      <trkpt lat="43.95017" lon="0.23189">
        <ele>103</ele>
        <time>2023-07-03T08:51:27Z</time>
      </trkpt>
      <trkpt lat="43.95017" lon="0.23195">
        <ele>103</ele>
        <time>2023-07-03T08:51:30Z</time>
      </trkpt>
      <trkpt lat="43.95017" lon="0.23199">
        <ele>102.4</ele>
        <time>2023-07-03T08:51:32Z</time>
      </trkpt>
      <trkpt lat="43.95016" lon="0.23209">
        <ele>102</ele>
        <time>2023-07-03T08:51:38Z</time>
      </trkpt>
      <trkpt lat="43.95015" lon="0.23213">
        <ele>101.6</ele>
        <time>2023-07-03T08:51:41Z</time>
      </trkpt>
      <trkpt lat="43.95015" lon="0.23219">
        <ele>101.2</ele>
        <time>2023-07-03T08:51:44Z</time>
      </trkpt>
      <trkpt lat="43.95014" lon="0.23226">
        <ele>101</ele>
        <time>2023-07-03T08:51:48Z</time>
      </trkpt>
      <trkpt lat="43.95015" lon="0.23229">
        <ele>100.4</ele>
        <time>2023-07-03T08:51:50Z</time>
      </trkpt>
      <trkpt lat="43.95015" lon="0.23232">
        <ele>100.2</ele>
        <time>2023-07-03T08:51:52Z</time>
      </trkpt>
      <trkpt lat="43.95015" lon="0.23234">
        <ele>100</ele>
        <time>2023-07-03T08:51:53Z</time>
      </trkpt>
      <trkpt lat="43.95014" lon="0.23238">
        <ele>99.6</ele>
        <time>2023-07-03T08:51:55Z</time>
      </trkpt>
      <trkpt lat="43.95014" lon="0.23239">
        <ele>99.4</ele>
        <time>2023-07-03T08:51:56Z</time>
      </trkpt>
      <trkpt lat="43.95014" lon="0.23241">
        <ele>99</ele>
        <time>2023-07-03T08:51:57Z</time>
      </trkpt>
      <trkpt lat="43.95013" lon="0.23246">
        <ele>98.2</ele>
        <time>2023-07-03T08:52:00Z</time>
      </trkpt>
      <trkpt lat="43.95014" lon="0.23249">
        <ele>98</ele>
        <time>2023-07-03T08:52:02Z</time>
      </trkpt>
      <trkpt lat="43.95015" lon="0.23251">
        <ele>97.8</ele>
        <time>2023-07-03T08:52:03Z</time>
      </trkpt>
      <trkpt lat="43.95015" lon="0.23254">
        <ele>97</ele>
        <time>2023-07-03T08:52:06Z</time>
      </trkpt>
      <trkpt lat="43.95014" lon="0.23262">
        <ele>95.8</ele>
        <time>2023-07-03T08:52:11Z</time>
      </trkpt>
      <trkpt lat="43.95014" lon="0.2327">
        <ele>94.8</ele>
        <time>2023-07-03T08:52:16Z</time>
      </trkpt>
      <trkpt lat="43.95015" lon="0.23274">
        <ele>94.2</ele>
        <time>2023-07-03T08:52:18Z</time>
      </trkpt>
      <trkpt lat="43.95014" lon="0.23279">
        <ele>93.8</ele>
        <time>2023-07-03T08:52:21Z</time>
      </trkpt>
      <trkpt lat="43.95013" lon="0.23281">
        <ele>93.6</ele>
        <time>2023-07-03T08:52:22Z</time>
      </trkpt>
      <trkpt lat="43.95014" lon="0.23288">
        <ele>93.2</ele>
        <time>2023-07-03T08:52:25Z</time>
      </trkpt>
      <trkpt lat="43.95013" lon="0.2329">
        <ele>93.2</ele>
        <time>2023-07-03T08:52:26Z</time>
      </trkpt>
      <trkpt lat="43.95013" lon="0.23294">
        <ele>92.8</ele>
        <time>2023-07-03T08:52:28Z</time>
      </trkpt>
      <trkpt lat="43.95012" lon="0.23298">
        <ele>92.6</ele>
        <time>2023-07-03T08:52:30Z</time>
      </trkpt>
      <trkpt lat="43.95012" lon="0.23302">
        <ele>92.2</ele>
        <time>2023-07-03T08:52:32Z</time>
      </trkpt>
      <trkpt lat="43.95011" lon="0.23304">
        <ele>92.2</ele>
        <time>2023-07-03T08:52:33Z</time>
      </trkpt>
      <trkpt lat="43.9501" lon="0.23308">
        <ele>91.4</ele>
        <time>2023-07-03T08:52:35Z</time>
      </trkpt>
      <trkpt lat="43.9501" lon="0.23309">
        <ele>91.4</ele>
        <time>2023-07-03T08:52:36Z</time>
      </trkpt>
      <trkpt lat="43.9501" lon="0.23315">
        <ele>91</ele>
        <time>2023-07-03T08:52:39Z</time>
      </trkpt>
      <trkpt lat="43.9501" lon="0.23317">
        <ele>90.8</ele>
        <time>2023-07-03T08:52:40Z</time>
      </trkpt>
      <trkpt lat="43.95011" lon="0.2332">
        <ele>90.2</ele>
        <time>2023-07-03T08:52:42Z</time>
      </trkpt>
      <trkpt lat="43.9501" lon="0.23328">
        <ele>89.8</ele>
        <time>2023-07-03T08:52:45Z</time>
      </trkpt>
      <trkpt lat="43.95011" lon="0.23339">
        <ele>89.2</ele>
        <time>2023-07-03T08:52:50Z</time>
      </trkpt>
      <trkpt lat="43.95011" lon="0.23345">
        <ele>89</ele>
        <time>2023-07-03T08:52:53Z</time>
      </trkpt>
      <trkpt lat="43.95011" lon="0.23347">
        <ele>89</ele>
        <time>2023-07-03T08:52:54Z</time>
      </trkpt>
      <trkpt lat="43.95012" lon="0.23353">
        <ele>88.6</ele>
        <time>2023-07-03T08:52:57Z</time>
      </trkpt>
      <trkpt lat="43.95012" lon="0.23359">
        <ele>88.2</ele>
        <time>2023-07-03T08:53:00Z</time>
      </trkpt>
      <trkpt lat="43.95011" lon="0.23361">
        <ele>88.2</ele>
        <time>2023-07-03T08:53:01Z</time>
      </trkpt>
      <trkpt lat="43.95011" lon="0.23365">
        <ele>88.2</ele>
        <time>2023-07-03T08:53:03Z</time>
      </trkpt>
      <trkpt lat="43.9501" lon="0.23375">
        <ele>87.4</ele>
        <time>2023-07-03T08:53:08Z</time>
      </trkpt>
      <trkpt lat="43.9501" lon="0.23376">
        <ele>87.2</ele>
        <time>2023-07-03T08:53:09Z</time>
      </trkpt>
      <trkpt lat="43.95009" lon="0.23378">
        <ele>87.2</ele>
        <time>2023-07-03T08:53:10Z</time>
      </trkpt>
      <trkpt lat="43.9501" lon="0.23391">
        <ele>87</ele>
        <time>2023-07-03T08:53:16Z</time>
      </trkpt>
      <trkpt lat="43.95011" lon="0.23397">
        <ele>86.8</ele>
        <time>2023-07-03T08:53:19Z</time>
      </trkpt>
      <trkpt lat="43.95012" lon="0.23402">
        <ele>86.6</ele>
        <time>2023-07-03T08:53:22Z</time>
      </trkpt>
      <trkpt lat="43.95013" lon="0.23406">
        <ele>86.4</ele>
        <time>2023-07-03T08:53:24Z</time>
      </trkpt>
      <trkpt lat="43.95013" lon="0.23418">
        <ele>86</ele>
        <time>2023-07-03T08:53:30Z</time>
      </trkpt>
      <trkpt lat="43.95013" lon="0.2342">
        <ele>86</ele>
        <time>2023-07-03T08:53:31Z</time>
      </trkpt>
      <trkpt lat="43.9501" lon="0.23432">
        <ele>85.4</ele>
        <time>2023-07-03T08:53:38Z</time>
      </trkpt>
      <trkpt lat="43.95009" lon="0.23444">
        <ele>85.4</ele>
        <time>2023-07-03T08:53:46Z</time>
      </trkpt>
      <trkpt lat="43.95008" lon="0.23457">
        <ele>85.2</ele>
        <time>2023-07-03T08:53:53Z</time>
      </trkpt>
      <trkpt lat="43.95008" lon="0.23461">
        <ele>85.4</ele>
        <time>2023-07-03T08:53:55Z</time>
      </trkpt>
      <trkpt lat="43.95008" lon="0.23469">
        <ele>85.4</ele>
        <time>2023-07-03T08:53:59Z</time>
      </trkpt>
      <trkpt lat="43.95008" lon="0.23471">
        <ele>85.4</ele>
        <time>2023-07-03T08:54:00Z</time>
      </trkpt>
      <trkpt lat="43.95008" lon="0.23472">
        <ele>85.4</ele>
        <time>2023-07-03T08:54:01Z</time>
      </trkpt>
      <trkpt lat="43.95007" lon="0.23473">
        <ele>85.2</ele>
        <time>2023-07-03T08:54:02Z</time>
      </trkpt>
      <trkpt lat="43.95007" lon="0.23475">
        <ele>85.2</ele>
        <time>2023-07-03T08:54:03Z</time>
      </trkpt>
      <trkpt lat="43.95007" lon="0.23477">
        <ele>85.2</ele>
        <time>2023-07-03T08:54:04Z</time>
      </trkpt>
      <trkpt lat="43.95007" lon="0.23479">
        <ele>85.4</ele>
        <time>2023-07-03T08:54:05Z</time>
      </trkpt>
      <trkpt lat="43.95007" lon="0.23482">
        <ele>85.4</ele>
        <time>2023-07-03T08:54:06Z</time>
      </trkpt>
      <trkpt lat="43.95007" lon="0.23484">
        <ele>85.2</ele>
        <time>2023-07-03T08:54:07Z</time>
      </trkpt>
      <trkpt lat="43.95006" lon="0.23489">
        <ele>85.2</ele>
        <time>2023-07-03T08:54:09Z</time>
      </trkpt>
      <trkpt lat="43.95006" lon="0.23491">
        <ele>85.2</ele>
        <time>2023-07-03T08:54:10Z</time>
      </trkpt>
      <trkpt lat="43.95006" lon="0.23493">
        <ele>85</ele>
        <time>2023-07-03T08:54:11Z</time>
      </trkpt>
      <trkpt lat="43.95005" lon="0.23494">
        <ele>85</ele>
        <time>2023-07-03T08:54:12Z</time>
      </trkpt>
      <trkpt lat="43.95005" lon="0.23497">
        <ele>85.2</ele>
        <time>2023-07-03T08:54:14Z</time>
      </trkpt>
      <trkpt lat="43.95003" lon="0.23501">
        <ele>85.4</ele>
        <time>2023-07-03T08:54:17Z</time>
      </trkpt>
      <trkpt lat="43.95003" lon="0.23506">
        <ele>85.6</ele>
        <time>2023-07-03T08:54:20Z</time>
      </trkpt>
      <trkpt lat="43.94999" lon="0.23516">
        <ele>85.8</ele>
        <time>2023-07-03T08:54:26Z</time>
      </trkpt>
      <trkpt lat="43.94998" lon="0.23518">
        <ele>85.8</ele>
        <time>2023-07-03T08:54:27Z</time>
      </trkpt>
      <trkpt lat="43.94998" lon="0.23521">
        <ele>86</ele>
        <time>2023-07-03T08:54:29Z</time>
      </trkpt>
      <trkpt lat="43.94998" lon="0.23528">
        <ele>85.8</ele>
        <time>2023-07-03T08:54:33Z</time>
      </trkpt>
      <trkpt lat="43.94998" lon="0.23535">
        <ele>86</ele>
        <time>2023-07-03T08:54:38Z</time>
      </trkpt>
      <trkpt lat="43.94997" lon="0.23538">
        <ele>86</ele>
        <time>2023-07-03T08:54:40Z</time>
      </trkpt>
      <trkpt lat="43.94996" lon="0.23545">
        <ele>86.2</ele>
        <time>2023-07-03T08:54:44Z</time>
      </trkpt>
      <trkpt lat="43.94996" lon="0.23548">
        <ele>86.2</ele>
        <time>2023-07-03T08:54:46Z</time>
      </trkpt>
      <trkpt lat="43.94996" lon="0.23552">
        <ele>86.4</ele>
        <time>2023-07-03T08:54:48Z</time>
      </trkpt>
      <trkpt lat="43.94995" lon="0.23558">
        <ele>86.6</ele>
        <time>2023-07-03T08:54:52Z</time>
      </trkpt>
      <trkpt lat="43.94995" lon="0.23561">
        <ele>86.6</ele>
        <time>2023-07-03T08:54:54Z</time>
      </trkpt>
      <trkpt lat="43.94995" lon="0.23566">
        <ele>87.2</ele>
        <time>2023-07-03T08:54:58Z</time>
      </trkpt>
      <trkpt lat="43.94993" lon="0.23573">
        <ele>87.2</ele>
        <time>2023-07-03T08:55:02Z</time>
      </trkpt>
      <trkpt lat="43.94993" lon="0.23575">
        <ele>87.2</ele>
        <time>2023-07-03T08:55:03Z</time>
      </trkpt>
      <trkpt lat="43.94992" lon="0.23581">
        <ele>87.4</ele>
        <time>2023-07-03T08:55:07Z</time>
      </trkpt>
      <trkpt lat="43.94991" lon="0.23585">
        <ele>87.8</ele>
        <time>2023-07-03T08:55:10Z</time>
      </trkpt>
      <trkpt lat="43.94991" lon="0.23587">
        <ele>87.8</ele>
        <time>2023-07-03T08:55:11Z</time>
      </trkpt>
      <trkpt lat="43.94991" lon="0.23588">
        <ele>88</ele>
        <time>2023-07-03T08:55:12Z</time>
      </trkpt>
      <trkpt lat="43.94991" lon="0.23594">
        <ele>88.4</ele>
        <time>2023-07-03T08:55:16Z</time>
      </trkpt>
      <trkpt lat="43.94991" lon="0.23597">
        <ele>88.4</ele>
        <time>2023-07-03T08:55:18Z</time>
      </trkpt>
      <trkpt lat="43.94991" lon="0.23603">
        <ele>89</ele>
        <time>2023-07-03T08:55:21Z</time>
      </trkpt>
      <trkpt lat="43.94991" lon="0.23607">
        <ele>89.4</ele>
        <time>2023-07-03T08:55:24Z</time>
      </trkpt>
      <trkpt lat="43.9499" lon="0.23609">
        <ele>89.6</ele>
        <time>2023-07-03T08:55:25Z</time>
      </trkpt>
      <trkpt lat="43.9499" lon="0.23612">
        <ele>89.6</ele>
        <time>2023-07-03T08:55:26Z</time>
      </trkpt>
      <trkpt lat="43.94989" lon="0.23623">
        <ele>90.2</ele>
        <time>2023-07-03T08:55:34Z</time>
      </trkpt>
      <trkpt lat="43.94989" lon="0.23624">
        <ele>90.4</ele>
        <time>2023-07-03T08:55:35Z</time>
      </trkpt>
      <trkpt lat="43.94989" lon="0.23625">
        <ele>90.4</ele>
        <time>2023-07-03T08:55:36Z</time>
      </trkpt>
      <trkpt lat="43.9499" lon="0.23632">
        <ele>91.2</ele>
        <time>2023-07-03T08:55:41Z</time>
      </trkpt>
      <trkpt lat="43.94989" lon="0.23636">
        <ele>91.6</ele>
        <time>2023-07-03T08:55:45Z</time>
      </trkpt>
      <trkpt lat="43.94989" lon="0.23641">
        <ele>92.2</ele>
        <time>2023-07-03T08:55:48Z</time>
      </trkpt>
      <trkpt lat="43.94988" lon="0.23645">
        <ele>92.6</ele>
        <time>2023-07-03T08:55:51Z</time>
      </trkpt>
      <trkpt lat="43.94989" lon="0.23653">
        <ele>93.6</ele>
        <time>2023-07-03T08:55:57Z</time>
      </trkpt>
      <trkpt lat="43.94989" lon="0.23654">
        <ele>93.8</ele>
        <time>2023-07-03T08:55:58Z</time>
      </trkpt>
      <trkpt lat="43.94988" lon="0.23658">
        <ele>94</ele>
        <time>2023-07-03T08:56:00Z</time>
      </trkpt>
      <trkpt lat="43.94989" lon="0.23659">
        <ele>94</ele>
        <time>2023-07-03T08:56:01Z</time>
      </trkpt>
      <trkpt lat="43.94989" lon="0.23664">
        <ele>94.4</ele>
        <time>2023-07-03T08:56:04Z</time>
      </trkpt>
      <trkpt lat="43.94989" lon="0.23668">
        <ele>94.4</ele>
        <time>2023-07-03T08:56:07Z</time>
      </trkpt>
      <trkpt lat="43.94989" lon="0.23673">
        <ele>94.8</ele>
        <time>2023-07-03T08:56:10Z</time>
      </trkpt>
      <trkpt lat="43.9499" lon="0.23676">
        <ele>95.2</ele>
        <time>2023-07-03T08:56:12Z</time>
      </trkpt>
      <trkpt lat="43.94991" lon="0.23678">
        <ele>95.4</ele>
        <time>2023-07-03T08:56:14Z</time>
      </trkpt>
      <trkpt lat="43.9499" lon="0.23684">
        <ele>95.6</ele>
        <time>2023-07-03T08:56:17Z</time>
      </trkpt>
      <trkpt lat="43.94989" lon="0.23688">
        <ele>95.6</ele>
        <time>2023-07-03T08:56:19Z</time>
      </trkpt>
      <trkpt lat="43.94989" lon="0.2369">
        <ele>95.8</ele>
        <time>2023-07-03T08:56:20Z</time>
      </trkpt>
      <trkpt lat="43.94989" lon="0.23692">
        <ele>96</ele>
        <time>2023-07-03T08:56:21Z</time>
      </trkpt>
      <trkpt lat="43.9499" lon="0.23702">
        <ele>96.4</ele>
        <time>2023-07-03T08:56:27Z</time>
      </trkpt>
      <trkpt lat="43.94992" lon="0.23709">
        <ele>97</ele>
        <time>2023-07-03T08:56:31Z</time>
      </trkpt>
      <trkpt lat="43.94993" lon="0.23717">
        <ele>97.4</ele>
        <time>2023-07-03T08:56:36Z</time>
      </trkpt>
      <trkpt lat="43.94994" lon="0.2373">
        <ele>98</ele>
        <time>2023-07-03T08:56:44Z</time>
      </trkpt>
      <trkpt lat="43.94995" lon="0.23734">
        <ele>98.4</ele>
        <time>2023-07-03T08:56:47Z</time>
      </trkpt>
      <trkpt lat="43.94996" lon="0.23739">
        <ele>98.6</ele>
        <time>2023-07-03T08:56:50Z</time>
      </trkpt>
      <trkpt lat="43.94997" lon="0.23745">
        <ele>99</ele>
        <time>2023-07-03T08:56:53Z</time>
      </trkpt>
      <trkpt lat="43.94997" lon="0.2375">
        <ele>99.4</ele>
        <time>2023-07-03T08:56:55Z</time>
      </trkpt>
      <trkpt lat="43.94997" lon="0.23758">
        <ele>100</ele>
        <time>2023-07-03T08:57:00Z</time>
      </trkpt>
      <trkpt lat="43.94997" lon="0.23769">
        <ele>100.8</ele>
        <time>2023-07-03T08:57:07Z</time>
      </trkpt>
      <trkpt lat="43.94997" lon="0.2377">
        <ele>101.2</ele>
        <time>2023-07-03T08:57:08Z</time>
      </trkpt>
      <trkpt lat="43.94997" lon="0.23772">
        <ele>101.4</ele>
        <time>2023-07-03T08:57:09Z</time>
      </trkpt>
      <trkpt lat="43.94998" lon="0.23777">
        <ele>101.6</ele>
        <time>2023-07-03T08:57:12Z</time>
      </trkpt>
      <trkpt lat="43.94998" lon="0.23779">
        <ele>101.8</ele>
        <time>2023-07-03T08:57:13Z</time>
      </trkpt>
      <trkpt lat="43.94998" lon="0.23785">
        <ele>102.4</ele>
        <time>2023-07-03T08:57:17Z</time>
      </trkpt>
      <trkpt lat="43.94997" lon="0.23789">
        <ele>102.8</ele>
        <time>2023-07-03T08:57:19Z</time>
      </trkpt>
      <trkpt lat="43.94998" lon="0.2379">
        <ele>103</ele>
        <time>2023-07-03T08:57:20Z</time>
      </trkpt>
      <trkpt lat="43.94999" lon="0.23795">
        <ele>103.6</ele>
        <time>2023-07-03T08:57:24Z</time>
      </trkpt>
      <trkpt lat="43.94999" lon="0.23796">
        <ele>103.8</ele>
        <time>2023-07-03T08:57:25Z</time>
      </trkpt>
      <trkpt lat="43.94999" lon="0.23802">
        <ele>104.6</ele>
        <time>2023-07-03T08:57:30Z</time>
      </trkpt>
      <trkpt lat="43.94998" lon="0.23808">
        <ele>105</ele>
        <time>2023-07-03T08:57:33Z</time>
      </trkpt>
      <trkpt lat="43.94999" lon="0.23814">
        <ele>105.4</ele>
        <time>2023-07-03T08:57:37Z</time>
      </trkpt>
      <trkpt lat="43.94999" lon="0.23818">
        <ele>105.4</ele>
        <time>2023-07-03T08:57:39Z</time>
      </trkpt>
      <trkpt lat="43.94999" lon="0.2382">
        <ele>105.6</ele>
        <time>2023-07-03T08:57:41Z</time>
      </trkpt>
      <trkpt lat="43.94998" lon="0.2383">
        <ele>106.4</ele>
        <time>2023-07-03T08:57:47Z</time>
      </trkpt>
      <trkpt lat="43.94997" lon="0.23833">
        <ele>106.8</ele>
        <time>2023-07-03T08:57:49Z</time>
      </trkpt>
      <trkpt lat="43.94996" lon="0.23837">
        <ele>107.2</ele>
        <time>2023-07-03T08:57:52Z</time>
      </trkpt>
      <trkpt lat="43.94996" lon="0.23839">
        <ele>107.4</ele>
        <time>2023-07-03T08:57:53Z</time>
      </trkpt>
      <trkpt lat="43.94995" lon="0.23848">
        <ele>107.6</ele>
        <time>2023-07-03T08:57:58Z</time>
      </trkpt>
      <trkpt lat="43.94995" lon="0.23853">
        <ele>107.6</ele>
        <time>2023-07-03T08:58:01Z</time>
      </trkpt>
      <trkpt lat="43.94995" lon="0.23855">
        <ele>107.8</ele>
        <time>2023-07-03T08:58:02Z</time>
      </trkpt>
      <trkpt lat="43.94994" lon="0.2386">
        <ele>108.2</ele>
        <time>2023-07-03T08:58:05Z</time>
      </trkpt>
      <trkpt lat="43.94994" lon="0.23866">
        <ele>108.2</ele>
        <time>2023-07-03T08:58:08Z</time>
      </trkpt>
      <trkpt lat="43.94994" lon="0.23871">
        <ele>108.6</ele>
        <time>2023-07-03T08:58:11Z</time>
      </trkpt>
      <trkpt lat="43.94994" lon="0.23876">
        <ele>108.8</ele>
        <time>2023-07-03T08:58:14Z</time>
      </trkpt>
      <trkpt lat="43.94995" lon="0.23878">
        <ele>109</ele>
        <time>2023-07-03T08:58:15Z</time>
      </trkpt>
      <trkpt lat="43.94995" lon="0.23888">
        <ele>109.8</ele>
        <time>2023-07-03T08:58:21Z</time>
      </trkpt>
      <trkpt lat="43.94995" lon="0.2389">
        <ele>110</ele>
        <time>2023-07-03T08:58:22Z</time>
      </trkpt>
      <trkpt lat="43.94994" lon="0.23897">
        <ele>110.2</ele>
        <time>2023-07-03T08:58:26Z</time>
      </trkpt>
      <trkpt lat="43.94994" lon="0.23901">
        <ele>110.4</ele>
        <time>2023-07-03T08:58:29Z</time>
      </trkpt>
      <trkpt lat="43.94994" lon="0.23909">
        <ele>111</ele>
        <time>2023-07-03T08:58:34Z</time>
      </trkpt>
      <trkpt lat="43.94995" lon="0.23912">
        <ele>111</ele>
        <time>2023-07-03T08:58:36Z</time>
      </trkpt>
      <trkpt lat="43.94996" lon="0.23919">
        <ele>111.4</ele>
        <time>2023-07-03T08:58:39Z</time>
      </trkpt>
      <trkpt lat="43.94996" lon="0.23921">
        <ele>111.6</ele>
        <time>2023-07-03T08:58:40Z</time>
      </trkpt>
      <trkpt lat="43.94996" lon="0.23923">
        <ele>111.8</ele>
        <time>2023-07-03T08:58:41Z</time>
      </trkpt>
      <trkpt lat="43.94996" lon="0.23925">
        <ele>112</ele>
        <time>2023-07-03T08:58:42Z</time>
      </trkpt>
      <trkpt lat="43.94996" lon="0.23926">
        <ele>112</ele>
        <time>2023-07-03T08:58:43Z</time>
      </trkpt>
      <trkpt lat="43.94996" lon="0.2393">
        <ele>112</ele>
        <time>2023-07-03T08:58:45Z</time>
      </trkpt>
      <trkpt lat="43.94995" lon="0.23934">
        <ele>112.2</ele>
        <time>2023-07-03T08:58:47Z</time>
      </trkpt>
      <trkpt lat="43.94995" lon="0.23935">
        <ele>112.2</ele>
        <time>2023-07-03T08:58:48Z</time>
      </trkpt>
      <trkpt lat="43.94995" lon="0.23939">
        <ele>112.2</ele>
        <time>2023-07-03T08:58:50Z</time>
      </trkpt>
      <trkpt lat="43.94996" lon="0.23946">
        <ele>112.6</ele>
        <time>2023-07-03T08:58:54Z</time>
      </trkpt>
      <trkpt lat="43.94996" lon="0.23948">
        <ele>112.6</ele>
        <time>2023-07-03T08:58:55Z</time>
      </trkpt>
      <trkpt lat="43.94995" lon="0.23956">
        <ele>113</ele>
        <time>2023-07-03T08:58:59Z</time>
      </trkpt>
      <trkpt lat="43.94995" lon="0.23958">
        <ele>113.2</ele>
        <time>2023-07-03T08:59:00Z</time>
      </trkpt>
      <trkpt lat="43.94997" lon="0.23965">
        <ele>113.6</ele>
        <time>2023-07-03T08:59:05Z</time>
      </trkpt>
      <trkpt lat="43.94996" lon="0.23966">
        <ele>113.8</ele>
        <time>2023-07-03T08:59:06Z</time>
      </trkpt>
      <trkpt lat="43.94996" lon="0.23976">
        <ele>114.2</ele>
        <time>2023-07-03T08:59:11Z</time>
      </trkpt>
      <trkpt lat="43.94996" lon="0.23978">
        <ele>114.4</ele>
        <time>2023-07-03T08:59:12Z</time>
      </trkpt>
      <trkpt lat="43.94998" lon="0.23987">
        <ele>115</ele>
        <time>2023-07-03T08:59:18Z</time>
      </trkpt>
      <trkpt lat="43.95001" lon="0.23994">
        <ele>115.4</ele>
        <time>2023-07-03T08:59:23Z</time>
      </trkpt>
      <trkpt lat="43.95002" lon="0.23997">
        <ele>115.8</ele>
        <time>2023-07-03T08:59:25Z</time>
      </trkpt>
      <trkpt lat="43.95002" lon="0.23999">
        <ele>115.8</ele>
        <time>2023-07-03T08:59:26Z</time>
      </trkpt>
      <trkpt lat="43.95003" lon="0.24005">
        <ele>116.6</ele>
        <time>2023-07-03T08:59:31Z</time>
      </trkpt>
      <trkpt lat="43.95005" lon="0.24009">
        <ele>117</ele>
        <time>2023-07-03T08:59:35Z</time>
      </trkpt>
      <trkpt lat="43.95006" lon="0.24011">
        <ele>117.2</ele>
        <time>2023-07-03T08:59:36Z</time>
      </trkpt>
      <trkpt lat="43.95007" lon="0.24012">
        <ele>117.4</ele>
        <time>2023-07-03T08:59:37Z</time>
      </trkpt>
      <trkpt lat="43.95007" lon="0.24014">
        <ele>117.6</ele>
        <time>2023-07-03T08:59:39Z</time>
      </trkpt>
      <trkpt lat="43.95008" lon="0.24016">
        <ele>117.6</ele>
        <time>2023-07-03T08:59:40Z</time>
      </trkpt>
      <trkpt lat="43.95008" lon="0.24019">
        <ele>117.6</ele>
        <time>2023-07-03T08:59:42Z</time>
      </trkpt>
      <trkpt lat="43.95011" lon="0.24026">
        <ele>118.6</ele>
        <time>2023-07-03T08:59:47Z</time>
      </trkpt>
      <trkpt lat="43.95017" lon="0.24037">
        <ele>119.2</ele>
        <time>2023-07-03T08:59:54Z</time>
      </trkpt>
      <trkpt lat="43.95019" lon="0.24043">
        <ele>119.6</ele>
        <time>2023-07-03T08:59:59Z</time>
      </trkpt>
      <trkpt lat="43.9502" lon="0.24049">
        <ele>120.4</ele>
        <time>2023-07-03T09:00:02Z</time>
      </trkpt>
      <trkpt lat="43.95021" lon="0.24057">
        <ele>120.8</ele>
        <time>2023-07-03T09:00:07Z</time>
      </trkpt>
      <trkpt lat="43.95022" lon="0.2406">
        <ele>121</ele>
        <time>2023-07-03T09:00:09Z</time>
      </trkpt>
      <trkpt lat="43.95022" lon="0.24063">
        <ele>121.2</ele>
        <time>2023-07-03T09:00:11Z</time>
      </trkpt>
      <trkpt lat="43.95024" lon="0.24069">
        <ele>121.6</ele>
        <time>2023-07-03T09:00:15Z</time>
      </trkpt>
      <trkpt lat="43.95025" lon="0.24071">
        <ele>121.8</ele>
        <time>2023-07-03T09:00:16Z</time>
      </trkpt>
      <trkpt lat="43.95025" lon="0.24073">
        <ele>121.8</ele>
        <time>2023-07-03T09:00:17Z</time>
      </trkpt>
      <trkpt lat="43.95026" lon="0.24076">
        <ele>121.8</ele>
        <time>2023-07-03T09:00:19Z</time>
      </trkpt>
      <trkpt lat="43.95026" lon="0.24078">
        <ele>121.8</ele>
        <time>2023-07-03T09:00:20Z</time>
      </trkpt>
      <trkpt lat="43.95028" lon="0.24085">
        <ele>122.6</ele>
        <time>2023-07-03T09:00:24Z</time>
      </trkpt>
      <trkpt lat="43.95028" lon="0.24089">
        <ele>122.8</ele>
        <time>2023-07-03T09:00:26Z</time>
      </trkpt>
      <trkpt lat="43.95029" lon="0.2409">
        <ele>123</ele>
        <time>2023-07-03T09:00:27Z</time>
      </trkpt>
      <trkpt lat="43.95033" lon="0.241">
        <ele>123.4</ele>
        <time>2023-07-03T09:00:33Z</time>
      </trkpt>
      <trkpt lat="43.95034" lon="0.24105">
        <ele>123.8</ele>
        <time>2023-07-03T09:00:36Z</time>
      </trkpt>
      <trkpt lat="43.95034" lon="0.24108">
        <ele>124</ele>
        <time>2023-07-03T09:00:38Z</time>
      </trkpt>
      <trkpt lat="43.95035" lon="0.2411">
        <ele>123.8</ele>
        <time>2023-07-03T09:00:39Z</time>
      </trkpt>
      <trkpt lat="43.95036" lon="0.24111">
        <ele>124</ele>
        <time>2023-07-03T09:00:40Z</time>
      </trkpt>
      <trkpt lat="43.95038" lon="0.24122">
        <ele>124.6</ele>
        <time>2023-07-03T09:00:46Z</time>
      </trkpt>
      <trkpt lat="43.95039" lon="0.24124">
        <ele>124.6</ele>
        <time>2023-07-03T09:00:47Z</time>
      </trkpt>
      <trkpt lat="43.95039" lon="0.24133">
        <ele>124.6</ele>
        <time>2023-07-03T09:00:52Z</time>
      </trkpt>
      <trkpt lat="43.9504" lon="0.24139">
        <ele>124.6</ele>
        <time>2023-07-03T09:00:55Z</time>
      </trkpt>
      <trkpt lat="43.9504" lon="0.24143">
        <ele>124.8</ele>
        <time>2023-07-03T09:00:57Z</time>
      </trkpt>
      <trkpt lat="43.95041" lon="0.24147">
        <ele>125</ele>
        <time>2023-07-03T09:00:59Z</time>
      </trkpt>
      <trkpt lat="43.95041" lon="0.2415">
        <ele>125.2</ele>
        <time>2023-07-03T09:01:01Z</time>
      </trkpt>
      <trkpt lat="43.9504" lon="0.24155">
        <ele>125</ele>
        <time>2023-07-03T09:01:05Z</time>
      </trkpt>
      <trkpt lat="43.95041" lon="0.24159">
        <ele>125</ele>
        <time>2023-07-03T09:01:07Z</time>
      </trkpt>
      <trkpt lat="43.95042" lon="0.24164">
        <ele>125</ele>
        <time>2023-07-03T09:01:10Z</time>
      </trkpt>
      <trkpt lat="43.95042" lon="0.24168">
        <ele>125.2</ele>
        <time>2023-07-03T09:01:12Z</time>
      </trkpt>
      <trkpt lat="43.95042" lon="0.2417">
        <ele>125.2</ele>
        <time>2023-07-03T09:01:13Z</time>
      </trkpt>
      <trkpt lat="43.95042" lon="0.24184">
        <ele>125.2</ele>
        <time>2023-07-03T09:01:20Z</time>
      </trkpt>
      <trkpt lat="43.95039" lon="0.24196">
        <ele>125.4</ele>
        <time>2023-07-03T09:01:26Z</time>
      </trkpt>
      <trkpt lat="43.95039" lon="0.242">
        <ele>125.4</ele>
        <time>2023-07-03T09:01:28Z</time>
      </trkpt>
      <trkpt lat="43.95039" lon="0.24202">
        <ele>125.4</ele>
        <time>2023-07-03T09:01:29Z</time>
      </trkpt>
      <trkpt lat="43.95036" lon="0.24212">
        <ele>125</ele>
        <time>2023-07-03T09:01:34Z</time>
      </trkpt>
      <trkpt lat="43.95035" lon="0.24216">
        <ele>124.8</ele>
        <time>2023-07-03T09:01:36Z</time>
      </trkpt>
      <trkpt lat="43.95031" lon="0.24226">
        <ele>124.6</ele>
        <time>2023-07-03T09:01:42Z</time>
      </trkpt>
      <trkpt lat="43.9503" lon="0.24228">
        <ele>124.6</ele>
        <time>2023-07-03T09:01:43Z</time>
      </trkpt>
      <trkpt lat="43.95031" lon="0.2423">
        <ele>124.6</ele>
        <time>2023-07-03T09:01:44Z</time>
      </trkpt>
      <trkpt lat="43.95031" lon="0.24234">
        <ele>124.8</ele>
        <time>2023-07-03T09:01:46Z</time>
      </trkpt>
      <trkpt lat="43.95029" lon="0.2425">
        <ele>124.8</ele>
        <time>2023-07-03T09:01:54Z</time>
      </trkpt>
      <trkpt lat="43.95021" lon="0.24264">
        <ele>124.8</ele>
        <time>2023-07-03T09:02:02Z</time>
      </trkpt>
      <trkpt lat="43.9502" lon="0.24266">
        <ele>125</ele>
        <time>2023-07-03T09:02:03Z</time>
      </trkpt>
      <trkpt lat="43.95019" lon="0.24268">
        <ele>124.8</ele>
        <time>2023-07-03T09:02:04Z</time>
      </trkpt>
      <trkpt lat="43.95016" lon="0.24277">
        <ele>124.8</ele>
        <time>2023-07-03T09:02:09Z</time>
      </trkpt>
      <trkpt lat="43.95014" lon="0.24282">
        <ele>125</ele>
        <time>2023-07-03T09:02:12Z</time>
      </trkpt>
      <trkpt lat="43.95014" lon="0.24286">
        <ele>125</ele>
        <time>2023-07-03T09:02:14Z</time>
      </trkpt>
      <trkpt lat="43.95012" lon="0.24293">
        <ele>125</ele>
        <time>2023-07-03T09:02:18Z</time>
      </trkpt>
      <trkpt lat="43.9501" lon="0.243">
        <ele>125</ele>
        <time>2023-07-03T09:02:22Z</time>
      </trkpt>
      <trkpt lat="43.95006" lon="0.24315">
        <ele>125</ele>
        <time>2023-07-03T09:02:30Z</time>
      </trkpt>
      <trkpt lat="43.95006" lon="0.24317">
        <ele>125</ele>
        <time>2023-07-03T09:02:31Z</time>
      </trkpt>
      <trkpt lat="43.95005" lon="0.24319">
        <ele>125</ele>
        <time>2023-07-03T09:02:32Z</time>
      </trkpt>
      <trkpt lat="43.95003" lon="0.24331">
        <ele>125.6</ele>
        <time>2023-07-03T09:02:38Z</time>
      </trkpt>
      <trkpt lat="43.95" lon="0.24347">
        <ele>125.8</ele>
        <time>2023-07-03T09:02:47Z</time>
      </trkpt>
      <trkpt lat="43.94999" lon="0.24359">
        <ele>125.8</ele>
        <time>2023-07-03T09:02:53Z</time>
      </trkpt>
      <trkpt lat="43.94997" lon="0.24369">
        <ele>126.2</ele>
        <time>2023-07-03T09:02:58Z</time>
      </trkpt>
      <trkpt lat="43.94996" lon="0.24372">
        <ele>126.2</ele>
        <time>2023-07-03T09:03:00Z</time>
      </trkpt>
      <trkpt lat="43.94992" lon="0.24385">
        <ele>126.6</ele>
        <time>2023-07-03T09:03:08Z</time>
      </trkpt>
      <trkpt lat="43.9499" lon="0.24394">
        <ele>127.2</ele>
        <time>2023-07-03T09:03:14Z</time>
      </trkpt>
      <trkpt lat="43.94989" lon="0.24401">
        <ele>127.2</ele>
        <time>2023-07-03T09:03:18Z</time>
      </trkpt>
      <trkpt lat="43.94988" lon="0.24405">
        <ele>127.4</ele>
        <time>2023-07-03T09:03:20Z</time>
      </trkpt>
      <trkpt lat="43.94986" lon="0.24412">
        <ele>127.8</ele>
        <time>2023-07-03T09:03:24Z</time>
      </trkpt>
      <trkpt lat="43.94986" lon="0.24417">
        <ele>128.4</ele>
        <time>2023-07-03T09:03:27Z</time>
      </trkpt>
      <trkpt lat="43.94982" lon="0.24429">
        <ele>128.8</ele>
        <time>2023-07-03T09:03:34Z</time>
      </trkpt>
      <trkpt lat="43.94982" lon="0.24431">
        <ele>129</ele>
        <time>2023-07-03T09:03:35Z</time>
      </trkpt>
      <trkpt lat="43.94979" lon="0.24439">
        <ele>129.6</ele>
        <time>2023-07-03T09:03:40Z</time>
      </trkpt>
      <trkpt lat="43.94978" lon="0.24442">
        <ele>129.8</ele>
        <time>2023-07-03T09:03:42Z</time>
      </trkpt>
      <trkpt lat="43.94974" lon="0.24457">
        <ele>130</ele>
        <time>2023-07-03T09:03:52Z</time>
      </trkpt>
      <trkpt lat="43.94971" lon="0.24465">
        <ele>130.6</ele>
        <time>2023-07-03T09:03:56Z</time>
      </trkpt>
      <trkpt lat="43.94968" lon="0.24473">
        <ele>131</ele>
        <time>2023-07-03T09:04:00Z</time>
      </trkpt>
      <trkpt lat="43.94965" lon="0.24488">
        <ele>131.4</ele>
        <time>2023-07-03T09:04:08Z</time>
      </trkpt>
      <trkpt lat="43.94965" lon="0.2449">
        <ele>131.4</ele>
        <time>2023-07-03T09:04:09Z</time>
      </trkpt>
      <trkpt lat="43.94964" lon="0.24493">
        <ele>131.6</ele>
        <time>2023-07-03T09:04:11Z</time>
      </trkpt>
      <trkpt lat="43.94961" lon="0.24502">
        <ele>132.2</ele>
        <time>2023-07-03T09:04:16Z</time>
      </trkpt>
      <trkpt lat="43.94954" lon="0.24516">
        <ele>132.4</ele>
        <time>2023-07-03T09:04:25Z</time>
      </trkpt>
      <trkpt lat="43.94946" lon="0.2453">
        <ele>132.6</ele>
        <time>2023-07-03T09:04:34Z</time>
      </trkpt>
      <trkpt lat="43.94945" lon="0.24531">
        <ele>132.6</ele>
        <time>2023-07-03T09:04:35Z</time>
      </trkpt>
      <trkpt lat="43.94944" lon="0.24533">
        <ele>132.6</ele>
        <time>2023-07-03T09:04:36Z</time>
      </trkpt>
      <trkpt lat="43.94944" lon="0.24534">
        <ele>132.8</ele>
        <time>2023-07-03T09:04:37Z</time>
      </trkpt>
      <trkpt lat="43.94941" lon="0.24539">
        <ele>133.2</ele>
        <time>2023-07-03T09:04:40Z</time>
      </trkpt>
      <trkpt lat="43.9494" lon="0.2454">
        <ele>133.4</ele>
        <time>2023-07-03T09:04:41Z</time>
      </trkpt>
      <trkpt lat="43.94939" lon="0.24543">
        <ele>133.4</ele>
        <time>2023-07-03T09:04:43Z</time>
      </trkpt>
      <trkpt lat="43.94937" lon="0.24546">
        <ele>133.4</ele>
        <time>2023-07-03T09:04:45Z</time>
      </trkpt>
      <trkpt lat="43.94932" lon="0.24554">
        <ele>133.4</ele>
        <time>2023-07-03T09:04:50Z</time>
      </trkpt>
      <trkpt lat="43.94926" lon="0.24566">
        <ele>133.8</ele>
        <time>2023-07-03T09:04:57Z</time>
      </trkpt>
      <trkpt lat="43.94924" lon="0.24568">
        <ele>133.8</ele>
        <time>2023-07-03T09:04:59Z</time>
      </trkpt>
      <trkpt lat="43.9492" lon="0.24578">
        <ele>134.2</ele>
        <time>2023-07-03T09:05:05Z</time>
      </trkpt>
      <trkpt lat="43.94917" lon="0.24584">
        <ele>134.4</ele>
        <time>2023-07-03T09:05:09Z</time>
      </trkpt>
      <trkpt lat="43.94915" lon="0.24587">
        <ele>134.8</ele>
        <time>2023-07-03T09:05:11Z</time>
      </trkpt>
      <trkpt lat="43.9491" lon="0.24597">
        <ele>135.2</ele>
        <time>2023-07-03T09:05:18Z</time>
      </trkpt>
      <trkpt lat="43.94908" lon="0.246">
        <ele>135.6</ele>
        <time>2023-07-03T09:05:21Z</time>
      </trkpt>
      <trkpt lat="43.94906" lon="0.24603">
        <ele>135.8</ele>
        <time>2023-07-03T09:05:23Z</time>
      </trkpt>
      <trkpt lat="43.94904" lon="0.24607">
        <ele>136</ele>
        <time>2023-07-03T09:05:26Z</time>
      </trkpt>
      <trkpt lat="43.94903" lon="0.24608">
        <ele>136.2</ele>
        <time>2023-07-03T09:05:27Z</time>
      </trkpt>
      <trkpt lat="43.94899" lon="0.24614">
        <ele>136.4</ele>
        <time>2023-07-03T09:05:31Z</time>
      </trkpt>
      <trkpt lat="43.94897" lon="0.24617">
        <ele>136.4</ele>
        <time>2023-07-03T09:05:34Z</time>
      </trkpt>
      <trkpt lat="43.9489" lon="0.24629">
        <ele>136.8</ele>
        <time>2023-07-03T09:05:43Z</time>
      </trkpt>
      <trkpt lat="43.9488" lon="0.24644">
        <ele>136.2</ele>
        <time>2023-07-03T09:05:53Z</time>
      </trkpt>
      <trkpt lat="43.94874" lon="0.24652">
        <ele>136</ele>
        <time>2023-07-03T09:05:58Z</time>
      </trkpt>
      <trkpt lat="43.94872" lon="0.24657">
        <ele>136</ele>
        <time>2023-07-03T09:06:01Z</time>
      </trkpt>
      <trkpt lat="43.94864" lon="0.24672">
        <ele>136</ele>
        <time>2023-07-03T09:06:10Z</time>
      </trkpt>
      <trkpt lat="43.94857" lon="0.24684">
        <ele>135.8</ele>
        <time>2023-07-03T09:06:17Z</time>
      </trkpt>
      <trkpt lat="43.94851" lon="0.24694">
        <ele>135.8</ele>
        <time>2023-07-03T09:06:23Z</time>
      </trkpt>
      <trkpt lat="43.9485" lon="0.24695">
        <ele>135.8</ele>
        <time>2023-07-03T09:06:24Z</time>
      </trkpt>
      <trkpt lat="43.94843" lon="0.24706">
        <ele>136</ele>
        <time>2023-07-03T09:06:31Z</time>
      </trkpt>
      <trkpt lat="43.94841" lon="0.24709">
        <ele>136</ele>
        <time>2023-07-03T09:06:33Z</time>
      </trkpt>
      <trkpt lat="43.9484" lon="0.24711">
        <ele>136</ele>
        <time>2023-07-03T09:06:34Z</time>
      </trkpt>
      <trkpt lat="43.94836" lon="0.24718">
        <ele>136</ele>
        <time>2023-07-03T09:06:39Z</time>
      </trkpt>
      <trkpt lat="43.94833" lon="0.24722">
        <ele>136</ele>
        <time>2023-07-03T09:06:42Z</time>
      </trkpt>
      <trkpt lat="43.94831" lon="0.24724">
        <ele>136</ele>
        <time>2023-07-03T09:06:43Z</time>
      </trkpt>
      <trkpt lat="43.9483" lon="0.24726">
        <ele>136</ele>
        <time>2023-07-03T09:06:45Z</time>
      </trkpt>
      <trkpt lat="43.94824" lon="0.24731">
        <ele>136.2</ele>
        <time>2023-07-03T09:06:50Z</time>
      </trkpt>
      <trkpt lat="43.94819" lon="0.24735">
        <ele>136.2</ele>
        <time>2023-07-03T09:06:54Z</time>
      </trkpt>
      <trkpt lat="43.94817" lon="0.24738">
        <ele>136.2</ele>
        <time>2023-07-03T09:06:56Z</time>
      </trkpt>
      <trkpt lat="43.94812" lon="0.24745">
        <ele>136.4</ele>
        <time>2023-07-03T09:07:02Z</time>
      </trkpt>
      <trkpt lat="43.94808" lon="0.24748">
        <ele>136.4</ele>
        <time>2023-07-03T09:07:06Z</time>
      </trkpt>
      <trkpt lat="43.94805" lon="0.2475">
        <ele>136.6</ele>
        <time>2023-07-03T09:07:08Z</time>
      </trkpt>
      <trkpt lat="43.94796" lon="0.24759">
        <ele>136.6</ele>
        <time>2023-07-03T09:07:16Z</time>
      </trkpt>
      <trkpt lat="43.9479" lon="0.24766">
        <ele>136.8</ele>
        <time>2023-07-03T09:07:21Z</time>
      </trkpt>
      <trkpt lat="43.94789" lon="0.24767">
        <ele>136.8</ele>
        <time>2023-07-03T09:07:22Z</time>
      </trkpt>
      <trkpt lat="43.94785" lon="0.24772">
        <ele>137</ele>
        <time>2023-07-03T09:07:26Z</time>
      </trkpt>
      <trkpt lat="43.94777" lon="0.24781">
        <ele>137.6</ele>
        <time>2023-07-03T09:07:33Z</time>
      </trkpt>
      <trkpt lat="43.94769" lon="0.24789">
        <ele>137.6</ele>
        <time>2023-07-03T09:07:39Z</time>
      </trkpt>
      <trkpt lat="43.94767" lon="0.24791">
        <ele>137.6</ele>
        <time>2023-07-03T09:07:41Z</time>
      </trkpt>
      <trkpt lat="43.94764" lon="0.24793">
        <ele>137.8</ele>
        <time>2023-07-03T09:07:44Z</time>
      </trkpt>
      <trkpt lat="43.94759" lon="0.24798">
        <ele>137.8</ele>
        <time>2023-07-03T09:07:48Z</time>
      </trkpt>
      <trkpt lat="43.94755" lon="0.24801">
        <ele>137.8</ele>
        <time>2023-07-03T09:07:51Z</time>
      </trkpt>
      <trkpt lat="43.94749" lon="0.24806">
        <ele>137.8</ele>
        <time>2023-07-03T09:07:56Z</time>
      </trkpt>
      <trkpt lat="43.94742" lon="0.24814">
        <ele>138</ele>
        <time>2023-07-03T09:08:03Z</time>
      </trkpt>
      <trkpt lat="43.94737" lon="0.24823">
        <ele>137.6</ele>
        <time>2023-07-03T09:08:09Z</time>
      </trkpt>
      <trkpt lat="43.94736" lon="0.24825">
        <ele>137.6</ele>
        <time>2023-07-03T09:08:10Z</time>
      </trkpt>
      <trkpt lat="43.94735" lon="0.24826">
        <ele>137.6</ele>
        <time>2023-07-03T09:08:11Z</time>
      </trkpt>
      <trkpt lat="43.94733" lon="0.24827">
        <ele>137.8</ele>
        <time>2023-07-03T09:08:13Z</time>
      </trkpt>
      <trkpt lat="43.94731" lon="0.24833">
        <ele>138</ele>
        <time>2023-07-03T09:08:17Z</time>
      </trkpt>
      <trkpt lat="43.94725" lon="0.24844">
        <ele>137.8</ele>
        <time>2023-07-03T09:08:24Z</time>
      </trkpt>
      <trkpt lat="43.94724" lon="0.24847">
        <ele>138</ele>
        <time>2023-07-03T09:08:25Z</time>
      </trkpt>
      <trkpt lat="43.94723" lon="0.24849">
        <ele>138</ele>
        <time>2023-07-03T09:08:26Z</time>
      </trkpt>
      <trkpt lat="43.94722" lon="0.24851">
        <ele>138</ele>
        <time>2023-07-03T09:08:27Z</time>
      </trkpt>
      <trkpt lat="43.94718" lon="0.24859">
        <ele>138.2</ele>
        <time>2023-07-03T09:08:31Z</time>
      </trkpt>
      <trkpt lat="43.94713" lon="0.2487">
        <ele>138.2</ele>
        <time>2023-07-03T09:08:38Z</time>
      </trkpt>
      <trkpt lat="43.94707" lon="0.24877">
        <ele>137.6</ele>
        <time>2023-07-03T09:08:44Z</time>
      </trkpt>
      <trkpt lat="43.94699" lon="0.24886">
        <ele>137.4</ele>
        <time>2023-07-03T09:08:51Z</time>
      </trkpt>
      <trkpt lat="43.9469" lon="0.24895">
        <ele>137.4</ele>
        <time>2023-07-03T09:08:58Z</time>
      </trkpt>
      <trkpt lat="43.94687" lon="0.249">
        <ele>137.6</ele>
        <time>2023-07-03T09:09:01Z</time>
      </trkpt>
      <trkpt lat="43.94682" lon="0.24908">
        <ele>137.4</ele>
        <time>2023-07-03T09:09:06Z</time>
      </trkpt>
      <trkpt lat="43.94675" lon="0.24914">
        <ele>137.2</ele>
        <time>2023-07-03T09:09:13Z</time>
      </trkpt>
      <trkpt lat="43.94669" lon="0.24923">
        <ele>137.2</ele>
        <time>2023-07-03T09:09:20Z</time>
      </trkpt>
      <trkpt lat="43.94664" lon="0.24928">
        <ele>137.2</ele>
        <time>2023-07-03T09:09:25Z</time>
      </trkpt>
      <trkpt lat="43.94659" lon="0.24931">
        <ele>137.6</ele>
        <time>2023-07-03T09:17:15Z</time>
      </trkpt>
      <trkpt lat="43.94658" lon="0.24932">
        <ele>137.6</ele>
        <time>2023-07-03T09:17:16Z</time>
      </trkpt>
      <trkpt lat="43.94657" lon="0.24938">
        <ele>139</ele>
        <time>2023-07-03T09:17:21Z</time>
      </trkpt>
      <trkpt lat="43.94656" lon="0.24939">
        <ele>139</ele>
        <time>2023-07-03T09:17:23Z</time>
      </trkpt>
      <trkpt lat="43.94656" lon="0.2494">
        <ele>139</ele>
        <time>2023-07-03T09:17:24Z</time>
      </trkpt>
      <trkpt lat="43.94656" lon="0.24941">
        <ele>139</ele>
        <time>2023-07-03T09:17:25Z</time>
      </trkpt>
      <trkpt lat="43.94651" lon="0.24946">
        <ele>139.6</ele>
        <time>2023-07-03T09:17:31Z</time>
      </trkpt>
      <trkpt lat="43.9465" lon="0.24947">
        <ele>139.6</ele>
        <time>2023-07-03T09:17:32Z</time>
      </trkpt>
      <trkpt lat="43.94642" lon="0.24954">
        <ele>139</ele>
        <time>2023-07-03T09:17:39Z</time>
      </trkpt>
      <trkpt lat="43.94639" lon="0.24958">
        <ele>139.2</ele>
        <time>2023-07-03T09:17:42Z</time>
      </trkpt>
      <trkpt lat="43.94638" lon="0.24959">
        <ele>139.2</ele>
        <time>2023-07-03T09:17:43Z</time>
      </trkpt>
      <trkpt lat="43.94637" lon="0.2496">
        <ele>139.4</ele>
        <time>2023-07-03T09:17:44Z</time>
      </trkpt>
      <trkpt lat="43.94634" lon="0.24962">
        <ele>139.4</ele>
        <time>2023-07-03T09:17:46Z</time>
      </trkpt>
      <trkpt lat="43.94625" lon="0.24973">
        <ele>139</ele>
        <time>2023-07-03T09:17:54Z</time>
      </trkpt>
      <trkpt lat="43.94621" lon="0.24978">
        <ele>139</ele>
        <time>2023-07-03T09:17:58Z</time>
      </trkpt>
      <trkpt lat="43.94618" lon="0.24983">
        <ele>139.2</ele>
        <time>2023-07-03T09:18:01Z</time>
      </trkpt>
      <trkpt lat="43.94612" lon="0.24989">
        <ele>139.2</ele>
        <time>2023-07-03T09:18:06Z</time>
      </trkpt>
      <trkpt lat="43.9461" lon="0.24991">
        <ele>139</ele>
        <time>2023-07-03T09:18:08Z</time>
      </trkpt>
      <trkpt lat="43.94609" lon="0.24992">
        <ele>139</ele>
        <time>2023-07-03T09:18:09Z</time>
      </trkpt>
      <trkpt lat="43.94605" lon="0.24996">
        <ele>138.8</ele>
        <time>2023-07-03T09:18:13Z</time>
      </trkpt>
      <trkpt lat="43.946" lon="0.25">
        <ele>138.6</ele>
        <time>2023-07-03T09:18:17Z</time>
      </trkpt>
      <trkpt lat="43.94598" lon="0.25">
        <ele>138.6</ele>
        <time>2023-07-03T09:18:18Z</time>
      </trkpt>
      <trkpt lat="43.94595" lon="0.25004">
        <ele>138.6</ele>
        <time>2023-07-03T09:18:22Z</time>
      </trkpt>
      <trkpt lat="43.9459" lon="0.2501">
        <ele>138.4</ele>
        <time>2023-07-03T09:18:26Z</time>
      </trkpt>
      <trkpt lat="43.9458" lon="0.25018">
        <ele>138.2</ele>
        <time>2023-07-03T09:18:34Z</time>
      </trkpt>
      <trkpt lat="43.94579" lon="0.25019">
        <ele>138.2</ele>
        <time>2023-07-03T09:18:35Z</time>
      </trkpt>
      <trkpt lat="43.94577" lon="0.25021">
        <ele>138</ele>
        <time>2023-07-03T09:18:37Z</time>
      </trkpt>
      <trkpt lat="43.94575" lon="0.25023">
        <ele>138</ele>
        <time>2023-07-03T09:18:40Z</time>
      </trkpt>
      <trkpt lat="43.94567" lon="0.25032">
        <ele>138</ele>
        <time>2023-07-03T09:18:47Z</time>
      </trkpt>
      <trkpt lat="43.94561" lon="0.25037">
        <ele>137.6</ele>
        <time>2023-07-03T09:18:51Z</time>
      </trkpt>
      <trkpt lat="43.94551" lon="0.25043">
        <ele>138</ele>
        <time>2023-07-03T09:18:59Z</time>
      </trkpt>
      <trkpt lat="43.94544" lon="0.2505">
        <ele>138</ele>
        <time>2023-07-03T09:19:05Z</time>
      </trkpt>
      <trkpt lat="43.94542" lon="0.25052">
        <ele>137.6</ele>
        <time>2023-07-03T09:19:07Z</time>
      </trkpt>
      <trkpt lat="43.94539" lon="0.25053">
        <ele>137.4</ele>
        <time>2023-07-03T09:19:09Z</time>
      </trkpt>
      <trkpt lat="43.94538" lon="0.25054">
        <ele>137.4</ele>
        <time>2023-07-03T09:19:10Z</time>
      </trkpt>
      <trkpt lat="43.94537" lon="0.25055">
        <ele>137.4</ele>
        <time>2023-07-03T09:19:11Z</time>
      </trkpt>
      <trkpt lat="43.94536" lon="0.25056">
        <ele>137.4</ele>
        <time>2023-07-03T09:19:12Z</time>
      </trkpt>
      <trkpt lat="43.94535" lon="0.25057">
        <ele>137.2</ele>
        <time>2023-07-03T09:19:13Z</time>
      </trkpt>
      <trkpt lat="43.94534" lon="0.25058">
        <ele>137.4</ele>
        <time>2023-07-03T09:19:14Z</time>
      </trkpt>
      <trkpt lat="43.94533" lon="0.25059">
        <ele>137.4</ele>
        <time>2023-07-03T09:19:15Z</time>
      </trkpt>
      <trkpt lat="43.94531" lon="0.2506">
        <ele>137.6</ele>
        <time>2023-07-03T09:19:16Z</time>
      </trkpt>
      <trkpt lat="43.94526" lon="0.25064">
        <ele>137.6</ele>
        <time>2023-07-03T09:19:20Z</time>
      </trkpt>
      <trkpt lat="43.94518" lon="0.25069">
        <ele>137.2</ele>
        <time>2023-07-03T09:19:26Z</time>
      </trkpt>
      <trkpt lat="43.94514" lon="0.25073">
        <ele>137.6</ele>
        <time>2023-07-03T09:19:29Z</time>
      </trkpt>
      <trkpt lat="43.94513" lon="0.25074">
        <ele>137.4</ele>
        <time>2023-07-03T09:19:30Z</time>
      </trkpt>
      <trkpt lat="43.94512" lon="0.25074">
        <ele>137.6</ele>
        <time>2023-07-03T09:19:31Z</time>
      </trkpt>
      <trkpt lat="43.94505" lon="0.25079">
        <ele>137.4</ele>
        <time>2023-07-03T09:19:37Z</time>
      </trkpt>
      <trkpt lat="43.94497" lon="0.25086">
        <ele>137.6</ele>
        <time>2023-07-03T09:19:44Z</time>
      </trkpt>
      <trkpt lat="43.94489" lon="0.25092">
        <ele>137.4</ele>
        <time>2023-07-03T09:19:50Z</time>
      </trkpt>
      <trkpt lat="43.9448" lon="0.25099">
        <ele>137.8</ele>
        <time>2023-07-03T09:19:57Z</time>
      </trkpt>
      <trkpt lat="43.94477" lon="0.25101">
        <ele>137.6</ele>
        <time>2023-07-03T09:19:59Z</time>
      </trkpt>
      <trkpt lat="43.94467" lon="0.25111">
        <ele>137.4</ele>
        <time>2023-07-03T09:20:07Z</time>
      </trkpt>
      <trkpt lat="43.94459" lon="0.25117">
        <ele>137.2</ele>
        <time>2023-07-03T09:20:14Z</time>
      </trkpt>
      <trkpt lat="43.94458" lon="0.25118">
        <ele>137</ele>
        <time>2023-07-03T09:20:15Z</time>
      </trkpt>
      <trkpt lat="43.94457" lon="0.25119">
        <ele>137</ele>
        <time>2023-07-03T09:20:17Z</time>
      </trkpt>
      <trkpt lat="43.94456" lon="0.25119">
        <ele>137.2</ele>
        <time>2023-07-03T09:20:18Z</time>
      </trkpt>
      <trkpt lat="43.94451" lon="0.25123">
        <ele>137.2</ele>
        <time>2023-07-03T09:20:23Z</time>
      </trkpt>
      <trkpt lat="43.9445" lon="0.25124">
        <ele>137.4</ele>
        <time>2023-07-03T09:20:24Z</time>
      </trkpt>
      <trkpt lat="43.94447" lon="0.25126">
        <ele>137.2</ele>
        <time>2023-07-03T09:20:27Z</time>
      </trkpt>
      <trkpt lat="43.94446" lon="0.25126">
        <ele>137</ele>
        <time>2023-07-03T09:20:30Z</time>
      </trkpt>
      <trkpt lat="43.94444" lon="0.25128">
        <ele>137</ele>
        <time>2023-07-03T09:20:37Z</time>
      </trkpt>
      <trkpt lat="43.94442" lon="0.2513">
        <ele>137</ele>
        <time>2023-07-03T09:20:39Z</time>
      </trkpt>
      <trkpt lat="43.9444" lon="0.25133">
        <ele>137</ele>
        <time>2023-07-03T09:20:41Z</time>
      </trkpt>
      <trkpt lat="43.94435" lon="0.25142">
        <ele>137.4</ele>
        <time>2023-07-03T09:20:47Z</time>
      </trkpt>
      <trkpt lat="43.94432" lon="0.25145">
        <ele>137.4</ele>
        <time>2023-07-03T09:20:50Z</time>
      </trkpt>
      <trkpt lat="43.9443" lon="0.25147">
        <ele>137.4</ele>
        <time>2023-07-03T09:20:52Z</time>
      </trkpt>
      <trkpt lat="43.94428" lon="0.25151">
        <ele>137.4</ele>
        <time>2023-07-03T09:20:55Z</time>
      </trkpt>
      <trkpt lat="43.94426" lon="0.25153">
        <ele>137.4</ele>
        <time>2023-07-03T09:20:57Z</time>
      </trkpt>
      <trkpt lat="43.94421" lon="0.25162">
        <ele>137.6</ele>
        <time>2023-07-03T09:21:03Z</time>
      </trkpt>
      <trkpt lat="43.94418" lon="0.25166">
        <ele>137.8</ele>
        <time>2023-07-03T09:21:06Z</time>
      </trkpt>
      <trkpt lat="43.94416" lon="0.25169">
        <ele>138</ele>
        <time>2023-07-03T09:21:08Z</time>
      </trkpt>
      <trkpt lat="43.94415" lon="0.2517">
        <ele>138</ele>
        <time>2023-07-03T09:21:09Z</time>
      </trkpt>
      <trkpt lat="43.94413" lon="0.25176">
        <ele>138</ele>
        <time>2023-07-03T09:21:12Z</time>
      </trkpt>
      <trkpt lat="43.94408" lon="0.25189">
        <ele>138</ele>
        <time>2023-07-03T09:21:20Z</time>
      </trkpt>
      <trkpt lat="43.94404" lon="0.25202">
        <ele>138.8</ele>
        <time>2023-07-03T09:21:28Z</time>
      </trkpt>
      <trkpt lat="43.94403" lon="0.25204">
        <ele>138.8</ele>
        <time>2023-07-03T09:21:29Z</time>
      </trkpt>
      <trkpt lat="43.94402" lon="0.25206">
        <ele>138.8</ele>
        <time>2023-07-03T09:21:30Z</time>
      </trkpt>
      <trkpt lat="43.944" lon="0.25209">
        <ele>139</ele>
        <time>2023-07-03T09:21:32Z</time>
      </trkpt>
      <trkpt lat="43.94398" lon="0.25215">
        <ele>139.2</ele>
        <time>2023-07-03T09:21:36Z</time>
      </trkpt>
      <trkpt lat="43.94398" lon="0.25217">
        <ele>139.2</ele>
        <time>2023-07-03T09:21:37Z</time>
      </trkpt>
      <trkpt lat="43.94397" lon="0.25218">
        <ele>139.2</ele>
        <time>2023-07-03T09:21:38Z</time>
      </trkpt>
      <trkpt lat="43.94395" lon="0.25225">
        <ele>139.6</ele>
        <time>2023-07-03T09:21:42Z</time>
      </trkpt>
      <trkpt lat="43.94394" lon="0.25231">
        <ele>139.6</ele>
        <time>2023-07-03T09:21:45Z</time>
      </trkpt>
      <trkpt lat="43.94389" lon="0.25243">
        <ele>139.8</ele>
        <time>2023-07-03T09:21:52Z</time>
      </trkpt>
      <trkpt lat="43.94387" lon="0.25247">
        <ele>139.8</ele>
        <time>2023-07-03T09:21:54Z</time>
      </trkpt>
      <trkpt lat="43.94382" lon="0.25257">
        <ele>139.6</ele>
        <time>2023-07-03T09:22:00Z</time>
      </trkpt>
      <trkpt lat="43.94381" lon="0.25259">
        <ele>139.4</ele>
        <time>2023-07-03T09:22:01Z</time>
      </trkpt>
      <trkpt lat="43.94379" lon="0.25263">
        <ele>139.4</ele>
        <time>2023-07-03T09:22:04Z</time>
      </trkpt>
      <trkpt lat="43.94373" lon="0.25273">
        <ele>139</ele>
        <time>2023-07-03T09:22:11Z</time>
      </trkpt>
      <trkpt lat="43.9437" lon="0.25277">
        <ele>138.6</ele>
        <time>2023-07-03T09:22:14Z</time>
      </trkpt>
      <trkpt lat="43.94368" lon="0.25282">
        <ele>138.6</ele>
        <time>2023-07-03T09:22:17Z</time>
      </trkpt>
      <trkpt lat="43.94365" lon="0.25289">
        <ele>138.6</ele>
        <time>2023-07-03T09:22:21Z</time>
      </trkpt>
      <trkpt lat="43.9436" lon="0.25304">
        <ele>138.4</ele>
        <time>2023-07-03T09:22:30Z</time>
      </trkpt>
      <trkpt lat="43.94355" lon="0.25318">
        <ele>138</ele>
        <time>2023-07-03T09:22:38Z</time>
      </trkpt>
      <trkpt lat="43.94354" lon="0.25321">
        <ele>138</ele>
        <time>2023-07-03T09:22:40Z</time>
      </trkpt>
      <trkpt lat="43.94351" lon="0.25335">
        <ele>138</ele>
        <time>2023-07-03T09:22:47Z</time>
      </trkpt>
      <trkpt lat="43.9435" lon="0.25342">
        <ele>137.8</ele>
        <time>2023-07-03T09:22:51Z</time>
      </trkpt>
      <trkpt lat="43.94348" lon="0.25348">
        <ele>138</ele>
        <time>2023-07-03T09:22:54Z</time>
      </trkpt>
      <trkpt lat="43.94348" lon="0.2535">
        <ele>138</ele>
        <time>2023-07-03T09:22:55Z</time>
      </trkpt>
      <trkpt lat="43.94345" lon="0.25368">
        <ele>137.6</ele>
        <time>2023-07-03T09:23:04Z</time>
      </trkpt>
      <trkpt lat="43.94341" lon="0.25382">
        <ele>137.4</ele>
        <time>2023-07-03T09:23:12Z</time>
      </trkpt>
      <trkpt lat="43.94339" lon="0.2539">
        <ele>137.4</ele>
        <time>2023-07-03T09:23:17Z</time>
      </trkpt>
      <trkpt lat="43.94338" lon="0.25395">
        <ele>137.4</ele>
        <time>2023-07-03T09:23:19Z</time>
      </trkpt>
      <trkpt lat="43.94335" lon="0.25408">
        <ele>137.6</ele>
        <time>2023-07-03T09:23:26Z</time>
      </trkpt>
      <trkpt lat="43.94332" lon="0.25419">
        <ele>137.4</ele>
        <time>2023-07-03T09:23:33Z</time>
      </trkpt>
      <trkpt lat="43.94331" lon="0.25421">
        <ele>137.4</ele>
        <time>2023-07-03T09:23:34Z</time>
      </trkpt>
      <trkpt lat="43.94327" lon="0.25437">
        <ele>137.6</ele>
        <time>2023-07-03T09:23:42Z</time>
      </trkpt>
      <trkpt lat="43.94323" lon="0.25452">
        <ele>137.8</ele>
        <time>2023-07-03T09:23:51Z</time>
      </trkpt>
      <trkpt lat="43.9432" lon="0.25468">
        <ele>138</ele>
        <time>2023-07-03T09:24:00Z</time>
      </trkpt>
      <trkpt lat="43.94316" lon="0.25478">
        <ele>138.2</ele>
        <time>2023-07-03T09:24:06Z</time>
      </trkpt>
      <trkpt lat="43.94314" lon="0.25484">
        <ele>138</ele>
        <time>2023-07-03T09:24:09Z</time>
      </trkpt>
      <trkpt lat="43.94311" lon="0.25501">
        <ele>138.4</ele>
        <time>2023-07-03T09:24:17Z</time>
      </trkpt>
      <trkpt lat="43.94309" lon="0.25509">
        <ele>138.4</ele>
        <time>2023-07-03T09:24:21Z</time>
      </trkpt>
      <trkpt lat="43.94306" lon="0.25516">
        <ele>138.6</ele>
        <time>2023-07-03T09:24:25Z</time>
      </trkpt>
      <trkpt lat="43.94299" lon="0.25527">
        <ele>138.4</ele>
        <time>2023-07-03T09:24:32Z</time>
      </trkpt>
      <trkpt lat="43.94295" lon="0.25539">
        <ele>138.4</ele>
        <time>2023-07-03T09:24:39Z</time>
      </trkpt>
      <trkpt lat="43.9429" lon="0.25555">
        <ele>138.6</ele>
        <time>2023-07-03T09:24:48Z</time>
      </trkpt>
      <trkpt lat="43.94289" lon="0.25564">
        <ele>139</ele>
        <time>2023-07-03T09:24:53Z</time>
      </trkpt>
      <trkpt lat="43.94288" lon="0.2557">
        <ele>139.4</ele>
        <time>2023-07-03T09:24:56Z</time>
      </trkpt>
      <trkpt lat="43.94287" lon="0.25577">
        <ele>139.2</ele>
        <time>2023-07-03T09:25:00Z</time>
      </trkpt>
      <trkpt lat="43.94283" lon="0.25586">
        <ele>139.2</ele>
        <time>2023-07-03T09:25:06Z</time>
      </trkpt>
      <trkpt lat="43.9428" lon="0.25595">
        <ele>139.4</ele>
        <time>2023-07-03T09:25:11Z</time>
      </trkpt>
      <trkpt lat="43.94278" lon="0.256">
        <ele>139.4</ele>
        <time>2023-07-03T09:25:14Z</time>
      </trkpt>
      <trkpt lat="43.94275" lon="0.25612">
        <ele>139.2</ele>
        <time>2023-07-03T09:25:21Z</time>
      </trkpt>
      <trkpt lat="43.94274" lon="0.25614">
        <ele>139.2</ele>
        <time>2023-07-03T09:25:22Z</time>
      </trkpt>
      <trkpt lat="43.94273" lon="0.25619">
        <ele>139.2</ele>
        <time>2023-07-03T09:25:25Z</time>
      </trkpt>
      <trkpt lat="43.9427" lon="0.25633">
        <ele>139.6</ele>
        <time>2023-07-03T09:25:32Z</time>
      </trkpt>
      <trkpt lat="43.9427" lon="0.25635">
        <ele>139.4</ele>
        <time>2023-07-03T09:25:33Z</time>
      </trkpt>
      <trkpt lat="43.94269" lon="0.25637">
        <ele>139.2</ele>
        <time>2023-07-03T09:25:34Z</time>
      </trkpt>
      <trkpt lat="43.94264" lon="0.25653">
        <ele>139.8</ele>
        <time>2023-07-03T09:25:43Z</time>
      </trkpt>
      <trkpt lat="43.94261" lon="0.25668">
        <ele>139.8</ele>
        <time>2023-07-03T09:25:51Z</time>
      </trkpt>
      <trkpt lat="43.9426" lon="0.25675">
        <ele>139.6</ele>
        <time>2023-07-03T09:25:55Z</time>
      </trkpt>
      <trkpt lat="43.94258" lon="0.25681">
        <ele>139.6</ele>
        <time>2023-07-03T09:25:58Z</time>
      </trkpt>
      <trkpt lat="43.94256" lon="0.25684">
        <ele>139.6</ele>
        <time>2023-07-03T09:26:00Z</time>
      </trkpt>
      <trkpt lat="43.94254" lon="0.25694">
        <ele>139.8</ele>
        <time>2023-07-03T09:26:05Z</time>
      </trkpt>
      <trkpt lat="43.94254" lon="0.25695">
        <ele>139.8</ele>
        <time>2023-07-03T09:26:06Z</time>
      </trkpt>
      <trkpt lat="43.94248" lon="0.25714">
        <ele>140.2</ele>
        <time>2023-07-03T09:26:16Z</time>
      </trkpt>
      <trkpt lat="43.94247" lon="0.25716">
        <ele>140</ele>
        <time>2023-07-03T09:26:17Z</time>
      </trkpt>
      <trkpt lat="43.94244" lon="0.25727">
        <ele>139.8</ele>
        <time>2023-07-03T09:26:23Z</time>
      </trkpt>
      <trkpt lat="43.94244" lon="0.25729">
        <ele>139.8</ele>
        <time>2023-07-03T09:26:24Z</time>
      </trkpt>
      <trkpt lat="43.94242" lon="0.25734">
        <ele>140.2</ele>
        <time>2023-07-03T09:26:27Z</time>
      </trkpt>
      <trkpt lat="43.94241" lon="0.25736">
        <ele>140.2</ele>
        <time>2023-07-03T09:26:28Z</time>
      </trkpt>
      <trkpt lat="43.94239" lon="0.25744">
        <ele>140.4</ele>
        <time>2023-07-03T09:26:32Z</time>
      </trkpt>
      <trkpt lat="43.94237" lon="0.25751">
        <ele>140.8</ele>
        <time>2023-07-03T09:26:36Z</time>
      </trkpt>
      <trkpt lat="43.94235" lon="0.25756">
        <ele>141.2</ele>
        <time>2023-07-03T09:26:39Z</time>
      </trkpt>
      <trkpt lat="43.94234" lon="0.25758">
        <ele>141.2</ele>
        <time>2023-07-03T09:26:40Z</time>
      </trkpt>
      <trkpt lat="43.94234" lon="0.25762">
        <ele>141.2</ele>
        <time>2023-07-03T09:26:42Z</time>
      </trkpt>
      <trkpt lat="43.9423" lon="0.25776">
        <ele>140.8</ele>
        <time>2023-07-03T09:26:49Z</time>
      </trkpt>
      <trkpt lat="43.94229" lon="0.25779">
        <ele>141</ele>
        <time>2023-07-03T09:26:51Z</time>
      </trkpt>
      <trkpt lat="43.94225" lon="0.25794">
        <ele>141.6</ele>
        <time>2023-07-03T09:26:59Z</time>
      </trkpt>
      <trkpt lat="43.94224" lon="0.25798">
        <ele>141.6</ele>
        <time>2023-07-03T09:27:01Z</time>
      </trkpt>
      <trkpt lat="43.94221" lon="0.25805">
        <ele>141.8</ele>
        <time>2023-07-03T09:27:05Z</time>
      </trkpt>
      <trkpt lat="43.94221" lon="0.25806">
        <ele>141.8</ele>
        <time>2023-07-03T09:27:06Z</time>
      </trkpt>
      <trkpt lat="43.94218" lon="0.25816">
        <ele>141.8</ele>
        <time>2023-07-03T09:27:11Z</time>
      </trkpt>
      <trkpt lat="43.94215" lon="0.25824">
        <ele>141.6</ele>
        <time>2023-07-03T09:27:16Z</time>
      </trkpt>
      <trkpt lat="43.94214" lon="0.25826">
        <ele>141.6</ele>
        <time>2023-07-03T09:27:17Z</time>
      </trkpt>
      <trkpt lat="43.94214" lon="0.25828">
        <ele>141.6</ele>
        <time>2023-07-03T09:27:18Z</time>
      </trkpt>
      <trkpt lat="43.94213" lon="0.25831">
        <ele>141.6</ele>
        <time>2023-07-03T09:27:20Z</time>
      </trkpt>
      <trkpt lat="43.9421" lon="0.25841">
        <ele>141.8</ele>
        <time>2023-07-03T09:27:25Z</time>
      </trkpt>
      <trkpt lat="43.94209" lon="0.25846">
        <ele>142.2</ele>
        <time>2023-07-03T09:27:28Z</time>
      </trkpt>
      <trkpt lat="43.94205" lon="0.25858">
        <ele>142</ele>
        <time>2023-07-03T09:27:35Z</time>
      </trkpt>
      <trkpt lat="43.94203" lon="0.25867">
        <ele>142.2</ele>
        <time>2023-07-03T09:27:40Z</time>
      </trkpt>
      <trkpt lat="43.94201" lon="0.25873">
        <ele>142.4</ele>
        <time>2023-07-03T09:27:43Z</time>
      </trkpt>
      <trkpt lat="43.94195" lon="0.25891">
        <ele>142.4</ele>
        <time>2023-07-03T09:27:53Z</time>
      </trkpt>
      <trkpt lat="43.94188" lon="0.25909">
        <ele>142.6</ele>
        <time>2023-07-03T09:28:03Z</time>
      </trkpt>
      <trkpt lat="43.94181" lon="0.25925">
        <ele>142.8</ele>
        <time>2023-07-03T09:28:12Z</time>
      </trkpt>
      <trkpt lat="43.94177" lon="0.25939">
        <ele>142.8</ele>
        <time>2023-07-03T09:28:20Z</time>
      </trkpt>
      <trkpt lat="43.94172" lon="0.25952">
        <ele>143</ele>
        <time>2023-07-03T09:28:27Z</time>
      </trkpt>
      <trkpt lat="43.9417" lon="0.25961">
        <ele>143.2</ele>
        <time>2023-07-03T09:28:33Z</time>
      </trkpt>
      <trkpt lat="43.94169" lon="0.25964">
        <ele>143.2</ele>
        <time>2023-07-03T09:28:35Z</time>
      </trkpt>
      <trkpt lat="43.94165" lon="0.25974">
        <ele>143.6</ele>
        <time>2023-07-03T09:28:41Z</time>
      </trkpt>
      <trkpt lat="43.94161" lon="0.25986">
        <ele>143.6</ele>
        <time>2023-07-03T09:28:48Z</time>
      </trkpt>
      <trkpt lat="43.94158" lon="0.25992">
        <ele>143.6</ele>
        <time>2023-07-03T09:28:51Z</time>
      </trkpt>
      <trkpt lat="43.94155" lon="0.26001">
        <ele>143.8</ele>
        <time>2023-07-03T09:28:56Z</time>
      </trkpt>
      <trkpt lat="43.94151" lon="0.26017">
        <ele>143.8</ele>
        <time>2023-07-03T09:29:05Z</time>
      </trkpt>
      <trkpt lat="43.94145" lon="0.2603">
        <ele>144.2</ele>
        <time>2023-07-03T09:29:13Z</time>
      </trkpt>
      <trkpt lat="43.94139" lon="0.26044">
        <ele>144.2</ele>
        <time>2023-07-03T09:29:21Z</time>
      </trkpt>
      <trkpt lat="43.94138" lon="0.26046">
        <ele>144.2</ele>
        <time>2023-07-03T09:29:22Z</time>
      </trkpt>
      <trkpt lat="43.94132" lon="0.26058">
        <ele>144</ele>
        <time>2023-07-03T09:29:29Z</time>
      </trkpt>
      <trkpt lat="43.94125" lon="0.26071">
        <ele>144</ele>
        <time>2023-07-03T09:29:37Z</time>
      </trkpt>
      <trkpt lat="43.9412" lon="0.26084">
        <ele>144.2</ele>
        <time>2023-07-03T09:29:45Z</time>
      </trkpt>
      <trkpt lat="43.94113" lon="0.26097">
        <ele>144.2</ele>
        <time>2023-07-03T09:29:52Z</time>
      </trkpt>
      <trkpt lat="43.94111" lon="0.26112">
        <ele>144</ele>
        <time>2023-07-03T09:30:00Z</time>
      </trkpt>
      <trkpt lat="43.9411" lon="0.26116">
        <ele>144</ele>
        <time>2023-07-03T09:30:02Z</time>
      </trkpt>
      <trkpt lat="43.94109" lon="0.26124">
        <ele>144</ele>
        <time>2023-07-03T09:30:07Z</time>
      </trkpt>
      <trkpt lat="43.94107" lon="0.26129">
        <ele>144</ele>
        <time>2023-07-03T09:30:10Z</time>
      </trkpt>
      <trkpt lat="43.94102" lon="0.26137">
        <ele>143.8</ele>
        <time>2023-07-03T09:30:15Z</time>
      </trkpt>
      <trkpt lat="43.94099" lon="0.2615">
        <ele>143.8</ele>
        <time>2023-07-03T09:30:22Z</time>
      </trkpt>
      <trkpt lat="43.94096" lon="0.26162">
        <ele>144</ele>
        <time>2023-07-03T09:30:28Z</time>
      </trkpt>
      <trkpt lat="43.94095" lon="0.26167">
        <ele>144</ele>
        <time>2023-07-03T09:30:31Z</time>
      </trkpt>
      <trkpt lat="43.94094" lon="0.26184">
        <ele>144.6</ele>
        <time>2023-07-03T09:30:39Z</time>
      </trkpt>
      <trkpt lat="43.94093" lon="0.26187">
        <ele>144.6</ele>
        <time>2023-07-03T09:30:41Z</time>
      </trkpt>
      <trkpt lat="43.94093" lon="0.26189">
        <ele>144.6</ele>
        <time>2023-07-03T09:30:42Z</time>
      </trkpt>
      <trkpt lat="43.94092" lon="0.26195">
        <ele>144.4</ele>
        <time>2023-07-03T09:30:45Z</time>
      </trkpt>
      <trkpt lat="43.94092" lon="0.26201">
        <ele>144.2</ele>
        <time>2023-07-03T09:30:48Z</time>
      </trkpt>
      <trkpt lat="43.94091" lon="0.26205">
        <ele>144.2</ele>
        <time>2023-07-03T09:30:50Z</time>
      </trkpt>
      <trkpt lat="43.94091" lon="0.26214">
        <ele>144.2</ele>
        <time>2023-07-03T09:30:55Z</time>
      </trkpt>
      <trkpt lat="43.94089" lon="0.2623">
        <ele>143.8</ele>
        <time>2023-07-03T09:31:03Z</time>
      </trkpt>
      <trkpt lat="43.94091" lon="0.26244">
        <ele>143.8</ele>
        <time>2023-07-03T09:31:10Z</time>
      </trkpt>
      <trkpt lat="43.94091" lon="0.26246">
        <ele>143.8</ele>
        <time>2023-07-03T09:31:11Z</time>
      </trkpt>
      <trkpt lat="43.94092" lon="0.26252">
        <ele>143.8</ele>
        <time>2023-07-03T09:31:14Z</time>
      </trkpt>
      <trkpt lat="43.94092" lon="0.26262">
        <ele>144</ele>
        <time>2023-07-03T09:31:19Z</time>
      </trkpt>
      <trkpt lat="43.94091" lon="0.26275">
        <ele>143.6</ele>
        <time>2023-07-03T09:31:26Z</time>
      </trkpt>
      <trkpt lat="43.94092" lon="0.26283">
        <ele>143.6</ele>
        <time>2023-07-03T09:31:30Z</time>
      </trkpt>
      <trkpt lat="43.94091" lon="0.26304">
        <ele>143.6</ele>
        <time>2023-07-03T09:31:40Z</time>
      </trkpt>
      <trkpt lat="43.94092" lon="0.26324">
        <ele>143.6</ele>
        <time>2023-07-03T09:31:50Z</time>
      </trkpt>
      <trkpt lat="43.94092" lon="0.26328">
        <ele>143.4</ele>
        <time>2023-07-03T09:31:52Z</time>
      </trkpt>
      <trkpt lat="43.94092" lon="0.2633">
        <ele>143.2</ele>
        <time>2023-07-03T09:31:53Z</time>
      </trkpt>
      <trkpt lat="43.94092" lon="0.26338">
        <ele>143</ele>
        <time>2023-07-03T09:31:57Z</time>
      </trkpt>
      <trkpt lat="43.94092" lon="0.26355">
        <ele>142.4</ele>
        <time>2023-07-03T09:32:05Z</time>
      </trkpt>
      <trkpt lat="43.94092" lon="0.26365">
        <ele>142.2</ele>
        <time>2023-07-03T09:32:10Z</time>
      </trkpt>
      <trkpt lat="43.9409" lon="0.26374">
        <ele>142</ele>
        <time>2023-07-03T09:32:15Z</time>
      </trkpt>
      <trkpt lat="43.9409" lon="0.26391">
        <ele>141.4</ele>
        <time>2023-07-03T09:32:23Z</time>
      </trkpt>
      <trkpt lat="43.9409" lon="0.26397">
        <ele>141.2</ele>
        <time>2023-07-03T09:32:26Z</time>
      </trkpt>
      <trkpt lat="43.94089" lon="0.26401">
        <ele>141</ele>
        <time>2023-07-03T09:32:28Z</time>
      </trkpt>
      <trkpt lat="43.94089" lon="0.26412">
        <ele>140.4</ele>
        <time>2023-07-03T09:32:33Z</time>
      </trkpt>
      <trkpt lat="43.94091" lon="0.26425">
        <ele>140.2</ele>
        <time>2023-07-03T09:32:39Z</time>
      </trkpt>
      <trkpt lat="43.94091" lon="0.26431">
        <ele>139.8</ele>
        <time>2023-07-03T09:32:42Z</time>
      </trkpt>
      <trkpt lat="43.94089" lon="0.26443">
        <ele>139</ele>
        <time>2023-07-03T09:32:48Z</time>
      </trkpt>
      <trkpt lat="43.94089" lon="0.26445">
        <ele>139</ele>
        <time>2023-07-03T09:32:49Z</time>
      </trkpt>
      <trkpt lat="43.94088" lon="0.26449">
        <ele>138.8</ele>
        <time>2023-07-03T09:32:51Z</time>
      </trkpt>
      <trkpt lat="43.94088" lon="0.26468">
        <ele>138.2</ele>
        <time>2023-07-03T09:33:00Z</time>
      </trkpt>
      <trkpt lat="43.94087" lon="0.26474">
        <ele>138.2</ele>
        <time>2023-07-03T09:33:03Z</time>
      </trkpt>
      <trkpt lat="43.94087" lon="0.26484">
        <ele>138</ele>
        <time>2023-07-03T09:33:08Z</time>
      </trkpt>
      <trkpt lat="43.94087" lon="0.26497">
        <ele>137.8</ele>
        <time>2023-07-03T09:33:15Z</time>
      </trkpt>
      <trkpt lat="43.94087" lon="0.26499">
        <ele>137.6</ele>
        <time>2023-07-03T09:33:16Z</time>
      </trkpt>
      <trkpt lat="43.94085" lon="0.26509">
        <ele>137.6</ele>
        <time>2023-07-03T09:33:21Z</time>
      </trkpt>
      <trkpt lat="43.94084" lon="0.26515">
        <ele>137.6</ele>
        <time>2023-07-03T09:33:24Z</time>
      </trkpt>
      <trkpt lat="43.94083" lon="0.26523">
        <ele>137.6</ele>
        <time>2023-07-03T09:33:28Z</time>
      </trkpt>
      <trkpt lat="43.94083" lon="0.26529">
        <ele>137.4</ele>
        <time>2023-07-03T09:33:31Z</time>
      </trkpt>
      <trkpt lat="43.94083" lon="0.26533">
        <ele>137.4</ele>
        <time>2023-07-03T09:33:33Z</time>
      </trkpt>
      <trkpt lat="43.94082" lon="0.26545">
        <ele>137.2</ele>
        <time>2023-07-03T09:33:39Z</time>
      </trkpt>
      <trkpt lat="43.94081" lon="0.26549">
        <ele>137.2</ele>
        <time>2023-07-03T09:33:41Z</time>
      </trkpt>
      <trkpt lat="43.9408" lon="0.26561">
        <ele>136.8</ele>
        <time>2023-07-03T09:33:47Z</time>
      </trkpt>
      <trkpt lat="43.94079" lon="0.26567">
        <ele>136.6</ele>
        <time>2023-07-03T09:33:50Z</time>
      </trkpt>
      <trkpt lat="43.94079" lon="0.26569">
        <ele>136.4</ele>
        <time>2023-07-03T09:33:51Z</time>
      </trkpt>
      <trkpt lat="43.94078" lon="0.26577">
        <ele>135.8</ele>
        <time>2023-07-03T09:33:55Z</time>
      </trkpt>
      <trkpt lat="43.94077" lon="0.26586">
        <ele>135.4</ele>
        <time>2023-07-03T09:34:00Z</time>
      </trkpt>
      <trkpt lat="43.94077" lon="0.26591">
        <ele>135</ele>
        <time>2023-07-03T09:34:03Z</time>
      </trkpt>
      <trkpt lat="43.94076" lon="0.26595">
        <ele>134.6</ele>
        <time>2023-07-03T09:34:05Z</time>
      </trkpt>
      <trkpt lat="43.94076" lon="0.26608">
        <ele>133.8</ele>
        <time>2023-07-03T09:34:12Z</time>
      </trkpt>
      <trkpt lat="43.94075" lon="0.26612">
        <ele>133.6</ele>
        <time>2023-07-03T09:34:14Z</time>
      </trkpt>
      <trkpt lat="43.94072" lon="0.26624">
        <ele>133</ele>
        <time>2023-07-03T09:34:20Z</time>
      </trkpt>
      <trkpt lat="43.9407" lon="0.2663">
        <ele>132.6</ele>
        <time>2023-07-03T09:34:23Z</time>
      </trkpt>
      <trkpt lat="43.94069" lon="0.2664">
        <ele>131.6</ele>
        <time>2023-07-03T09:34:28Z</time>
      </trkpt>
      <trkpt lat="43.94069" lon="0.26642">
        <ele>131.6</ele>
        <time>2023-07-03T09:34:29Z</time>
      </trkpt>
      <trkpt lat="43.94068" lon="0.26647">
        <ele>131.2</ele>
        <time>2023-07-03T09:34:32Z</time>
      </trkpt>
      <trkpt lat="43.94067" lon="0.26651">
        <ele>131</ele>
        <time>2023-07-03T09:34:34Z</time>
      </trkpt>
      <trkpt lat="43.94067" lon="0.26656">
        <ele>130.6</ele>
        <time>2023-07-03T09:34:37Z</time>
      </trkpt>
      <trkpt lat="43.94065" lon="0.26661">
        <ele>130.4</ele>
        <time>2023-07-03T09:34:40Z</time>
      </trkpt>
      <trkpt lat="43.94063" lon="0.26667">
        <ele>130</ele>
        <time>2023-07-03T09:34:43Z</time>
      </trkpt>
      <trkpt lat="43.94063" lon="0.26671">
        <ele>129.8</ele>
        <time>2023-07-03T09:34:45Z</time>
      </trkpt>
      <trkpt lat="43.94062" lon="0.26672">
        <ele>129.6</ele>
        <time>2023-07-03T09:34:46Z</time>
      </trkpt>
      <trkpt lat="43.94061" lon="0.26678">
        <ele>129.4</ele>
        <time>2023-07-03T09:34:49Z</time>
      </trkpt>
      <trkpt lat="43.94059" lon="0.26689">
        <ele>128.8</ele>
        <time>2023-07-03T09:34:55Z</time>
      </trkpt>
      <trkpt lat="43.94057" lon="0.26694">
        <ele>128.4</ele>
        <time>2023-07-03T09:34:57Z</time>
      </trkpt>
      <trkpt lat="43.94054" lon="0.26703">
        <ele>127.8</ele>
        <time>2023-07-03T09:35:02Z</time>
      </trkpt>
      <trkpt lat="43.94054" lon="0.26711">
        <ele>127.2</ele>
        <time>2023-07-03T09:35:06Z</time>
      </trkpt>
      <trkpt lat="43.94053" lon="0.26718">
        <ele>127</ele>
        <time>2023-07-03T09:35:09Z</time>
      </trkpt>
      <trkpt lat="43.9405" lon="0.26734">
        <ele>126</ele>
        <time>2023-07-03T09:35:17Z</time>
      </trkpt>
      <trkpt lat="43.94049" lon="0.26738">
        <ele>126</ele>
        <time>2023-07-03T09:35:19Z</time>
      </trkpt>
      <trkpt lat="43.94047" lon="0.26752">
        <ele>125.6</ele>
        <time>2023-07-03T09:35:26Z</time>
      </trkpt>
      <trkpt lat="43.94046" lon="0.26769">
        <ele>125.6</ele>
        <time>2023-07-03T09:35:34Z</time>
      </trkpt>
      <trkpt lat="43.94046" lon="0.26779">
        <ele>125</ele>
        <time>2023-07-03T09:35:39Z</time>
      </trkpt>
      <trkpt lat="43.94046" lon="0.26784">
        <ele>124.8</ele>
        <time>2023-07-03T09:35:42Z</time>
      </trkpt>
      <trkpt lat="43.94045" lon="0.26802">
        <ele>124.2</ele>
        <time>2023-07-03T09:35:51Z</time>
      </trkpt>
      <trkpt lat="43.94046" lon="0.26814">
        <ele>124</ele>
        <time>2023-07-03T09:35:57Z</time>
      </trkpt>
      <trkpt lat="43.94046" lon="0.2682">
        <ele>123.8</ele>
        <time>2023-07-03T09:36:00Z</time>
      </trkpt>
      <trkpt lat="43.94046" lon="0.26833">
        <ele>123.4</ele>
        <time>2023-07-03T09:36:07Z</time>
      </trkpt>
      <trkpt lat="43.94046" lon="0.26853">
        <ele>123.4</ele>
        <time>2023-07-03T09:36:16Z</time>
      </trkpt>
      <trkpt lat="43.94045" lon="0.26857">
        <ele>123.2</ele>
        <time>2023-07-03T09:36:18Z</time>
      </trkpt>
      <trkpt lat="43.94045" lon="0.26867">
        <ele>123</ele>
        <time>2023-07-03T09:36:23Z</time>
      </trkpt>
      <trkpt lat="43.94045" lon="0.26871">
        <ele>122.8</ele>
        <time>2023-07-03T09:36:25Z</time>
      </trkpt>
      <trkpt lat="43.94044" lon="0.26885">
        <ele>122.4</ele>
        <time>2023-07-03T09:36:32Z</time>
      </trkpt>
      <trkpt lat="43.94044" lon="0.26886">
        <ele>122.6</ele>
        <time>2023-07-03T09:36:33Z</time>
      </trkpt>
      <trkpt lat="43.94045" lon="0.269">
        <ele>122.2</ele>
        <time>2023-07-03T09:36:40Z</time>
      </trkpt>
      <trkpt lat="43.94046" lon="0.26903">
        <ele>122.2</ele>
        <time>2023-07-03T09:36:42Z</time>
      </trkpt>
      <trkpt lat="43.94046" lon="0.26911">
        <ele>122.2</ele>
        <time>2023-07-03T09:36:46Z</time>
      </trkpt>
      <trkpt lat="43.94046" lon="0.26914">
        <ele>122</ele>
        <time>2023-07-03T09:36:47Z</time>
      </trkpt>
      <trkpt lat="43.94045" lon="0.26926">
        <ele>122</ele>
        <time>2023-07-03T09:36:53Z</time>
      </trkpt>
      <trkpt lat="43.94045" lon="0.26928">
        <ele>121.8</ele>
        <time>2023-07-03T09:36:54Z</time>
      </trkpt>
      <trkpt lat="43.94047" lon="0.26942">
        <ele>121.8</ele>
        <time>2023-07-03T09:37:01Z</time>
      </trkpt>
      <trkpt lat="43.94047" lon="0.26959">
        <ele>121.8</ele>
        <time>2023-07-03T09:37:10Z</time>
      </trkpt>
      <trkpt lat="43.94047" lon="0.26965">
        <ele>121.8</ele>
        <time>2023-07-03T09:37:13Z</time>
      </trkpt>
      <trkpt lat="43.94048" lon="0.26969">
        <ele>122</ele>
        <time>2023-07-03T09:37:15Z</time>
      </trkpt>
      <trkpt lat="43.94049" lon="0.26979">
        <ele>121.8</ele>
        <time>2023-07-03T09:37:20Z</time>
      </trkpt>
      <trkpt lat="43.94049" lon="0.26983">
        <ele>121.8</ele>
        <time>2023-07-03T09:37:22Z</time>
      </trkpt>
      <trkpt lat="43.94049" lon="0.26991">
        <ele>121.6</ele>
        <time>2023-07-03T09:37:26Z</time>
      </trkpt>
      <trkpt lat="43.94048" lon="0.27009">
        <ele>121.2</ele>
        <time>2023-07-03T09:37:35Z</time>
      </trkpt>
      <trkpt lat="43.94048" lon="0.27011">
        <ele>121.2</ele>
        <time>2023-07-03T09:37:36Z</time>
      </trkpt>
      <trkpt lat="43.94048" lon="0.27013">
        <ele>121.2</ele>
        <time>2023-07-03T09:37:37Z</time>
      </trkpt>
      <trkpt lat="43.94047" lon="0.27027">
        <ele>121.4</ele>
        <time>2023-07-03T09:37:44Z</time>
      </trkpt>
      <trkpt lat="43.94045" lon="0.27049">
        <ele>121.4</ele>
        <time>2023-07-03T09:37:55Z</time>
      </trkpt>
      <trkpt lat="43.94045" lon="0.27065">
        <ele>121.4</ele>
        <time>2023-07-03T09:38:03Z</time>
      </trkpt>
      <trkpt lat="43.94044" lon="0.27077">
        <ele>121.4</ele>
        <time>2023-07-03T09:38:10Z</time>
      </trkpt>
      <trkpt lat="43.94044" lon="0.27093">
        <ele>121.6</ele>
        <time>2023-07-03T09:38:18Z</time>
      </trkpt>
      <trkpt lat="43.94044" lon="0.27095">
        <ele>121.8</ele>
        <time>2023-07-03T09:38:19Z</time>
      </trkpt>
      <trkpt lat="43.94042" lon="0.27117">
        <ele>121.8</ele>
        <time>2023-07-03T09:38:30Z</time>
      </trkpt>
      <trkpt lat="43.94042" lon="0.27137">
        <ele>122</ele>
        <time>2023-07-03T09:38:40Z</time>
      </trkpt>
      <trkpt lat="43.94041" lon="0.27158">
        <ele>122.2</ele>
        <time>2023-07-03T09:38:51Z</time>
      </trkpt>
      <trkpt lat="43.94039" lon="0.27167">
        <ele>122.2</ele>
        <time>2023-07-03T09:38:56Z</time>
      </trkpt>
      <trkpt lat="43.94039" lon="0.27171">
        <ele>122</ele>
        <time>2023-07-03T09:38:58Z</time>
      </trkpt>
      <trkpt lat="43.94032" lon="0.27184">
        <ele>121.8</ele>
        <time>2023-07-03T09:39:06Z</time>
      </trkpt>
      <trkpt lat="43.94026" lon="0.27187">
        <ele>121.6</ele>
        <time>2023-07-03T09:39:11Z</time>
      </trkpt>
      <trkpt lat="43.94022" lon="0.2719">
        <ele>121.6</ele>
        <time>2023-07-03T09:39:14Z</time>
      </trkpt>
      <trkpt lat="43.9401" lon="0.27197">
        <ele>121.2</ele>
        <time>2023-07-03T09:39:23Z</time>
      </trkpt>
      <trkpt lat="43.93997" lon="0.27207">
        <ele>120.8</ele>
        <time>2023-07-03T09:39:33Z</time>
      </trkpt>
      <trkpt lat="43.93995" lon="0.27208">
        <ele>120.8</ele>
        <time>2023-07-03T09:39:34Z</time>
      </trkpt>
      <trkpt lat="43.93986" lon="0.27217">
        <ele>120</ele>
        <time>2023-07-03T09:39:42Z</time>
      </trkpt>
      <trkpt lat="43.93984" lon="0.27218">
        <ele>119.8</ele>
        <time>2023-07-03T09:39:44Z</time>
      </trkpt>
      <trkpt lat="43.93978" lon="0.27223">
        <ele>119.2</ele>
        <time>2023-07-03T09:39:50Z</time>
      </trkpt>
      <trkpt lat="43.93973" lon="0.27227">
        <ele>118.8</ele>
        <time>2023-07-03T09:39:54Z</time>
      </trkpt>
      <trkpt lat="43.93969" lon="0.27229">
        <ele>118</ele>
        <time>2023-07-03T09:39:57Z</time>
      </trkpt>
      <trkpt lat="43.93967" lon="0.2723">
        <ele>117.8</ele>
        <time>2023-07-03T09:39:59Z</time>
      </trkpt>
      <trkpt lat="43.93964" lon="0.27232">
        <ele>117.6</ele>
        <time>2023-07-03T09:40:01Z</time>
      </trkpt>
      <trkpt lat="43.93958" lon="0.27237">
        <ele>116.4</ele>
        <time>2023-07-03T09:40:05Z</time>
      </trkpt>
      <trkpt lat="43.93956" lon="0.27238">
        <ele>116.2</ele>
        <time>2023-07-03T09:40:06Z</time>
      </trkpt>
      <trkpt lat="43.93951" lon="0.27242">
        <ele>115.8</ele>
        <time>2023-07-03T09:40:10Z</time>
      </trkpt>
      <trkpt lat="43.93948" lon="0.27244">
        <ele>115.4</ele>
        <time>2023-07-03T09:40:12Z</time>
      </trkpt>
      <trkpt lat="43.93946" lon="0.27246">
        <ele>115</ele>
        <time>2023-07-03T09:40:14Z</time>
      </trkpt>
      <trkpt lat="43.93935" lon="0.27253">
        <ele>114.2</ele>
        <time>2023-07-03T09:40:22Z</time>
      </trkpt>
      <trkpt lat="43.93932" lon="0.27255">
        <ele>114</ele>
        <time>2023-07-03T09:40:24Z</time>
      </trkpt>
      <trkpt lat="43.93931" lon="0.27255">
        <ele>113.8</ele>
        <time>2023-07-03T09:40:25Z</time>
      </trkpt>
      <trkpt lat="43.93926" lon="0.27261">
        <ele>113.2</ele>
        <time>2023-07-03T09:40:30Z</time>
      </trkpt>
      <trkpt lat="43.93923" lon="0.27262">
        <ele>113</ele>
        <time>2023-07-03T09:40:32Z</time>
      </trkpt>
      <trkpt lat="43.93921" lon="0.27264">
        <ele>112.6</ele>
        <time>2023-07-03T09:40:35Z</time>
      </trkpt>
      <trkpt lat="43.9392" lon="0.27265">
        <ele>112.2</ele>
        <time>2023-07-03T09:40:36Z</time>
      </trkpt>
      <trkpt lat="43.93919" lon="0.27266">
        <ele>112</ele>
        <time>2023-07-03T09:40:37Z</time>
      </trkpt>
      <trkpt lat="43.93917" lon="0.27267">
        <ele>111.6</ele>
        <time>2023-07-03T09:40:39Z</time>
      </trkpt>
      <trkpt lat="43.93909" lon="0.27274">
        <ele>110.8</ele>
        <time>2023-07-03T09:40:45Z</time>
      </trkpt>
      <trkpt lat="43.93903" lon="0.27278">
        <ele>110.6</ele>
        <time>2023-07-03T09:40:49Z</time>
      </trkpt>
      <trkpt lat="43.93894" lon="0.27284">
        <ele>109.8</ele>
        <time>2023-07-03T09:40:55Z</time>
      </trkpt>
      <trkpt lat="43.9389" lon="0.27286">
        <ele>109.4</ele>
        <time>2023-07-03T09:40:58Z</time>
      </trkpt>
      <trkpt lat="43.93883" lon="0.2729">
        <ele>108.6</ele>
        <time>2023-07-03T09:41:05Z</time>
      </trkpt>
      <trkpt lat="43.93881" lon="0.2729">
        <ele>108.4</ele>
        <time>2023-07-03T09:41:06Z</time>
      </trkpt>
      <trkpt lat="43.93877" lon="0.27291">
        <ele>107.8</ele>
        <time>2023-07-03T09:41:09Z</time>
      </trkpt>
      <trkpt lat="43.93876" lon="0.27292">
        <ele>107.4</ele>
        <time>2023-07-03T09:41:10Z</time>
      </trkpt>
      <trkpt lat="43.93871" lon="0.27294">
        <ele>106.8</ele>
        <time>2023-07-03T09:41:13Z</time>
      </trkpt>
      <trkpt lat="43.93863" lon="0.27298">
        <ele>106.4</ele>
        <time>2023-07-03T09:41:19Z</time>
      </trkpt>
      <trkpt lat="43.93853" lon="0.27303">
        <ele>106.4</ele>
        <time>2023-07-03T09:41:26Z</time>
      </trkpt>
      <trkpt lat="43.93852" lon="0.27304">
        <ele>106.4</ele>
        <time>2023-07-03T09:41:27Z</time>
      </trkpt>
      <trkpt lat="43.93841" lon="0.27312">
        <ele>106.2</ele>
        <time>2023-07-03T09:41:35Z</time>
      </trkpt>
      <trkpt lat="43.93833" lon="0.27321">
        <ele>106</ele>
        <time>2023-07-03T09:41:44Z</time>
      </trkpt>
      <trkpt lat="43.93826" lon="0.27329">
        <ele>106.8</ele>
        <time>2023-07-03T09:41:52Z</time>
      </trkpt>
      <trkpt lat="43.93817" lon="0.27337">
        <ele>107.2</ele>
        <time>2023-07-03T09:42:00Z</time>
      </trkpt>
      <trkpt lat="43.93813" lon="0.27342">
        <ele>107.4</ele>
        <time>2023-07-03T09:42:04Z</time>
      </trkpt>
      <trkpt lat="43.93809" lon="0.27344">
        <ele>107.6</ele>
        <time>2023-07-03T09:42:07Z</time>
      </trkpt>
      <trkpt lat="43.93807" lon="0.27346">
        <ele>107.6</ele>
        <time>2023-07-03T09:42:09Z</time>
      </trkpt>
      <trkpt lat="43.93804" lon="0.27348">
        <ele>107.6</ele>
        <time>2023-07-03T09:42:11Z</time>
      </trkpt>
      <trkpt lat="43.93803" lon="0.2735">
        <ele>107.6</ele>
        <time>2023-07-03T09:42:12Z</time>
      </trkpt>
      <trkpt lat="43.93803" lon="0.27351">
        <ele>107.6</ele>
        <time>2023-07-03T09:42:13Z</time>
      </trkpt>
      <trkpt lat="43.938" lon="0.27353">
        <ele>107.6</ele>
        <time>2023-07-03T09:42:15Z</time>
      </trkpt>
      <trkpt lat="43.93791" lon="0.2736">
        <ele>107.6</ele>
        <time>2023-07-03T09:42:23Z</time>
      </trkpt>
      <trkpt lat="43.93785" lon="0.27364">
        <ele>107.8</ele>
        <time>2023-07-03T09:42:29Z</time>
      </trkpt>
      <trkpt lat="43.93784" lon="0.27366">
        <ele>107.8</ele>
        <time>2023-07-03T09:42:30Z</time>
      </trkpt>
      <trkpt lat="43.93782" lon="0.27367">
        <ele>107.8</ele>
        <time>2023-07-03T09:42:31Z</time>
      </trkpt>
      <trkpt lat="43.93781" lon="0.27368">
        <ele>107.8</ele>
        <time>2023-07-03T09:42:32Z</time>
      </trkpt>
      <trkpt lat="43.9378" lon="0.27369">
        <ele>107.6</ele>
        <time>2023-07-03T09:42:33Z</time>
      </trkpt>
      <trkpt lat="43.93775" lon="0.27373">
        <ele>107.4</ele>
        <time>2023-07-03T09:42:38Z</time>
      </trkpt>
      <trkpt lat="43.93768" lon="0.27375">
        <ele>107.6</ele>
        <time>2023-07-03T09:42:42Z</time>
      </trkpt>
      <trkpt lat="43.93766" lon="0.27378">
        <ele>107.6</ele>
        <time>2023-07-03T09:42:45Z</time>
      </trkpt>
      <trkpt lat="43.93758" lon="0.27388">
        <ele>107.6</ele>
        <time>2023-07-03T09:42:53Z</time>
      </trkpt>
      <trkpt lat="43.9375" lon="0.27395">
        <ele>107.8</ele>
        <time>2023-07-03T09:43:00Z</time>
      </trkpt>
      <trkpt lat="43.93739" lon="0.27405">
        <ele>108.4</ele>
        <time>2023-07-03T09:43:09Z</time>
      </trkpt>
      <trkpt lat="43.93738" lon="0.27407">
        <ele>108.4</ele>
        <time>2023-07-03T09:43:10Z</time>
      </trkpt>
      <trkpt lat="43.93727" lon="0.27417">
        <ele>108.4</ele>
        <time>2023-07-03T09:43:18Z</time>
      </trkpt>
      <trkpt lat="43.93716" lon="0.27425">
        <ele>108.6</ele>
        <time>2023-07-03T09:43:26Z</time>
      </trkpt>
      <trkpt lat="43.93704" lon="0.27439">
        <ele>108.8</ele>
        <time>2023-07-03T09:43:36Z</time>
      </trkpt>
      <trkpt lat="43.93693" lon="0.27448">
        <ele>108.8</ele>
        <time>2023-07-03T09:43:45Z</time>
      </trkpt>
      <trkpt lat="43.93684" lon="0.27456">
        <ele>109.4</ele>
        <time>2023-07-03T09:43:53Z</time>
      </trkpt>
      <trkpt lat="43.93681" lon="0.2746">
        <ele>109.8</ele>
        <time>2023-07-03T09:43:56Z</time>
      </trkpt>
      <trkpt lat="43.93672" lon="0.27468">
        <ele>109.8</ele>
        <time>2023-07-03T09:44:05Z</time>
      </trkpt>
      <trkpt lat="43.93665" lon="0.27476">
        <ele>110.4</ele>
        <time>2023-07-03T09:44:11Z</time>
      </trkpt>
      <trkpt lat="43.93661" lon="0.2748">
        <ele>110.6</ele>
        <time>2023-07-03T09:44:15Z</time>
      </trkpt>
      <trkpt lat="43.93658" lon="0.27482">
        <ele>110.6</ele>
        <time>2023-07-03T09:44:18Z</time>
      </trkpt>
      <trkpt lat="43.93651" lon="0.27488">
        <ele>111.4</ele>
        <time>2023-07-03T09:44:24Z</time>
      </trkpt>
      <trkpt lat="43.9365" lon="0.27489">
        <ele>111.4</ele>
        <time>2023-07-03T09:44:25Z</time>
      </trkpt>
      <trkpt lat="43.93645" lon="0.27495">
        <ele>111.4</ele>
        <time>2023-07-03T09:44:30Z</time>
      </trkpt>
      <trkpt lat="43.93642" lon="0.27498">
        <ele>112</ele>
        <time>2023-07-03T09:44:33Z</time>
      </trkpt>
      <trkpt lat="43.93638" lon="0.27503">
        <ele>112.4</ele>
        <time>2023-07-03T09:44:38Z</time>
      </trkpt>
      <trkpt lat="43.93636" lon="0.27505">
        <ele>112.4</ele>
        <time>2023-07-03T09:44:40Z</time>
      </trkpt>
      <trkpt lat="43.93631" lon="0.27512">
        <ele>113</ele>
        <time>2023-07-03T09:44:45Z</time>
      </trkpt>
      <trkpt lat="43.93626" lon="0.27516">
        <ele>113.6</ele>
        <time>2023-07-03T09:44:50Z</time>
      </trkpt>
      <trkpt lat="43.93624" lon="0.27517">
        <ele>113.8</ele>
        <time>2023-07-03T09:44:52Z</time>
      </trkpt>
      <trkpt lat="43.93622" lon="0.27519">
        <ele>113.8</ele>
        <time>2023-07-03T09:44:54Z</time>
      </trkpt>
      <trkpt lat="43.93622" lon="0.2752">
        <ele>114</ele>
        <time>2023-07-03T09:44:55Z</time>
      </trkpt>
      <trkpt lat="43.93619" lon="0.27526">
        <ele>114.2</ele>
        <time>2023-07-03T09:44:58Z</time>
      </trkpt>
      <trkpt lat="43.93618" lon="0.27532">
        <ele>114.4</ele>
        <time>2023-07-03T09:45:02Z</time>
      </trkpt>
      <trkpt lat="43.93619" lon="0.27534">
        <ele>114.4</ele>
        <time>2023-07-03T09:45:03Z</time>
      </trkpt>
      <trkpt lat="43.93621" lon="0.27546">
        <ele>114</ele>
        <time>2023-07-03T09:45:10Z</time>
      </trkpt>
      <trkpt lat="43.93623" lon="0.27557">
        <ele>113.6</ele>
        <time>2023-07-03T09:45:16Z</time>
      </trkpt>
      <trkpt lat="43.93623" lon="0.27562">
        <ele>113.6</ele>
        <time>2023-07-03T09:45:19Z</time>
      </trkpt>
      <trkpt lat="43.93624" lon="0.27564">
        <ele>113.6</ele>
        <time>2023-07-03T09:45:20Z</time>
      </trkpt>
      <trkpt lat="43.93624" lon="0.27566">
        <ele>113.6</ele>
        <time>2023-07-03T09:45:21Z</time>
      </trkpt>
      <trkpt lat="43.93624" lon="0.27574">
        <ele>113.4</ele>
        <time>2023-07-03T09:45:25Z</time>
      </trkpt>
      <trkpt lat="43.93623" lon="0.27592">
        <ele>113</ele>
        <time>2023-07-03T09:45:34Z</time>
      </trkpt>
      <trkpt lat="43.93625" lon="0.27607">
        <ele>113.2</ele>
        <time>2023-07-03T09:45:42Z</time>
      </trkpt>
      <trkpt lat="43.93625" lon="0.27608">
        <ele>113.2</ele>
        <time>2023-07-03T09:45:43Z</time>
      </trkpt>
      <trkpt lat="43.93626" lon="0.27612">
        <ele>113.2</ele>
        <time>2023-07-03T09:45:45Z</time>
      </trkpt>
      <trkpt lat="43.93627" lon="0.27621">
        <ele>113.2</ele>
        <time>2023-07-03T09:45:50Z</time>
      </trkpt>
      <trkpt lat="43.93631" lon="0.27636">
        <ele>112.8</ele>
        <time>2023-07-03T09:45:57Z</time>
      </trkpt>
      <trkpt lat="43.93632" lon="0.27638">
        <ele>112.8</ele>
        <time>2023-07-03T09:45:58Z</time>
      </trkpt>
      <trkpt lat="43.93634" lon="0.27647">
        <ele>112.4</ele>
        <time>2023-07-03T09:46:03Z</time>
      </trkpt>
      <trkpt lat="43.93634" lon="0.27648">
        <ele>112.4</ele>
        <time>2023-07-03T09:46:04Z</time>
      </trkpt>
      <trkpt lat="43.93634" lon="0.2765">
        <ele>112.4</ele>
        <time>2023-07-03T09:46:05Z</time>
      </trkpt>
      <trkpt lat="43.93634" lon="0.27652">
        <ele>112.4</ele>
        <time>2023-07-03T09:46:06Z</time>
      </trkpt>
      <trkpt lat="43.93635" lon="0.27654">
        <ele>112.4</ele>
        <time>2023-07-03T09:46:07Z</time>
      </trkpt>
      <trkpt lat="43.93635" lon="0.27656">
        <ele>112.4</ele>
        <time>2023-07-03T09:46:08Z</time>
      </trkpt>
      <trkpt lat="43.93635" lon="0.27659">
        <ele>112.6</ele>
        <time>2023-07-03T09:46:10Z</time>
      </trkpt>
      <trkpt lat="43.93635" lon="0.27661">
        <ele>112.6</ele>
        <time>2023-07-03T09:46:11Z</time>
      </trkpt>
      <trkpt lat="43.93635" lon="0.27663">
        <ele>112.6</ele>
        <time>2023-07-03T09:46:12Z</time>
      </trkpt>
      <trkpt lat="43.93636" lon="0.27665">
        <ele>112.6</ele>
        <time>2023-07-03T09:46:13Z</time>
      </trkpt>
      <trkpt lat="43.93636" lon="0.27667">
        <ele>112.6</ele>
        <time>2023-07-03T09:46:14Z</time>
      </trkpt>
      <trkpt lat="43.93637" lon="0.27669">
        <ele>112.6</ele>
        <time>2023-07-03T09:46:15Z</time>
      </trkpt>
      <trkpt lat="43.93638" lon="0.27677">
        <ele>112.6</ele>
        <time>2023-07-03T09:46:20Z</time>
      </trkpt>
      <trkpt lat="43.93641" lon="0.27685">
        <ele>112.2</ele>
        <time>2023-07-03T09:46:24Z</time>
      </trkpt>
      <trkpt lat="43.93642" lon="0.27693">
        <ele>112.2</ele>
        <time>2023-07-03T09:46:28Z</time>
      </trkpt>
      <trkpt lat="43.93643" lon="0.27697">
        <ele>112.2</ele>
        <time>2023-07-03T09:46:30Z</time>
      </trkpt>
      <trkpt lat="43.93645" lon="0.27708">
        <ele>112</ele>
        <time>2023-07-03T09:46:36Z</time>
      </trkpt>
      <trkpt lat="43.93645" lon="0.2771">
        <ele>112</ele>
        <time>2023-07-03T09:46:37Z</time>
      </trkpt>
      <trkpt lat="43.93649" lon="0.27727">
        <ele>111.8</ele>
        <time>2023-07-03T09:46:46Z</time>
      </trkpt>
      <trkpt lat="43.9365" lon="0.27731">
        <ele>111.6</ele>
        <time>2023-07-03T09:46:48Z</time>
      </trkpt>
      <trkpt lat="43.93651" lon="0.27736">
        <ele>111.6</ele>
        <time>2023-07-03T09:46:51Z</time>
      </trkpt>
      <trkpt lat="43.93653" lon="0.27748">
        <ele>111.6</ele>
        <time>2023-07-03T09:46:57Z</time>
      </trkpt>
      <trkpt lat="43.93657" lon="0.27763">
        <ele>111.6</ele>
        <time>2023-07-03T09:47:05Z</time>
      </trkpt>
      <trkpt lat="43.9366" lon="0.27774">
        <ele>111.4</ele>
        <time>2023-07-03T09:47:11Z</time>
      </trkpt>
      <trkpt lat="43.9366" lon="0.27776">
        <ele>111.4</ele>
        <time>2023-07-03T09:47:12Z</time>
      </trkpt>
      <trkpt lat="43.93661" lon="0.2778">
        <ele>111.4</ele>
        <time>2023-07-03T09:47:14Z</time>
      </trkpt>
      <trkpt lat="43.93662" lon="0.27781">
        <ele>111.4</ele>
        <time>2023-07-03T09:47:15Z</time>
      </trkpt>
      <trkpt lat="43.93662" lon="0.27785">
        <ele>111</ele>
        <time>2023-07-03T09:47:17Z</time>
      </trkpt>
      <trkpt lat="43.93663" lon="0.27787">
        <ele>110.8</ele>
        <time>2023-07-03T09:47:18Z</time>
      </trkpt>
      <trkpt lat="43.93665" lon="0.27794">
        <ele>110.6</ele>
        <time>2023-07-03T09:47:22Z</time>
      </trkpt>
      <trkpt lat="43.93668" lon="0.27801">
        <ele>110.6</ele>
        <time>2023-07-03T09:47:26Z</time>
      </trkpt>
      <trkpt lat="43.93669" lon="0.27802">
        <ele>110.6</ele>
        <time>2023-07-03T09:47:27Z</time>
      </trkpt>
      <trkpt lat="43.93669" lon="0.27803">
        <ele>110.6</ele>
        <time>2023-07-03T09:47:28Z</time>
      </trkpt>
      <trkpt lat="43.93672" lon="0.27813">
        <ele>110.4</ele>
        <time>2023-07-03T09:47:34Z</time>
      </trkpt>
      <trkpt lat="43.93673" lon="0.27815">
        <ele>110.2</ele>
        <time>2023-07-03T09:47:35Z</time>
      </trkpt>
      <trkpt lat="43.93675" lon="0.27824">
        <ele>109.8</ele>
        <time>2023-07-03T09:47:41Z</time>
      </trkpt>
      <trkpt lat="43.93681" lon="0.27834">
        <ele>109.8</ele>
        <time>2023-07-03T09:47:49Z</time>
      </trkpt>
      <trkpt lat="43.93686" lon="0.27843">
        <ele>109.6</ele>
        <time>2023-07-03T09:47:54Z</time>
      </trkpt>
      <trkpt lat="43.93686" lon="0.27845">
        <ele>109.6</ele>
        <time>2023-07-03T09:47:55Z</time>
      </trkpt>
      <trkpt lat="43.93688" lon="0.27853">
        <ele>109.6</ele>
        <time>2023-07-03T09:47:59Z</time>
      </trkpt>
      <trkpt lat="43.9369" lon="0.27856">
        <ele>109.6</ele>
        <time>2023-07-03T09:48:01Z</time>
      </trkpt>
      <trkpt lat="43.93696" lon="0.2787">
        <ele>109.4</ele>
        <time>2023-07-03T09:48:09Z</time>
      </trkpt>
      <trkpt lat="43.93698" lon="0.27875">
        <ele>109.6</ele>
        <time>2023-07-03T09:48:13Z</time>
      </trkpt>
      <trkpt lat="43.937" lon="0.2788">
        <ele>109.8</ele>
        <time>2023-07-03T09:48:16Z</time>
      </trkpt>
      <trkpt lat="43.93703" lon="0.27889">
        <ele>109.8</ele>
        <time>2023-07-03T09:48:22Z</time>
      </trkpt>
      <trkpt lat="43.93707" lon="0.27898">
        <ele>109.8</ele>
        <time>2023-07-03T09:48:27Z</time>
      </trkpt>
      <trkpt lat="43.93708" lon="0.27903">
        <ele>109.6</ele>
        <time>2023-07-03T09:48:30Z</time>
      </trkpt>
      <trkpt lat="43.93708" lon="0.27905">
        <ele>109.6</ele>
        <time>2023-07-03T09:48:31Z</time>
      </trkpt>
      <trkpt lat="43.93712" lon="0.27913">
        <ele>109.2</ele>
        <time>2023-07-03T09:48:36Z</time>
      </trkpt>
      <trkpt lat="43.93713" lon="0.27914">
        <ele>109</ele>
        <time>2023-07-03T09:48:37Z</time>
      </trkpt>
      <trkpt lat="43.93715" lon="0.27917">
        <ele>108.8</ele>
        <time>2023-07-03T09:48:39Z</time>
      </trkpt>
      <trkpt lat="43.93716" lon="0.27919">
        <ele>108.8</ele>
        <time>2023-07-03T09:48:40Z</time>
      </trkpt>
      <trkpt lat="43.93718" lon="0.2792">
        <ele>108.8</ele>
        <time>2023-07-03T09:48:41Z</time>
      </trkpt>
      <trkpt lat="43.93723" lon="0.27929">
        <ele>109.2</ele>
        <time>2023-07-03T09:48:46Z</time>
      </trkpt>
      <trkpt lat="43.93724" lon="0.27931">
        <ele>109.2</ele>
        <time>2023-07-03T09:48:47Z</time>
      </trkpt>
      <trkpt lat="43.93725" lon="0.27935">
        <ele>109</ele>
        <time>2023-07-03T09:48:49Z</time>
      </trkpt>
      <trkpt lat="43.93728" lon="0.27942">
        <ele>109</ele>
        <time>2023-07-03T09:48:53Z</time>
      </trkpt>
      <trkpt lat="43.93729" lon="0.27947">
        <ele>109</ele>
        <time>2023-07-03T09:48:56Z</time>
      </trkpt>
      <trkpt lat="43.93733" lon="0.27954">
        <ele>108.8</ele>
        <time>2023-07-03T09:49:01Z</time>
      </trkpt>
      <trkpt lat="43.93732" lon="0.27956">
        <ele>109</ele>
        <time>2023-07-03T09:49:02Z</time>
      </trkpt>
      <trkpt lat="43.93733" lon="0.2796">
        <ele>109.2</ele>
        <time>2023-07-03T09:49:05Z</time>
      </trkpt>
      <trkpt lat="43.93732" lon="0.27963">
        <ele>109.2</ele>
        <time>2023-07-03T09:49:07Z</time>
      </trkpt>
      <trkpt lat="43.93734" lon="0.27967">
        <ele>109.2</ele>
        <time>2023-07-03T09:49:09Z</time>
      </trkpt>
      <trkpt lat="43.93738" lon="0.27972">
        <ele>109</ele>
        <time>2023-07-03T09:49:13Z</time>
      </trkpt>
      <trkpt lat="43.93743" lon="0.27978">
        <ele>108.8</ele>
        <time>2023-07-03T09:49:17Z</time>
      </trkpt>
      <trkpt lat="43.93745" lon="0.27981">
        <ele>109</ele>
        <time>2023-07-03T09:49:19Z</time>
      </trkpt>
      <trkpt lat="43.93751" lon="0.27992">
        <ele>109.6</ele>
        <time>2023-07-03T09:49:26Z</time>
      </trkpt>
      <trkpt lat="43.93753" lon="0.27996">
        <ele>109.4</ele>
        <time>2023-07-03T09:49:29Z</time>
      </trkpt>
      <trkpt lat="43.93753" lon="0.27998">
        <ele>109.4</ele>
        <time>2023-07-03T09:49:30Z</time>
      </trkpt>
      <trkpt lat="43.93754" lon="0.28002">
        <ele>109.4</ele>
        <time>2023-07-03T09:49:33Z</time>
      </trkpt>
      <trkpt lat="43.93759" lon="0.28011">
        <ele>109.4</ele>
        <time>2023-07-03T09:49:39Z</time>
      </trkpt>
      <trkpt lat="43.93759" lon="0.28013">
        <ele>109.4</ele>
        <time>2023-07-03T09:49:40Z</time>
      </trkpt>
      <trkpt lat="43.9376" lon="0.28017">
        <ele>109.4</ele>
        <time>2023-07-03T09:49:42Z</time>
      </trkpt>
      <trkpt lat="43.93763" lon="0.28027">
        <ele>109</ele>
        <time>2023-07-03T09:49:47Z</time>
      </trkpt>
      <trkpt lat="43.93771" lon="0.28041">
        <ele>108.4</ele>
        <time>2023-07-03T09:49:56Z</time>
      </trkpt>
      <trkpt lat="43.93774" lon="0.28051">
        <ele>108.4</ele>
        <time>2023-07-03T09:50:02Z</time>
      </trkpt>
      <trkpt lat="43.93774" lon="0.28054">
        <ele>108.4</ele>
        <time>2023-07-03T09:50:04Z</time>
      </trkpt>
      <trkpt lat="43.93776" lon="0.28057">
        <ele>108.2</ele>
        <time>2023-07-03T09:50:06Z</time>
      </trkpt>
      <trkpt lat="43.93777" lon="0.28061">
        <ele>108</ele>
        <time>2023-07-03T09:50:08Z</time>
      </trkpt>
      <trkpt lat="43.93783" lon="0.28072">
        <ele>107.8</ele>
        <time>2023-07-03T09:50:15Z</time>
      </trkpt>
      <trkpt lat="43.93783" lon="0.28074">
        <ele>107.8</ele>
        <time>2023-07-03T09:50:16Z</time>
      </trkpt>
      <trkpt lat="43.93784" lon="0.28076">
        <ele>108</ele>
        <time>2023-07-03T09:50:17Z</time>
      </trkpt>
      <trkpt lat="43.93787" lon="0.28083">
        <ele>108.4</ele>
        <time>2023-07-03T09:50:21Z</time>
      </trkpt>
      <trkpt lat="43.93791" lon="0.28092">
        <ele>108.6</ele>
        <time>2023-07-03T09:50:26Z</time>
      </trkpt>
      <trkpt lat="43.93799" lon="0.28099">
        <ele>108.4</ele>
        <time>2023-07-03T09:50:33Z</time>
      </trkpt>
      <trkpt lat="43.93801" lon="0.28103">
        <ele>108.6</ele>
        <time>2023-07-03T09:50:37Z</time>
      </trkpt>
      <trkpt lat="43.93802" lon="0.28108">
        <ele>108.6</ele>
        <time>2023-07-03T09:50:39Z</time>
      </trkpt>
      <trkpt lat="43.93807" lon="0.2812">
        <ele>108.6</ele>
        <time>2023-07-03T09:50:45Z</time>
      </trkpt>
      <trkpt lat="43.93812" lon="0.28129">
        <ele>108.6</ele>
        <time>2023-07-03T09:50:52Z</time>
      </trkpt>
      <trkpt lat="43.93814" lon="0.28135">
        <ele>108.6</ele>
        <time>2023-07-03T09:50:56Z</time>
      </trkpt>
      <trkpt lat="43.93815" lon="0.28136">
        <ele>108.6</ele>
        <time>2023-07-03T09:50:57Z</time>
      </trkpt>
      <trkpt lat="43.93815" lon="0.28138">
        <ele>108.6</ele>
        <time>2023-07-03T09:50:58Z</time>
      </trkpt>
      <trkpt lat="43.93819" lon="0.28145">
        <ele>108.6</ele>
        <time>2023-07-03T09:51:02Z</time>
      </trkpt>
      <trkpt lat="43.93819" lon="0.28147">
        <ele>108.6</ele>
        <time>2023-07-03T09:51:03Z</time>
      </trkpt>
      <trkpt lat="43.9382" lon="0.28151">
        <ele>108.8</ele>
        <time>2023-07-03T09:51:05Z</time>
      </trkpt>
      <trkpt lat="43.93825" lon="0.28163">
        <ele>109</ele>
        <time>2023-07-03T09:51:13Z</time>
      </trkpt>
      <trkpt lat="43.93826" lon="0.28165">
        <ele>109.2</ele>
        <time>2023-07-03T09:51:14Z</time>
      </trkpt>
      <trkpt lat="43.93827" lon="0.28169">
        <ele>109.2</ele>
        <time>2023-07-03T09:51:16Z</time>
      </trkpt>
      <trkpt lat="43.93832" lon="0.28179">
        <ele>109.4</ele>
        <time>2023-07-03T09:51:21Z</time>
      </trkpt>
      <trkpt lat="43.93833" lon="0.28191">
        <ele>109.2</ele>
        <time>2023-07-03T09:51:28Z</time>
      </trkpt>
      <trkpt lat="43.93834" lon="0.28198">
        <ele>109.2</ele>
        <time>2023-07-03T09:51:32Z</time>
      </trkpt>
      <trkpt lat="43.93835" lon="0.28203">
        <ele>109.2</ele>
        <time>2023-07-03T09:51:35Z</time>
      </trkpt>
      <trkpt lat="43.93837" lon="0.28209">
        <ele>109</ele>
        <time>2023-07-03T09:51:39Z</time>
      </trkpt>
      <trkpt lat="43.93839" lon="0.28212">
        <ele>109</ele>
        <time>2023-07-03T09:51:41Z</time>
      </trkpt>
      <trkpt lat="43.93839" lon="0.28214">
        <ele>109</ele>
        <time>2023-07-03T09:51:42Z</time>
      </trkpt>
      <trkpt lat="43.9384" lon="0.28219">
        <ele>109</ele>
        <time>2023-07-03T09:51:45Z</time>
      </trkpt>
      <trkpt lat="43.93843" lon="0.28228">
        <ele>108.6</ele>
        <time>2023-07-03T09:51:50Z</time>
      </trkpt>
      <trkpt lat="43.93848" lon="0.28238">
        <ele>109</ele>
        <time>2023-07-03T09:51:57Z</time>
      </trkpt>
      <trkpt lat="43.93854" lon="0.28248">
        <ele>108.6</ele>
        <time>2023-07-03T09:52:04Z</time>
      </trkpt>
      <trkpt lat="43.93859" lon="0.28255">
        <ele>108.6</ele>
        <time>2023-07-03T09:52:08Z</time>
      </trkpt>
      <trkpt lat="43.93861" lon="0.28264">
        <ele>108.6</ele>
        <time>2023-07-03T09:52:12Z</time>
      </trkpt>
      <trkpt lat="43.93865" lon="0.28275">
        <ele>108.4</ele>
        <time>2023-07-03T09:52:18Z</time>
      </trkpt>
      <trkpt lat="43.93866" lon="0.28278">
        <ele>108.2</ele>
        <time>2023-07-03T09:52:20Z</time>
      </trkpt>
      <trkpt lat="43.93866" lon="0.2828">
        <ele>108.2</ele>
        <time>2023-07-03T09:52:21Z</time>
      </trkpt>
      <trkpt lat="43.93867" lon="0.28283">
        <ele>108</ele>
        <time>2023-07-03T09:52:23Z</time>
      </trkpt>
      <trkpt lat="43.93868" lon="0.28289">
        <ele>108</ele>
        <time>2023-07-03T09:52:26Z</time>
      </trkpt>
      <trkpt lat="43.93868" lon="0.28291">
        <ele>108.2</ele>
        <time>2023-07-03T09:52:27Z</time>
      </trkpt>
      <trkpt lat="43.93871" lon="0.28303">
        <ele>108</ele>
        <time>2023-07-03T09:52:34Z</time>
      </trkpt>
      <trkpt lat="43.93873" lon="0.28307">
        <ele>108</ele>
        <time>2023-07-03T09:52:37Z</time>
      </trkpt>
      <trkpt lat="43.93874" lon="0.28312">
        <ele>108.2</ele>
        <time>2023-07-03T09:52:40Z</time>
      </trkpt>
      <trkpt lat="43.93875" lon="0.28316">
        <ele>108</ele>
        <time>2023-07-03T09:52:42Z</time>
      </trkpt>
      <trkpt lat="43.93878" lon="0.2833">
        <ele>108</ele>
        <time>2023-07-03T09:52:49Z</time>
      </trkpt>
      <trkpt lat="43.93881" lon="0.28349">
        <ele>107.8</ele>
        <time>2023-07-03T09:52:57Z</time>
      </trkpt>
      <trkpt lat="43.93882" lon="0.28371">
        <ele>107.8</ele>
        <time>2023-07-03T09:53:07Z</time>
      </trkpt>
      <trkpt lat="43.93879" lon="0.28388">
        <ele>108.2</ele>
        <time>2023-07-03T09:53:16Z</time>
      </trkpt>
      <trkpt lat="43.93876" lon="0.28404">
        <ele>108.4</ele>
        <time>2023-07-03T09:53:25Z</time>
      </trkpt>
      <trkpt lat="43.93874" lon="0.28416">
        <ele>108.8</ele>
        <time>2023-07-03T09:53:31Z</time>
      </trkpt>
      <trkpt lat="43.93874" lon="0.28421">
        <ele>109</ele>
        <time>2023-07-03T09:53:34Z</time>
      </trkpt>
      <trkpt lat="43.93874" lon="0.28425">
        <ele>109.2</ele>
        <time>2023-07-03T09:53:36Z</time>
      </trkpt>
      <trkpt lat="43.93873" lon="0.28434">
        <ele>109.6</ele>
        <time>2023-07-03T09:53:41Z</time>
      </trkpt>
      <trkpt lat="43.93873" lon="0.28436">
        <ele>109.6</ele>
        <time>2023-07-03T09:53:42Z</time>
      </trkpt>
      <trkpt lat="43.93873" lon="0.28451">
        <ele>109.2</ele>
        <time>2023-07-03T09:53:50Z</time>
      </trkpt>
      <trkpt lat="43.93873" lon="0.28457">
        <ele>109.2</ele>
        <time>2023-07-03T09:53:53Z</time>
      </trkpt>
      <trkpt lat="43.93873" lon="0.28474">
        <ele>109.2</ele>
        <time>2023-07-03T09:54:01Z</time>
      </trkpt>
      <trkpt lat="43.93871" lon="0.28498">
        <ele>108</ele>
        <time>2023-07-03T09:54:14Z</time>
      </trkpt>
      <trkpt lat="43.93871" lon="0.28502">
        <ele>107.8</ele>
        <time>2023-07-03T09:54:16Z</time>
      </trkpt>
      <trkpt lat="43.93871" lon="0.28506">
        <ele>107.6</ele>
        <time>2023-07-03T09:54:18Z</time>
      </trkpt>
      <trkpt lat="43.93869" lon="0.28516">
        <ele>107.6</ele>
        <time>2023-07-03T09:54:23Z</time>
      </trkpt>
      <trkpt lat="43.93868" lon="0.28526">
        <ele>107</ele>
        <time>2023-07-03T09:54:28Z</time>
      </trkpt>
      <trkpt lat="43.93868" lon="0.28537">
        <ele>106.6</ele>
        <time>2023-07-03T09:54:33Z</time>
      </trkpt>
      <trkpt lat="43.93867" lon="0.28544">
        <ele>105.8</ele>
        <time>2023-07-03T09:54:37Z</time>
      </trkpt>
      <trkpt lat="43.93865" lon="0.28555">
        <ele>105</ele>
        <time>2023-07-03T09:54:43Z</time>
      </trkpt>
      <trkpt lat="43.93865" lon="0.28556">
        <ele>105</ele>
        <time>2023-07-03T09:54:44Z</time>
      </trkpt>
      <trkpt lat="43.93864" lon="0.2856">
        <ele>104.8</ele>
        <time>2023-07-03T09:54:46Z</time>
      </trkpt>
      <trkpt lat="43.93861" lon="0.28574">
        <ele>104.4</ele>
        <time>2023-07-03T09:54:53Z</time>
      </trkpt>
      <trkpt lat="43.93859" lon="0.28583">
        <ele>104</ele>
        <time>2023-07-03T09:54:58Z</time>
      </trkpt>
      <trkpt lat="43.93857" lon="0.28586">
        <ele>103.8</ele>
        <time>2023-07-03T09:55:00Z</time>
      </trkpt>
      <trkpt lat="43.93857" lon="0.28588">
        <ele>103.6</ele>
        <time>2023-07-03T09:55:01Z</time>
      </trkpt>
      <trkpt lat="43.93856" lon="0.28597">
        <ele>102.8</ele>
        <time>2023-07-03T09:55:06Z</time>
      </trkpt>
      <trkpt lat="43.93856" lon="0.28599">
        <ele>102.6</ele>
        <time>2023-07-03T09:55:07Z</time>
      </trkpt>
      <trkpt lat="43.93857" lon="0.28613">
        <ele>102.2</ele>
        <time>2023-07-03T09:55:14Z</time>
      </trkpt>
      <trkpt lat="43.93857" lon="0.28624">
        <ele>101.6</ele>
        <time>2023-07-03T09:55:20Z</time>
      </trkpt>
      <trkpt lat="43.93858" lon="0.28628">
        <ele>101.2</ele>
        <time>2023-07-03T09:55:22Z</time>
      </trkpt>
      <trkpt lat="43.93857" lon="0.28634">
        <ele>101</ele>
        <time>2023-07-03T09:55:25Z</time>
      </trkpt>
      <trkpt lat="43.93856" lon="0.28638">
        <ele>100.8</ele>
        <time>2023-07-03T09:55:27Z</time>
      </trkpt>
      <trkpt lat="43.93856" lon="0.2864">
        <ele>100.8</ele>
        <time>2023-07-03T09:55:28Z</time>
      </trkpt>
      <trkpt lat="43.93856" lon="0.28642">
        <ele>100.6</ele>
        <time>2023-07-03T09:55:29Z</time>
      </trkpt>
      <trkpt lat="43.93856" lon="0.28644">
        <ele>100.6</ele>
        <time>2023-07-03T09:55:30Z</time>
      </trkpt>
      <trkpt lat="43.93855" lon="0.28649">
        <ele>100</ele>
        <time>2023-07-03T09:55:33Z</time>
      </trkpt>
      <trkpt lat="43.93856" lon="0.28653">
        <ele>100</ele>
        <time>2023-07-03T09:55:35Z</time>
      </trkpt>
      <trkpt lat="43.93855" lon="0.28656">
        <ele>99.8</ele>
        <time>2023-07-03T09:55:37Z</time>
      </trkpt>
      <trkpt lat="43.93856" lon="0.2866">
        <ele>99.4</ele>
        <time>2023-07-03T09:55:39Z</time>
      </trkpt>
      <trkpt lat="43.93855" lon="0.2867">
        <ele>99</ele>
        <time>2023-07-03T09:55:43Z</time>
      </trkpt>
      <trkpt lat="43.93856" lon="0.28682">
        <ele>98.4</ele>
        <time>2023-07-03T09:55:50Z</time>
      </trkpt>
      <trkpt lat="43.93856" lon="0.28684">
        <ele>98.4</ele>
        <time>2023-07-03T09:55:51Z</time>
      </trkpt>
      <trkpt lat="43.93859" lon="0.28695">
        <ele>98.4</ele>
        <time>2023-07-03T09:55:58Z</time>
      </trkpt>
      <trkpt lat="43.93858" lon="0.2871">
        <ele>97.6</ele>
        <time>2023-07-03T09:56:05Z</time>
      </trkpt>
      <trkpt lat="43.93859" lon="0.28716">
        <ele>97.4</ele>
        <time>2023-07-03T09:56:08Z</time>
      </trkpt>
      <trkpt lat="43.93859" lon="0.28727">
        <ele>97.4</ele>
        <time>2023-07-03T09:56:13Z</time>
      </trkpt>
      <trkpt lat="43.93862" lon="0.28744">
        <ele>97.6</ele>
        <time>2023-07-03T09:56:21Z</time>
      </trkpt>
      <trkpt lat="43.9386" lon="0.28759">
        <ele>96.8</ele>
        <time>2023-07-03T09:56:29Z</time>
      </trkpt>
      <trkpt lat="43.93859" lon="0.28762">
        <ele>96.8</ele>
        <time>2023-07-03T09:56:31Z</time>
      </trkpt>
      <trkpt lat="43.93859" lon="0.28771">
        <ele>97</ele>
        <time>2023-07-03T09:56:36Z</time>
      </trkpt>
      <trkpt lat="43.93858" lon="0.28781">
        <ele>96.6</ele>
        <time>2023-07-03T09:56:42Z</time>
      </trkpt>
      <trkpt lat="43.93858" lon="0.28783">
        <ele>96.4</ele>
        <time>2023-07-03T09:56:43Z</time>
      </trkpt>
      <trkpt lat="43.93857" lon="0.288">
        <ele>96</ele>
        <time>2023-07-03T09:56:51Z</time>
      </trkpt>
      <trkpt lat="43.93857" lon="0.28813">
        <ele>95.6</ele>
        <time>2023-07-03T09:56:58Z</time>
      </trkpt>
      <trkpt lat="43.93855" lon="0.28825">
        <ele>95.4</ele>
        <time>2023-07-03T09:57:05Z</time>
      </trkpt>
      <trkpt lat="43.93856" lon="0.28833">
        <ele>94.8</ele>
        <time>2023-07-03T09:57:11Z</time>
      </trkpt>
      <trkpt lat="43.93857" lon="0.28835">
        <ele>94.8</ele>
        <time>2023-07-03T09:57:13Z</time>
      </trkpt>
      <trkpt lat="43.93858" lon="0.28838">
        <ele>94.8</ele>
        <time>2023-07-03T09:57:16Z</time>
      </trkpt>
      <trkpt lat="43.93857" lon="0.28845">
        <ele>94.8</ele>
        <time>2023-07-03T09:57:20Z</time>
      </trkpt>
      <trkpt lat="43.93857" lon="0.28847">
        <ele>94.8</ele>
        <time>2023-07-03T09:57:21Z</time>
      </trkpt>
      <trkpt lat="43.93858" lon="0.28855">
        <ele>95.2</ele>
        <time>2023-07-03T10:04:05Z</time>
      </trkpt>
      <trkpt lat="43.93857" lon="0.28859">
        <ele>95.2</ele>
        <time>2023-07-03T10:04:07Z</time>
      </trkpt>
      <trkpt lat="43.93855" lon="0.28865">
        <ele>96</ele>
        <time>2023-07-03T10:04:10Z</time>
      </trkpt>
      <trkpt lat="43.93854" lon="0.28871">
        <ele>96.6</ele>
        <time>2023-07-03T10:04:13Z</time>
      </trkpt>
      <trkpt lat="43.93854" lon="0.2888">
        <ele>96.4</ele>
        <time>2023-07-03T10:04:17Z</time>
      </trkpt>
      <trkpt lat="43.93852" lon="0.2889">
        <ele>96.4</ele>
        <time>2023-07-03T10:04:22Z</time>
      </trkpt>
      <trkpt lat="43.93851" lon="0.28898">
        <ele>96</ele>
        <time>2023-07-03T10:04:26Z</time>
      </trkpt>
      <trkpt lat="43.93851" lon="0.289">
        <ele>96</ele>
        <time>2023-07-03T10:04:27Z</time>
      </trkpt>
      <trkpt lat="43.93848" lon="0.28915">
        <ele>96</ele>
        <time>2023-07-03T10:04:34Z</time>
      </trkpt>
      <trkpt lat="43.93848" lon="0.28928">
        <ele>96</ele>
        <time>2023-07-03T10:04:41Z</time>
      </trkpt>
      <trkpt lat="43.93847" lon="0.2894">
        <ele>95.6</ele>
        <time>2023-07-03T10:04:47Z</time>
      </trkpt>
      <trkpt lat="43.93846" lon="0.28943">
        <ele>95.6</ele>
        <time>2023-07-03T10:04:49Z</time>
      </trkpt>
      <trkpt lat="43.93846" lon="0.28945">
        <ele>95.4</ele>
        <time>2023-07-03T10:04:50Z</time>
      </trkpt>
      <trkpt lat="43.93846" lon="0.28948">
        <ele>95.4</ele>
        <time>2023-07-03T10:04:52Z</time>
      </trkpt>
      <trkpt lat="43.93846" lon="0.2895">
        <ele>95.4</ele>
        <time>2023-07-03T10:04:53Z</time>
      </trkpt>
      <trkpt lat="43.93846" lon="0.28956">
        <ele>95.2</ele>
        <time>2023-07-03T10:04:56Z</time>
      </trkpt>
      <trkpt lat="43.93847" lon="0.2897">
        <ele>94.8</ele>
        <time>2023-07-03T10:05:04Z</time>
      </trkpt>
      <trkpt lat="43.93845" lon="0.28981">
        <ele>94.6</ele>
        <time>2023-07-03T10:05:10Z</time>
      </trkpt>
      <trkpt lat="43.93844" lon="0.28983">
        <ele>94.6</ele>
        <time>2023-07-03T10:05:12Z</time>
      </trkpt>
      <trkpt lat="43.93838" lon="0.28994">
        <ele>95.4</ele>
        <time>2023-07-03T10:05:19Z</time>
      </trkpt>
      <trkpt lat="43.93833" lon="0.29004">
        <ele>95.2</ele>
        <time>2023-07-03T10:05:26Z</time>
      </trkpt>
      <trkpt lat="43.93833" lon="0.29015">
        <ele>95</ele>
        <time>2023-07-03T10:05:33Z</time>
      </trkpt>
      <trkpt lat="43.93831" lon="0.29022">
        <ele>95</ele>
        <time>2023-07-03T10:05:37Z</time>
      </trkpt>
      <trkpt lat="43.93828" lon="0.29026">
        <ele>95</ele>
        <time>2023-07-03T10:05:39Z</time>
      </trkpt>
      <trkpt lat="43.93826" lon="0.29032">
        <ele>94.8</ele>
        <time>2023-07-03T10:05:42Z</time>
      </trkpt>
      <trkpt lat="43.93825" lon="0.29037">
        <ele>94.8</ele>
        <time>2023-07-03T10:05:44Z</time>
      </trkpt>
      <trkpt lat="43.93824" lon="0.29041">
        <ele>94.8</ele>
        <time>2023-07-03T10:05:46Z</time>
      </trkpt>
      <trkpt lat="43.93823" lon="0.29043">
        <ele>94.8</ele>
        <time>2023-07-03T10:05:47Z</time>
      </trkpt>
      <trkpt lat="43.93827" lon="0.2905">
        <ele>94.8</ele>
        <time>2023-07-03T10:05:52Z</time>
      </trkpt>
      <trkpt lat="43.93826" lon="0.29056">
        <ele>94.6</ele>
        <time>2023-07-03T10:05:55Z</time>
      </trkpt>
      <trkpt lat="43.93822" lon="0.29062">
        <ele>94.6</ele>
        <time>2023-07-03T10:05:58Z</time>
      </trkpt>
      <trkpt lat="43.93821" lon="0.29064">
        <ele>94.6</ele>
        <time>2023-07-03T10:05:59Z</time>
      </trkpt>
      <trkpt lat="43.9382" lon="0.29066">
        <ele>94.4</ele>
        <time>2023-07-03T10:06:00Z</time>
      </trkpt>
      <trkpt lat="43.93818" lon="0.29073">
        <ele>94.4</ele>
        <time>2023-07-03T10:06:04Z</time>
      </trkpt>
      <trkpt lat="43.93817" lon="0.29075">
        <ele>94.6</ele>
        <time>2023-07-03T10:06:05Z</time>
      </trkpt>
      <trkpt lat="43.93817" lon="0.29086">
        <ele>94.6</ele>
        <time>2023-07-03T10:06:12Z</time>
      </trkpt>
      <trkpt lat="43.93815" lon="0.29097">
        <ele>94.6</ele>
        <time>2023-07-03T10:06:18Z</time>
      </trkpt>
      <trkpt lat="43.93815" lon="0.291">
        <ele>94.6</ele>
        <time>2023-07-03T10:06:20Z</time>
      </trkpt>
      <trkpt lat="43.93815" lon="0.29106">
        <ele>94.8</ele>
        <time>2023-07-03T10:06:24Z</time>
      </trkpt>
      <trkpt lat="43.93814" lon="0.29108">
        <ele>94.8</ele>
        <time>2023-07-03T10:06:25Z</time>
      </trkpt>
      <trkpt lat="43.93811" lon="0.29125">
        <ele>95</ele>
        <time>2023-07-03T10:06:34Z</time>
      </trkpt>
      <trkpt lat="43.93809" lon="0.29129">
        <ele>95</ele>
        <time>2023-07-03T10:06:36Z</time>
      </trkpt>
      <trkpt lat="43.93809" lon="0.29134">
        <ele>95</ele>
        <time>2023-07-03T10:06:39Z</time>
      </trkpt>
      <trkpt lat="43.93802" lon="0.29147">
        <ele>94.4</ele>
        <time>2023-07-03T10:06:46Z</time>
      </trkpt>
      <trkpt lat="43.93795" lon="0.2916">
        <ele>93.8</ele>
        <time>2023-07-03T10:06:54Z</time>
      </trkpt>
      <trkpt lat="43.93795" lon="0.29164">
        <ele>93.6</ele>
        <time>2023-07-03T10:06:57Z</time>
      </trkpt>
      <trkpt lat="43.93795" lon="0.29168">
        <ele>93.4</ele>
        <time>2023-07-03T10:06:59Z</time>
      </trkpt>
      <trkpt lat="43.93795" lon="0.29171">
        <ele>93.4</ele>
        <time>2023-07-03T10:07:01Z</time>
      </trkpt>
      <trkpt lat="43.93793" lon="0.29172">
        <ele>93.4</ele>
        <time>2023-07-03T10:07:03Z</time>
      </trkpt>
      <trkpt lat="43.93789" lon="0.29173">
        <ele>93.6</ele>
        <time>2023-07-03T10:20:14Z</time>
      </trkpt>
      <trkpt lat="43.93789" lon="0.29174">
        <ele>93.6</ele>
        <time>2023-07-03T10:20:16Z</time>
      </trkpt>
      <trkpt lat="43.93789" lon="0.29176">
        <ele>94.6</ele>
        <time>2023-07-03T10:20:18Z</time>
      </trkpt>
      <trkpt lat="43.93788" lon="0.29181">
        <ele>95.2</ele>
        <time>2023-07-03T10:20:22Z</time>
      </trkpt>
      <trkpt lat="43.93788" lon="0.29183">
        <ele>95.2</ele>
        <time>2023-07-03T10:20:23Z</time>
      </trkpt>
      <trkpt lat="43.93788" lon="0.29184">
        <ele>95.2</ele>
        <time>2023-07-03T10:20:24Z</time>
      </trkpt>
      <trkpt lat="43.93789" lon="0.29192">
        <ele>94.8</ele>
        <time>2023-07-03T10:20:29Z</time>
      </trkpt>
      <trkpt lat="43.93789" lon="0.29196">
        <ele>94.4</ele>
        <time>2023-07-03T10:20:32Z</time>
      </trkpt>
      <trkpt lat="43.9379" lon="0.29201">
        <ele>94</ele>
        <time>2023-07-03T10:20:35Z</time>
      </trkpt>
      <trkpt lat="43.9379" lon="0.29205">
        <ele>93.4</ele>
        <time>2023-07-03T10:20:38Z</time>
      </trkpt>
      <trkpt lat="43.93788" lon="0.29212">
        <ele>92.4</ele>
        <time>2023-07-03T10:20:42Z</time>
      </trkpt>
      <trkpt lat="43.93786" lon="0.29219">
        <ele>92.2</ele>
        <time>2023-07-03T10:20:45Z</time>
      </trkpt>
      <trkpt lat="43.93784" lon="0.29226">
        <ele>92</ele>
        <time>2023-07-03T10:20:49Z</time>
      </trkpt>
      <trkpt lat="43.93784" lon="0.29233">
        <ele>91.4</ele>
        <time>2023-07-03T10:20:53Z</time>
      </trkpt>
      <trkpt lat="43.93784" lon="0.29237">
        <ele>90.4</ele>
        <time>2023-07-03T10:20:56Z</time>
      </trkpt>
      <trkpt lat="43.93784" lon="0.29239">
        <ele>90</ele>
        <time>2023-07-03T10:20:57Z</time>
      </trkpt>
      <trkpt lat="43.93785" lon="0.29241">
        <ele>89.8</ele>
        <time>2023-07-03T10:20:58Z</time>
      </trkpt>
      <trkpt lat="43.93785" lon="0.29243">
        <ele>89.6</ele>
        <time>2023-07-03T10:20:59Z</time>
      </trkpt>
      <trkpt lat="43.93783" lon="0.29248">
        <ele>88.8</ele>
        <time>2023-07-03T10:21:03Z</time>
      </trkpt>
      <trkpt lat="43.93782" lon="0.29252">
        <ele>88.4</ele>
        <time>2023-07-03T10:21:05Z</time>
      </trkpt>
      <trkpt lat="43.93782" lon="0.29257">
        <ele>87.6</ele>
        <time>2023-07-03T10:21:07Z</time>
      </trkpt>
      <trkpt lat="43.93782" lon="0.2926">
        <ele>87.2</ele>
        <time>2023-07-03T10:21:09Z</time>
      </trkpt>
      <trkpt lat="43.93782" lon="0.29262">
        <ele>87</ele>
        <time>2023-07-03T10:21:10Z</time>
      </trkpt>
      <trkpt lat="43.93781" lon="0.29266">
        <ele>86.6</ele>
        <time>2023-07-03T10:21:12Z</time>
      </trkpt>
      <trkpt lat="43.93779" lon="0.29273">
        <ele>85.6</ele>
        <time>2023-07-03T10:21:16Z</time>
      </trkpt>
      <trkpt lat="43.93778" lon="0.29275">
        <ele>85.4</ele>
        <time>2023-07-03T10:21:17Z</time>
      </trkpt>
      <trkpt lat="43.93776" lon="0.29284">
        <ele>84.8</ele>
        <time>2023-07-03T10:21:21Z</time>
      </trkpt>
      <trkpt lat="43.93775" lon="0.29286">
        <ele>84.4</ele>
        <time>2023-07-03T10:21:23Z</time>
      </trkpt>
      <trkpt lat="43.93775" lon="0.29288">
        <ele>84.2</ele>
        <time>2023-07-03T10:21:24Z</time>
      </trkpt>
      <trkpt lat="43.93775" lon="0.2929">
        <ele>83.8</ele>
        <time>2023-07-03T10:21:25Z</time>
      </trkpt>
      <trkpt lat="43.93773" lon="0.29296">
        <ele>83</ele>
        <time>2023-07-03T10:21:29Z</time>
      </trkpt>
      <trkpt lat="43.93771" lon="0.29302">
        <ele>82.6</ele>
        <time>2023-07-03T10:21:32Z</time>
      </trkpt>
      <trkpt lat="43.93768" lon="0.2931">
        <ele>81.8</ele>
        <time>2023-07-03T10:21:37Z</time>
      </trkpt>
      <trkpt lat="43.93766" lon="0.29313">
        <ele>81.4</ele>
        <time>2023-07-03T10:21:39Z</time>
      </trkpt>
      <trkpt lat="43.93764" lon="0.29324">
        <ele>81</ele>
        <time>2023-07-03T10:21:45Z</time>
      </trkpt>
      <trkpt lat="43.93763" lon="0.29328">
        <ele>80.8</ele>
        <time>2023-07-03T10:21:47Z</time>
      </trkpt>
      <trkpt lat="43.93762" lon="0.29332">
        <ele>80.6</ele>
        <time>2023-07-03T10:21:49Z</time>
      </trkpt>
      <trkpt lat="43.93761" lon="0.29336">
        <ele>80.4</ele>
        <time>2023-07-03T10:21:52Z</time>
      </trkpt>
      <trkpt lat="43.93762" lon="0.29338">
        <ele>80.4</ele>
        <time>2023-07-03T10:21:53Z</time>
      </trkpt>
      <trkpt lat="43.93761" lon="0.29342">
        <ele>80</ele>
        <time>2023-07-03T10:21:56Z</time>
      </trkpt>
      <trkpt lat="43.9376" lon="0.29345">
        <ele>79.8</ele>
        <time>2023-07-03T10:21:57Z</time>
      </trkpt>
      <trkpt lat="43.9376" lon="0.29347">
        <ele>79.6</ele>
        <time>2023-07-03T10:21:58Z</time>
      </trkpt>
      <trkpt lat="43.93758" lon="0.29354">
        <ele>78.8</ele>
        <time>2023-07-03T10:22:02Z</time>
      </trkpt>
      <trkpt lat="43.93758" lon="0.29357">
        <ele>78.8</ele>
        <time>2023-07-03T10:22:03Z</time>
      </trkpt>
      <trkpt lat="43.93757" lon="0.29361">
        <ele>78.8</ele>
        <time>2023-07-03T10:22:05Z</time>
      </trkpt>
      <trkpt lat="43.93754" lon="0.29375">
        <ele>78.4</ele>
        <time>2023-07-03T10:22:12Z</time>
      </trkpt>
      <trkpt lat="43.93753" lon="0.29378">
        <ele>78.4</ele>
        <time>2023-07-03T10:22:13Z</time>
      </trkpt>
      <trkpt lat="43.93753" lon="0.2938">
        <ele>78.2</ele>
        <time>2023-07-03T10:22:14Z</time>
      </trkpt>
      <trkpt lat="43.93753" lon="0.29382">
        <ele>78</ele>
        <time>2023-07-03T10:22:15Z</time>
      </trkpt>
      <trkpt lat="43.93751" lon="0.29389">
        <ele>77.8</ele>
        <time>2023-07-03T10:22:19Z</time>
      </trkpt>
      <trkpt lat="43.93751" lon="0.29392">
        <ele>77.6</ele>
        <time>2023-07-03T10:22:21Z</time>
      </trkpt>
      <trkpt lat="43.93748" lon="0.29407">
        <ele>77</ele>
        <time>2023-07-03T10:22:30Z</time>
      </trkpt>
      <trkpt lat="43.93748" lon="0.29409">
        <ele>76.8</ele>
        <time>2023-07-03T10:22:31Z</time>
      </trkpt>
      <trkpt lat="43.93748" lon="0.29412">
        <ele>76.8</ele>
        <time>2023-07-03T10:22:32Z</time>
      </trkpt>
      <trkpt lat="43.93747" lon="0.29422">
        <ele>76.6</ele>
        <time>2023-07-03T10:22:37Z</time>
      </trkpt>
      <trkpt lat="43.93746" lon="0.29427">
        <ele>76.2</ele>
        <time>2023-07-03T10:22:40Z</time>
      </trkpt>
      <trkpt lat="43.93744" lon="0.29437">
        <ele>75.8</ele>
        <time>2023-07-03T10:22:46Z</time>
      </trkpt>
      <trkpt lat="43.93742" lon="0.29442">
        <ele>75.6</ele>
        <time>2023-07-03T10:22:49Z</time>
      </trkpt>
      <trkpt lat="43.93741" lon="0.29455">
        <ele>75.4</ele>
        <time>2023-07-03T10:22:55Z</time>
      </trkpt>
      <trkpt lat="43.93739" lon="0.29463">
        <ele>75</ele>
        <time>2023-07-03T10:22:59Z</time>
      </trkpt>
      <trkpt lat="43.93738" lon="0.2947">
        <ele>75</ele>
        <time>2023-07-03T10:23:03Z</time>
      </trkpt>
      <trkpt lat="43.93736" lon="0.29486">
        <ele>74.8</ele>
        <time>2023-07-03T10:23:12Z</time>
      </trkpt>
      <trkpt lat="43.93735" lon="0.29495">
        <ele>74.6</ele>
        <time>2023-07-03T10:23:17Z</time>
      </trkpt>
      <trkpt lat="43.93734" lon="0.295">
        <ele>74.4</ele>
        <time>2023-07-03T10:23:20Z</time>
      </trkpt>
      <trkpt lat="43.93731" lon="0.29515">
        <ele>74.6</ele>
        <time>2023-07-03T10:23:28Z</time>
      </trkpt>
      <trkpt lat="43.9373" lon="0.29521">
        <ele>74.4</ele>
        <time>2023-07-03T10:23:31Z</time>
      </trkpt>
      <trkpt lat="43.9373" lon="0.29523">
        <ele>74.2</ele>
        <time>2023-07-03T10:23:32Z</time>
      </trkpt>
      <trkpt lat="43.9373" lon="0.29525">
        <ele>74.2</ele>
        <time>2023-07-03T10:23:33Z</time>
      </trkpt>
      <trkpt lat="43.93729" lon="0.29527">
        <ele>74.2</ele>
        <time>2023-07-03T10:23:34Z</time>
      </trkpt>
      <trkpt lat="43.93729" lon="0.29529">
        <ele>74.2</ele>
        <time>2023-07-03T10:23:35Z</time>
      </trkpt>
      <trkpt lat="43.93729" lon="0.29533">
        <ele>74.2</ele>
        <time>2023-07-03T10:23:37Z</time>
      </trkpt>
      <trkpt lat="43.93728" lon="0.2955">
        <ele>74.4</ele>
        <time>2023-07-03T10:23:45Z</time>
      </trkpt>
      <trkpt lat="43.93727" lon="0.29554">
        <ele>74.2</ele>
        <time>2023-07-03T10:23:48Z</time>
      </trkpt>
      <trkpt lat="43.93726" lon="0.29559">
        <ele>74</ele>
        <time>2023-07-03T10:23:51Z</time>
      </trkpt>
      <trkpt lat="43.93723" lon="0.29565">
        <ele>74.2</ele>
        <time>2023-07-03T10:23:55Z</time>
      </trkpt>
      <trkpt lat="43.9372" lon="0.29571">
        <ele>74.2</ele>
        <time>2023-07-03T10:23:58Z</time>
      </trkpt>
      <trkpt lat="43.93714" lon="0.29585">
        <ele>73.8</ele>
        <time>2023-07-03T10:24:06Z</time>
      </trkpt>
      <trkpt lat="43.93713" lon="0.29588">
        <ele>73.6</ele>
        <time>2023-07-03T10:24:08Z</time>
      </trkpt>
      <trkpt lat="43.9371" lon="0.29594">
        <ele>73.4</ele>
        <time>2023-07-03T10:24:12Z</time>
      </trkpt>
      <trkpt lat="43.9371" lon="0.29597">
        <ele>73.4</ele>
        <time>2023-07-03T10:24:14Z</time>
      </trkpt>
      <trkpt lat="43.93709" lon="0.296">
        <ele>73.4</ele>
        <time>2023-07-03T10:24:16Z</time>
      </trkpt>
      <trkpt lat="43.93709" lon="0.29602">
        <ele>73.4</ele>
        <time>2023-07-03T10:24:17Z</time>
      </trkpt>
      <trkpt lat="43.9371" lon="0.29605">
        <ele>73.4</ele>
        <time>2023-07-03T10:24:19Z</time>
      </trkpt>
      <trkpt lat="43.9371" lon="0.29611">
        <ele>73.6</ele>
        <time>2023-07-03T10:24:22Z</time>
      </trkpt>
      <trkpt lat="43.9371" lon="0.29613">
        <ele>73.4</ele>
        <time>2023-07-03T10:24:23Z</time>
      </trkpt>
      <trkpt lat="43.93712" lon="0.29615">
        <ele>73.4</ele>
        <time>2023-07-03T10:24:25Z</time>
      </trkpt>
      <trkpt lat="43.93712" lon="0.29617">
        <ele>73.4</ele>
        <time>2023-07-03T10:24:26Z</time>
      </trkpt>
      <trkpt lat="43.93713" lon="0.29619">
        <ele>73.2</ele>
        <time>2023-07-03T10:24:27Z</time>
      </trkpt>
      <trkpt lat="43.93717" lon="0.29632">
        <ele>73.4</ele>
        <time>2023-07-03T10:24:35Z</time>
      </trkpt>
      <trkpt lat="43.93722" lon="0.29649">
        <ele>73</ele>
        <time>2023-07-03T10:24:45Z</time>
      </trkpt>
      <trkpt lat="43.93726" lon="0.2966">
        <ele>73</ele>
        <time>2023-07-03T10:24:52Z</time>
      </trkpt>
      <trkpt lat="43.93728" lon="0.29668">
        <ele>72.6</ele>
        <time>2023-07-03T10:24:57Z</time>
      </trkpt>
      <trkpt lat="43.9373" lon="0.29675">
        <ele>72.6</ele>
        <time>2023-07-03T10:25:01Z</time>
      </trkpt>
      <trkpt lat="43.93732" lon="0.29685">
        <ele>72.6</ele>
        <time>2023-07-03T10:25:07Z</time>
      </trkpt>
      <trkpt lat="43.93733" lon="0.29687">
        <ele>72.4</ele>
        <time>2023-07-03T10:25:08Z</time>
      </trkpt>
      <trkpt lat="43.93735" lon="0.29695">
        <ele>72.4</ele>
        <time>2023-07-03T10:25:13Z</time>
      </trkpt>
      <trkpt lat="43.93735" lon="0.29697">
        <ele>72.4</ele>
        <time>2023-07-03T10:25:14Z</time>
      </trkpt>
      <trkpt lat="43.93739" lon="0.2971">
        <ele>71.8</ele>
        <time>2023-07-03T10:25:22Z</time>
      </trkpt>
      <trkpt lat="43.9374" lon="0.29714">
        <ele>71.6</ele>
        <time>2023-07-03T10:25:24Z</time>
      </trkpt>
      <trkpt lat="43.93741" lon="0.29717">
        <ele>71.6</ele>
        <time>2023-07-03T10:25:25Z</time>
      </trkpt>
      <trkpt lat="43.93742" lon="0.29719">
        <ele>71.6</ele>
        <time>2023-07-03T10:25:26Z</time>
      </trkpt>
      <trkpt lat="43.93744" lon="0.29726">
        <ele>71.6</ele>
        <time>2023-07-03T10:25:30Z</time>
      </trkpt>
      <trkpt lat="43.93745" lon="0.29731">
        <ele>71.4</ele>
        <time>2023-07-03T10:25:33Z</time>
      </trkpt>
      <trkpt lat="43.93748" lon="0.29742">
        <ele>71</ele>
        <time>2023-07-03T10:25:39Z</time>
      </trkpt>
      <trkpt lat="43.93752" lon="0.29754">
        <ele>70.4</ele>
        <time>2023-07-03T10:25:46Z</time>
      </trkpt>
      <trkpt lat="43.93753" lon="0.29757">
        <ele>70.4</ele>
        <time>2023-07-03T10:25:48Z</time>
      </trkpt>
      <trkpt lat="43.93759" lon="0.29774">
        <ele>70</ele>
        <time>2023-07-03T10:25:58Z</time>
      </trkpt>
      <trkpt lat="43.9376" lon="0.29775">
        <ele>70</ele>
        <time>2023-07-03T10:25:59Z</time>
      </trkpt>
      <trkpt lat="43.93761" lon="0.29782">
        <ele>69.6</ele>
        <time>2023-07-03T10:26:03Z</time>
      </trkpt>
      <trkpt lat="43.9376" lon="0.29786">
        <ele>69.2</ele>
        <time>2023-07-03T10:26:05Z</time>
      </trkpt>
      <trkpt lat="43.9376" lon="0.29788">
        <ele>68.8</ele>
        <time>2023-07-03T10:26:06Z</time>
      </trkpt>
      <trkpt lat="43.93763" lon="0.29804">
        <ele>68.2</ele>
        <time>2023-07-03T10:26:14Z</time>
      </trkpt>
      <trkpt lat="43.93769" lon="0.29818">
        <ele>67.2</ele>
        <time>2023-07-03T10:26:22Z</time>
      </trkpt>
      <trkpt lat="43.93775" lon="0.29828">
        <ele>66.2</ele>
        <time>2023-07-03T10:26:29Z</time>
      </trkpt>
      <trkpt lat="43.93776" lon="0.2983">
        <ele>66.2</ele>
        <time>2023-07-03T10:26:30Z</time>
      </trkpt>
      <trkpt lat="43.93777" lon="0.29832">
        <ele>66.2</ele>
        <time>2023-07-03T10:26:31Z</time>
      </trkpt>
      <trkpt lat="43.93777" lon="0.2984">
        <ele>65.6</ele>
        <time>2023-07-03T10:26:35Z</time>
      </trkpt>
      <trkpt lat="43.93777" lon="0.29842">
        <ele>65.4</ele>
        <time>2023-07-03T10:26:36Z</time>
      </trkpt>
      <trkpt lat="43.93777" lon="0.29844">
        <ele>65.2</ele>
        <time>2023-07-03T10:26:37Z</time>
      </trkpt>
      <trkpt lat="43.93777" lon="0.29846">
        <ele>65</ele>
        <time>2023-07-03T10:26:38Z</time>
      </trkpt>
      <trkpt lat="43.93779" lon="0.29867">
        <ele>64.2</ele>
        <time>2023-07-03T10:26:48Z</time>
      </trkpt>
      <trkpt lat="43.93779" lon="0.2987">
        <ele>64.2</ele>
        <time>2023-07-03T10:26:50Z</time>
      </trkpt>
      <trkpt lat="43.9378" lon="0.29872">
        <ele>64.2</ele>
        <time>2023-07-03T10:26:51Z</time>
      </trkpt>
      <trkpt lat="43.93781" lon="0.29877">
        <ele>63.6</ele>
        <time>2023-07-03T10:26:54Z</time>
      </trkpt>
      <trkpt lat="43.93781" lon="0.2988">
        <ele>63.4</ele>
        <time>2023-07-03T10:26:56Z</time>
      </trkpt>
      <trkpt lat="43.93778" lon="0.29885">
        <ele>63.2</ele>
        <time>2023-07-03T10:27:00Z</time>
      </trkpt>
      <trkpt lat="43.93774" lon="0.29887">
        <ele>63.2</ele>
        <time>2023-07-03T10:27:03Z</time>
      </trkpt>
      <trkpt lat="43.93773" lon="0.29888">
        <ele>63.2</ele>
        <time>2023-07-03T10:27:04Z</time>
      </trkpt>
      <trkpt lat="43.93767" lon="0.29895">
        <ele>63.2</ele>
        <time>2023-07-03T10:27:11Z</time>
      </trkpt>
      <trkpt lat="43.93765" lon="0.29896">
        <ele>63.2</ele>
        <time>2023-07-03T10:27:12Z</time>
      </trkpt>
      <trkpt lat="43.93759" lon="0.29902">
        <ele>63</ele>
        <time>2023-07-03T10:27:18Z</time>
      </trkpt>
      <trkpt lat="43.93758" lon="0.29903">
        <ele>63</ele>
        <time>2023-07-03T10:27:19Z</time>
      </trkpt>
      <trkpt lat="43.93751" lon="0.29911">
        <ele>62.6</ele>
        <time>2023-07-03T10:27:26Z</time>
      </trkpt>
      <trkpt lat="43.93743" lon="0.29919">
        <ele>62.8</ele>
        <time>2023-07-03T10:27:33Z</time>
      </trkpt>
      <trkpt lat="43.93742" lon="0.2992">
        <ele>62.6</ele>
        <time>2023-07-03T10:27:34Z</time>
      </trkpt>
      <trkpt lat="43.93741" lon="0.29921">
        <ele>62.6</ele>
        <time>2023-07-03T10:27:35Z</time>
      </trkpt>
      <trkpt lat="43.9374" lon="0.29923">
        <ele>62.6</ele>
        <time>2023-07-03T10:27:36Z</time>
      </trkpt>
      <trkpt lat="43.93738" lon="0.29924">
        <ele>62.6</ele>
        <time>2023-07-03T10:27:37Z</time>
      </trkpt>
      <trkpt lat="43.93737" lon="0.29925">
        <ele>62.8</ele>
        <time>2023-07-03T10:27:38Z</time>
      </trkpt>
      <trkpt lat="43.93736" lon="0.29927">
        <ele>62.8</ele>
        <time>2023-07-03T10:27:39Z</time>
      </trkpt>
      <trkpt lat="43.93735" lon="0.29928">
        <ele>62.8</ele>
        <time>2023-07-03T10:27:40Z</time>
      </trkpt>
      <trkpt lat="43.93733" lon="0.29932">
        <ele>62.8</ele>
        <time>2023-07-03T10:27:43Z</time>
      </trkpt>
      <trkpt lat="43.9373" lon="0.29935">
        <ele>63</ele>
        <time>2023-07-03T10:27:46Z</time>
      </trkpt>
      <trkpt lat="43.93729" lon="0.29936">
        <ele>63</ele>
        <time>2023-07-03T10:27:47Z</time>
      </trkpt>
      <trkpt lat="43.93721" lon="0.29944">
        <ele>62.8</ele>
        <time>2023-07-03T10:27:53Z</time>
      </trkpt>
      <trkpt lat="43.93719" lon="0.29945">
        <ele>62.8</ele>
        <time>2023-07-03T10:27:54Z</time>
      </trkpt>
      <trkpt lat="43.93717" lon="0.29948">
        <ele>62.8</ele>
        <time>2023-07-03T10:27:56Z</time>
      </trkpt>
      <trkpt lat="43.93712" lon="0.29953">
        <ele>63</ele>
        <time>2023-07-03T10:28:00Z</time>
      </trkpt>
      <trkpt lat="43.93708" lon="0.29958">
        <ele>63</ele>
        <time>2023-07-03T10:28:05Z</time>
      </trkpt>
      <trkpt lat="43.93706" lon="0.29961">
        <ele>62.8</ele>
        <time>2023-07-03T10:28:08Z</time>
      </trkpt>
      <trkpt lat="43.93699" lon="0.29965">
        <ele>63</ele>
        <time>2023-07-03T10:28:14Z</time>
      </trkpt>
      <trkpt lat="43.93698" lon="0.29966">
        <ele>63</ele>
        <time>2023-07-03T10:28:16Z</time>
      </trkpt>
      <trkpt lat="43.93692" lon="0.2997">
        <ele>63</ele>
        <time>2023-07-03T10:28:22Z</time>
      </trkpt>
      <trkpt lat="43.9369" lon="0.29972">
        <ele>63</ele>
        <time>2023-07-03T10:28:24Z</time>
      </trkpt>
      <trkpt lat="43.93683" lon="0.29979">
        <ele>62.8</ele>
        <time>2023-07-03T10:28:31Z</time>
      </trkpt>
      <trkpt lat="43.93682" lon="0.29981">
        <ele>62.8</ele>
        <time>2023-07-03T10:28:32Z</time>
      </trkpt>
      <trkpt lat="43.93673" lon="0.29993">
        <ele>63</ele>
        <time>2023-07-03T10:28:40Z</time>
      </trkpt>
      <trkpt lat="43.93668" lon="0.29999">
        <ele>63</ele>
        <time>2023-07-03T10:28:44Z</time>
      </trkpt>
      <trkpt lat="43.93665" lon="0.30003">
        <ele>63</ele>
        <time>2023-07-03T10:28:47Z</time>
      </trkpt>
      <trkpt lat="43.93662" lon="0.30007">
        <ele>63</ele>
        <time>2023-07-03T10:28:49Z</time>
      </trkpt>
      <trkpt lat="43.93653" lon="0.30016">
        <ele>63.4</ele>
        <time>2023-07-03T10:28:56Z</time>
      </trkpt>
      <trkpt lat="43.93651" lon="0.30018">
        <ele>63.2</ele>
        <time>2023-07-03T10:28:58Z</time>
      </trkpt>
      <trkpt lat="43.93651" lon="0.30019">
        <ele>63.4</ele>
        <time>2023-07-03T10:28:59Z</time>
      </trkpt>
      <trkpt lat="43.93644" lon="0.30026">
        <ele>63</ele>
        <time>2023-07-03T10:29:06Z</time>
      </trkpt>
      <trkpt lat="43.93637" lon="0.30032">
        <ele>63.2</ele>
        <time>2023-07-03T10:29:11Z</time>
      </trkpt>
      <trkpt lat="43.93635" lon="0.30035">
        <ele>63.4</ele>
        <time>2023-07-03T10:29:13Z</time>
      </trkpt>
      <trkpt lat="43.93629" lon="0.30042">
        <ele>63.4</ele>
        <time>2023-07-03T10:29:18Z</time>
      </trkpt>
      <trkpt lat="43.93625" lon="0.30046">
        <ele>63.8</ele>
        <time>2023-07-03T10:29:21Z</time>
      </trkpt>
      <trkpt lat="43.9362" lon="0.3005">
        <ele>63.8</ele>
        <time>2023-07-03T10:29:26Z</time>
      </trkpt>
      <trkpt lat="43.93618" lon="0.30052">
        <ele>63.8</ele>
        <time>2023-07-03T10:29:29Z</time>
      </trkpt>
      <trkpt lat="43.93616" lon="0.30053">
        <ele>64</ele>
        <time>2023-07-03T10:29:32Z</time>
      </trkpt>
      <trkpt lat="43.93615" lon="0.30053">
        <ele>64</ele>
        <time>2023-07-03T10:29:33Z</time>
      </trkpt>
      <trkpt lat="43.93614" lon="0.30054">
        <ele>64</ele>
        <time>2023-07-03T10:29:34Z</time>
      </trkpt>
      <trkpt lat="43.93613" lon="0.30055">
        <ele>64</ele>
        <time>2023-07-03T10:29:35Z</time>
      </trkpt>
      <trkpt lat="43.93612" lon="0.30057">
        <ele>64</ele>
        <time>2023-07-03T10:29:36Z</time>
      </trkpt>
      <trkpt lat="43.93609" lon="0.30059">
        <ele>63.8</ele>
        <time>2023-07-03T10:29:38Z</time>
      </trkpt>
      <trkpt lat="43.93607" lon="0.30063">
        <ele>63.8</ele>
        <time>2023-07-03T10:29:40Z</time>
      </trkpt>
      <trkpt lat="43.93606" lon="0.30064">
        <ele>63.8</ele>
        <time>2023-07-03T10:29:41Z</time>
      </trkpt>
      <trkpt lat="43.93605" lon="0.30066">
        <ele>63.8</ele>
        <time>2023-07-03T10:29:42Z</time>
      </trkpt>
      <trkpt lat="43.936" lon="0.30071">
        <ele>64.2</ele>
        <time>2023-07-03T10:29:48Z</time>
      </trkpt>
      <trkpt lat="43.93599" lon="0.30073">
        <ele>64.2</ele>
        <time>2023-07-03T10:29:50Z</time>
      </trkpt>
      <trkpt lat="43.93599" lon="0.30074">
        <ele>64.2</ele>
        <time>2023-07-03T10:29:51Z</time>
      </trkpt>
      <trkpt lat="43.93595" lon="0.30078">
        <ele>64.2</ele>
        <time>2023-07-03T10:29:55Z</time>
      </trkpt>
      <trkpt lat="43.93594" lon="0.30081">
        <ele>64.2</ele>
        <time>2023-07-03T10:29:57Z</time>
      </trkpt>
      <trkpt lat="43.93592" lon="0.30084">
        <ele>64</ele>
        <time>2023-07-03T10:30:00Z</time>
      </trkpt>
      <trkpt lat="43.93588" lon="0.30092">
        <ele>64</ele>
        <time>2023-07-03T10:30:05Z</time>
      </trkpt>
      <trkpt lat="43.93584" lon="0.30101">
        <ele>64.4</ele>
        <time>2023-07-03T10:30:11Z</time>
      </trkpt>
      <trkpt lat="43.93582" lon="0.30104">
        <ele>64.2</ele>
        <time>2023-07-03T10:30:13Z</time>
      </trkpt>
      <trkpt lat="43.93582" lon="0.30106">
        <ele>64.2</ele>
        <time>2023-07-03T10:30:14Z</time>
      </trkpt>
      <trkpt lat="43.9358" lon="0.3011">
        <ele>64.2</ele>
        <time>2023-07-03T10:30:16Z</time>
      </trkpt>
      <trkpt lat="43.93578" lon="0.30116">
        <ele>64</ele>
        <time>2023-07-03T10:30:20Z</time>
      </trkpt>
      <trkpt lat="43.93578" lon="0.30117">
        <ele>64</ele>
        <time>2023-07-03T10:30:21Z</time>
      </trkpt>
      <trkpt lat="43.93578" lon="0.3012">
        <ele>64.2</ele>
        <time>2023-07-03T10:30:23Z</time>
      </trkpt>
      <trkpt lat="43.93576" lon="0.30122">
        <ele>64.2</ele>
        <time>2023-07-03T10:30:26Z</time>
      </trkpt>
      <trkpt lat="43.93574" lon="0.30125">
        <ele>64.2</ele>
        <time>2023-07-03T10:30:28Z</time>
      </trkpt>
      <trkpt lat="43.9357" lon="0.30132">
        <ele>64</ele>
        <time>2023-07-03T10:30:32Z</time>
      </trkpt>
      <trkpt lat="43.93568" lon="0.30137">
        <ele>63.8</ele>
        <time>2023-07-03T10:30:36Z</time>
      </trkpt>
      <trkpt lat="43.93564" lon="0.30143">
        <ele>63.8</ele>
        <time>2023-07-03T10:30:40Z</time>
      </trkpt>
      <trkpt lat="43.93562" lon="0.30147">
        <ele>63.8</ele>
        <time>2023-07-03T10:30:42Z</time>
      </trkpt>
      <trkpt lat="43.93556" lon="0.30158">
        <ele>63.6</ele>
        <time>2023-07-03T10:30:49Z</time>
      </trkpt>
      <trkpt lat="43.93554" lon="0.3016">
        <ele>63.6</ele>
        <time>2023-07-03T10:30:50Z</time>
      </trkpt>
      <trkpt lat="43.93547" lon="0.30167">
        <ele>63.8</ele>
        <time>2023-07-03T10:30:56Z</time>
      </trkpt>
      <trkpt lat="43.93548" lon="0.30168">
        <ele>63.8</ele>
        <time>2023-07-03T10:30:57Z</time>
      </trkpt>
      <trkpt lat="43.93542" lon="0.30176">
        <ele>63.6</ele>
        <time>2023-07-03T10:31:04Z</time>
      </trkpt>
      <trkpt lat="43.93536" lon="0.30184">
        <ele>63.4</ele>
        <time>2023-07-03T10:31:10Z</time>
      </trkpt>
      <trkpt lat="43.93529" lon="0.30194">
        <ele>63.6</ele>
        <time>2023-07-03T10:31:17Z</time>
      </trkpt>
      <trkpt lat="43.93528" lon="0.30195">
        <ele>63.6</ele>
        <time>2023-07-03T10:31:18Z</time>
      </trkpt>
      <trkpt lat="43.93525" lon="0.30201">
        <ele>64</ele>
        <time>2023-07-03T10:31:22Z</time>
      </trkpt>
      <trkpt lat="43.93521" lon="0.30208">
        <ele>63.6</ele>
        <time>2023-07-03T10:31:26Z</time>
      </trkpt>
      <trkpt lat="43.93515" lon="0.30215">
        <ele>63.8</ele>
        <time>2023-07-03T10:31:32Z</time>
      </trkpt>
      <trkpt lat="43.93515" lon="0.30215">
        <ele>63.8</ele>
        <time>2023-07-03T10:31:33Z</time>
      </trkpt>
      <trkpt lat="43.93513" lon="0.30217">
        <ele>64</ele>
        <time>2023-07-03T10:31:35Z</time>
      </trkpt>
      <trkpt lat="43.93511" lon="0.3022">
        <ele>64.2</ele>
        <time>2023-07-03T10:31:37Z</time>
      </trkpt>
      <trkpt lat="43.93508" lon="0.30224">
        <ele>64.2</ele>
        <time>2023-07-03T10:31:41Z</time>
      </trkpt>
      <trkpt lat="43.93506" lon="0.30226">
        <ele>64</ele>
        <time>2023-07-03T10:31:44Z</time>
      </trkpt>
      <trkpt lat="43.93501" lon="0.30234">
        <ele>63.8</ele>
        <time>2023-07-03T10:31:48Z</time>
      </trkpt>
      <trkpt lat="43.93497" lon="0.3024">
        <ele>64</ele>
        <time>2023-07-03T10:31:52Z</time>
      </trkpt>
      <trkpt lat="43.93492" lon="0.30244">
        <ele>63.8</ele>
        <time>2023-07-03T10:31:57Z</time>
      </trkpt>
      <trkpt lat="43.93483" lon="0.30255">
        <ele>64.2</ele>
        <time>2023-07-03T10:32:06Z</time>
      </trkpt>
      <trkpt lat="43.93478" lon="0.30258">
        <ele>64.2</ele>
        <time>2023-07-03T10:32:10Z</time>
      </trkpt>
      <trkpt lat="43.93476" lon="0.3026">
        <ele>64.2</ele>
        <time>2023-07-03T10:32:12Z</time>
      </trkpt>
      <trkpt lat="43.93475" lon="0.30261">
        <ele>64.2</ele>
        <time>2023-07-03T10:32:13Z</time>
      </trkpt>
      <trkpt lat="43.93474" lon="0.30262">
        <ele>64.2</ele>
        <time>2023-07-03T10:32:14Z</time>
      </trkpt>
      <trkpt lat="43.93465" lon="0.30268">
        <ele>63.6</ele>
        <time>2023-07-03T10:32:21Z</time>
      </trkpt>
      <trkpt lat="43.93456" lon="0.30276">
        <ele>63.6</ele>
        <time>2023-07-03T10:32:29Z</time>
      </trkpt>
      <trkpt lat="43.93446" lon="0.3028">
        <ele>63.6</ele>
        <time>2023-07-03T10:32:37Z</time>
      </trkpt>
      <trkpt lat="43.93442" lon="0.3028">
        <ele>63.8</ele>
        <time>2023-07-03T10:32:40Z</time>
      </trkpt>
      <trkpt lat="43.93436" lon="0.30284">
        <ele>63.8</ele>
        <time>2023-07-03T10:32:44Z</time>
      </trkpt>
      <trkpt lat="43.93432" lon="0.30286">
        <ele>64</ele>
        <time>2023-07-03T10:32:47Z</time>
      </trkpt>
      <trkpt lat="43.93425" lon="0.30289">
        <ele>64</ele>
        <time>2023-07-03T10:32:52Z</time>
      </trkpt>
      <trkpt lat="43.9342" lon="0.30294">
        <ele>64.2</ele>
        <time>2023-07-03T10:32:55Z</time>
      </trkpt>
      <trkpt lat="43.93413" lon="0.30298">
        <ele>64.4</ele>
        <time>2023-07-03T10:33:00Z</time>
      </trkpt>
      <trkpt lat="43.93411" lon="0.30299">
        <ele>64.4</ele>
        <time>2023-07-03T10:33:02Z</time>
      </trkpt>
      <trkpt lat="43.93402" lon="0.30301">
        <ele>64.6</ele>
        <time>2023-07-03T10:33:09Z</time>
      </trkpt>
      <trkpt lat="43.93401" lon="0.30301">
        <ele>64.8</ele>
        <time>2023-07-03T10:33:10Z</time>
      </trkpt>
      <trkpt lat="43.93399" lon="0.30301">
        <ele>64.8</ele>
        <time>2023-07-03T10:33:11Z</time>
      </trkpt>
      <trkpt lat="43.93393" lon="0.30303">
        <ele>64.8</ele>
        <time>2023-07-03T10:33:16Z</time>
      </trkpt>
      <trkpt lat="43.93389" lon="0.30304">
        <ele>64.8</ele>
        <time>2023-07-03T10:33:19Z</time>
      </trkpt>
      <trkpt lat="43.93385" lon="0.30306">
        <ele>65</ele>
        <time>2023-07-03T10:33:22Z</time>
      </trkpt>
      <trkpt lat="43.93384" lon="0.30307">
        <ele>65</ele>
        <time>2023-07-03T10:33:23Z</time>
      </trkpt>
      <trkpt lat="43.93376" lon="0.3031">
        <ele>65.2</ele>
        <time>2023-07-03T10:33:29Z</time>
      </trkpt>
      <trkpt lat="43.93374" lon="0.30311">
        <ele>65.2</ele>
        <time>2023-07-03T10:33:31Z</time>
      </trkpt>
      <trkpt lat="43.93373" lon="0.30311">
        <ele>65.2</ele>
        <time>2023-07-03T10:33:32Z</time>
      </trkpt>
      <trkpt lat="43.93371" lon="0.30312">
        <ele>65.2</ele>
        <time>2023-07-03T10:33:33Z</time>
      </trkpt>
      <trkpt lat="43.9337" lon="0.30312">
        <ele>65.4</ele>
        <time>2023-07-03T10:33:34Z</time>
      </trkpt>
      <trkpt lat="43.93369" lon="0.30313">
        <ele>65.6</ele>
        <time>2023-07-03T10:33:35Z</time>
      </trkpt>
      <trkpt lat="43.93368" lon="0.30314">
        <ele>65.6</ele>
        <time>2023-07-03T10:33:36Z</time>
      </trkpt>
      <trkpt lat="43.93366" lon="0.30314">
        <ele>65.6</ele>
        <time>2023-07-03T10:33:37Z</time>
      </trkpt>
      <trkpt lat="43.93361" lon="0.30316">
        <ele>65.8</ele>
        <time>2023-07-03T10:33:41Z</time>
      </trkpt>
      <trkpt lat="43.93351" lon="0.30315">
        <ele>65.8</ele>
        <time>2023-07-03T10:33:49Z</time>
      </trkpt>
      <trkpt lat="43.93349" lon="0.30317">
        <ele>65.8</ele>
        <time>2023-07-03T10:33:51Z</time>
      </trkpt>
      <trkpt lat="43.93347" lon="0.30319">
        <ele>66</ele>
        <time>2023-07-03T10:33:53Z</time>
      </trkpt>
      <trkpt lat="43.93347" lon="0.30323">
        <ele>66</ele>
        <time>2023-07-03T10:33:55Z</time>
      </trkpt>
      <trkpt lat="43.93348" lon="0.30332">
        <ele>66</ele>
        <time>2023-07-03T10:33:59Z</time>
      </trkpt>
      <trkpt lat="43.93348" lon="0.30336">
        <ele>65.8</ele>
        <time>2023-07-03T10:34:01Z</time>
      </trkpt>
      <trkpt lat="43.93348" lon="0.30338">
        <ele>65.8</ele>
        <time>2023-07-03T10:34:02Z</time>
      </trkpt>
      <trkpt lat="43.93348" lon="0.30348">
        <ele>65.4</ele>
        <time>2023-07-03T10:34:08Z</time>
      </trkpt>
      <trkpt lat="43.93348" lon="0.3035">
        <ele>65.4</ele>
        <time>2023-07-03T10:34:09Z</time>
      </trkpt>
      <trkpt lat="43.93349" lon="0.30353">
        <ele>65.4</ele>
        <time>2023-07-03T10:34:11Z</time>
      </trkpt>
      <trkpt lat="43.93349" lon="0.30355">
        <ele>65.4</ele>
        <time>2023-07-03T10:34:12Z</time>
      </trkpt>
      <trkpt lat="43.9335" lon="0.30361">
        <ele>65.4</ele>
        <time>2023-07-03T10:34:15Z</time>
      </trkpt>
      <trkpt lat="43.93349" lon="0.30372">
        <ele>65.2</ele>
        <time>2023-07-03T10:34:21Z</time>
      </trkpt>
      <trkpt lat="43.93349" lon="0.30373">
        <ele>65.2</ele>
        <time>2023-07-03T10:34:22Z</time>
      </trkpt>
      <trkpt lat="43.9335" lon="0.30375">
        <ele>65</ele>
        <time>2023-07-03T10:34:23Z</time>
      </trkpt>
      <trkpt lat="43.9335" lon="0.30377">
        <ele>65</ele>
        <time>2023-07-03T10:34:24Z</time>
      </trkpt>
      <trkpt lat="43.9335" lon="0.30381">
        <ele>65</ele>
        <time>2023-07-03T10:34:27Z</time>
      </trkpt>
      <trkpt lat="43.93351" lon="0.30383">
        <ele>64.8</ele>
        <time>2023-07-03T10:34:28Z</time>
      </trkpt>
      <trkpt lat="43.93351" lon="0.30389">
        <ele>64.8</ele>
        <time>2023-07-03T10:34:32Z</time>
      </trkpt>
      <trkpt lat="43.93351" lon="0.3039">
        <ele>64.8</ele>
        <time>2023-07-03T10:34:33Z</time>
      </trkpt>
      <trkpt lat="43.93351" lon="0.30403">
        <ele>64.4</ele>
        <time>2023-07-03T10:34:40Z</time>
      </trkpt>
      <trkpt lat="43.93352" lon="0.30417">
        <ele>64.4</ele>
        <time>2023-07-03T10:34:47Z</time>
      </trkpt>
      <trkpt lat="43.93354" lon="0.30424">
        <ele>64.2</ele>
        <time>2023-07-03T10:34:51Z</time>
      </trkpt>
      <trkpt lat="43.93355" lon="0.30432">
        <ele>64</ele>
        <time>2023-07-03T10:34:55Z</time>
      </trkpt>
      <trkpt lat="43.93356" lon="0.30442">
        <ele>63.8</ele>
        <time>2023-07-03T10:35:00Z</time>
      </trkpt>
      <trkpt lat="43.93357" lon="0.30448">
        <ele>63.6</ele>
        <time>2023-07-03T10:35:04Z</time>
      </trkpt>
      <trkpt lat="43.93358" lon="0.30451">
        <ele>63.6</ele>
        <time>2023-07-03T10:35:06Z</time>
      </trkpt>
      <trkpt lat="43.93358" lon="0.30458">
        <ele>63.8</ele>
        <time>2023-07-03T10:35:10Z</time>
      </trkpt>
      <trkpt lat="43.93358" lon="0.3047">
        <ele>63.8</ele>
        <time>2023-07-03T10:35:17Z</time>
      </trkpt>
      <trkpt lat="43.93359" lon="0.30479">
        <ele>63.4</ele>
        <time>2023-07-03T10:35:23Z</time>
      </trkpt>
      <trkpt lat="43.93362" lon="0.30487">
        <ele>63.4</ele>
        <time>2023-07-03T10:35:29Z</time>
      </trkpt>
      <trkpt lat="43.93366" lon="0.30492">
        <ele>63.4</ele>
        <time>2023-07-03T10:35:33Z</time>
      </trkpt>
      <trkpt lat="43.93367" lon="0.30495">
        <ele>63.4</ele>
        <time>2023-07-03T10:35:35Z</time>
      </trkpt>
      <trkpt lat="43.93367" lon="0.30497">
        <ele>63.4</ele>
        <time>2023-07-03T10:35:36Z</time>
      </trkpt>
      <trkpt lat="43.93367" lon="0.30498">
        <ele>63.4</ele>
        <time>2023-07-03T10:35:37Z</time>
      </trkpt>
      <trkpt lat="43.93368" lon="0.30504">
        <ele>63.8</ele>
        <time>2023-07-03T10:35:40Z</time>
      </trkpt>
      <trkpt lat="43.93369" lon="0.30505">
        <ele>63.8</ele>
        <time>2023-07-03T10:35:41Z</time>
      </trkpt>
      <trkpt lat="43.93379" lon="0.30513">
        <ele>64.2</ele>
        <time>2023-07-03T10:35:48Z</time>
      </trkpt>
      <trkpt lat="43.93389" lon="0.30527">
        <ele>63.8</ele>
        <time>2023-07-03T10:35:58Z</time>
      </trkpt>
      <trkpt lat="43.93394" lon="0.30538">
        <ele>63.6</ele>
        <time>2023-07-03T10:36:05Z</time>
      </trkpt>
      <trkpt lat="43.93395" lon="0.30539">
        <ele>63.6</ele>
        <time>2023-07-03T10:36:06Z</time>
      </trkpt>
      <trkpt lat="43.93401" lon="0.3055">
        <ele>63.4</ele>
        <time>2023-07-03T10:36:13Z</time>
      </trkpt>
      <trkpt lat="43.93404" lon="0.30555">
        <ele>63.4</ele>
        <time>2023-07-03T10:36:16Z</time>
      </trkpt>
      <trkpt lat="43.93405" lon="0.3056">
        <ele>63.4</ele>
        <time>2023-07-03T10:36:19Z</time>
      </trkpt>
      <trkpt lat="43.93411" lon="0.30571">
        <ele>63.4</ele>
        <time>2023-07-03T10:36:27Z</time>
      </trkpt>
      <trkpt lat="43.93413" lon="0.30579">
        <ele>63.6</ele>
        <time>2023-07-03T10:36:33Z</time>
      </trkpt>
      <trkpt lat="43.93413" lon="0.30581">
        <ele>63.4</ele>
        <time>2023-07-03T10:36:34Z</time>
      </trkpt>
      <trkpt lat="43.93415" lon="0.30594">
        <ele>63.8</ele>
        <time>2023-07-03T10:36:41Z</time>
      </trkpt>
      <trkpt lat="43.93419" lon="0.30609">
        <ele>63.6</ele>
        <time>2023-07-03T10:36:49Z</time>
      </trkpt>
      <trkpt lat="43.93421" lon="0.30628">
        <ele>64</ele>
        <time>2023-07-03T10:36:59Z</time>
      </trkpt>
      <trkpt lat="43.93421" lon="0.30642">
        <ele>64</ele>
        <time>2023-07-03T10:37:07Z</time>
      </trkpt>
      <trkpt lat="43.93424" lon="0.30654">
        <ele>64.2</ele>
        <time>2023-07-03T10:37:13Z</time>
      </trkpt>
      <trkpt lat="43.93424" lon="0.30656">
        <ele>64.2</ele>
        <time>2023-07-03T10:37:14Z</time>
      </trkpt>
      <trkpt lat="43.93425" lon="0.30659">
        <ele>64.2</ele>
        <time>2023-07-03T10:37:16Z</time>
      </trkpt>
      <trkpt lat="43.93425" lon="0.30665">
        <ele>64.2</ele>
        <time>2023-07-03T10:37:19Z</time>
      </trkpt>
      <trkpt lat="43.93425" lon="0.30669">
        <ele>64.2</ele>
        <time>2023-07-03T10:37:21Z</time>
      </trkpt>
      <trkpt lat="43.93425" lon="0.3067">
        <ele>64.2</ele>
        <time>2023-07-03T10:37:22Z</time>
      </trkpt>
      <trkpt lat="43.93424" lon="0.30676">
        <ele>64.2</ele>
        <time>2023-07-03T10:37:25Z</time>
      </trkpt>
      <trkpt lat="43.93428" lon="0.30692">
        <ele>64.2</ele>
        <time>2023-07-03T10:37:33Z</time>
      </trkpt>
      <trkpt lat="43.93429" lon="0.30695">
        <ele>64.4</ele>
        <time>2023-07-03T10:37:35Z</time>
      </trkpt>
      <trkpt lat="43.93429" lon="0.307">
        <ele>64.4</ele>
        <time>2023-07-03T10:37:38Z</time>
      </trkpt>
      <trkpt lat="43.93429" lon="0.30702">
        <ele>64.4</ele>
        <time>2023-07-03T10:37:39Z</time>
      </trkpt>
      <trkpt lat="43.93427" lon="0.30707">
        <ele>65</ele>
        <time>2023-07-03T10:37:43Z</time>
      </trkpt>
      <trkpt lat="43.93428" lon="0.30709">
        <ele>65</ele>
        <time>2023-07-03T10:37:45Z</time>
      </trkpt>
      <trkpt lat="43.93427" lon="0.3071">
        <ele>65</ele>
        <time>2023-07-03T10:37:46Z</time>
      </trkpt>
      <trkpt lat="43.93428" lon="0.30711">
        <ele>65</ele>
        <time>2023-07-03T10:37:47Z</time>
      </trkpt>
      <trkpt lat="43.93429" lon="0.30714">
        <ele>65.2</ele>
        <time>2023-07-03T10:37:52Z</time>
      </trkpt>
      <trkpt lat="43.93431" lon="0.30718">
        <ele>65.2</ele>
        <time>2023-07-03T10:37:55Z</time>
      </trkpt>
      <trkpt lat="43.93431" lon="0.30719">
        <ele>65.2</ele>
        <time>2023-07-03T10:37:56Z</time>
      </trkpt>
      <trkpt lat="43.93431" lon="0.30721">
        <ele>65.2</ele>
        <time>2023-07-03T10:37:57Z</time>
      </trkpt>
      <trkpt lat="43.93432" lon="0.30723">
        <ele>65.2</ele>
        <time>2023-07-03T10:37:58Z</time>
      </trkpt>
      <trkpt lat="43.93432" lon="0.30724">
        <ele>65.2</ele>
        <time>2023-07-03T10:37:59Z</time>
      </trkpt>
      <trkpt lat="43.93432" lon="0.30726">
        <ele>65.4</ele>
        <time>2023-07-03T10:38:00Z</time>
      </trkpt>
      <trkpt lat="43.93433" lon="0.30731">
        <ele>65.2</ele>
        <time>2023-07-03T10:38:03Z</time>
      </trkpt>
      <trkpt lat="43.93433" lon="0.30732">
        <ele>65.2</ele>
        <time>2023-07-03T10:38:04Z</time>
      </trkpt>
      <trkpt lat="43.93433" lon="0.30732">
        <ele>65.2</ele>
        <time>2023-07-03T10:38:05Z</time>
      </trkpt>
      <trkpt lat="43.93435" lon="0.30735">
        <ele>65.2</ele>
        <time>2023-07-03T10:38:07Z</time>
      </trkpt>
      <trkpt lat="43.93439" lon="0.30738">
        <ele>65</ele>
        <time>2023-07-03T10:38:10Z</time>
      </trkpt>
      <trkpt lat="43.93443" lon="0.30745">
        <ele>65.4</ele>
        <time>2023-07-03T10:38:16Z</time>
      </trkpt>
      <trkpt lat="43.93445" lon="0.30749">
        <ele>65.4</ele>
        <time>2023-07-03T10:38:20Z</time>
      </trkpt>
      <trkpt lat="43.93447" lon="0.30751">
        <ele>65.4</ele>
        <time>2023-07-03T10:38:22Z</time>
      </trkpt>
      <trkpt lat="43.93448" lon="0.30752">
        <ele>65.4</ele>
        <time>2023-07-03T10:38:23Z</time>
      </trkpt>
      <trkpt lat="43.9345" lon="0.30754">
        <ele>65.4</ele>
        <time>2023-07-03T10:38:24Z</time>
      </trkpt>
      <trkpt lat="43.93451" lon="0.3076">
        <ele>65.4</ele>
        <time>2023-07-03T10:38:27Z</time>
      </trkpt>
      <trkpt lat="43.93452" lon="0.30762">
        <ele>65.4</ele>
        <time>2023-07-03T10:38:28Z</time>
      </trkpt>
      <trkpt lat="43.93452" lon="0.30764">
        <ele>65.4</ele>
        <time>2023-07-03T10:38:29Z</time>
      </trkpt>
      <trkpt lat="43.93454" lon="0.30765">
        <ele>65.6</ele>
        <time>2023-07-03T10:38:30Z</time>
      </trkpt>
      <trkpt lat="43.93455" lon="0.30767">
        <ele>65.4</ele>
        <time>2023-07-03T10:38:31Z</time>
      </trkpt>
      <trkpt lat="43.93456" lon="0.30768">
        <ele>65.4</ele>
        <time>2023-07-03T10:38:32Z</time>
      </trkpt>
      <trkpt lat="43.93457" lon="0.3077">
        <ele>65.4</ele>
        <time>2023-07-03T10:38:33Z</time>
      </trkpt>
      <trkpt lat="43.93458" lon="0.30771">
        <ele>65.6</ele>
        <time>2023-07-03T10:38:34Z</time>
      </trkpt>
      <trkpt lat="43.93459" lon="0.30772">
        <ele>65.6</ele>
        <time>2023-07-03T10:38:35Z</time>
      </trkpt>
      <trkpt lat="43.9346" lon="0.30773">
        <ele>65.8</ele>
        <time>2023-07-03T10:38:36Z</time>
      </trkpt>
      <trkpt lat="43.93462" lon="0.30775">
        <ele>66</ele>
        <time>2023-07-03T10:38:38Z</time>
      </trkpt>
      <trkpt lat="43.93467" lon="0.30777">
        <ele>66.2</ele>
        <time>2023-07-03T10:38:41Z</time>
      </trkpt>
      <trkpt lat="43.9347" lon="0.30782">
        <ele>66.2</ele>
        <time>2023-07-03T10:38:45Z</time>
      </trkpt>
      <trkpt lat="43.93471" lon="0.30782">
        <ele>66.2</ele>
        <time>2023-07-03T10:38:46Z</time>
      </trkpt>
      <trkpt lat="43.93472" lon="0.30785">
        <ele>66.2</ele>
        <time>2023-07-03T10:38:48Z</time>
      </trkpt>
      <trkpt lat="43.93473" lon="0.30792">
        <ele>66.4</ele>
        <time>2023-07-03T10:38:52Z</time>
      </trkpt>
      <trkpt lat="43.93473" lon="0.30794">
        <ele>66.6</ele>
        <time>2023-07-03T10:38:53Z</time>
      </trkpt>
      <trkpt lat="43.93474" lon="0.30797">
        <ele>66.4</ele>
        <time>2023-07-03T10:38:55Z</time>
      </trkpt>
      <trkpt lat="43.93476" lon="0.30801">
        <ele>66.2</ele>
        <time>2023-07-03T10:38:58Z</time>
      </trkpt>
      <trkpt lat="43.93476" lon="0.30803">
        <ele>66.2</ele>
        <time>2023-07-03T10:38:59Z</time>
      </trkpt>
      <trkpt lat="43.93478" lon="0.30806">
        <ele>66.4</ele>
        <time>2023-07-03T10:39:01Z</time>
      </trkpt>
      <trkpt lat="43.93482" lon="0.30811">
        <ele>66.6</ele>
        <time>2023-07-03T10:39:05Z</time>
      </trkpt>
      <trkpt lat="43.93483" lon="0.30816">
        <ele>66.8</ele>
        <time>2023-07-03T10:39:08Z</time>
      </trkpt>
      <trkpt lat="43.93484" lon="0.30818">
        <ele>66.8</ele>
        <time>2023-07-03T10:39:10Z</time>
      </trkpt>
      <trkpt lat="43.93485" lon="0.30819">
        <ele>66.8</ele>
        <time>2023-07-03T10:39:11Z</time>
      </trkpt>
      <trkpt lat="43.93488" lon="0.30825">
        <ele>66.8</ele>
        <time>2023-07-03T10:39:16Z</time>
      </trkpt>
      <trkpt lat="43.93489" lon="0.30829">
        <ele>67</ele>
        <time>2023-07-03T10:39:18Z</time>
      </trkpt>
      <trkpt lat="43.93492" lon="0.30835">
        <ele>67.4</ele>
        <time>2023-07-03T10:39:21Z</time>
      </trkpt>
      <trkpt lat="43.93493" lon="0.30838">
        <ele>67.6</ele>
        <time>2023-07-03T10:39:23Z</time>
      </trkpt>
      <trkpt lat="43.93496" lon="0.30841">
        <ele>67.8</ele>
        <time>2023-07-03T10:39:26Z</time>
      </trkpt>
      <trkpt lat="43.93496" lon="0.30843">
        <ele>68</ele>
        <time>2023-07-03T10:39:28Z</time>
      </trkpt>
      <trkpt lat="43.93497" lon="0.30846">
        <ele>68.4</ele>
        <time>2023-07-03T10:39:31Z</time>
      </trkpt>
      <trkpt lat="43.93497" lon="0.30848">
        <ele>68.4</ele>
        <time>2023-07-03T10:39:32Z</time>
      </trkpt>
      <trkpt lat="43.93498" lon="0.30849">
        <ele>68.6</ele>
        <time>2023-07-03T10:39:33Z</time>
      </trkpt>
      <trkpt lat="43.93499" lon="0.30853">
        <ele>68.6</ele>
        <time>2023-07-03T10:39:35Z</time>
      </trkpt>
      <trkpt lat="43.935" lon="0.30856">
        <ele>69</ele>
        <time>2023-07-03T10:39:37Z</time>
      </trkpt>
      <trkpt lat="43.935" lon="0.30858">
        <ele>69</ele>
        <time>2023-07-03T10:39:38Z</time>
      </trkpt>
      <trkpt lat="43.93501" lon="0.3086">
        <ele>69.2</ele>
        <time>2023-07-03T10:39:39Z</time>
      </trkpt>
      <trkpt lat="43.93504" lon="0.30868">
        <ele>69.8</ele>
        <time>2023-07-03T10:39:44Z</time>
      </trkpt>
      <trkpt lat="43.93504" lon="0.30869">
        <ele>70</ele>
        <time>2023-07-03T10:39:45Z</time>
      </trkpt>
      <trkpt lat="43.93505" lon="0.3087">
        <ele>70</ele>
        <time>2023-07-03T10:39:46Z</time>
      </trkpt>
      <trkpt lat="43.93505" lon="0.30871">
        <ele>70.4</ele>
        <time>2023-07-03T10:39:47Z</time>
      </trkpt>
      <trkpt lat="43.93507" lon="0.30873">
        <ele>70.6</ele>
        <time>2023-07-03T10:39:49Z</time>
      </trkpt>
      <trkpt lat="43.9351" lon="0.30878">
        <ele>71.2</ele>
        <time>2023-07-03T10:39:52Z</time>
      </trkpt>
      <trkpt lat="43.9351" lon="0.30879">
        <ele>71.4</ele>
        <time>2023-07-03T10:39:53Z</time>
      </trkpt>
      <trkpt lat="43.93514" lon="0.30887">
        <ele>72</ele>
        <time>2023-07-03T10:39:57Z</time>
      </trkpt>
      <trkpt lat="43.93515" lon="0.3089">
        <ele>72.2</ele>
        <time>2023-07-03T10:39:59Z</time>
      </trkpt>
      <trkpt lat="43.93516" lon="0.30892">
        <ele>72.4</ele>
        <time>2023-07-03T10:40:01Z</time>
      </trkpt>
      <trkpt lat="43.93516" lon="0.30892">
        <ele>72.4</ele>
        <time>2023-07-03T10:40:02Z</time>
      </trkpt>
      <trkpt lat="43.93516" lon="0.30894">
        <ele>72.8</ele>
        <time>2023-07-03T10:40:03Z</time>
      </trkpt>
      <trkpt lat="43.93517" lon="0.30895">
        <ele>73</ele>
        <time>2023-07-03T10:40:04Z</time>
      </trkpt>
      <trkpt lat="43.93518" lon="0.30897">
        <ele>73</ele>
        <time>2023-07-03T10:40:05Z</time>
      </trkpt>
      <trkpt lat="43.93518" lon="0.30903">
        <ele>73.2</ele>
        <time>2023-07-03T10:40:10Z</time>
      </trkpt>
      <trkpt lat="43.93518" lon="0.30904">
        <ele>73.4</ele>
        <time>2023-07-03T10:40:11Z</time>
      </trkpt>
      <trkpt lat="43.93521" lon="0.30908">
        <ele>74</ele>
        <time>2023-07-03T10:40:15Z</time>
      </trkpt>
      <trkpt lat="43.93523" lon="0.30909">
        <ele>74.2</ele>
        <time>2023-07-03T10:40:17Z</time>
      </trkpt>
      <trkpt lat="43.93524" lon="0.30911">
        <ele>74.4</ele>
        <time>2023-07-03T10:40:19Z</time>
      </trkpt>
      <trkpt lat="43.93525" lon="0.30912">
        <ele>74.6</ele>
        <time>2023-07-03T10:40:20Z</time>
      </trkpt>
      <trkpt lat="43.9353" lon="0.30923">
        <ele>75.4</ele>
        <time>2023-07-03T10:40:27Z</time>
      </trkpt>
      <trkpt lat="43.93531" lon="0.30926">
        <ele>75.6</ele>
        <time>2023-07-03T10:40:29Z</time>
      </trkpt>
      <trkpt lat="43.93532" lon="0.30928">
        <ele>75.6</ele>
        <time>2023-07-03T10:40:30Z</time>
      </trkpt>
      <trkpt lat="43.93536" lon="0.30933">
        <ele>75.8</ele>
        <time>2023-07-03T10:40:33Z</time>
      </trkpt>
      <trkpt lat="43.93538" lon="0.30935">
        <ele>76</ele>
        <time>2023-07-03T10:40:34Z</time>
      </trkpt>
      <trkpt lat="43.9354" lon="0.30943">
        <ele>76.4</ele>
        <time>2023-07-03T10:40:39Z</time>
      </trkpt>
      <trkpt lat="43.93541" lon="0.30945">
        <ele>76.6</ele>
        <time>2023-07-03T10:40:41Z</time>
      </trkpt>
      <trkpt lat="43.93542" lon="0.30947">
        <ele>76.8</ele>
        <time>2023-07-03T10:40:42Z</time>
      </trkpt>
      <trkpt lat="43.93543" lon="0.30951">
        <ele>77</ele>
        <time>2023-07-03T10:40:45Z</time>
      </trkpt>
      <trkpt lat="43.93545" lon="0.30959">
        <ele>77.6</ele>
        <time>2023-07-03T10:40:50Z</time>
      </trkpt>
      <trkpt lat="43.93546" lon="0.30962">
        <ele>77.6</ele>
        <time>2023-07-03T10:40:52Z</time>
      </trkpt>
      <trkpt lat="43.93544" lon="0.3097">
        <ele>78.2</ele>
        <time>2023-07-03T10:40:56Z</time>
      </trkpt>
      <trkpt lat="43.93544" lon="0.30971">
        <ele>78.4</ele>
        <time>2023-07-03T10:40:57Z</time>
      </trkpt>
      <trkpt lat="43.9354" lon="0.30981">
        <ele>78.8</ele>
        <time>2023-07-03T10:41:02Z</time>
      </trkpt>
      <trkpt lat="43.9354" lon="0.30985">
        <ele>78.8</ele>
        <time>2023-07-03T10:41:05Z</time>
      </trkpt>
      <trkpt lat="43.93534" lon="0.30999">
        <ele>79.8</ele>
        <time>2023-07-03T10:41:14Z</time>
      </trkpt>
      <trkpt lat="43.93534" lon="0.31008">
        <ele>80.4</ele>
        <time>2023-07-03T10:41:19Z</time>
      </trkpt>
      <trkpt lat="43.93532" lon="0.31019">
        <ele>80.6</ele>
        <time>2023-07-03T10:41:26Z</time>
      </trkpt>
      <trkpt lat="43.93532" lon="0.31023">
        <ele>80.8</ele>
        <time>2023-07-03T10:41:29Z</time>
      </trkpt>
      <trkpt lat="43.93531" lon="0.31028">
        <ele>81</ele>
        <time>2023-07-03T10:41:31Z</time>
      </trkpt>
      <trkpt lat="43.93531" lon="0.3103">
        <ele>81</ele>
        <time>2023-07-03T10:41:32Z</time>
      </trkpt>
      <trkpt lat="43.9353" lon="0.31032">
        <ele>81.2</ele>
        <time>2023-07-03T10:41:33Z</time>
      </trkpt>
      <trkpt lat="43.93529" lon="0.31039">
        <ele>81.6</ele>
        <time>2023-07-03T10:41:37Z</time>
      </trkpt>
      <trkpt lat="43.93529" lon="0.31041">
        <ele>81.6</ele>
        <time>2023-07-03T10:41:39Z</time>
      </trkpt>
      <trkpt lat="43.9353" lon="0.31042">
        <ele>81.8</ele>
        <time>2023-07-03T10:41:40Z</time>
      </trkpt>
      <trkpt lat="43.93529" lon="0.31044">
        <ele>82</ele>
        <time>2023-07-03T10:41:42Z</time>
      </trkpt>
      <trkpt lat="43.9353" lon="0.31048">
        <ele>82</ele>
        <time>2023-07-03T10:41:44Z</time>
      </trkpt>
      <trkpt lat="43.9353" lon="0.31051">
        <ele>82</ele>
        <time>2023-07-03T10:41:46Z</time>
      </trkpt>
      <trkpt lat="43.9353" lon="0.31052">
        <ele>82</ele>
        <time>2023-07-03T10:41:47Z</time>
      </trkpt>
      <trkpt lat="43.9353" lon="0.31062">
        <ele>82.2</ele>
        <time>2023-07-03T10:41:53Z</time>
      </trkpt>
      <trkpt lat="43.93529" lon="0.31066">
        <ele>82.2</ele>
        <time>2023-07-03T10:41:56Z</time>
      </trkpt>
      <trkpt lat="43.9353" lon="0.31071">
        <ele>82.2</ele>
        <time>2023-07-03T10:41:59Z</time>
      </trkpt>
      <trkpt lat="43.93529" lon="0.31076">
        <ele>82.4</ele>
        <time>2023-07-03T10:42:01Z</time>
      </trkpt>
      <trkpt lat="43.93528" lon="0.31082">
        <ele>82.6</ele>
        <time>2023-07-03T10:42:03Z</time>
      </trkpt>
      <trkpt lat="43.93525" lon="0.31092">
        <ele>82.8</ele>
        <time>2023-07-03T10:42:08Z</time>
      </trkpt>
      <trkpt lat="43.93524" lon="0.31096">
        <ele>83</ele>
        <time>2023-07-03T10:42:11Z</time>
      </trkpt>
      <trkpt lat="43.93524" lon="0.31098">
        <ele>83</ele>
        <time>2023-07-03T10:42:12Z</time>
      </trkpt>
      <trkpt lat="43.93524" lon="0.31101">
        <ele>83</ele>
        <time>2023-07-03T10:42:13Z</time>
      </trkpt>
      <trkpt lat="43.93524" lon="0.31103">
        <ele>83</ele>
        <time>2023-07-03T10:42:14Z</time>
      </trkpt>
      <trkpt lat="43.93523" lon="0.31105">
        <ele>83.2</ele>
        <time>2023-07-03T10:42:15Z</time>
      </trkpt>
      <trkpt lat="43.93521" lon="0.31114">
        <ele>83.8</ele>
        <time>2023-07-03T10:42:20Z</time>
      </trkpt>
      <trkpt lat="43.9352" lon="0.31121">
        <ele>84</ele>
        <time>2023-07-03T10:42:23Z</time>
      </trkpt>
      <trkpt lat="43.93521" lon="0.31129">
        <ele>84.2</ele>
        <time>2023-07-03T10:42:28Z</time>
      </trkpt>
      <trkpt lat="43.93522" lon="0.31133">
        <ele>84.2</ele>
        <time>2023-07-03T10:42:30Z</time>
      </trkpt>
      <trkpt lat="43.93522" lon="0.31136">
        <ele>84.4</ele>
        <time>2023-07-03T10:42:32Z</time>
      </trkpt>
      <trkpt lat="43.93521" lon="0.3114">
        <ele>84.8</ele>
        <time>2023-07-03T10:42:34Z</time>
      </trkpt>
      <trkpt lat="43.93521" lon="0.31141">
        <ele>84.8</ele>
        <time>2023-07-03T10:42:35Z</time>
      </trkpt>
      <trkpt lat="43.93518" lon="0.31146">
        <ele>85</ele>
        <time>2023-07-03T10:42:37Z</time>
      </trkpt>
      <trkpt lat="43.93515" lon="0.31152">
        <ele>85.4</ele>
        <time>2023-07-03T10:42:41Z</time>
      </trkpt>
      <trkpt lat="43.93515" lon="0.31156">
        <ele>85.8</ele>
        <time>2023-07-03T10:42:44Z</time>
      </trkpt>
      <trkpt lat="43.93517" lon="0.31159">
        <ele>86</ele>
        <time>2023-07-03T10:42:46Z</time>
      </trkpt>
      <trkpt lat="43.93517" lon="0.3116">
        <ele>86.2</ele>
        <time>2023-07-03T10:42:47Z</time>
      </trkpt>
      <trkpt lat="43.93519" lon="0.31163">
        <ele>86.2</ele>
        <time>2023-07-03T10:42:49Z</time>
      </trkpt>
      <trkpt lat="43.93519" lon="0.31165">
        <ele>86.2</ele>
        <time>2023-07-03T10:42:50Z</time>
      </trkpt>
      <trkpt lat="43.93522" lon="0.31171">
        <ele>86.2</ele>
        <time>2023-07-03T10:42:54Z</time>
      </trkpt>
      <trkpt lat="43.93523" lon="0.31173">
        <ele>86.2</ele>
        <time>2023-07-03T10:42:55Z</time>
      </trkpt>
      <trkpt lat="43.93522" lon="0.31177">
        <ele>86.2</ele>
        <time>2023-07-03T10:42:57Z</time>
      </trkpt>
      <trkpt lat="43.93522" lon="0.31191">
        <ele>86.8</ele>
        <time>2023-07-03T10:43:02Z</time>
      </trkpt>
      <trkpt lat="43.9352" lon="0.31206">
        <ele>86.8</ele>
        <time>2023-07-03T10:43:09Z</time>
      </trkpt>
      <trkpt lat="43.9352" lon="0.3121">
        <ele>86.8</ele>
        <time>2023-07-03T10:43:11Z</time>
      </trkpt>
      <trkpt lat="43.9352" lon="0.31211">
        <ele>86.8</ele>
        <time>2023-07-03T10:43:12Z</time>
      </trkpt>
      <trkpt lat="43.9352" lon="0.31213">
        <ele>87</ele>
        <time>2023-07-03T10:43:13Z</time>
      </trkpt>
      <trkpt lat="43.93521" lon="0.31217">
        <ele>87</ele>
        <time>2023-07-03T10:43:15Z</time>
      </trkpt>
      <trkpt lat="43.93521" lon="0.31221">
        <ele>87.2</ele>
        <time>2023-07-03T10:43:17Z</time>
      </trkpt>
      <trkpt lat="43.93523" lon="0.31231">
        <ele>86.8</ele>
        <time>2023-07-03T10:43:22Z</time>
      </trkpt>
      <trkpt lat="43.93523" lon="0.31233">
        <ele>86.8</ele>
        <time>2023-07-03T10:43:23Z</time>
      </trkpt>
      <trkpt lat="43.93524" lon="0.31236">
        <ele>87</ele>
        <time>2023-07-03T10:43:26Z</time>
      </trkpt>
      <trkpt lat="43.93525" lon="0.31238">
        <ele>87.4</ele>
        <time>2023-07-03T10:43:29Z</time>
      </trkpt>
      <trkpt lat="43.93528" lon="0.31247">
        <ele>88</ele>
        <time>2023-07-03T10:43:36Z</time>
      </trkpt>
      <trkpt lat="43.93528" lon="0.3125">
        <ele>88</ele>
        <time>2023-07-03T10:43:38Z</time>
      </trkpt>
      <trkpt lat="43.93527" lon="0.3126">
        <ele>88</ele>
        <time>2023-07-03T10:43:44Z</time>
      </trkpt>
      <trkpt lat="43.93526" lon="0.31262">
        <ele>88.2</ele>
        <time>2023-07-03T10:43:45Z</time>
      </trkpt>
      <trkpt lat="43.93524" lon="0.31282">
        <ele>88.6</ele>
        <time>2023-07-03T10:43:52Z</time>
      </trkpt>
      <trkpt lat="43.93524" lon="0.31296">
        <ele>88.6</ele>
        <time>2023-07-03T10:43:58Z</time>
      </trkpt>
      <trkpt lat="43.93525" lon="0.31299">
        <ele>88.6</ele>
        <time>2023-07-03T10:44:00Z</time>
      </trkpt>
      <trkpt lat="43.93526" lon="0.31301">
        <ele>89</ele>
        <time>2023-07-03T10:44:02Z</time>
      </trkpt>
      <trkpt lat="43.93526" lon="0.31302">
        <ele>89</ele>
        <time>2023-07-03T10:44:03Z</time>
      </trkpt>
      <trkpt lat="43.93528" lon="0.31303">
        <ele>89</ele>
        <time>2023-07-03T10:44:06Z</time>
      </trkpt>
      <trkpt lat="43.93534" lon="0.31303">
        <ele>89</ele>
        <time>2023-07-03T10:44:10Z</time>
      </trkpt>
      <trkpt lat="43.93535" lon="0.31302">
        <ele>89.2</ele>
        <time>2023-07-03T10:44:12Z</time>
      </trkpt>
      <trkpt lat="43.93536" lon="0.31302">
        <ele>89.2</ele>
        <time>2023-07-03T10:44:13Z</time>
      </trkpt>
      <trkpt lat="43.93536" lon="0.31302">
        <ele>89.4</ele>
        <time>2023-07-03T10:44:14Z</time>
      </trkpt>
      <trkpt lat="43.93537" lon="0.31303">
        <ele>89.4</ele>
        <time>2023-07-03T10:44:15Z</time>
      </trkpt>
      <trkpt lat="43.93537" lon="0.31304">
        <ele>89.6</ele>
        <time>2023-07-03T10:44:17Z</time>
      </trkpt>
      <trkpt lat="43.93537" lon="0.31305">
        <ele>89.6</ele>
        <time>2023-07-03T10:44:18Z</time>
      </trkpt>
      <trkpt lat="43.93537" lon="0.31307">
        <ele>89.8</ele>
        <time>2023-07-03T10:44:20Z</time>
      </trkpt>
      <trkpt lat="43.93536" lon="0.31308">
        <ele>90.4</ele>
        <time>2023-07-03T10:44:23Z</time>
      </trkpt>
      <trkpt lat="43.93536" lon="0.31309">
        <ele>90.6</ele>
        <time>2023-07-03T10:44:25Z</time>
      </trkpt>
      <trkpt lat="43.93536" lon="0.3131">
        <ele>90.6</ele>
        <time>2023-07-03T10:44:26Z</time>
      </trkpt>
      <trkpt lat="43.93536" lon="0.31316">
        <ele>91.4</ele>
        <time>2023-07-03T10:44:31Z</time>
      </trkpt>
      <trkpt lat="43.93535" lon="0.31317">
        <ele>91.4</ele>
        <time>2023-07-03T10:44:32Z</time>
      </trkpt>
      <trkpt lat="43.93535" lon="0.31319">
        <ele>91.6</ele>
        <time>2023-07-03T10:44:33Z</time>
      </trkpt>
      <trkpt lat="43.93535" lon="0.3132">
        <ele>91.8</ele>
        <time>2023-07-03T10:44:34Z</time>
      </trkpt>
      <trkpt lat="43.93535" lon="0.31324">
        <ele>92.2</ele>
        <time>2023-07-03T10:44:37Z</time>
      </trkpt>
      <trkpt lat="43.93535" lon="0.31325">
        <ele>92.2</ele>
        <time>2023-07-03T10:44:38Z</time>
      </trkpt>
      <trkpt lat="43.93535" lon="0.31325">
        <ele>92.6</ele>
        <time>2023-07-03T10:44:39Z</time>
      </trkpt>
      <trkpt lat="43.93535" lon="0.31326">
        <ele>92.6</ele>
        <time>2023-07-03T10:44:40Z</time>
      </trkpt>
      <trkpt lat="43.93534" lon="0.3133">
        <ele>93.2</ele>
        <time>2023-07-03T10:44:43Z</time>
      </trkpt>
      <trkpt lat="43.93534" lon="0.31332">
        <ele>93.2</ele>
        <time>2023-07-03T10:44:45Z</time>
      </trkpt>
      <trkpt lat="43.93536" lon="0.31335">
        <ele>93.4</ele>
        <time>2023-07-03T10:44:47Z</time>
      </trkpt>
      <trkpt lat="43.93536" lon="0.31337">
        <ele>93.6</ele>
        <time>2023-07-03T10:44:48Z</time>
      </trkpt>
      <trkpt lat="43.93537" lon="0.3134">
        <ele>94.2</ele>
        <time>2023-07-03T10:44:51Z</time>
      </trkpt>
      <trkpt lat="43.93538" lon="0.31343">
        <ele>94.6</ele>
        <time>2023-07-03T10:44:53Z</time>
      </trkpt>
      <trkpt lat="43.93539" lon="0.31345">
        <ele>94.6</ele>
        <time>2023-07-03T10:44:54Z</time>
      </trkpt>
      <trkpt lat="43.93542" lon="0.31349">
        <ele>95.6</ele>
        <time>2023-07-03T10:44:57Z</time>
      </trkpt>
      <trkpt lat="43.93543" lon="0.3135">
        <ele>95.8</ele>
        <time>2023-07-03T10:44:58Z</time>
      </trkpt>
      <trkpt lat="43.93543" lon="0.31351">
        <ele>95.8</ele>
        <time>2023-07-03T10:44:59Z</time>
      </trkpt>
      <trkpt lat="43.93544" lon="0.31354">
        <ele>95.8</ele>
        <time>2023-07-03T10:45:01Z</time>
      </trkpt>
      <trkpt lat="43.93549" lon="0.31361">
        <ele>96.2</ele>
        <time>2023-07-03T10:45:07Z</time>
      </trkpt>
      <trkpt lat="43.9355" lon="0.31362">
        <ele>96.2</ele>
        <time>2023-07-03T10:45:08Z</time>
      </trkpt>
      <trkpt lat="43.93551" lon="0.31365">
        <ele>96.4</ele>
        <time>2023-07-03T10:45:10Z</time>
      </trkpt>
      <trkpt lat="43.93554" lon="0.31368">
        <ele>96.8</ele>
        <time>2023-07-03T10:45:13Z</time>
      </trkpt>
      <trkpt lat="43.93555" lon="0.31371">
        <ele>97</ele>
        <time>2023-07-03T10:45:16Z</time>
      </trkpt>
      <trkpt lat="43.93556" lon="0.31372">
        <ele>97</ele>
        <time>2023-07-03T10:45:18Z</time>
      </trkpt>
      <trkpt lat="43.93556" lon="0.31373">
        <ele>97</ele>
        <time>2023-07-03T10:45:19Z</time>
      </trkpt>
      <trkpt lat="43.93557" lon="0.31373">
        <ele>97.2</ele>
        <time>2023-07-03T10:45:20Z</time>
      </trkpt>
      <trkpt lat="43.93558" lon="0.31375">
        <ele>97.4</ele>
        <time>2023-07-03T10:45:22Z</time>
      </trkpt>
      <trkpt lat="43.93559" lon="0.31378">
        <ele>97.8</ele>
        <time>2023-07-03T10:45:24Z</time>
      </trkpt>
      <trkpt lat="43.93562" lon="0.3138">
        <ele>98.2</ele>
        <time>2023-07-03T10:45:26Z</time>
      </trkpt>
      <trkpt lat="43.93565" lon="0.31387">
        <ele>98.8</ele>
        <time>2023-07-03T10:45:32Z</time>
      </trkpt>
      <trkpt lat="43.93566" lon="0.31388">
        <ele>99</ele>
        <time>2023-07-03T10:45:33Z</time>
      </trkpt>
      <trkpt lat="43.93566" lon="0.3139">
        <ele>99</ele>
        <time>2023-07-03T10:45:34Z</time>
      </trkpt>
      <trkpt lat="43.93567" lon="0.31396">
        <ele>99.6</ele>
        <time>2023-07-03T10:45:39Z</time>
      </trkpt>
      <trkpt lat="43.93568" lon="0.31397">
        <ele>99.8</ele>
        <time>2023-07-03T10:45:40Z</time>
      </trkpt>
      <trkpt lat="43.93572" lon="0.31401">
        <ele>100</ele>
        <time>2023-07-03T10:45:43Z</time>
      </trkpt>
      <trkpt lat="43.93572" lon="0.31402">
        <ele>100</ele>
        <time>2023-07-03T10:45:44Z</time>
      </trkpt>
      <trkpt lat="43.93573" lon="0.31403">
        <ele>100.2</ele>
        <time>2023-07-03T10:45:45Z</time>
      </trkpt>
      <trkpt lat="43.9358" lon="0.31413">
        <ele>100.6</ele>
        <time>2023-07-03T10:45:52Z</time>
      </trkpt>
      <trkpt lat="43.93584" lon="0.3142">
        <ele>100.8</ele>
        <time>2023-07-03T10:45:58Z</time>
      </trkpt>
      <trkpt lat="43.93585" lon="0.31422">
        <ele>101</ele>
        <time>2023-07-03T10:45:59Z</time>
      </trkpt>
      <trkpt lat="43.93587" lon="0.31424">
        <ele>101.4</ele>
        <time>2023-07-03T10:46:01Z</time>
      </trkpt>
      <trkpt lat="43.93588" lon="0.31426">
        <ele>101.4</ele>
        <time>2023-07-03T10:46:02Z</time>
      </trkpt>
      <trkpt lat="43.93593" lon="0.31432">
        <ele>102</ele>
        <time>2023-07-03T10:46:07Z</time>
      </trkpt>
      <trkpt lat="43.93599" lon="0.31441">
        <ele>102.6</ele>
        <time>2023-07-03T10:46:14Z</time>
      </trkpt>
      <trkpt lat="43.93602" lon="0.31447">
        <ele>103.2</ele>
        <time>2023-07-03T10:46:19Z</time>
      </trkpt>
      <trkpt lat="43.93604" lon="0.31453">
        <ele>103.6</ele>
        <time>2023-07-03T10:46:23Z</time>
      </trkpt>
      <trkpt lat="43.93606" lon="0.31457">
        <ele>104.2</ele>
        <time>2023-07-03T10:46:27Z</time>
      </trkpt>
      <trkpt lat="43.93606" lon="0.3146">
        <ele>105</ele>
        <time>2023-07-03T10:46:31Z</time>
      </trkpt>
      <trkpt lat="43.93606" lon="0.31461">
        <ele>105.2</ele>
        <time>2023-07-03T10:46:32Z</time>
      </trkpt>
      <trkpt lat="43.93606" lon="0.31462">
        <ele>105.2</ele>
        <time>2023-07-03T10:46:33Z</time>
      </trkpt>
      <trkpt lat="43.93607" lon="0.31467">
        <ele>105.6</ele>
        <time>2023-07-03T10:46:37Z</time>
      </trkpt>
      <trkpt lat="43.93608" lon="0.31468">
        <ele>105.8</ele>
        <time>2023-07-03T10:46:38Z</time>
      </trkpt>
      <trkpt lat="43.93608" lon="0.31469">
        <ele>106</ele>
        <time>2023-07-03T10:46:39Z</time>
      </trkpt>
      <trkpt lat="43.93612" lon="0.31475">
        <ele>106.4</ele>
        <time>2023-07-03T10:46:43Z</time>
      </trkpt>
      <trkpt lat="43.93615" lon="0.31481">
        <ele>107</ele>
        <time>2023-07-03T10:46:48Z</time>
      </trkpt>
      <trkpt lat="43.93615" lon="0.31482">
        <ele>107</ele>
        <time>2023-07-03T10:46:49Z</time>
      </trkpt>
      <trkpt lat="43.93615" lon="0.31485">
        <ele>107.4</ele>
        <time>2023-07-03T10:46:51Z</time>
      </trkpt>
      <trkpt lat="43.93619" lon="0.31492">
        <ele>108.4</ele>
        <time>2023-07-03T10:46:58Z</time>
      </trkpt>
      <trkpt lat="43.93619" lon="0.31493">
        <ele>108.6</ele>
        <time>2023-07-03T10:46:59Z</time>
      </trkpt>
      <trkpt lat="43.9362" lon="0.31494">
        <ele>108.6</ele>
        <time>2023-07-03T10:47:00Z</time>
      </trkpt>
      <trkpt lat="43.93623" lon="0.31496">
        <ele>109</ele>
        <time>2023-07-03T10:47:04Z</time>
      </trkpt>
      <trkpt lat="43.93625" lon="0.31497">
        <ele>109.2</ele>
        <time>2023-07-03T10:47:06Z</time>
      </trkpt>
      <trkpt lat="43.93629" lon="0.31501">
        <ele>109.6</ele>
        <time>2023-07-03T10:47:11Z</time>
      </trkpt>
      <trkpt lat="43.9363" lon="0.31502">
        <ele>109.6</ele>
        <time>2023-07-03T10:47:12Z</time>
      </trkpt>
      <trkpt lat="43.93631" lon="0.31503">
        <ele>109.8</ele>
        <time>2023-07-03T10:47:14Z</time>
      </trkpt>
      <trkpt lat="43.93635" lon="0.31508">
        <ele>110.2</ele>
        <time>2023-07-03T10:47:19Z</time>
      </trkpt>
      <trkpt lat="43.93637" lon="0.3151">
        <ele>110.6</ele>
        <time>2023-07-03T10:47:21Z</time>
      </trkpt>
      <trkpt lat="43.93637" lon="0.31511">
        <ele>110.6</ele>
        <time>2023-07-03T10:47:22Z</time>
      </trkpt>
      <trkpt lat="43.9364" lon="0.31515">
        <ele>110.8</ele>
        <time>2023-07-03T10:47:26Z</time>
      </trkpt>
      <trkpt lat="43.93641" lon="0.31516">
        <ele>111</ele>
        <time>2023-07-03T10:47:28Z</time>
      </trkpt>
      <trkpt lat="43.93642" lon="0.31516">
        <ele>111</ele>
        <time>2023-07-03T10:47:29Z</time>
      </trkpt>
      <trkpt lat="43.93648" lon="0.31519">
        <ele>110.8</ele>
        <time>2023-07-03T10:47:35Z</time>
      </trkpt>
      <trkpt lat="43.93649" lon="0.31519">
        <ele>110.8</ele>
        <time>2023-07-03T10:47:36Z</time>
      </trkpt>
      <trkpt lat="43.9365" lon="0.3152">
        <ele>111</ele>
        <time>2023-07-03T10:47:37Z</time>
      </trkpt>
      <trkpt lat="43.93652" lon="0.31521">
        <ele>111</ele>
        <time>2023-07-03T10:47:40Z</time>
      </trkpt>
      <trkpt lat="43.93653" lon="0.31521">
        <ele>111</ele>
        <time>2023-07-03T10:47:41Z</time>
      </trkpt>
      <trkpt lat="43.93653" lon="0.3152">
        <ele>111</ele>
        <time>2023-07-03T10:47:42Z</time>
      </trkpt>
      <trkpt lat="43.93653" lon="0.3152">
        <ele>111</ele>
        <time>2023-07-03T10:47:43Z</time>
      </trkpt>
      <trkpt lat="43.93651" lon="0.31521">
        <ele>111</ele>
        <time>2023-07-03T10:47:44Z</time>
      </trkpt>
      <trkpt lat="43.9365" lon="0.31522">
        <ele>111</ele>
        <time>2023-07-03T10:47:45Z</time>
      </trkpt>
      <trkpt lat="43.93649" lon="0.31522">
        <ele>111</ele>
        <time>2023-07-03T10:47:46Z</time>
      </trkpt>
      <trkpt lat="43.93649" lon="0.31523">
        <ele>111.2</ele>
        <time>2023-07-03T10:47:47Z</time>
      </trkpt>
      <trkpt lat="43.93648" lon="0.31524">
        <ele>111.4</ele>
        <time>2023-07-03T10:47:49Z</time>
      </trkpt>
      <trkpt lat="43.93648" lon="0.31524">
        <ele>111.4</ele>
        <time>2023-07-03T10:47:50Z</time>
      </trkpt>
      <trkpt lat="43.93648" lon="0.31525">
        <ele>111.6</ele>
        <time>2023-07-03T10:47:52Z</time>
      </trkpt>
      <trkpt lat="43.93648" lon="0.31526">
        <ele>111.6</ele>
        <time>2023-07-03T10:47:53Z</time>
      </trkpt>
      <trkpt lat="43.93649" lon="0.31528">
        <ele>112.4</ele>
        <time>2023-07-03T10:47:56Z</time>
      </trkpt>
      <trkpt lat="43.9365" lon="0.3153">
        <ele>112.6</ele>
        <time>2023-07-03T10:47:57Z</time>
      </trkpt>
      <trkpt lat="43.93651" lon="0.31531">
        <ele>112.8</ele>
        <time>2023-07-03T10:47:58Z</time>
      </trkpt>
      <trkpt lat="43.93655" lon="0.31533">
        <ele>113.4</ele>
        <time>2023-07-03T10:48:02Z</time>
      </trkpt>
      <trkpt lat="43.93656" lon="0.31534">
        <ele>113.4</ele>
        <time>2023-07-03T10:48:03Z</time>
      </trkpt>
      <trkpt lat="43.9366" lon="0.31538">
        <ele>113.8</ele>
        <time>2023-07-03T10:48:08Z</time>
      </trkpt>
      <trkpt lat="43.93661" lon="0.31538">
        <ele>113.8</ele>
        <time>2023-07-03T10:48:09Z</time>
      </trkpt>
      <trkpt lat="43.93663" lon="0.3154">
        <ele>114.4</ele>
        <time>2023-07-03T10:48:12Z</time>
      </trkpt>
      <trkpt lat="43.93667" lon="0.31543">
        <ele>114.6</ele>
        <time>2023-07-03T10:48:16Z</time>
      </trkpt>
      <trkpt lat="43.93668" lon="0.31544">
        <ele>114.6</ele>
        <time>2023-07-03T10:48:17Z</time>
      </trkpt>
      <trkpt lat="43.93669" lon="0.31545">
        <ele>115</ele>
        <time>2023-07-03T10:48:18Z</time>
      </trkpt>
      <trkpt lat="43.93671" lon="0.31546">
        <ele>115.4</ele>
        <time>2023-07-03T10:48:21Z</time>
      </trkpt>
      <trkpt lat="43.93673" lon="0.31548">
        <ele>115.8</ele>
        <time>2023-07-03T10:48:24Z</time>
      </trkpt>
      <trkpt lat="43.93674" lon="0.31549">
        <ele>115.8</ele>
        <time>2023-07-03T10:48:25Z</time>
      </trkpt>
      <trkpt lat="43.93675" lon="0.31551">
        <ele>116</ele>
        <time>2023-07-03T10:48:27Z</time>
      </trkpt>
      <trkpt lat="43.93681" lon="0.31557">
        <ele>116.6</ele>
        <time>2023-07-03T10:48:33Z</time>
      </trkpt>
      <trkpt lat="43.93684" lon="0.3156">
        <ele>117</ele>
        <time>2023-07-03T10:48:37Z</time>
      </trkpt>
      <trkpt lat="43.93685" lon="0.31561">
        <ele>117.2</ele>
        <time>2023-07-03T10:48:38Z</time>
      </trkpt>
      <trkpt lat="43.93687" lon="0.31562">
        <ele>117.6</ele>
        <time>2023-07-03T10:48:41Z</time>
      </trkpt>
      <trkpt lat="43.93688" lon="0.31561">
        <ele>118</ele>
        <time>2023-07-03T10:48:45Z</time>
      </trkpt>
      <trkpt lat="43.93688" lon="0.31561">
        <ele>118.2</ele>
        <time>2023-07-03T10:48:46Z</time>
      </trkpt>
      <trkpt lat="43.9369" lon="0.3156">
        <ele>118.2</ele>
        <time>2023-07-03T10:48:49Z</time>
      </trkpt>
      <trkpt lat="43.93693" lon="0.31565">
        <ele>118.2</ele>
        <time>2023-07-03T10:48:55Z</time>
      </trkpt>
      <trkpt lat="43.93697" lon="0.3157">
        <ele>118.4</ele>
        <time>2023-07-03T10:49:01Z</time>
      </trkpt>
      <trkpt lat="43.93697" lon="0.31571">
        <ele>118.4</ele>
        <time>2023-07-03T10:49:03Z</time>
      </trkpt>
      <trkpt lat="43.93692" lon="0.31567">
        <ele>119</ele>
        <time>2023-07-03T10:49:08Z</time>
      </trkpt>
      <trkpt lat="43.93689" lon="0.31565">
        <ele>118.8</ele>
        <time>2023-07-03T10:49:12Z</time>
      </trkpt>
      <trkpt lat="43.93689" lon="0.31565">
        <ele>118.6</ele>
        <time>2023-07-03T10:49:13Z</time>
      </trkpt>
      <trkpt lat="43.93689" lon="0.31564">
        <ele>118.6</ele>
        <time>2023-07-03T10:49:14Z</time>
      </trkpt>
      <trkpt lat="43.93687" lon="0.31566">
        <ele>118.6</ele>
        <time>2023-07-03T10:49:21Z</time>
      </trkpt>
      <trkpt lat="43.93686" lon="0.31565">
        <ele>118.8</ele>
        <time>2023-07-03T10:49:25Z</time>
      </trkpt>
      <trkpt lat="43.93686" lon="0.31565">
        <ele>118.6</ele>
        <time>2023-07-03T10:49:27Z</time>
      </trkpt>
      <trkpt lat="43.93686" lon="0.31564">
        <ele>118.6</ele>
        <time>2023-07-03T10:49:28Z</time>
      </trkpt>
      <trkpt lat="43.93686" lon="0.31564">
        <ele>118.4</ele>
        <time>2023-07-03T10:49:30Z</time>
      </trkpt>
      <trkpt lat="43.93686" lon="0.31564">
        <ele>118.6</ele>
        <time>2023-07-03T10:49:32Z</time>
      </trkpt>
      <trkpt lat="43.93686" lon="0.31563">
        <ele>119</ele>
        <time>2023-07-03T10:49:39Z</time>
      </trkpt>
      <trkpt lat="43.93681" lon="0.31559">
        <ele>118.8</ele>
        <time>2023-07-03T10:49:45Z</time>
      </trkpt>
      <trkpt lat="43.93678" lon="0.31556">
        <ele>118.8</ele>
        <time>2023-07-03T10:49:48Z</time>
      </trkpt>
      <trkpt lat="43.93676" lon="0.31555">
        <ele>118.2</ele>
        <time>2023-07-03T10:49:51Z</time>
      </trkpt>
      <trkpt lat="43.9367" lon="0.31549">
        <ele>117.6</ele>
        <time>2023-07-03T10:49:58Z</time>
      </trkpt>
      <trkpt lat="43.93669" lon="0.31548">
        <ele>117.6</ele>
        <time>2023-07-03T10:49:59Z</time>
      </trkpt>
      <trkpt lat="43.93662" lon="0.31543">
        <ele>117</ele>
        <time>2023-07-03T10:50:06Z</time>
      </trkpt>
      <trkpt lat="43.9366" lon="0.31541">
        <ele>116.8</ele>
        <time>2023-07-03T10:50:08Z</time>
      </trkpt>
      <trkpt lat="43.93652" lon="0.31535">
        <ele>116.4</ele>
        <time>2023-07-03T10:50:15Z</time>
      </trkpt>
      <trkpt lat="43.93649" lon="0.31532">
        <ele>116</ele>
        <time>2023-07-03T10:50:18Z</time>
      </trkpt>
      <trkpt lat="43.93646" lon="0.31529">
        <ele>115.8</ele>
        <time>2023-07-03T10:50:22Z</time>
      </trkpt>
      <trkpt lat="43.93646" lon="0.31525">
        <ele>114.8</ele>
        <time>2023-07-03T10:50:28Z</time>
      </trkpt>
      <trkpt lat="43.93646" lon="0.31525">
        <ele>114.8</ele>
        <time>2023-07-03T10:50:29Z</time>
      </trkpt>
      <trkpt lat="43.93646" lon="0.31522">
        <ele>114</ele>
        <time>2023-07-03T10:50:35Z</time>
      </trkpt>
      <trkpt lat="43.93649" lon="0.3152">
        <ele>113.8</ele>
        <time>2023-07-03T10:50:40Z</time>
      </trkpt>
      <trkpt lat="43.93649" lon="0.3152">
        <ele>113.8</ele>
        <time>2023-07-03T10:50:42Z</time>
      </trkpt>
      <trkpt lat="43.9365" lon="0.3152">
        <ele>113.8</ele>
        <time>2023-07-03T10:50:43Z</time>
      </trkpt>
      <trkpt lat="43.9365" lon="0.3152">
        <ele>113.8</ele>
        <time>2023-07-03T10:50:44Z</time>
      </trkpt>
      <trkpt lat="43.9365" lon="0.3152">
        <ele>113.8</ele>
        <time>2023-07-03T10:50:45Z</time>
      </trkpt>
      <trkpt lat="43.93651" lon="0.3152">
        <ele>113.8</ele>
        <time>2023-07-03T10:50:46Z</time>
      </trkpt>
      <trkpt lat="43.93651" lon="0.3152">
        <ele>114</ele>
        <time>2023-07-03T10:50:47Z</time>
      </trkpt>
      <trkpt lat="43.93651" lon="0.3152">
        <ele>114</ele>
        <time>2023-07-03T10:50:48Z</time>
      </trkpt>
      <trkpt lat="43.93651" lon="0.3152">
        <ele>114.2</ele>
        <time>2023-07-03T10:50:50Z</time>
      </trkpt>
      <trkpt lat="43.93652" lon="0.31521">
        <ele>114.2</ele>
        <time>2023-07-03T10:50:52Z</time>
      </trkpt>
      <trkpt lat="43.93653" lon="0.31524">
        <ele>114.2</ele>
        <time>2023-07-03T10:50:57Z</time>
      </trkpt>
      <trkpt lat="43.93655" lon="0.31525">
        <ele>114.4</ele>
        <time>2023-07-03T10:50:59Z</time>
      </trkpt>
      <trkpt lat="43.93657" lon="0.31527">
        <ele>114.4</ele>
        <time>2023-07-03T10:51:04Z</time>
      </trkpt>
      <trkpt lat="43.93659" lon="0.31528">
        <ele>114.8</ele>
        <time>2023-07-03T10:51:08Z</time>
      </trkpt>
      <trkpt lat="43.93662" lon="0.3153">
        <ele>115</ele>
        <time>2023-07-03T10:51:11Z</time>
      </trkpt>
      <trkpt lat="43.93663" lon="0.3153">
        <ele>115</ele>
        <time>2023-07-03T10:51:12Z</time>
      </trkpt>
      <trkpt lat="43.93667" lon="0.31532">
        <ele>115.4</ele>
        <time>2023-07-03T10:51:16Z</time>
      </trkpt>
      <trkpt lat="43.93668" lon="0.31533">
        <ele>115.6</ele>
        <time>2023-07-03T10:51:17Z</time>
      </trkpt>
      <trkpt lat="43.93668" lon="0.31533">
        <ele>115.6</ele>
        <time>2023-07-03T10:51:18Z</time>
      </trkpt>
      <trkpt lat="43.93669" lon="0.31533">
        <ele>115.8</ele>
        <time>2023-07-03T10:51:19Z</time>
      </trkpt>
      <trkpt lat="43.93669" lon="0.31533">
        <ele>115.8</ele>
        <time>2023-07-03T10:51:20Z</time>
      </trkpt>
      <trkpt lat="43.93669" lon="0.31533">
        <ele>116</ele>
        <time>2023-07-03T10:51:21Z</time>
      </trkpt>
      <trkpt lat="43.93671" lon="0.31533">
        <ele>116</ele>
        <time>2023-07-03T10:51:24Z</time>
      </trkpt>
      <trkpt lat="43.93673" lon="0.31535">
        <ele>116</ele>
        <time>2023-07-03T10:51:27Z</time>
      </trkpt>
      <trkpt lat="43.93677" lon="0.31539">
        <ele>116.2</ele>
        <time>2023-07-03T10:51:32Z</time>
      </trkpt>
      <trkpt lat="43.93679" lon="0.31541">
        <ele>116.4</ele>
        <time>2023-07-03T10:51:34Z</time>
      </trkpt>
      <trkpt lat="43.93686" lon="0.31547">
        <ele>116.8</ele>
        <time>2023-07-03T10:51:42Z</time>
      </trkpt>
      <trkpt lat="43.93689" lon="0.31549">
        <ele>117</ele>
        <time>2023-07-03T10:51:45Z</time>
      </trkpt>
      <trkpt lat="43.9369" lon="0.31551">
        <ele>117.4</ele>
        <time>2023-07-03T10:51:47Z</time>
      </trkpt>
      <trkpt lat="43.9369" lon="0.31553">
        <ele>117.6</ele>
        <time>2023-07-03T10:51:49Z</time>
      </trkpt>
      <trkpt lat="43.93694" lon="0.31555">
        <ele>118</ele>
        <time>2023-07-03T10:51:54Z</time>
      </trkpt>
      <trkpt lat="43.93695" lon="0.31554">
        <ele>118</ele>
        <time>2023-07-03T10:51:55Z</time>
      </trkpt>
      <trkpt lat="43.93696" lon="0.31554">
        <ele>118.2</ele>
        <time>2023-07-03T10:51:56Z</time>
      </trkpt>
      <trkpt lat="43.93697" lon="0.31551">
        <ele>118.4</ele>
        <time>2023-07-03T10:51:58Z</time>
      </trkpt>
      <trkpt lat="43.93699" lon="0.31547">
        <ele>118.4</ele>
        <time>2023-07-03T10:52:01Z</time>
      </trkpt>
      <trkpt lat="43.93701" lon="0.31538">
        <ele>117.6</ele>
        <time>2023-07-03T10:52:06Z</time>
      </trkpt>
      <trkpt lat="43.93701" lon="0.31535">
        <ele>117.4</ele>
        <time>2023-07-03T10:52:08Z</time>
      </trkpt>
      <trkpt lat="43.93702" lon="0.31531">
        <ele>117.4</ele>
        <time>2023-07-03T10:52:11Z</time>
      </trkpt>
      <trkpt lat="43.93702" lon="0.31529">
        <ele>117.4</ele>
        <time>2023-07-03T10:52:14Z</time>
      </trkpt>
      <trkpt lat="43.93704" lon="0.31523">
        <ele>117.2</ele>
        <time>2023-07-03T10:52:18Z</time>
      </trkpt>
      <trkpt lat="43.93707" lon="0.31519">
        <ele>117.2</ele>
        <time>2023-07-03T10:52:21Z</time>
      </trkpt>
      <trkpt lat="43.93711" lon="0.31508">
        <ele>117.2</ele>
        <time>2023-07-03T10:52:28Z</time>
      </trkpt>
      <trkpt lat="43.93714" lon="0.31506">
        <ele>117.2</ele>
        <time>2023-07-03T10:52:31Z</time>
      </trkpt>
      <trkpt lat="43.93715" lon="0.31505">
        <ele>117.2</ele>
        <time>2023-07-03T10:52:32Z</time>
      </trkpt>
      <trkpt lat="43.93717" lon="0.31499">
        <ele>117</ele>
        <time>2023-07-03T10:52:35Z</time>
      </trkpt>
      <trkpt lat="43.93718" lon="0.31496">
        <ele>117</ele>
        <time>2023-07-03T10:52:37Z</time>
      </trkpt>
      <trkpt lat="43.93718" lon="0.31493">
        <ele>117</ele>
        <time>2023-07-03T10:52:39Z</time>
      </trkpt>
      <trkpt lat="43.93718" lon="0.3149">
        <ele>117.2</ele>
        <time>2023-07-03T10:52:41Z</time>
      </trkpt>
      <trkpt lat="43.93718" lon="0.31486">
        <ele>117.2</ele>
        <time>2023-07-03T10:52:44Z</time>
      </trkpt>
      <trkpt lat="43.9372" lon="0.31482">
        <ele>117.4</ele>
        <time>2023-07-03T10:52:47Z</time>
      </trkpt>
      <trkpt lat="43.9372" lon="0.31481">
        <ele>117.4</ele>
        <time>2023-07-03T10:52:48Z</time>
      </trkpt>
      <trkpt lat="43.93721" lon="0.31478">
        <ele>117.4</ele>
        <time>2023-07-03T10:52:50Z</time>
      </trkpt>
      <trkpt lat="43.93723" lon="0.31473">
        <ele>117.6</ele>
        <time>2023-07-03T10:52:54Z</time>
      </trkpt>
      <trkpt lat="43.93725" lon="0.3147">
        <ele>117.6</ele>
        <time>2023-07-03T10:52:56Z</time>
      </trkpt>
      <trkpt lat="43.93728" lon="0.3146">
        <ele>118</ele>
        <time>2023-07-03T10:53:03Z</time>
      </trkpt>
      <trkpt lat="43.93729" lon="0.31454">
        <ele>118</ele>
        <time>2023-07-03T10:53:07Z</time>
      </trkpt>
      <trkpt lat="43.9373" lon="0.31452">
        <ele>118</ele>
        <time>2023-07-03T10:53:08Z</time>
      </trkpt>
      <trkpt lat="43.93731" lon="0.31451">
        <ele>118</ele>
        <time>2023-07-03T10:53:09Z</time>
      </trkpt>
      <trkpt lat="43.93731" lon="0.31449">
        <ele>118</ele>
        <time>2023-07-03T10:53:11Z</time>
      </trkpt>
      <trkpt lat="43.93731" lon="0.31446">
        <ele>118.2</ele>
        <time>2023-07-03T10:53:13Z</time>
      </trkpt>
      <trkpt lat="43.93733" lon="0.31445">
        <ele>118.2</ele>
        <time>2023-07-03T10:53:14Z</time>
      </trkpt>
      <trkpt lat="43.93741" lon="0.31435">
        <ele>119</ele>
        <time>2023-07-03T10:53:22Z</time>
      </trkpt>
      <trkpt lat="43.93743" lon="0.31431">
        <ele>119.2</ele>
        <time>2023-07-03T10:53:25Z</time>
      </trkpt>
      <trkpt lat="43.93744" lon="0.31431">
        <ele>119.2</ele>
        <time>2023-07-03T10:53:26Z</time>
      </trkpt>
      <trkpt lat="43.93746" lon="0.3143">
        <ele>119.6</ele>
        <time>2023-07-03T10:53:28Z</time>
      </trkpt>
      <trkpt lat="43.9375" lon="0.31422">
        <ele>119.6</ele>
        <time>2023-07-03T10:53:34Z</time>
      </trkpt>
      <trkpt lat="43.93751" lon="0.31421">
        <ele>119.6</ele>
        <time>2023-07-03T10:53:35Z</time>
      </trkpt>
      <trkpt lat="43.93751" lon="0.31419">
        <ele>119.6</ele>
        <time>2023-07-03T10:53:36Z</time>
      </trkpt>
      <trkpt lat="43.93753" lon="0.31412">
        <ele>119.8</ele>
        <time>2023-07-03T10:53:40Z</time>
      </trkpt>
      <trkpt lat="43.93753" lon="0.31408">
        <ele>119.8</ele>
        <time>2023-07-03T10:53:42Z</time>
      </trkpt>
      <trkpt lat="43.93761" lon="0.31401">
        <ele>120</ele>
        <time>2023-07-03T10:53:48Z</time>
      </trkpt>
      <trkpt lat="43.93763" lon="0.31395">
        <ele>120.2</ele>
        <time>2023-07-03T10:53:52Z</time>
      </trkpt>
      <trkpt lat="43.93763" lon="0.31391">
        <ele>120.6</ele>
        <time>2023-07-03T10:53:54Z</time>
      </trkpt>
      <trkpt lat="43.93767" lon="0.31383">
        <ele>120.8</ele>
        <time>2023-07-03T10:54:00Z</time>
      </trkpt>
      <trkpt lat="43.93771" lon="0.31374">
        <ele>120.4</ele>
        <time>2023-07-03T10:54:06Z</time>
      </trkpt>
      <trkpt lat="43.93772" lon="0.3137">
        <ele>120.6</ele>
        <time>2023-07-03T10:54:08Z</time>
      </trkpt>
      <trkpt lat="43.93774" lon="0.31361">
        <ele>120.6</ele>
        <time>2023-07-03T10:54:14Z</time>
      </trkpt>
      <trkpt lat="43.93776" lon="0.31356">
        <ele>120.4</ele>
        <time>2023-07-03T10:54:18Z</time>
      </trkpt>
      <trkpt lat="43.93777" lon="0.31355">
        <ele>120.4</ele>
        <time>2023-07-03T10:54:19Z</time>
      </trkpt>
      <trkpt lat="43.93781" lon="0.31349">
        <ele>120.4</ele>
        <time>2023-07-03T10:54:23Z</time>
      </trkpt>
      <trkpt lat="43.93785" lon="0.31343">
        <ele>120.4</ele>
        <time>2023-07-03T10:54:27Z</time>
      </trkpt>
      <trkpt lat="43.93786" lon="0.3134">
        <ele>120.4</ele>
        <time>2023-07-03T10:54:29Z</time>
      </trkpt>
      <trkpt lat="43.93788" lon="0.31335">
        <ele>120.4</ele>
        <time>2023-07-03T10:54:31Z</time>
      </trkpt>
      <trkpt lat="43.9379" lon="0.3133">
        <ele>120.2</ele>
        <time>2023-07-03T10:54:34Z</time>
      </trkpt>
      <trkpt lat="43.9379" lon="0.31329">
        <ele>120.2</ele>
        <time>2023-07-03T10:54:35Z</time>
      </trkpt>
      <trkpt lat="43.9379" lon="0.31326">
        <ele>120.2</ele>
        <time>2023-07-03T10:54:36Z</time>
      </trkpt>
      <trkpt lat="43.93792" lon="0.31324">
        <ele>119.8</ele>
        <time>2023-07-03T10:54:37Z</time>
      </trkpt>
      <trkpt lat="43.93793" lon="0.31318">
        <ele>119.6</ele>
        <time>2023-07-03T10:54:40Z</time>
      </trkpt>
      <trkpt lat="43.93798" lon="0.31304">
        <ele>119.6</ele>
        <time>2023-07-03T10:54:47Z</time>
      </trkpt>
      <trkpt lat="43.93802" lon="0.31293">
        <ele>119.2</ele>
        <time>2023-07-03T10:54:54Z</time>
      </trkpt>
      <trkpt lat="43.93802" lon="0.31292">
        <ele>119.2</ele>
        <time>2023-07-03T10:54:55Z</time>
      </trkpt>
      <trkpt lat="43.93806" lon="0.31285">
        <ele>118.8</ele>
        <time>2023-07-03T10:55:00Z</time>
      </trkpt>
      <trkpt lat="43.93807" lon="0.3128">
        <ele>118.6</ele>
        <time>2023-07-03T10:55:03Z</time>
      </trkpt>
      <trkpt lat="43.93808" lon="0.31277">
        <ele>118.6</ele>
        <time>2023-07-03T10:55:06Z</time>
      </trkpt>
      <trkpt lat="43.93811" lon="0.31272">
        <ele>118.8</ele>
        <time>2023-07-03T10:55:09Z</time>
      </trkpt>
      <trkpt lat="43.93812" lon="0.31268">
        <ele>118.8</ele>
        <time>2023-07-03T10:55:12Z</time>
      </trkpt>
      <trkpt lat="43.93812" lon="0.31266">
        <ele>118.8</ele>
        <time>2023-07-03T10:55:13Z</time>
      </trkpt>
      <trkpt lat="43.93813" lon="0.3126">
        <ele>119</ele>
        <time>2023-07-03T10:55:17Z</time>
      </trkpt>
      <trkpt lat="43.93813" lon="0.31255">
        <ele>118.8</ele>
        <time>2023-07-03T10:55:20Z</time>
      </trkpt>
      <trkpt lat="43.93817" lon="0.31248">
        <ele>118.2</ele>
        <time>2023-07-03T10:55:25Z</time>
      </trkpt>
      <trkpt lat="43.9382" lon="0.31245">
        <ele>118.2</ele>
        <time>2023-07-03T10:55:27Z</time>
      </trkpt>
      <trkpt lat="43.93823" lon="0.3124">
        <ele>118.2</ele>
        <time>2023-07-03T10:55:30Z</time>
      </trkpt>
      <trkpt lat="43.93829" lon="0.31231">
        <ele>117.8</ele>
        <time>2023-07-03T10:55:35Z</time>
      </trkpt>
      <trkpt lat="43.93832" lon="0.31224">
        <ele>117.6</ele>
        <time>2023-07-03T10:55:39Z</time>
      </trkpt>
      <trkpt lat="43.93833" lon="0.3122">
        <ele>117.2</ele>
        <time>2023-07-03T10:55:42Z</time>
      </trkpt>
      <trkpt lat="43.93833" lon="0.31218">
        <ele>117.2</ele>
        <time>2023-07-03T10:55:43Z</time>
      </trkpt>
      <trkpt lat="43.93834" lon="0.31217">
        <ele>117.2</ele>
        <time>2023-07-03T10:55:45Z</time>
      </trkpt>
      <trkpt lat="43.93836" lon="0.31215">
        <ele>117.2</ele>
        <time>2023-07-03T10:55:47Z</time>
      </trkpt>
      <trkpt lat="43.93837" lon="0.31214">
        <ele>117.2</ele>
        <time>2023-07-03T10:55:48Z</time>
      </trkpt>
      <trkpt lat="43.93843" lon="0.31205">
        <ele>117.4</ele>
        <time>2023-07-03T10:55:54Z</time>
      </trkpt>
      <trkpt lat="43.93843" lon="0.31204">
        <ele>117.2</ele>
        <time>2023-07-03T10:55:55Z</time>
      </trkpt>
      <trkpt lat="43.93848" lon="0.31199">
        <ele>117</ele>
        <time>2023-07-03T10:56:00Z</time>
      </trkpt>
      <trkpt lat="43.93853" lon="0.31191">
        <ele>117</ele>
        <time>2023-07-03T10:56:06Z</time>
      </trkpt>
      <trkpt lat="43.93854" lon="0.3119">
        <ele>117</ele>
        <time>2023-07-03T10:56:07Z</time>
      </trkpt>
      <trkpt lat="43.93858" lon="0.31181">
        <ele>117</ele>
        <time>2023-07-03T10:56:15Z</time>
      </trkpt>
      <trkpt lat="43.93868" lon="0.31172">
        <ele>117.6</ele>
        <time>2023-07-03T10:56:23Z</time>
      </trkpt>
      <trkpt lat="43.93869" lon="0.31171">
        <ele>117.6</ele>
        <time>2023-07-03T10:56:24Z</time>
      </trkpt>
      <trkpt lat="43.93873" lon="0.31165">
        <ele>117.6</ele>
        <time>2023-07-03T10:56:28Z</time>
      </trkpt>
      <trkpt lat="43.93876" lon="0.31161">
        <ele>117.6</ele>
        <time>2023-07-03T10:56:31Z</time>
      </trkpt>
      <trkpt lat="43.93881" lon="0.31151">
        <ele>117.8</ele>
        <time>2023-07-03T10:56:38Z</time>
      </trkpt>
      <trkpt lat="43.93882" lon="0.31149">
        <ele>117.8</ele>
        <time>2023-07-03T10:56:39Z</time>
      </trkpt>
      <trkpt lat="43.93882" lon="0.31147">
        <ele>117.8</ele>
        <time>2023-07-03T10:56:40Z</time>
      </trkpt>
      <trkpt lat="43.93886" lon="0.3114">
        <ele>118</ele>
        <time>2023-07-03T10:56:45Z</time>
      </trkpt>
      <trkpt lat="43.93887" lon="0.31137">
        <ele>118.2</ele>
        <time>2023-07-03T10:56:47Z</time>
      </trkpt>
      <trkpt lat="43.93888" lon="0.31136">
        <ele>118.2</ele>
        <time>2023-07-03T10:56:48Z</time>
      </trkpt>
      <trkpt lat="43.93888" lon="0.31135">
        <ele>118.2</ele>
        <time>2023-07-03T10:56:49Z</time>
      </trkpt>
      <trkpt lat="43.9389" lon="0.31133">
        <ele>118</ele>
        <time>2023-07-03T10:56:51Z</time>
      </trkpt>
      <trkpt lat="43.93891" lon="0.31132">
        <ele>118</ele>
        <time>2023-07-03T10:56:52Z</time>
      </trkpt>
      <trkpt lat="43.93896" lon="0.31123">
        <ele>118</ele>
        <time>2023-07-03T10:56:59Z</time>
      </trkpt>
      <trkpt lat="43.93902" lon="0.31115">
        <ele>118.2</ele>
        <time>2023-07-03T10:57:05Z</time>
      </trkpt>
      <trkpt lat="43.93904" lon="0.31113">
        <ele>118.2</ele>
        <time>2023-07-03T10:57:06Z</time>
      </trkpt>
      <trkpt lat="43.93905" lon="0.31112">
        <ele>118.4</ele>
        <time>2023-07-03T10:57:07Z</time>
      </trkpt>
      <trkpt lat="43.93906" lon="0.3111">
        <ele>118.2</ele>
        <time>2023-07-03T10:57:08Z</time>
      </trkpt>
      <trkpt lat="43.93906" lon="0.31109">
        <ele>118.4</ele>
        <time>2023-07-03T10:57:09Z</time>
      </trkpt>
      <trkpt lat="43.93907" lon="0.31108">
        <ele>118.4</ele>
        <time>2023-07-03T10:57:10Z</time>
      </trkpt>
      <trkpt lat="43.93908" lon="0.31106">
        <ele>118.4</ele>
        <time>2023-07-03T10:57:11Z</time>
      </trkpt>
      <trkpt lat="43.93909" lon="0.31105">
        <ele>118.2</ele>
        <time>2023-07-03T10:57:12Z</time>
      </trkpt>
      <trkpt lat="43.9391" lon="0.31103">
        <ele>118.2</ele>
        <time>2023-07-03T10:57:14Z</time>
      </trkpt>
      <trkpt lat="43.93911" lon="0.31101">
        <ele>118.2</ele>
        <time>2023-07-03T10:57:15Z</time>
      </trkpt>
      <trkpt lat="43.93914" lon="0.31097">
        <ele>118.6</ele>
        <time>2023-07-03T10:57:19Z</time>
      </trkpt>
      <trkpt lat="43.93916" lon="0.31094">
        <ele>118.8</ele>
        <time>2023-07-03T10:57:21Z</time>
      </trkpt>
      <trkpt lat="43.93917" lon="0.31093">
        <ele>118.8</ele>
        <time>2023-07-03T10:57:22Z</time>
      </trkpt>
      <trkpt lat="43.93918" lon="0.31089">
        <ele>118.8</ele>
        <time>2023-07-03T10:57:24Z</time>
      </trkpt>
      <trkpt lat="43.93922" lon="0.31082">
        <ele>118.4</ele>
        <time>2023-07-03T10:57:29Z</time>
      </trkpt>
      <trkpt lat="43.93923" lon="0.31078">
        <ele>118.4</ele>
        <time>2023-07-03T10:57:31Z</time>
      </trkpt>
      <trkpt lat="43.93925" lon="0.31075">
        <ele>118.6</ele>
        <time>2023-07-03T10:57:34Z</time>
      </trkpt>
      <trkpt lat="43.93925" lon="0.31073">
        <ele>118.6</ele>
        <time>2023-07-03T10:57:35Z</time>
      </trkpt>
      <trkpt lat="43.93928" lon="0.31067">
        <ele>118.8</ele>
        <time>2023-07-03T10:57:39Z</time>
      </trkpt>
      <trkpt lat="43.93929" lon="0.31063">
        <ele>118.6</ele>
        <time>2023-07-03T10:57:41Z</time>
      </trkpt>
      <trkpt lat="43.93934" lon="0.31053">
        <ele>118.8</ele>
        <time>2023-07-03T10:57:49Z</time>
      </trkpt>
      <trkpt lat="43.93936" lon="0.31051">
        <ele>118.6</ele>
        <time>2023-07-03T10:57:51Z</time>
      </trkpt>
      <trkpt lat="43.93941" lon="0.31044">
        <ele>118.4</ele>
        <time>2023-07-03T10:57:57Z</time>
      </trkpt>
      <trkpt lat="43.93941" lon="0.31043">
        <ele>118.6</ele>
        <time>2023-07-03T10:57:59Z</time>
      </trkpt>
      <trkpt lat="43.93942" lon="0.31042">
        <ele>118.6</ele>
        <time>2023-07-03T10:58:00Z</time>
      </trkpt>
      <trkpt lat="43.93944" lon="0.3104">
        <ele>118.6</ele>
        <time>2023-07-03T10:58:03Z</time>
      </trkpt>
      <trkpt lat="43.93944" lon="0.31039">
        <ele>118.8</ele>
        <time>2023-07-03T10:58:04Z</time>
      </trkpt>
      <trkpt lat="43.93947" lon="0.31035">
        <ele>118.8</ele>
        <time>2023-07-03T10:58:07Z</time>
      </trkpt>
      <trkpt lat="43.93951" lon="0.31028">
        <ele>118.6</ele>
        <time>2023-07-03T10:58:12Z</time>
      </trkpt>
      <trkpt lat="43.93951" lon="0.31027">
        <ele>118.8</ele>
        <time>2023-07-03T10:58:13Z</time>
      </trkpt>
      <trkpt lat="43.93951" lon="0.31022">
        <ele>119</ele>
        <time>2023-07-03T10:58:15Z</time>
      </trkpt>
      <trkpt lat="43.93954" lon="0.31019">
        <ele>119.2</ele>
        <time>2023-07-03T10:58:18Z</time>
      </trkpt>
      <trkpt lat="43.93955" lon="0.31018">
        <ele>119.2</ele>
        <time>2023-07-03T10:58:19Z</time>
      </trkpt>
      <trkpt lat="43.93961" lon="0.31006">
        <ele>119.8</ele>
        <time>2023-07-03T10:58:26Z</time>
      </trkpt>
      <trkpt lat="43.93962" lon="0.31004">
        <ele>119.8</ele>
        <time>2023-07-03T10:58:28Z</time>
      </trkpt>
      <trkpt lat="43.93962" lon="0.31002">
        <ele>120</ele>
        <time>2023-07-03T10:58:30Z</time>
      </trkpt>
      <trkpt lat="43.93963" lon="0.31">
        <ele>120.2</ele>
        <time>2023-07-03T10:58:32Z</time>
      </trkpt>
      <trkpt lat="43.93965" lon="0.30997">
        <ele>120.4</ele>
        <time>2023-07-03T10:58:34Z</time>
      </trkpt>
      <trkpt lat="43.93969" lon="0.30988">
        <ele>121</ele>
        <time>2023-07-03T10:58:40Z</time>
      </trkpt>
      <trkpt lat="43.93971" lon="0.30982">
        <ele>121.2</ele>
        <time>2023-07-03T10:58:43Z</time>
      </trkpt>
      <trkpt lat="43.93974" lon="0.30975">
        <ele>121.8</ele>
        <time>2023-07-03T10:58:47Z</time>
      </trkpt>
      <trkpt lat="43.93974" lon="0.30971">
        <ele>122</ele>
        <time>2023-07-03T10:58:49Z</time>
      </trkpt>
      <trkpt lat="43.93975" lon="0.30966">
        <ele>122.2</ele>
        <time>2023-07-03T10:58:52Z</time>
      </trkpt>
      <trkpt lat="43.93976" lon="0.30962">
        <ele>122.2</ele>
        <time>2023-07-03T10:58:54Z</time>
      </trkpt>
      <trkpt lat="43.93977" lon="0.30961">
        <ele>122.2</ele>
        <time>2023-07-03T10:58:55Z</time>
      </trkpt>
      <trkpt lat="43.93977" lon="0.30958">
        <ele>122.4</ele>
        <time>2023-07-03T10:58:57Z</time>
      </trkpt>
      <trkpt lat="43.93977" lon="0.30956">
        <ele>122.4</ele>
        <time>2023-07-03T10:58:58Z</time>
      </trkpt>
      <trkpt lat="43.93977" lon="0.30952">
        <ele>122</ele>
        <time>2023-07-03T10:59:00Z</time>
      </trkpt>
      <trkpt lat="43.93976" lon="0.30949">
        <ele>121.8</ele>
        <time>2023-07-03T10:59:02Z</time>
      </trkpt>
      <trkpt lat="43.93976" lon="0.30947">
        <ele>121.4</ele>
        <time>2023-07-03T10:59:04Z</time>
      </trkpt>
      <trkpt lat="43.93976" lon="0.30942">
        <ele>121.4</ele>
        <time>2023-07-03T10:59:07Z</time>
      </trkpt>
      <trkpt lat="43.93976" lon="0.30937">
        <ele>121.2</ele>
        <time>2023-07-03T10:59:10Z</time>
      </trkpt>
      <trkpt lat="43.93976" lon="0.30935">
        <ele>121.2</ele>
        <time>2023-07-03T10:59:12Z</time>
      </trkpt>
      <trkpt lat="43.93977" lon="0.30932">
        <ele>121.2</ele>
        <time>2023-07-03T10:59:14Z</time>
      </trkpt>
      <trkpt lat="43.93978" lon="0.30924">
        <ele>121.4</ele>
        <time>2023-07-03T10:59:19Z</time>
      </trkpt>
      <trkpt lat="43.93979" lon="0.30922">
        <ele>121.4</ele>
        <time>2023-07-03T10:59:20Z</time>
      </trkpt>
      <trkpt lat="43.93979" lon="0.3092">
        <ele>121.4</ele>
        <time>2023-07-03T10:59:21Z</time>
      </trkpt>
      <trkpt lat="43.93984" lon="0.30912">
        <ele>121.4</ele>
        <time>2023-07-03T10:59:26Z</time>
      </trkpt>
      <trkpt lat="43.93984" lon="0.30911">
        <ele>121.6</ele>
        <time>2023-07-03T10:59:27Z</time>
      </trkpt>
      <trkpt lat="43.93985" lon="0.30908">
        <ele>121.6</ele>
        <time>2023-07-03T10:59:29Z</time>
      </trkpt>
      <trkpt lat="43.93987" lon="0.30904">
        <ele>121.6</ele>
        <time>2023-07-03T10:59:32Z</time>
      </trkpt>
      <trkpt lat="43.93989" lon="0.30903">
        <ele>121.6</ele>
        <time>2023-07-03T10:59:33Z</time>
      </trkpt>
      <trkpt lat="43.9399" lon="0.30901">
        <ele>121.6</ele>
        <time>2023-07-03T10:59:34Z</time>
      </trkpt>
      <trkpt lat="43.93994" lon="0.30891">
        <ele>121.6</ele>
        <time>2023-07-03T10:59:40Z</time>
      </trkpt>
      <trkpt lat="43.93995" lon="0.30887">
        <ele>121.6</ele>
        <time>2023-07-03T10:59:42Z</time>
      </trkpt>
      <trkpt lat="43.93998" lon="0.30879">
        <ele>122</ele>
        <time>2023-07-03T10:59:47Z</time>
      </trkpt>
      <trkpt lat="43.93999" lon="0.30875">
        <ele>122.2</ele>
        <time>2023-07-03T10:59:49Z</time>
      </trkpt>
      <trkpt lat="43.94" lon="0.30873">
        <ele>122.2</ele>
        <time>2023-07-03T10:59:51Z</time>
      </trkpt>
      <trkpt lat="43.94003" lon="0.30864">
        <ele>122</ele>
        <time>2023-07-03T10:59:56Z</time>
      </trkpt>
      <trkpt lat="43.94003" lon="0.3086">
        <ele>121.8</ele>
        <time>2023-07-03T10:59:58Z</time>
      </trkpt>
      <trkpt lat="43.94007" lon="0.30851">
        <ele>121.2</ele>
        <time>2023-07-03T11:00:03Z</time>
      </trkpt>
      <trkpt lat="43.94009" lon="0.30848">
        <ele>121.2</ele>
        <time>2023-07-03T11:00:05Z</time>
      </trkpt>
      <trkpt lat="43.9401" lon="0.30845">
        <ele>121</ele>
        <time>2023-07-03T11:00:07Z</time>
      </trkpt>
      <trkpt lat="43.9401" lon="0.30842">
        <ele>121</ele>
        <time>2023-07-03T11:00:09Z</time>
      </trkpt>
      <trkpt lat="43.94011" lon="0.30841">
        <ele>121</ele>
        <time>2023-07-03T11:00:10Z</time>
      </trkpt>
      <trkpt lat="43.94015" lon="0.30834">
        <ele>120.8</ele>
        <time>2023-07-03T11:00:14Z</time>
      </trkpt>
      <trkpt lat="43.94016" lon="0.3083">
        <ele>120.8</ele>
        <time>2023-07-03T11:00:16Z</time>
      </trkpt>
      <trkpt lat="43.94019" lon="0.3082">
        <ele>121</ele>
        <time>2023-07-03T11:00:21Z</time>
      </trkpt>
      <trkpt lat="43.94021" lon="0.30813">
        <ele>120.8</ele>
        <time>2023-07-03T11:00:24Z</time>
      </trkpt>
      <trkpt lat="43.94022" lon="0.30808">
        <ele>120.6</ele>
        <time>2023-07-03T11:00:27Z</time>
      </trkpt>
      <trkpt lat="43.94024" lon="0.30805">
        <ele>120.6</ele>
        <time>2023-07-03T11:00:30Z</time>
      </trkpt>
      <trkpt lat="43.94026" lon="0.30802">
        <ele>120.6</ele>
        <time>2023-07-03T11:00:32Z</time>
      </trkpt>
      <trkpt lat="43.9403" lon="0.30798">
        <ele>120.8</ele>
        <time>2023-07-03T11:00:35Z</time>
      </trkpt>
      <trkpt lat="43.94035" lon="0.30789">
        <ele>120.8</ele>
        <time>2023-07-03T11:00:41Z</time>
      </trkpt>
      <trkpt lat="43.94036" lon="0.30784">
        <ele>120.6</ele>
        <time>2023-07-03T11:00:44Z</time>
      </trkpt>
      <trkpt lat="43.94039" lon="0.3078">
        <ele>120.8</ele>
        <time>2023-07-03T11:00:47Z</time>
      </trkpt>
      <trkpt lat="43.9404" lon="0.30778">
        <ele>121</ele>
        <time>2023-07-03T11:00:48Z</time>
      </trkpt>
      <trkpt lat="43.94045" lon="0.30766">
        <ele>121.2</ele>
        <time>2023-07-03T11:00:55Z</time>
      </trkpt>
      <trkpt lat="43.94046" lon="0.30765">
        <ele>121</ele>
        <time>2023-07-03T11:00:56Z</time>
      </trkpt>
      <trkpt lat="43.94047" lon="0.30763">
        <ele>121</ele>
        <time>2023-07-03T11:00:57Z</time>
      </trkpt>
      <trkpt lat="43.94048" lon="0.30759">
        <ele>121.2</ele>
        <time>2023-07-03T11:01:00Z</time>
      </trkpt>
      <trkpt lat="43.94051" lon="0.30748">
        <ele>121.8</ele>
        <time>2023-07-03T11:01:07Z</time>
      </trkpt>
      <trkpt lat="43.94055" lon="0.30741">
        <ele>122.4</ele>
        <time>2023-07-03T11:01:13Z</time>
      </trkpt>
      <trkpt lat="43.94056" lon="0.30737">
        <ele>122.4</ele>
        <time>2023-07-03T11:01:16Z</time>
      </trkpt>
      <trkpt lat="43.94057" lon="0.30736">
        <ele>122.4</ele>
        <time>2023-07-03T11:01:17Z</time>
      </trkpt>
      <trkpt lat="43.94059" lon="0.30731">
        <ele>122.6</ele>
        <time>2023-07-03T11:01:20Z</time>
      </trkpt>
      <trkpt lat="43.94059" lon="0.30728">
        <ele>122.6</ele>
        <time>2023-07-03T11:01:22Z</time>
      </trkpt>
      <trkpt lat="43.94059" lon="0.30726">
        <ele>122.8</ele>
        <time>2023-07-03T11:01:24Z</time>
      </trkpt>
      <trkpt lat="43.94059" lon="0.30725">
        <ele>123</ele>
        <time>2023-07-03T11:01:25Z</time>
      </trkpt>
      <trkpt lat="43.9406" lon="0.30724">
        <ele>123</ele>
        <time>2023-07-03T11:01:26Z</time>
      </trkpt>
      <trkpt lat="43.94059" lon="0.30721">
        <ele>123.4</ele>
        <time>2023-07-03T11:01:28Z</time>
      </trkpt>
      <trkpt lat="43.9406" lon="0.30721">
        <ele>123.6</ele>
        <time>2023-07-03T11:01:29Z</time>
      </trkpt>
      <trkpt lat="43.94061" lon="0.30718">
        <ele>124</ele>
        <time>2023-07-03T11:01:31Z</time>
      </trkpt>
      <trkpt lat="43.94062" lon="0.30711">
        <ele>124.4</ele>
        <time>2023-07-03T11:01:35Z</time>
      </trkpt>
      <trkpt lat="43.94063" lon="0.30709">
        <ele>124.4</ele>
        <time>2023-07-03T11:01:36Z</time>
      </trkpt>
      <trkpt lat="43.94065" lon="0.30708">
        <ele>124.4</ele>
        <time>2023-07-03T11:01:37Z</time>
      </trkpt>
      <trkpt lat="43.94066" lon="0.30708">
        <ele>124.4</ele>
        <time>2023-07-03T11:01:38Z</time>
      </trkpt>
      <trkpt lat="43.94068" lon="0.30706">
        <ele>124.4</ele>
        <time>2023-07-03T11:01:41Z</time>
      </trkpt>
      <trkpt lat="43.94069" lon="0.30706">
        <ele>124.6</ele>
        <time>2023-07-03T11:01:42Z</time>
      </trkpt>
      <trkpt lat="43.94075" lon="0.30706">
        <ele>125.2</ele>
        <time>2023-07-03T11:01:46Z</time>
      </trkpt>
      <trkpt lat="43.94079" lon="0.30707">
        <ele>125.2</ele>
        <time>2023-07-03T11:01:49Z</time>
      </trkpt>
      <trkpt lat="43.94086" lon="0.30712">
        <ele>125.2</ele>
        <time>2023-07-03T11:01:56Z</time>
      </trkpt>
      <trkpt lat="43.94091" lon="0.30713">
        <ele>125</ele>
        <time>2023-07-03T11:02:00Z</time>
      </trkpt>
      <trkpt lat="43.94095" lon="0.30716">
        <ele>125.2</ele>
        <time>2023-07-03T11:02:02Z</time>
      </trkpt>
      <trkpt lat="43.94101" lon="0.30719">
        <ele>125.2</ele>
        <time>2023-07-03T11:02:06Z</time>
      </trkpt>
      <trkpt lat="43.94103" lon="0.30722">
        <ele>124.8</ele>
        <time>2023-07-03T11:02:09Z</time>
      </trkpt>
      <trkpt lat="43.94107" lon="0.30726">
        <ele>124.6</ele>
        <time>2023-07-03T11:02:13Z</time>
      </trkpt>
      <trkpt lat="43.94108" lon="0.30727">
        <ele>124.6</ele>
        <time>2023-07-03T11:02:14Z</time>
      </trkpt>
      <trkpt lat="43.94109" lon="0.30727">
        <ele>124.4</ele>
        <time>2023-07-03T11:02:15Z</time>
      </trkpt>
      <trkpt lat="43.94118" lon="0.30733">
        <ele>124.2</ele>
        <time>2023-07-03T11:02:22Z</time>
      </trkpt>
      <trkpt lat="43.94124" lon="0.30735">
        <ele>123.8</ele>
        <time>2023-07-03T11:02:25Z</time>
      </trkpt>
      <trkpt lat="43.94129" lon="0.30738">
        <ele>123.6</ele>
        <time>2023-07-03T11:02:28Z</time>
      </trkpt>
      <trkpt lat="43.9413" lon="0.30739">
        <ele>123.6</ele>
        <time>2023-07-03T11:02:29Z</time>
      </trkpt>
      <trkpt lat="43.94134" lon="0.30741">
        <ele>123.4</ele>
        <time>2023-07-03T11:02:32Z</time>
      </trkpt>
      <trkpt lat="43.94137" lon="0.30743">
        <ele>123</ele>
        <time>2023-07-03T11:02:34Z</time>
      </trkpt>
      <trkpt lat="43.94141" lon="0.30745">
        <ele>123</ele>
        <time>2023-07-03T11:02:37Z</time>
      </trkpt>
      <trkpt lat="43.94151" lon="0.30747">
        <ele>122.6</ele>
        <time>2023-07-03T11:02:46Z</time>
      </trkpt>
      <trkpt lat="43.94161" lon="0.30749">
        <ele>122.6</ele>
        <time>2023-07-03T11:02:55Z</time>
      </trkpt>
      <trkpt lat="43.94165" lon="0.30749">
        <ele>122.2</ele>
        <time>2023-07-03T11:02:58Z</time>
      </trkpt>
      <trkpt lat="43.94171" lon="0.30749">
        <ele>122.2</ele>
        <time>2023-07-03T11:03:02Z</time>
      </trkpt>
      <trkpt lat="43.94174" lon="0.30748">
        <ele>122</ele>
        <time>2023-07-03T11:03:04Z</time>
      </trkpt>
      <trkpt lat="43.94179" lon="0.30748">
        <ele>121.8</ele>
        <time>2023-07-03T11:03:07Z</time>
      </trkpt>
      <trkpt lat="43.94181" lon="0.30747">
        <ele>121.6</ele>
        <time>2023-07-03T11:03:09Z</time>
      </trkpt>
      <trkpt lat="43.94183" lon="0.30747">
        <ele>121.6</ele>
        <time>2023-07-03T11:03:10Z</time>
      </trkpt>
      <trkpt lat="43.94183" lon="0.30747">
        <ele>121.6</ele>
        <time>2023-07-03T11:03:11Z</time>
      </trkpt>
      <trkpt lat="43.94184" lon="0.30747">
        <ele>121.4</ele>
        <time>2023-07-03T11:03:12Z</time>
      </trkpt>
      <trkpt lat="43.94186" lon="0.30746">
        <ele>121.4</ele>
        <time>2023-07-03T11:03:14Z</time>
      </trkpt>
      <trkpt lat="43.94187" lon="0.30746">
        <ele>121.4</ele>
        <time>2023-07-03T11:03:15Z</time>
      </trkpt>
      <trkpt lat="43.94188" lon="0.30746">
        <ele>121.4</ele>
        <time>2023-07-03T11:03:16Z</time>
      </trkpt>
      <trkpt lat="43.94191" lon="0.30744">
        <ele>121.4</ele>
        <time>2023-07-03T11:03:18Z</time>
      </trkpt>
      <trkpt lat="43.94196" lon="0.30744">
        <ele>121.4</ele>
        <time>2023-07-03T11:03:21Z</time>
      </trkpt>
      <trkpt lat="43.94197" lon="0.30743">
        <ele>121.6</ele>
        <time>2023-07-03T11:03:22Z</time>
      </trkpt>
      <trkpt lat="43.94201" lon="0.30741">
        <ele>121.6</ele>
        <time>2023-07-03T11:03:25Z</time>
      </trkpt>
      <trkpt lat="43.94203" lon="0.30741">
        <ele>121.6</ele>
        <time>2023-07-03T11:03:26Z</time>
      </trkpt>
      <trkpt lat="43.94205" lon="0.3074">
        <ele>121.2</ele>
        <time>2023-07-03T11:03:28Z</time>
      </trkpt>
      <trkpt lat="43.94206" lon="0.30739">
        <ele>121</ele>
        <time>2023-07-03T11:03:29Z</time>
      </trkpt>
      <trkpt lat="43.94211" lon="0.30738">
        <ele>120.8</ele>
        <time>2023-07-03T11:03:32Z</time>
      </trkpt>
      <trkpt lat="43.94214" lon="0.30737">
        <ele>120.6</ele>
        <time>2023-07-03T11:03:34Z</time>
      </trkpt>
      <trkpt lat="43.94223" lon="0.30739">
        <ele>120.6</ele>
        <time>2023-07-03T11:03:41Z</time>
      </trkpt>
      <trkpt lat="43.94231" lon="0.30741">
        <ele>120.6</ele>
        <time>2023-07-03T11:03:46Z</time>
      </trkpt>
      <trkpt lat="43.94232" lon="0.30742">
        <ele>120.6</ele>
        <time>2023-07-03T11:03:47Z</time>
      </trkpt>
      <trkpt lat="43.94243" lon="0.30752">
        <ele>120.6</ele>
        <time>2023-07-03T11:03:55Z</time>
      </trkpt>
      <trkpt lat="43.94245" lon="0.30755">
        <ele>120.6</ele>
        <time>2023-07-03T11:03:58Z</time>
      </trkpt>
      <trkpt lat="43.94249" lon="0.3076">
        <ele>120.8</ele>
        <time>2023-07-03T11:04:02Z</time>
      </trkpt>
      <trkpt lat="43.94251" lon="0.30762">
        <ele>120.8</ele>
        <time>2023-07-03T11:04:04Z</time>
      </trkpt>
      <trkpt lat="43.94258" lon="0.30771">
        <ele>121.6</ele>
        <time>2023-07-03T11:04:11Z</time>
      </trkpt>
      <trkpt lat="43.9426" lon="0.30773">
        <ele>121.6</ele>
        <time>2023-07-03T11:04:13Z</time>
      </trkpt>
      <trkpt lat="43.94262" lon="0.30778">
        <ele>121.8</ele>
        <time>2023-07-03T11:04:16Z</time>
      </trkpt>
      <trkpt lat="43.94263" lon="0.30779">
        <ele>121.8</ele>
        <time>2023-07-03T11:04:17Z</time>
      </trkpt>
      <trkpt lat="43.94267" lon="0.30786">
        <ele>121.8</ele>
        <time>2023-07-03T11:04:22Z</time>
      </trkpt>
      <trkpt lat="43.94268" lon="0.30787">
        <ele>121.8</ele>
        <time>2023-07-03T11:04:23Z</time>
      </trkpt>
      <trkpt lat="43.94271" lon="0.30791">
        <ele>121.6</ele>
        <time>2023-07-03T11:04:26Z</time>
      </trkpt>
      <trkpt lat="43.94277" lon="0.30795">
        <ele>121.6</ele>
        <time>2023-07-03T11:04:30Z</time>
      </trkpt>
      <trkpt lat="43.94278" lon="0.30797">
        <ele>121.4</ele>
        <time>2023-07-03T11:04:31Z</time>
      </trkpt>
      <trkpt lat="43.94282" lon="0.30803">
        <ele>121.2</ele>
        <time>2023-07-03T11:04:36Z</time>
      </trkpt>
      <trkpt lat="43.94284" lon="0.30805">
        <ele>120.8</ele>
        <time>2023-07-03T11:04:38Z</time>
      </trkpt>
      <trkpt lat="43.94291" lon="0.30815">
        <ele>120.4</ele>
        <time>2023-07-03T11:04:45Z</time>
      </trkpt>
      <trkpt lat="43.94293" lon="0.30817">
        <ele>120.2</ele>
        <time>2023-07-03T11:04:47Z</time>
      </trkpt>
      <trkpt lat="43.94294" lon="0.30819">
        <ele>120</ele>
        <time>2023-07-03T11:04:48Z</time>
      </trkpt>
      <trkpt lat="43.943" lon="0.30827">
        <ele>120</ele>
        <time>2023-07-03T11:04:54Z</time>
      </trkpt>
      <trkpt lat="43.94311" lon="0.30839">
        <ele>119</ele>
        <time>2023-07-03T11:05:04Z</time>
      </trkpt>
      <trkpt lat="43.94312" lon="0.3084">
        <ele>118.8</ele>
        <time>2023-07-03T11:05:05Z</time>
      </trkpt>
      <trkpt lat="43.94318" lon="0.30845">
        <ele>118.2</ele>
        <time>2023-07-03T11:05:10Z</time>
      </trkpt>
      <trkpt lat="43.94319" lon="0.30846">
        <ele>118</ele>
        <time>2023-07-03T11:05:11Z</time>
      </trkpt>
      <trkpt lat="43.94321" lon="0.30847">
        <ele>117.8</ele>
        <time>2023-07-03T11:05:13Z</time>
      </trkpt>
      <trkpt lat="43.94325" lon="0.3085">
        <ele>117</ele>
        <time>2023-07-03T11:05:16Z</time>
      </trkpt>
      <trkpt lat="43.94329" lon="0.30853">
        <ele>116.6</ele>
        <time>2023-07-03T11:05:20Z</time>
      </trkpt>
      <trkpt lat="43.94337" lon="0.30859">
        <ele>116.2</ele>
        <time>2023-07-03T11:05:28Z</time>
      </trkpt>
      <trkpt lat="43.94345" lon="0.30867">
        <ele>116.2</ele>
        <time>2023-07-03T11:05:35Z</time>
      </trkpt>
      <trkpt lat="43.94347" lon="0.30871">
        <ele>116.2</ele>
        <time>2023-07-03T11:05:38Z</time>
      </trkpt>
      <trkpt lat="43.94351" lon="0.30878">
        <ele>116.6</ele>
        <time>2023-07-03T11:05:44Z</time>
      </trkpt>
      <trkpt lat="43.94354" lon="0.30882">
        <ele>117</ele>
        <time>2023-07-03T11:05:47Z</time>
      </trkpt>
      <trkpt lat="43.9436" lon="0.30894">
        <ele>117.4</ele>
        <time>2023-07-03T11:05:55Z</time>
      </trkpt>
      <trkpt lat="43.9437" lon="0.30902">
        <ele>117.8</ele>
        <time>2023-07-03T11:06:03Z</time>
      </trkpt>
      <trkpt lat="43.94371" lon="0.30903">
        <ele>118</ele>
        <time>2023-07-03T11:06:04Z</time>
      </trkpt>
      <trkpt lat="43.94378" lon="0.3091">
        <ele>119.2</ele>
        <time>2023-07-03T11:06:12Z</time>
      </trkpt>
      <trkpt lat="43.94383" lon="0.30919">
        <ele>120.2</ele>
        <time>2023-07-03T11:06:21Z</time>
      </trkpt>
      <trkpt lat="43.94384" lon="0.30921">
        <ele>120.2</ele>
        <time>2023-07-03T11:06:22Z</time>
      </trkpt>
      <trkpt lat="43.94389" lon="0.30926">
        <ele>121.4</ele>
        <time>2023-07-03T11:06:28Z</time>
      </trkpt>
      <trkpt lat="43.9439" lon="0.30927">
        <ele>121.6</ele>
        <time>2023-07-03T11:06:29Z</time>
      </trkpt>
      <trkpt lat="43.94392" lon="0.30929">
        <ele>121.8</ele>
        <time>2023-07-03T11:06:32Z</time>
      </trkpt>
      <trkpt lat="43.94392" lon="0.3093">
        <ele>122</ele>
        <time>2023-07-03T11:06:33Z</time>
      </trkpt>
      <trkpt lat="43.94393" lon="0.30931">
        <ele>122</ele>
        <time>2023-07-03T11:06:34Z</time>
      </trkpt>
      <trkpt lat="43.94394" lon="0.30932">
        <ele>122</ele>
        <time>2023-07-03T11:06:35Z</time>
      </trkpt>
      <trkpt lat="43.94395" lon="0.30933">
        <ele>122</ele>
        <time>2023-07-03T11:06:36Z</time>
      </trkpt>
      <trkpt lat="43.94398" lon="0.30935">
        <ele>122.4</ele>
        <time>2023-07-03T11:06:39Z</time>
      </trkpt>
      <trkpt lat="43.94401" lon="0.30937">
        <ele>123</ele>
        <time>2023-07-03T11:06:42Z</time>
      </trkpt>
      <trkpt lat="43.94403" lon="0.3094">
        <ele>123.6</ele>
        <time>2023-07-03T11:06:45Z</time>
      </trkpt>
      <trkpt lat="43.94408" lon="0.30944">
        <ele>124.4</ele>
        <time>2023-07-03T11:06:49Z</time>
      </trkpt>
      <trkpt lat="43.94408" lon="0.30945">
        <ele>124.6</ele>
        <time>2023-07-03T11:06:50Z</time>
      </trkpt>
      <trkpt lat="43.94409" lon="0.30946">
        <ele>124.6</ele>
        <time>2023-07-03T11:06:51Z</time>
      </trkpt>
      <trkpt lat="43.94411" lon="0.30949">
        <ele>125</ele>
        <time>2023-07-03T11:06:54Z</time>
      </trkpt>
      <trkpt lat="43.94412" lon="0.30952">
        <ele>125.2</ele>
        <time>2023-07-03T11:06:56Z</time>
      </trkpt>
      <trkpt lat="43.94415" lon="0.30955">
        <ele>125.8</ele>
        <time>2023-07-03T11:06:59Z</time>
      </trkpt>
      <trkpt lat="43.9442" lon="0.30961">
        <ele>127</ele>
        <time>2023-07-03T11:07:04Z</time>
      </trkpt>
      <trkpt lat="43.94418" lon="0.30967">
        <ele>127.2</ele>
        <time>2023-07-03T11:07:07Z</time>
      </trkpt>
      <trkpt lat="43.94418" lon="0.30974">
        <ele>127.8</ele>
        <time>2023-07-03T11:07:12Z</time>
      </trkpt>
      <trkpt lat="43.94418" lon="0.30977">
        <ele>128</ele>
        <time>2023-07-03T11:07:14Z</time>
      </trkpt>
      <trkpt lat="43.94418" lon="0.30978">
        <ele>128.2</ele>
        <time>2023-07-03T11:07:15Z</time>
      </trkpt>
      <trkpt lat="43.94417" lon="0.30982">
        <ele>128.4</ele>
        <time>2023-07-03T11:07:18Z</time>
      </trkpt>
      <trkpt lat="43.94416" lon="0.30991">
        <ele>129</ele>
        <time>2023-07-03T11:07:25Z</time>
      </trkpt>
      <trkpt lat="43.94416" lon="0.30993">
        <ele>129.2</ele>
        <time>2023-07-03T11:07:26Z</time>
      </trkpt>
      <trkpt lat="43.94416" lon="0.30996">
        <ele>129.4</ele>
        <time>2023-07-03T11:07:28Z</time>
      </trkpt>
      <trkpt lat="43.94425" lon="0.30999">
        <ele>132.8</ele>
        <time>2023-07-03T12:29:36Z</time>
      </trkpt>
      <trkpt lat="43.94425" lon="0.30999">
        <ele>132.8</ele>
        <time>2023-07-03T12:29:37Z</time>
      </trkpt>
      <trkpt lat="43.94425" lon="0.30999">
        <ele>132.8</ele>
        <time>2023-07-03T12:29:38Z</time>
      </trkpt>
      <trkpt lat="43.94425" lon="0.30998">
        <ele>133.2</ele>
        <time>2023-07-03T12:29:39Z</time>
      </trkpt>
      <trkpt lat="43.94424" lon="0.30998">
        <ele>133.2</ele>
        <time>2023-07-03T12:29:40Z</time>
      </trkpt>
      <trkpt lat="43.94424" lon="0.30997">
        <ele>133.2</ele>
        <time>2023-07-03T12:29:41Z</time>
      </trkpt>
      <trkpt lat="43.94423" lon="0.30997">
        <ele>133.2</ele>
        <time>2023-07-03T12:29:42Z</time>
      </trkpt>
      <trkpt lat="43.94423" lon="0.30996">
        <ele>133.2</ele>
        <time>2023-07-03T12:29:43Z</time>
      </trkpt>
      <trkpt lat="43.9442" lon="0.30991">
        <ele>133.2</ele>
        <time>2023-07-03T12:29:47Z</time>
      </trkpt>
      <trkpt lat="43.94418" lon="0.30988">
        <ele>133.2</ele>
        <time>2023-07-03T12:29:49Z</time>
      </trkpt>
      <trkpt lat="43.94417" lon="0.30989">
        <ele>133.2</ele>
        <time>2023-07-03T12:29:51Z</time>
      </trkpt>
      <trkpt lat="43.94417" lon="0.30992">
        <ele>133</ele>
        <time>2023-07-03T12:29:53Z</time>
      </trkpt>
      <trkpt lat="43.94416" lon="0.31002">
        <ele>133.2</ele>
        <time>2023-07-03T12:29:58Z</time>
      </trkpt>
      <trkpt lat="43.94415" lon="0.31004">
        <ele>133.4</ele>
        <time>2023-07-03T12:29:59Z</time>
      </trkpt>
      <trkpt lat="43.94415" lon="0.31013">
        <ele>133.8</ele>
        <time>2023-07-03T12:30:06Z</time>
      </trkpt>
      <trkpt lat="43.94417" lon="0.31026">
        <ele>134.4</ele>
        <time>2023-07-03T12:30:13Z</time>
      </trkpt>
      <trkpt lat="43.94416" lon="0.31035">
        <ele>134.4</ele>
        <time>2023-07-03T12:30:19Z</time>
      </trkpt>
      <trkpt lat="43.94415" lon="0.31046">
        <ele>134.4</ele>
        <time>2023-07-03T12:30:26Z</time>
      </trkpt>
      <trkpt lat="43.94416" lon="0.31048">
        <ele>134.6</ele>
        <time>2023-07-03T12:30:28Z</time>
      </trkpt>
      <trkpt lat="43.94416" lon="0.3105">
        <ele>134.6</ele>
        <time>2023-07-03T12:30:30Z</time>
      </trkpt>
      <trkpt lat="43.94417" lon="0.31054">
        <ele>134.4</ele>
        <time>2023-07-03T12:30:33Z</time>
      </trkpt>
      <trkpt lat="43.94417" lon="0.31055">
        <ele>134.2</ele>
        <time>2023-07-03T12:30:34Z</time>
      </trkpt>
      <trkpt lat="43.9442" lon="0.31061">
        <ele>134</ele>
        <time>2023-07-03T12:30:39Z</time>
      </trkpt>
      <trkpt lat="43.9442" lon="0.31062">
        <ele>134</ele>
        <time>2023-07-03T12:30:40Z</time>
      </trkpt>
      <trkpt lat="43.94421" lon="0.31067">
        <ele>133.6</ele>
        <time>2023-07-03T12:30:43Z</time>
      </trkpt>
      <trkpt lat="43.94422" lon="0.31069">
        <ele>133.6</ele>
        <time>2023-07-03T12:30:44Z</time>
      </trkpt>
      <trkpt lat="43.94423" lon="0.31074">
        <ele>133.2</ele>
        <time>2023-07-03T12:30:47Z</time>
      </trkpt>
      <trkpt lat="43.94423" lon="0.31075">
        <ele>133.2</ele>
        <time>2023-07-03T12:30:48Z</time>
      </trkpt>
      <trkpt lat="43.94425" lon="0.31087">
        <ele>133.2</ele>
        <time>2023-07-03T12:30:55Z</time>
      </trkpt>
      <trkpt lat="43.94436" lon="0.31098">
        <ele>132.8</ele>
        <time>2023-07-03T12:31:02Z</time>
      </trkpt>
      <trkpt lat="43.94437" lon="0.31101">
        <ele>132.6</ele>
        <time>2023-07-03T12:31:04Z</time>
      </trkpt>
      <trkpt lat="43.94438" lon="0.31105">
        <ele>132.4</ele>
        <time>2023-07-03T12:31:06Z</time>
      </trkpt>
      <trkpt lat="43.94442" lon="0.3111">
        <ele>132.2</ele>
        <time>2023-07-03T12:31:10Z</time>
      </trkpt>
      <trkpt lat="43.94444" lon="0.31113">
        <ele>132</ele>
        <time>2023-07-03T12:31:12Z</time>
      </trkpt>
      <trkpt lat="43.94446" lon="0.31114">
        <ele>132</ele>
        <time>2023-07-03T12:31:13Z</time>
      </trkpt>
      <trkpt lat="43.94449" lon="0.3112">
        <ele>131.8</ele>
        <time>2023-07-03T12:31:18Z</time>
      </trkpt>
      <trkpt lat="43.94453" lon="0.31124">
        <ele>131.6</ele>
        <time>2023-07-03T12:31:22Z</time>
      </trkpt>
      <trkpt lat="43.94453" lon="0.31124">
        <ele>131.6</ele>
        <time>2023-07-03T12:31:23Z</time>
      </trkpt>
      <trkpt lat="43.94455" lon="0.31127">
        <ele>131.4</ele>
        <time>2023-07-03T12:31:26Z</time>
      </trkpt>
      <trkpt lat="43.94456" lon="0.31128">
        <ele>131.4</ele>
        <time>2023-07-03T12:31:27Z</time>
      </trkpt>
      <trkpt lat="43.9446" lon="0.31133">
        <ele>131.2</ele>
        <time>2023-07-03T12:31:32Z</time>
      </trkpt>
      <trkpt lat="43.94463" lon="0.31139">
        <ele>130.8</ele>
        <time>2023-07-03T12:31:36Z</time>
      </trkpt>
      <trkpt lat="43.94465" lon="0.31142">
        <ele>130.6</ele>
        <time>2023-07-03T12:31:38Z</time>
      </trkpt>
      <trkpt lat="43.94466" lon="0.31144">
        <ele>130.8</ele>
        <time>2023-07-03T12:31:39Z</time>
      </trkpt>
      <trkpt lat="43.94466" lon="0.31145">
        <ele>130.8</ele>
        <time>2023-07-03T12:31:40Z</time>
      </trkpt>
      <trkpt lat="43.94467" lon="0.31154">
        <ele>130.6</ele>
        <time>2023-07-03T12:31:45Z</time>
      </trkpt>
      <trkpt lat="43.94466" lon="0.31156">
        <ele>130.4</ele>
        <time>2023-07-03T12:31:46Z</time>
      </trkpt>
      <trkpt lat="43.94465" lon="0.31159">
        <ele>130.4</ele>
        <time>2023-07-03T12:31:48Z</time>
      </trkpt>
      <trkpt lat="43.94465" lon="0.3116">
        <ele>130.4</ele>
        <time>2023-07-03T12:31:49Z</time>
      </trkpt>
      <trkpt lat="43.94462" lon="0.31165">
        <ele>130.6</ele>
        <time>2023-07-03T12:32:05Z</time>
      </trkpt>
      <trkpt lat="43.94459" lon="0.31167">
        <ele>130.6</ele>
        <time>2023-07-03T12:32:07Z</time>
      </trkpt>
      <trkpt lat="43.94458" lon="0.31168">
        <ele>130.6</ele>
        <time>2023-07-03T12:32:08Z</time>
      </trkpt>
      <trkpt lat="43.94454" lon="0.31174">
        <ele>130.4</ele>
        <time>2023-07-03T12:32:15Z</time>
      </trkpt>
      <trkpt lat="43.94449" lon="0.31181">
        <ele>130</ele>
        <time>2023-07-03T12:32:22Z</time>
      </trkpt>
      <trkpt lat="43.94444" lon="0.31185">
        <ele>130</ele>
        <time>2023-07-03T12:32:29Z</time>
      </trkpt>
      <trkpt lat="43.94444" lon="0.31186">
        <ele>130</ele>
        <time>2023-07-03T12:32:30Z</time>
      </trkpt>
      <trkpt lat="43.94443" lon="0.31186">
        <ele>130</ele>
        <time>2023-07-03T12:32:31Z</time>
      </trkpt>
      <trkpt lat="43.94442" lon="0.31187">
        <ele>130</ele>
        <time>2023-07-03T12:32:33Z</time>
      </trkpt>
      <trkpt lat="43.94443" lon="0.31187">
        <ele>129.8</ele>
        <time>2023-07-03T12:32:35Z</time>
      </trkpt>
      <trkpt lat="43.94442" lon="0.31189">
        <ele>130.2</ele>
        <time>2023-07-03T12:32:57Z</time>
      </trkpt>
      <trkpt lat="43.94436" lon="0.31191">
        <ele>130.6</ele>
        <time>2023-07-03T12:33:04Z</time>
      </trkpt>
      <trkpt lat="43.94431" lon="0.31192">
        <ele>131</ele>
        <time>2023-07-03T12:33:08Z</time>
      </trkpt>
      <trkpt lat="43.94429" lon="0.31192">
        <ele>131.2</ele>
        <time>2023-07-03T12:33:10Z</time>
      </trkpt>
      <trkpt lat="43.94427" lon="0.31192">
        <ele>131.2</ele>
        <time>2023-07-03T12:33:11Z</time>
      </trkpt>
      <trkpt lat="43.9442" lon="0.31196">
        <ele>131.6</ele>
        <time>2023-07-03T12:33:17Z</time>
      </trkpt>
      <trkpt lat="43.94419" lon="0.31196">
        <ele>131.6</ele>
        <time>2023-07-03T12:33:18Z</time>
      </trkpt>
      <trkpt lat="43.94409" lon="0.31206">
        <ele>132.2</ele>
        <time>2023-07-03T12:33:27Z</time>
      </trkpt>
      <trkpt lat="43.94408" lon="0.31206">
        <ele>132.2</ele>
        <time>2023-07-03T12:33:28Z</time>
      </trkpt>
      <trkpt lat="43.94405" lon="0.3121">
        <ele>132.6</ele>
        <time>2023-07-03T12:33:31Z</time>
      </trkpt>
      <trkpt lat="43.94404" lon="0.31211">
        <ele>132.6</ele>
        <time>2023-07-03T12:33:32Z</time>
      </trkpt>
      <trkpt lat="43.94402" lon="0.31213">
        <ele>132.8</ele>
        <time>2023-07-03T12:33:34Z</time>
      </trkpt>
      <trkpt lat="43.944" lon="0.31215">
        <ele>132.8</ele>
        <time>2023-07-03T12:33:37Z</time>
      </trkpt>
      <trkpt lat="43.94391" lon="0.31222">
        <ele>133.2</ele>
        <time>2023-07-03T12:33:45Z</time>
      </trkpt>
      <trkpt lat="43.94389" lon="0.31225">
        <ele>133.2</ele>
        <time>2023-07-03T12:33:48Z</time>
      </trkpt>
      <trkpt lat="43.94385" lon="0.31227">
        <ele>133.6</ele>
        <time>2023-07-03T12:33:52Z</time>
      </trkpt>
      <trkpt lat="43.94384" lon="0.31228">
        <ele>133.6</ele>
        <time>2023-07-03T12:33:53Z</time>
      </trkpt>
      <trkpt lat="43.9438" lon="0.31233">
        <ele>133.6</ele>
        <time>2023-07-03T12:33:57Z</time>
      </trkpt>
      <trkpt lat="43.94378" lon="0.31234">
        <ele>133.6</ele>
        <time>2023-07-03T12:33:59Z</time>
      </trkpt>
      <trkpt lat="43.94374" lon="0.31238">
        <ele>133.6</ele>
        <time>2023-07-03T12:34:02Z</time>
      </trkpt>
      <trkpt lat="43.94373" lon="0.31239">
        <ele>133.6</ele>
        <time>2023-07-03T12:34:03Z</time>
      </trkpt>
      <trkpt lat="43.94367" lon="0.31245">
        <ele>134</ele>
        <time>2023-07-03T12:34:08Z</time>
      </trkpt>
      <trkpt lat="43.94365" lon="0.31246">
        <ele>134.2</ele>
        <time>2023-07-03T12:34:10Z</time>
      </trkpt>
      <trkpt lat="43.94364" lon="0.31247">
        <ele>134.2</ele>
        <time>2023-07-03T12:34:12Z</time>
      </trkpt>
      <trkpt lat="43.94358" lon="0.31251">
        <ele>134.6</ele>
        <time>2023-07-03T12:34:18Z</time>
      </trkpt>
      <trkpt lat="43.94357" lon="0.31252">
        <ele>134.6</ele>
        <time>2023-07-03T12:34:19Z</time>
      </trkpt>
      <trkpt lat="43.94354" lon="0.31253">
        <ele>135</ele>
        <time>2023-07-03T12:34:22Z</time>
      </trkpt>
      <trkpt lat="43.94353" lon="0.31254">
        <ele>135</ele>
        <time>2023-07-03T12:34:23Z</time>
      </trkpt>
      <trkpt lat="43.9435" lon="0.31259">
        <ele>135</ele>
        <time>2023-07-03T12:34:27Z</time>
      </trkpt>
      <trkpt lat="43.94348" lon="0.31261">
        <ele>135.2</ele>
        <time>2023-07-03T12:34:29Z</time>
      </trkpt>
      <trkpt lat="43.94344" lon="0.31264">
        <ele>135.2</ele>
        <time>2023-07-03T12:34:33Z</time>
      </trkpt>
      <trkpt lat="43.94343" lon="0.31265">
        <ele>135.4</ele>
        <time>2023-07-03T12:34:34Z</time>
      </trkpt>
      <trkpt lat="43.9434" lon="0.31269">
        <ele>135.6</ele>
        <time>2023-07-03T12:34:37Z</time>
      </trkpt>
      <trkpt lat="43.94339" lon="0.3127">
        <ele>135.8</ele>
        <time>2023-07-03T12:34:38Z</time>
      </trkpt>
      <trkpt lat="43.94338" lon="0.31272">
        <ele>135.8</ele>
        <time>2023-07-03T12:34:39Z</time>
      </trkpt>
      <trkpt lat="43.94335" lon="0.31275">
        <ele>136</ele>
        <time>2023-07-03T12:34:42Z</time>
      </trkpt>
      <trkpt lat="43.94334" lon="0.31276">
        <ele>136</ele>
        <time>2023-07-03T12:34:43Z</time>
      </trkpt>
      <trkpt lat="43.9433" lon="0.31277">
        <ele>136.2</ele>
        <time>2023-07-03T12:34:47Z</time>
      </trkpt>
      <trkpt lat="43.94328" lon="0.31278">
        <ele>136.4</ele>
        <time>2023-07-03T12:34:48Z</time>
      </trkpt>
      <trkpt lat="43.94326" lon="0.3128">
        <ele>137</ele>
        <time>2023-07-03T12:34:51Z</time>
      </trkpt>
      <trkpt lat="43.94323" lon="0.31283">
        <ele>137</ele>
        <time>2023-07-03T12:34:54Z</time>
      </trkpt>
      <trkpt lat="43.9432" lon="0.31285">
        <ele>137.4</ele>
        <time>2023-07-03T12:34:56Z</time>
      </trkpt>
      <trkpt lat="43.94315" lon="0.31289">
        <ele>138</ele>
        <time>2023-07-03T12:35:01Z</time>
      </trkpt>
      <trkpt lat="43.94313" lon="0.3129">
        <ele>138.2</ele>
        <time>2023-07-03T12:35:03Z</time>
      </trkpt>
      <trkpt lat="43.94305" lon="0.31293">
        <ele>139</ele>
        <time>2023-07-03T12:35:11Z</time>
      </trkpt>
      <trkpt lat="43.94304" lon="0.31293">
        <ele>139</ele>
        <time>2023-07-03T12:35:12Z</time>
      </trkpt>
      <trkpt lat="43.94302" lon="0.31294">
        <ele>139.2</ele>
        <time>2023-07-03T12:35:14Z</time>
      </trkpt>
      <trkpt lat="43.94298" lon="0.31296">
        <ele>139.6</ele>
        <time>2023-07-03T12:35:18Z</time>
      </trkpt>
      <trkpt lat="43.94295" lon="0.31297">
        <ele>139.6</ele>
        <time>2023-07-03T12:35:21Z</time>
      </trkpt>
      <trkpt lat="43.94291" lon="0.313">
        <ele>139.8</ele>
        <time>2023-07-03T12:35:24Z</time>
      </trkpt>
      <trkpt lat="43.9429" lon="0.31301">
        <ele>140</ele>
        <time>2023-07-03T12:35:25Z</time>
      </trkpt>
      <trkpt lat="43.94288" lon="0.31302">
        <ele>140.4</ele>
        <time>2023-07-03T12:35:27Z</time>
      </trkpt>
      <trkpt lat="43.94286" lon="0.31302">
        <ele>140.8</ele>
        <time>2023-07-03T12:35:29Z</time>
      </trkpt>
      <trkpt lat="43.94284" lon="0.31303">
        <ele>141</ele>
        <time>2023-07-03T12:35:30Z</time>
      </trkpt>
      <trkpt lat="43.94279" lon="0.31305">
        <ele>141.6</ele>
        <time>2023-07-03T12:35:35Z</time>
      </trkpt>
      <trkpt lat="43.94275" lon="0.31309">
        <ele>142</ele>
        <time>2023-07-03T12:35:39Z</time>
      </trkpt>
      <trkpt lat="43.94273" lon="0.3131">
        <ele>142.2</ele>
        <time>2023-07-03T12:35:41Z</time>
      </trkpt>
      <trkpt lat="43.9427" lon="0.31313">
        <ele>142.6</ele>
        <time>2023-07-03T12:35:44Z</time>
      </trkpt>
      <trkpt lat="43.94264" lon="0.31316">
        <ele>143.4</ele>
        <time>2023-07-03T12:35:50Z</time>
      </trkpt>
      <trkpt lat="43.94262" lon="0.31317">
        <ele>143.6</ele>
        <time>2023-07-03T12:35:52Z</time>
      </trkpt>
      <trkpt lat="43.94256" lon="0.31322">
        <ele>144.4</ele>
        <time>2023-07-03T12:35:59Z</time>
      </trkpt>
      <trkpt lat="43.94255" lon="0.31323">
        <ele>144.4</ele>
        <time>2023-07-03T12:36:00Z</time>
      </trkpt>
      <trkpt lat="43.94248" lon="0.31331">
        <ele>145</ele>
        <time>2023-07-03T12:36:07Z</time>
      </trkpt>
      <trkpt lat="43.94245" lon="0.31335">
        <ele>145.4</ele>
        <time>2023-07-03T12:36:11Z</time>
      </trkpt>
      <trkpt lat="43.94238" lon="0.31341">
        <ele>146</ele>
        <time>2023-07-03T12:36:18Z</time>
      </trkpt>
      <trkpt lat="43.94236" lon="0.31344">
        <ele>146.2</ele>
        <time>2023-07-03T12:36:20Z</time>
      </trkpt>
      <trkpt lat="43.94235" lon="0.31345">
        <ele>146.2</ele>
        <time>2023-07-03T12:36:21Z</time>
      </trkpt>
      <trkpt lat="43.94234" lon="0.31345">
        <ele>146.4</ele>
        <time>2023-07-03T12:36:22Z</time>
      </trkpt>
      <trkpt lat="43.9423" lon="0.31349">
        <ele>146.6</ele>
        <time>2023-07-03T12:36:27Z</time>
      </trkpt>
      <trkpt lat="43.94227" lon="0.31355">
        <ele>147</ele>
        <time>2023-07-03T12:36:31Z</time>
      </trkpt>
      <trkpt lat="43.94227" lon="0.31356">
        <ele>147</ele>
        <time>2023-07-03T12:36:32Z</time>
      </trkpt>
      <trkpt lat="43.94225" lon="0.31358">
        <ele>147.2</ele>
        <time>2023-07-03T12:36:35Z</time>
      </trkpt>
      <trkpt lat="43.94223" lon="0.31358">
        <ele>147.4</ele>
        <time>2023-07-03T12:36:38Z</time>
      </trkpt>
      <trkpt lat="43.94222" lon="0.31358">
        <ele>147.4</ele>
        <time>2023-07-03T12:36:39Z</time>
      </trkpt>
      <trkpt lat="43.94221" lon="0.31359">
        <ele>147.4</ele>
        <time>2023-07-03T12:36:40Z</time>
      </trkpt>
      <trkpt lat="43.94219" lon="0.3136">
        <ele>147.6</ele>
        <time>2023-07-03T12:36:42Z</time>
      </trkpt>
      <trkpt lat="43.94216" lon="0.31364">
        <ele>148.2</ele>
        <time>2023-07-03T12:36:45Z</time>
      </trkpt>
      <trkpt lat="43.94215" lon="0.31365">
        <ele>148.2</ele>
        <time>2023-07-03T12:36:46Z</time>
      </trkpt>
      <trkpt lat="43.94212" lon="0.3137">
        <ele>148.4</ele>
        <time>2023-07-03T12:36:49Z</time>
      </trkpt>
      <trkpt lat="43.94211" lon="0.31371">
        <ele>148.6</ele>
        <time>2023-07-03T12:36:50Z</time>
      </trkpt>
      <trkpt lat="43.94206" lon="0.31373">
        <ele>148.6</ele>
        <time>2023-07-03T12:36:53Z</time>
      </trkpt>
      <trkpt lat="43.94202" lon="0.31375">
        <ele>149.2</ele>
        <time>2023-07-03T12:36:56Z</time>
      </trkpt>
      <trkpt lat="43.94199" lon="0.31375">
        <ele>149.4</ele>
        <time>2023-07-03T12:36:58Z</time>
      </trkpt>
      <trkpt lat="43.94198" lon="0.31375">
        <ele>149.4</ele>
        <time>2023-07-03T12:36:59Z</time>
      </trkpt>
      <trkpt lat="43.94197" lon="0.31374">
        <ele>149.4</ele>
        <time>2023-07-03T12:37:00Z</time>
      </trkpt>
      <trkpt lat="43.94194" lon="0.31374">
        <ele>149.6</ele>
        <time>2023-07-03T12:37:02Z</time>
      </trkpt>
      <trkpt lat="43.94191" lon="0.31372">
        <ele>150</ele>
        <time>2023-07-03T12:37:05Z</time>
      </trkpt>
      <trkpt lat="43.94186" lon="0.3137">
        <ele>150.6</ele>
        <time>2023-07-03T12:37:11Z</time>
      </trkpt>
      <trkpt lat="43.94185" lon="0.3137">
        <ele>150.8</ele>
        <time>2023-07-03T12:37:12Z</time>
      </trkpt>
      <trkpt lat="43.94175" lon="0.3137">
        <ele>151.8</ele>
        <time>2023-07-03T12:37:20Z</time>
      </trkpt>
      <trkpt lat="43.94166" lon="0.31373">
        <ele>152.6</ele>
        <time>2023-07-03T12:37:29Z</time>
      </trkpt>
      <trkpt lat="43.94165" lon="0.31374">
        <ele>152.8</ele>
        <time>2023-07-03T12:37:30Z</time>
      </trkpt>
      <trkpt lat="43.9416" lon="0.31379">
        <ele>153.8</ele>
        <time>2023-07-03T12:37:35Z</time>
      </trkpt>
      <trkpt lat="43.9416" lon="0.3138">
        <ele>153.8</ele>
        <time>2023-07-03T12:37:36Z</time>
      </trkpt>
      <trkpt lat="43.94158" lon="0.31384">
        <ele>154.2</ele>
        <time>2023-07-03T12:37:38Z</time>
      </trkpt>
      <trkpt lat="43.94155" lon="0.31392">
        <ele>155</ele>
        <time>2023-07-03T12:37:43Z</time>
      </trkpt>
      <trkpt lat="43.94154" lon="0.31394">
        <ele>155</ele>
        <time>2023-07-03T12:37:44Z</time>
      </trkpt>
      <trkpt lat="43.94153" lon="0.31398">
        <ele>155.2</ele>
        <time>2023-07-03T12:37:47Z</time>
      </trkpt>
      <trkpt lat="43.94151" lon="0.31401">
        <ele>155.2</ele>
        <time>2023-07-03T12:37:49Z</time>
      </trkpt>
      <trkpt lat="43.9415" lon="0.31402">
        <ele>155.4</ele>
        <time>2023-07-03T12:37:50Z</time>
      </trkpt>
      <trkpt lat="43.94148" lon="0.31407">
        <ele>155.6</ele>
        <time>2023-07-03T12:37:54Z</time>
      </trkpt>
      <trkpt lat="43.94146" lon="0.31409">
        <ele>155.8</ele>
        <time>2023-07-03T12:37:56Z</time>
      </trkpt>
      <trkpt lat="43.94145" lon="0.31411">
        <ele>156</ele>
        <time>2023-07-03T12:37:57Z</time>
      </trkpt>
      <trkpt lat="43.94143" lon="0.31416">
        <ele>156</ele>
        <time>2023-07-03T12:38:01Z</time>
      </trkpt>
      <trkpt lat="43.94142" lon="0.31418">
        <ele>156.2</ele>
        <time>2023-07-03T12:38:03Z</time>
      </trkpt>
      <trkpt lat="43.94141" lon="0.31419">
        <ele>156.2</ele>
        <time>2023-07-03T12:38:04Z</time>
      </trkpt>
      <trkpt lat="43.9414" lon="0.31421">
        <ele>156.4</ele>
        <time>2023-07-03T12:38:06Z</time>
      </trkpt>
      <trkpt lat="43.9414" lon="0.31425">
        <ele>156.6</ele>
        <time>2023-07-03T12:38:09Z</time>
      </trkpt>
      <trkpt lat="43.94133" lon="0.31438">
        <ele>156.6</ele>
        <time>2023-07-03T12:38:16Z</time>
      </trkpt>
      <trkpt lat="43.94131" lon="0.3144">
        <ele>157</ele>
        <time>2023-07-03T12:38:18Z</time>
      </trkpt>
      <trkpt lat="43.94127" lon="0.31447">
        <ele>157.2</ele>
        <time>2023-07-03T12:38:24Z</time>
      </trkpt>
      <trkpt lat="43.94122" lon="0.31458">
        <ele>157.4</ele>
        <time>2023-07-03T12:38:31Z</time>
      </trkpt>
      <trkpt lat="43.94121" lon="0.31461">
        <ele>157.6</ele>
        <time>2023-07-03T12:38:33Z</time>
      </trkpt>
      <trkpt lat="43.94116" lon="0.3147">
        <ele>157.8</ele>
        <time>2023-07-03T12:38:40Z</time>
      </trkpt>
      <trkpt lat="43.94115" lon="0.31471">
        <ele>158.2</ele>
        <time>2023-07-03T12:38:41Z</time>
      </trkpt>
      <trkpt lat="43.94113" lon="0.31476">
        <ele>158.4</ele>
        <time>2023-07-03T12:38:44Z</time>
      </trkpt>
      <trkpt lat="43.94112" lon="0.3148">
        <ele>158.8</ele>
        <time>2023-07-03T12:38:47Z</time>
      </trkpt>
      <trkpt lat="43.94111" lon="0.31482">
        <ele>159.2</ele>
        <time>2023-07-03T12:38:49Z</time>
      </trkpt>
      <trkpt lat="43.94111" lon="0.31484">
        <ele>159.2</ele>
        <time>2023-07-03T12:38:50Z</time>
      </trkpt>
      <trkpt lat="43.9411" lon="0.31485">
        <ele>159.2</ele>
        <time>2023-07-03T12:38:51Z</time>
      </trkpt>
      <trkpt lat="43.9411" lon="0.31487">
        <ele>159.4</ele>
        <time>2023-07-03T12:38:52Z</time>
      </trkpt>
      <trkpt lat="43.94109" lon="0.31488">
        <ele>159.4</ele>
        <time>2023-07-03T12:38:53Z</time>
      </trkpt>
      <trkpt lat="43.94108" lon="0.31489">
        <ele>159.6</ele>
        <time>2023-07-03T12:38:54Z</time>
      </trkpt>
      <trkpt lat="43.94102" lon="0.31496">
        <ele>159.8</ele>
        <time>2023-07-03T12:39:00Z</time>
      </trkpt>
      <trkpt lat="43.94097" lon="0.31507">
        <ele>160.2</ele>
        <time>2023-07-03T12:39:06Z</time>
      </trkpt>
      <trkpt lat="43.94096" lon="0.31508">
        <ele>160.4</ele>
        <time>2023-07-03T12:39:07Z</time>
      </trkpt>
      <trkpt lat="43.9409" lon="0.31516">
        <ele>160.6</ele>
        <time>2023-07-03T12:39:13Z</time>
      </trkpt>
      <trkpt lat="43.94089" lon="0.31518">
        <ele>160.6</ele>
        <time>2023-07-03T12:39:14Z</time>
      </trkpt>
      <trkpt lat="43.94084" lon="0.31531">
        <ele>161</ele>
        <time>2023-07-03T12:39:21Z</time>
      </trkpt>
      <trkpt lat="43.94081" lon="0.31535">
        <ele>161.2</ele>
        <time>2023-07-03T12:39:25Z</time>
      </trkpt>
      <trkpt lat="43.94079" lon="0.31539">
        <ele>161.8</ele>
        <time>2023-07-03T12:39:29Z</time>
      </trkpt>
      <trkpt lat="43.94079" lon="0.31541">
        <ele>161.8</ele>
        <time>2023-07-03T12:39:30Z</time>
      </trkpt>
      <trkpt lat="43.94078" lon="0.31543">
        <ele>161.8</ele>
        <time>2023-07-03T12:39:32Z</time>
      </trkpt>
      <trkpt lat="43.94077" lon="0.31548">
        <ele>161.8</ele>
        <time>2023-07-03T12:39:35Z</time>
      </trkpt>
      <trkpt lat="43.94074" lon="0.31562">
        <ele>162</ele>
        <time>2023-07-03T12:39:41Z</time>
      </trkpt>
      <trkpt lat="43.94073" lon="0.31566">
        <ele>162.2</ele>
        <time>2023-07-03T12:39:43Z</time>
      </trkpt>
      <trkpt lat="43.94073" lon="0.31568">
        <ele>162.2</ele>
        <time>2023-07-03T12:39:44Z</time>
      </trkpt>
      <trkpt lat="43.94072" lon="0.31571">
        <ele>162.4</ele>
        <time>2023-07-03T12:39:46Z</time>
      </trkpt>
      <trkpt lat="43.94071" lon="0.31575">
        <ele>162.6</ele>
        <time>2023-07-03T12:39:48Z</time>
      </trkpt>
      <trkpt lat="43.94069" lon="0.31588">
        <ele>162.8</ele>
        <time>2023-07-03T12:39:55Z</time>
      </trkpt>
      <trkpt lat="43.94068" lon="0.31601">
        <ele>163.2</ele>
        <time>2023-07-03T12:40:03Z</time>
      </trkpt>
      <trkpt lat="43.94067" lon="0.31604">
        <ele>163.2</ele>
        <time>2023-07-03T12:40:05Z</time>
      </trkpt>
      <trkpt lat="43.94065" lon="0.31611">
        <ele>163.2</ele>
        <time>2023-07-03T12:40:10Z</time>
      </trkpt>
      <trkpt lat="43.94061" lon="0.31625">
        <ele>162.6</ele>
        <time>2023-07-03T12:40:18Z</time>
      </trkpt>
      <trkpt lat="43.94059" lon="0.31639">
        <ele>163</ele>
        <time>2023-07-03T12:40:27Z</time>
      </trkpt>
      <trkpt lat="43.94056" lon="0.31652">
        <ele>162.8</ele>
        <time>2023-07-03T12:40:35Z</time>
      </trkpt>
      <trkpt lat="43.94052" lon="0.31665">
        <ele>163</ele>
        <time>2023-07-03T12:40:41Z</time>
      </trkpt>
      <trkpt lat="43.94048" lon="0.31676">
        <ele>162.8</ele>
        <time>2023-07-03T12:40:46Z</time>
      </trkpt>
      <trkpt lat="43.94047" lon="0.31681">
        <ele>162.6</ele>
        <time>2023-07-03T12:40:49Z</time>
      </trkpt>
      <trkpt lat="43.94046" lon="0.31682">
        <ele>162.6</ele>
        <time>2023-07-03T12:40:50Z</time>
      </trkpt>
      <trkpt lat="43.94045" lon="0.31685">
        <ele>162.6</ele>
        <time>2023-07-03T12:40:52Z</time>
      </trkpt>
      <trkpt lat="43.94045" lon="0.31686">
        <ele>162.6</ele>
        <time>2023-07-03T12:40:53Z</time>
      </trkpt>
      <trkpt lat="43.94041" lon="0.31693">
        <ele>163</ele>
        <time>2023-07-03T12:40:58Z</time>
      </trkpt>
      <trkpt lat="43.94036" lon="0.31705">
        <ele>163.2</ele>
        <time>2023-07-03T12:41:03Z</time>
      </trkpt>
      <trkpt lat="43.94035" lon="0.3171">
        <ele>163.2</ele>
        <time>2023-07-03T12:41:05Z</time>
      </trkpt>
      <trkpt lat="43.94032" lon="0.31716">
        <ele>163.4</ele>
        <time>2023-07-03T12:41:08Z</time>
      </trkpt>
      <trkpt lat="43.94029" lon="0.3172">
        <ele>163.2</ele>
        <time>2023-07-03T12:41:11Z</time>
      </trkpt>
      <trkpt lat="43.94021" lon="0.3173">
        <ele>162.8</ele>
        <time>2023-07-03T12:41:19Z</time>
      </trkpt>
      <trkpt lat="43.94016" lon="0.31738">
        <ele>162.6</ele>
        <time>2023-07-03T12:41:26Z</time>
      </trkpt>
      <trkpt lat="43.94015" lon="0.3174">
        <ele>162.6</ele>
        <time>2023-07-03T12:41:27Z</time>
      </trkpt>
      <trkpt lat="43.94011" lon="0.31747">
        <ele>162.8</ele>
        <time>2023-07-03T12:41:32Z</time>
      </trkpt>
      <trkpt lat="43.94007" lon="0.31757">
        <ele>163</ele>
        <time>2023-07-03T12:41:39Z</time>
      </trkpt>
      <trkpt lat="43.94005" lon="0.31761">
        <ele>163.2</ele>
        <time>2023-07-03T12:41:42Z</time>
      </trkpt>
      <trkpt lat="43.94004" lon="0.31765">
        <ele>163.2</ele>
        <time>2023-07-03T12:41:44Z</time>
      </trkpt>
      <trkpt lat="43.94003" lon="0.31767">
        <ele>163</ele>
        <time>2023-07-03T12:41:45Z</time>
      </trkpt>
      <trkpt lat="43.93998" lon="0.31776">
        <ele>163</ele>
        <time>2023-07-03T12:41:53Z</time>
      </trkpt>
      <trkpt lat="43.93994" lon="0.31778">
        <ele>163</ele>
        <time>2023-07-03T12:41:57Z</time>
      </trkpt>
      <trkpt lat="43.93991" lon="0.31782">
        <ele>163.2</ele>
        <time>2023-07-03T12:42:00Z</time>
      </trkpt>
      <trkpt lat="43.93983" lon="0.31797">
        <ele>163.2</ele>
        <time>2023-07-03T12:42:08Z</time>
      </trkpt>
      <trkpt lat="43.93979" lon="0.31802">
        <ele>163.4</ele>
        <time>2023-07-03T12:42:13Z</time>
      </trkpt>
      <trkpt lat="43.93978" lon="0.31805">
        <ele>163.6</ele>
        <time>2023-07-03T12:42:15Z</time>
      </trkpt>
      <trkpt lat="43.93975" lon="0.31813">
        <ele>163.6</ele>
        <time>2023-07-03T12:42:19Z</time>
      </trkpt>
      <trkpt lat="43.93974" lon="0.31817">
        <ele>163.6</ele>
        <time>2023-07-03T12:42:21Z</time>
      </trkpt>
      <trkpt lat="43.93973" lon="0.31818">
        <ele>163.6</ele>
        <time>2023-07-03T12:42:22Z</time>
      </trkpt>
      <trkpt lat="43.93972" lon="0.31819">
        <ele>163.6</ele>
        <time>2023-07-03T12:42:23Z</time>
      </trkpt>
      <trkpt lat="43.93972" lon="0.3182">
        <ele>163.8</ele>
        <time>2023-07-03T12:42:24Z</time>
      </trkpt>
      <trkpt lat="43.93971" lon="0.31822">
        <ele>164</ele>
        <time>2023-07-03T12:42:26Z</time>
      </trkpt>
      <trkpt lat="43.93969" lon="0.31826">
        <ele>164</ele>
        <time>2023-07-03T12:42:29Z</time>
      </trkpt>
      <trkpt lat="43.93962" lon="0.31836">
        <ele>164.2</ele>
        <time>2023-07-03T12:42:35Z</time>
      </trkpt>
      <trkpt lat="43.9396" lon="0.31841">
        <ele>164.2</ele>
        <time>2023-07-03T12:42:38Z</time>
      </trkpt>
      <trkpt lat="43.93955" lon="0.31848">
        <ele>164.2</ele>
        <time>2023-07-03T12:42:43Z</time>
      </trkpt>
      <trkpt lat="43.93953" lon="0.31852">
        <ele>164.4</ele>
        <time>2023-07-03T12:42:45Z</time>
      </trkpt>
      <trkpt lat="43.93951" lon="0.31855">
        <ele>164.2</ele>
        <time>2023-07-03T12:42:47Z</time>
      </trkpt>
      <trkpt lat="43.93949" lon="0.31857">
        <ele>164.2</ele>
        <time>2023-07-03T12:42:49Z</time>
      </trkpt>
      <trkpt lat="43.93946" lon="0.31863">
        <ele>164.2</ele>
        <time>2023-07-03T12:42:53Z</time>
      </trkpt>
      <trkpt lat="43.93943" lon="0.31866">
        <ele>164.4</ele>
        <time>2023-07-03T12:42:56Z</time>
      </trkpt>
      <trkpt lat="43.93942" lon="0.31867">
        <ele>164.4</ele>
        <time>2023-07-03T12:42:57Z</time>
      </trkpt>
      <trkpt lat="43.93941" lon="0.3187">
        <ele>164.2</ele>
        <time>2023-07-03T12:42:59Z</time>
      </trkpt>
      <trkpt lat="43.93939" lon="0.31874">
        <ele>164.2</ele>
        <time>2023-07-03T12:43:01Z</time>
      </trkpt>
      <trkpt lat="43.93938" lon="0.31877">
        <ele>164.4</ele>
        <time>2023-07-03T12:43:03Z</time>
      </trkpt>
      <trkpt lat="43.93937" lon="0.31878">
        <ele>164.4</ele>
        <time>2023-07-03T12:43:04Z</time>
      </trkpt>
      <trkpt lat="43.93933" lon="0.31888">
        <ele>164.6</ele>
        <time>2023-07-03T12:43:10Z</time>
      </trkpt>
      <trkpt lat="43.93931" lon="0.31894">
        <ele>164.8</ele>
        <time>2023-07-03T12:43:13Z</time>
      </trkpt>
      <trkpt lat="43.93929" lon="0.31904">
        <ele>165</ele>
        <time>2023-07-03T12:43:19Z</time>
      </trkpt>
      <trkpt lat="43.93927" lon="0.31909">
        <ele>165</ele>
        <time>2023-07-03T12:43:22Z</time>
      </trkpt>
      <trkpt lat="43.93927" lon="0.31917">
        <ele>164.6</ele>
        <time>2023-07-03T12:43:26Z</time>
      </trkpt>
      <trkpt lat="43.93927" lon="0.31926">
        <ele>165.4</ele>
        <time>2023-07-03T12:43:32Z</time>
      </trkpt>
      <trkpt lat="43.93927" lon="0.31929">
        <ele>165.6</ele>
        <time>2023-07-03T12:43:34Z</time>
      </trkpt>
      <trkpt lat="43.93927" lon="0.3194">
        <ele>165.2</ele>
        <time>2023-07-03T12:43:40Z</time>
      </trkpt>
      <trkpt lat="43.93928" lon="0.31942">
        <ele>165.2</ele>
        <time>2023-07-03T12:43:41Z</time>
      </trkpt>
      <trkpt lat="43.93928" lon="0.31951">
        <ele>165</ele>
        <time>2023-07-03T12:43:47Z</time>
      </trkpt>
      <trkpt lat="43.93928" lon="0.31953">
        <ele>165</ele>
        <time>2023-07-03T12:43:48Z</time>
      </trkpt>
      <trkpt lat="43.93929" lon="0.31955">
        <ele>164.8</ele>
        <time>2023-07-03T12:43:49Z</time>
      </trkpt>
      <trkpt lat="43.9393" lon="0.31958">
        <ele>164.8</ele>
        <time>2023-07-03T12:43:51Z</time>
      </trkpt>
      <trkpt lat="43.9393" lon="0.31965">
        <ele>164.8</ele>
        <time>2023-07-03T12:43:54Z</time>
      </trkpt>
      <trkpt lat="43.93931" lon="0.31967">
        <ele>164.8</ele>
        <time>2023-07-03T12:43:55Z</time>
      </trkpt>
      <trkpt lat="43.93932" lon="0.31975">
        <ele>165</ele>
        <time>2023-07-03T12:43:59Z</time>
      </trkpt>
      <trkpt lat="43.93932" lon="0.31979">
        <ele>164.8</ele>
        <time>2023-07-03T12:44:01Z</time>
      </trkpt>
      <trkpt lat="43.93932" lon="0.31992">
        <ele>165.2</ele>
        <time>2023-07-03T12:44:08Z</time>
      </trkpt>
      <trkpt lat="43.93932" lon="0.31998">
        <ele>165</ele>
        <time>2023-07-03T12:44:11Z</time>
      </trkpt>
      <trkpt lat="43.93932" lon="0.32001">
        <ele>164.8</ele>
        <time>2023-07-03T12:44:13Z</time>
      </trkpt>
      <trkpt lat="43.93932" lon="0.32004">
        <ele>164.8</ele>
        <time>2023-07-03T12:44:15Z</time>
      </trkpt>
      <trkpt lat="43.93934" lon="0.32013">
        <ele>164.4</ele>
        <time>2023-07-03T12:44:21Z</time>
      </trkpt>
      <trkpt lat="43.93936" lon="0.32027">
        <ele>164.2</ele>
        <time>2023-07-03T12:44:29Z</time>
      </trkpt>
      <trkpt lat="43.93936" lon="0.3203">
        <ele>164.4</ele>
        <time>2023-07-03T12:44:31Z</time>
      </trkpt>
      <trkpt lat="43.93936" lon="0.32032">
        <ele>164.2</ele>
        <time>2023-07-03T12:44:32Z</time>
      </trkpt>
      <trkpt lat="43.93937" lon="0.32037">
        <ele>164.2</ele>
        <time>2023-07-03T12:44:35Z</time>
      </trkpt>
      <trkpt lat="43.93938" lon="0.32052">
        <ele>164.2</ele>
        <time>2023-07-03T12:44:43Z</time>
      </trkpt>
      <trkpt lat="43.93939" lon="0.32059">
        <ele>164.4</ele>
        <time>2023-07-03T12:44:47Z</time>
      </trkpt>
      <trkpt lat="43.9394" lon="0.32061">
        <ele>164.4</ele>
        <time>2023-07-03T12:44:48Z</time>
      </trkpt>
      <trkpt lat="43.9394" lon="0.32063">
        <ele>164.2</ele>
        <time>2023-07-03T12:44:49Z</time>
      </trkpt>
      <trkpt lat="43.93941" lon="0.32066">
        <ele>164</ele>
        <time>2023-07-03T12:44:51Z</time>
      </trkpt>
      <trkpt lat="43.93943" lon="0.32073">
        <ele>163.8</ele>
        <time>2023-07-03T12:44:54Z</time>
      </trkpt>
      <trkpt lat="43.93946" lon="0.32088">
        <ele>163.6</ele>
        <time>2023-07-03T12:45:01Z</time>
      </trkpt>
      <trkpt lat="43.93951" lon="0.321">
        <ele>163.4</ele>
        <time>2023-07-03T12:45:09Z</time>
      </trkpt>
      <trkpt lat="43.93952" lon="0.32106">
        <ele>163.2</ele>
        <time>2023-07-03T12:45:12Z</time>
      </trkpt>
      <trkpt lat="43.93954" lon="0.32113">
        <ele>163</ele>
        <time>2023-07-03T12:45:17Z</time>
      </trkpt>
      <trkpt lat="43.93956" lon="0.32119">
        <ele>163.2</ele>
        <time>2023-07-03T12:45:21Z</time>
      </trkpt>
      <trkpt lat="43.93957" lon="0.32123">
        <ele>163.4</ele>
        <time>2023-07-03T12:45:23Z</time>
      </trkpt>
      <trkpt lat="43.93957" lon="0.32124">
        <ele>163.4</ele>
        <time>2023-07-03T12:45:24Z</time>
      </trkpt>
      <trkpt lat="43.93957" lon="0.32128">
        <ele>163.4</ele>
        <time>2023-07-03T12:45:27Z</time>
      </trkpt>
      <trkpt lat="43.93959" lon="0.32134">
        <ele>163.4</ele>
        <time>2023-07-03T12:45:30Z</time>
      </trkpt>
      <trkpt lat="43.93962" lon="0.3214">
        <ele>163.2</ele>
        <time>2023-07-03T12:45:34Z</time>
      </trkpt>
      <trkpt lat="43.93962" lon="0.32141">
        <ele>163.4</ele>
        <time>2023-07-03T12:45:35Z</time>
      </trkpt>
      <trkpt lat="43.93963" lon="0.32145">
        <ele>163.6</ele>
        <time>2023-07-03T12:45:37Z</time>
      </trkpt>
      <trkpt lat="43.93964" lon="0.32147">
        <ele>163.6</ele>
        <time>2023-07-03T12:45:38Z</time>
      </trkpt>
      <trkpt lat="43.93968" lon="0.32164">
        <ele>163.6</ele>
        <time>2023-07-03T12:45:46Z</time>
      </trkpt>
      <trkpt lat="43.93971" lon="0.32174">
        <ele>163.4</ele>
        <time>2023-07-03T12:45:51Z</time>
      </trkpt>
      <trkpt lat="43.93972" lon="0.32177">
        <ele>163.2</ele>
        <time>2023-07-03T12:45:53Z</time>
      </trkpt>
      <trkpt lat="43.93973" lon="0.3218">
        <ele>163.4</ele>
        <time>2023-07-03T12:45:55Z</time>
      </trkpt>
      <trkpt lat="43.93974" lon="0.32184">
        <ele>163.4</ele>
        <time>2023-07-03T12:45:58Z</time>
      </trkpt>
      <trkpt lat="43.93974" lon="0.32186">
        <ele>163.4</ele>
        <time>2023-07-03T12:45:59Z</time>
      </trkpt>
      <trkpt lat="43.93976" lon="0.32194">
        <ele>163.2</ele>
        <time>2023-07-03T12:46:05Z</time>
      </trkpt>
      <trkpt lat="43.93981" lon="0.32209">
        <ele>163.2</ele>
        <time>2023-07-03T12:46:14Z</time>
      </trkpt>
      <trkpt lat="43.93984" lon="0.32217">
        <ele>163.4</ele>
        <time>2023-07-03T12:46:20Z</time>
      </trkpt>
      <trkpt lat="43.93984" lon="0.32219">
        <ele>163.4</ele>
        <time>2023-07-03T12:46:21Z</time>
      </trkpt>
      <trkpt lat="43.93988" lon="0.32231">
        <ele>163.2</ele>
        <time>2023-07-03T12:46:29Z</time>
      </trkpt>
      <trkpt lat="43.93989" lon="0.32236">
        <ele>163.2</ele>
        <time>2023-07-03T12:46:32Z</time>
      </trkpt>
      <trkpt lat="43.9399" lon="0.32241">
        <ele>163.2</ele>
        <time>2023-07-03T12:46:35Z</time>
      </trkpt>
      <trkpt lat="43.93992" lon="0.32252">
        <ele>163.2</ele>
        <time>2023-07-03T12:46:42Z</time>
      </trkpt>
      <trkpt lat="43.93993" lon="0.32255">
        <ele>163.4</ele>
        <time>2023-07-03T12:46:44Z</time>
      </trkpt>
      <trkpt lat="43.93995" lon="0.32263">
        <ele>163</ele>
        <time>2023-07-03T12:46:49Z</time>
      </trkpt>
      <trkpt lat="43.93996" lon="0.32267">
        <ele>163.2</ele>
        <time>2023-07-03T12:46:51Z</time>
      </trkpt>
      <trkpt lat="43.93997" lon="0.32275">
        <ele>163.2</ele>
        <time>2023-07-03T12:46:56Z</time>
      </trkpt>
      <trkpt lat="43.93998" lon="0.32278">
        <ele>163</ele>
        <time>2023-07-03T12:46:58Z</time>
      </trkpt>
      <trkpt lat="43.93999" lon="0.32281">
        <ele>163</ele>
        <time>2023-07-03T12:47:00Z</time>
      </trkpt>
      <trkpt lat="43.93999" lon="0.32283">
        <ele>163</ele>
        <time>2023-07-03T12:47:01Z</time>
      </trkpt>
      <trkpt lat="43.94" lon="0.32289">
        <ele>163.2</ele>
        <time>2023-07-03T12:47:04Z</time>
      </trkpt>
      <trkpt lat="43.94002" lon="0.323">
        <ele>163.4</ele>
        <time>2023-07-03T12:47:10Z</time>
      </trkpt>
      <trkpt lat="43.94004" lon="0.32311">
        <ele>163</ele>
        <time>2023-07-03T12:47:16Z</time>
      </trkpt>
      <trkpt lat="43.94004" lon="0.32312">
        <ele>163.2</ele>
        <time>2023-07-03T12:47:17Z</time>
      </trkpt>
      <trkpt lat="43.94005" lon="0.32323">
        <ele>163.2</ele>
        <time>2023-07-03T12:47:23Z</time>
      </trkpt>
      <trkpt lat="43.94009" lon="0.32333">
        <ele>162.8</ele>
        <time>2023-07-03T12:47:29Z</time>
      </trkpt>
      <trkpt lat="43.94009" lon="0.32336">
        <ele>162.8</ele>
        <time>2023-07-03T12:47:30Z</time>
      </trkpt>
      <trkpt lat="43.94009" lon="0.3234">
        <ele>162.8</ele>
        <time>2023-07-03T12:47:32Z</time>
      </trkpt>
      <trkpt lat="43.94011" lon="0.32347">
        <ele>162.8</ele>
        <time>2023-07-03T12:47:36Z</time>
      </trkpt>
      <trkpt lat="43.94011" lon="0.32359">
        <ele>162.8</ele>
        <time>2023-07-03T12:47:42Z</time>
      </trkpt>
      <trkpt lat="43.94011" lon="0.32375">
        <ele>162.8</ele>
        <time>2023-07-03T12:47:50Z</time>
      </trkpt>
      <trkpt lat="43.94011" lon="0.32379">
        <ele>162.6</ele>
        <time>2023-07-03T12:47:52Z</time>
      </trkpt>
      <trkpt lat="43.94011" lon="0.32381">
        <ele>162.6</ele>
        <time>2023-07-03T12:47:53Z</time>
      </trkpt>
      <trkpt lat="43.94012" lon="0.32383">
        <ele>162.8</ele>
        <time>2023-07-03T12:47:54Z</time>
      </trkpt>
      <trkpt lat="43.94012" lon="0.32385">
        <ele>162.8</ele>
        <time>2023-07-03T12:47:55Z</time>
      </trkpt>
      <trkpt lat="43.94012" lon="0.32386">
        <ele>162.8</ele>
        <time>2023-07-03T12:47:56Z</time>
      </trkpt>
      <trkpt lat="43.94013" lon="0.32388">
        <ele>162.8</ele>
        <time>2023-07-03T12:47:57Z</time>
      </trkpt>
      <trkpt lat="43.94013" lon="0.32389">
        <ele>162.8</ele>
        <time>2023-07-03T12:47:58Z</time>
      </trkpt>
      <trkpt lat="43.94014" lon="0.32393">
        <ele>162.8</ele>
        <time>2023-07-03T12:48:00Z</time>
      </trkpt>
      <trkpt lat="43.94014" lon="0.32397">
        <ele>162.8</ele>
        <time>2023-07-03T12:48:02Z</time>
      </trkpt>
      <trkpt lat="43.94015" lon="0.324">
        <ele>162.8</ele>
        <time>2023-07-03T12:48:04Z</time>
      </trkpt>
      <trkpt lat="43.94015" lon="0.32403">
        <ele>162.8</ele>
        <time>2023-07-03T12:48:06Z</time>
      </trkpt>
      <trkpt lat="43.94015" lon="0.32409">
        <ele>162.6</ele>
        <time>2023-07-03T12:48:09Z</time>
      </trkpt>
      <trkpt lat="43.94015" lon="0.32416">
        <ele>162.8</ele>
        <time>2023-07-03T12:48:13Z</time>
      </trkpt>
      <trkpt lat="43.94015" lon="0.32425">
        <ele>162.4</ele>
        <time>2023-07-03T12:48:18Z</time>
      </trkpt>
      <trkpt lat="43.94015" lon="0.32427">
        <ele>162.4</ele>
        <time>2023-07-03T12:48:19Z</time>
      </trkpt>
      <trkpt lat="43.94016" lon="0.32436">
        <ele>162.4</ele>
        <time>2023-07-03T12:48:24Z</time>
      </trkpt>
      <trkpt lat="43.94016" lon="0.32438">
        <ele>162</ele>
        <time>2023-07-03T12:48:25Z</time>
      </trkpt>
      <trkpt lat="43.94016" lon="0.32444">
        <ele>161.8</ele>
        <time>2023-07-03T12:48:28Z</time>
      </trkpt>
      <trkpt lat="43.94015" lon="0.32449">
        <ele>161.6</ele>
        <time>2023-07-03T12:48:30Z</time>
      </trkpt>
      <trkpt lat="43.94015" lon="0.32451">
        <ele>161.4</ele>
        <time>2023-07-03T12:48:31Z</time>
      </trkpt>
      <trkpt lat="43.94016" lon="0.32455">
        <ele>161</ele>
        <time>2023-07-03T12:48:33Z</time>
      </trkpt>
      <trkpt lat="43.94016" lon="0.32458">
        <ele>161</ele>
        <time>2023-07-03T12:48:35Z</time>
      </trkpt>
      <trkpt lat="43.94015" lon="0.32471">
        <ele>160.4</ele>
        <time>2023-07-03T12:48:42Z</time>
      </trkpt>
      <trkpt lat="43.94015" lon="0.32473">
        <ele>160</ele>
        <time>2023-07-03T12:48:44Z</time>
      </trkpt>
      <trkpt lat="43.94016" lon="0.32477">
        <ele>159.8</ele>
        <time>2023-07-03T12:48:46Z</time>
      </trkpt>
      <trkpt lat="43.94017" lon="0.32482">
        <ele>159.4</ele>
        <time>2023-07-03T12:48:49Z</time>
      </trkpt>
      <trkpt lat="43.94018" lon="0.32492">
        <ele>159</ele>
        <time>2023-07-03T12:48:54Z</time>
      </trkpt>
      <trkpt lat="43.94018" lon="0.32494">
        <ele>159</ele>
        <time>2023-07-03T12:48:55Z</time>
      </trkpt>
      <trkpt lat="43.94018" lon="0.325">
        <ele>158.8</ele>
        <time>2023-07-03T12:48:58Z</time>
      </trkpt>
      <trkpt lat="43.94018" lon="0.32502">
        <ele>158.6</ele>
        <time>2023-07-03T12:48:59Z</time>
      </trkpt>
      <trkpt lat="43.94019" lon="0.32508">
        <ele>158.4</ele>
        <time>2023-07-03T12:49:02Z</time>
      </trkpt>
      <trkpt lat="43.94018" lon="0.32514">
        <ele>158.2</ele>
        <time>2023-07-03T12:49:05Z</time>
      </trkpt>
      <trkpt lat="43.94018" lon="0.32516">
        <ele>158</ele>
        <time>2023-07-03T12:49:06Z</time>
      </trkpt>
      <trkpt lat="43.94018" lon="0.32521">
        <ele>157.6</ele>
        <time>2023-07-03T12:49:09Z</time>
      </trkpt>
      <trkpt lat="43.94018" lon="0.32523">
        <ele>157.6</ele>
        <time>2023-07-03T12:49:10Z</time>
      </trkpt>
      <trkpt lat="43.94019" lon="0.32536">
        <ele>156.8</ele>
        <time>2023-07-03T12:49:17Z</time>
      </trkpt>
      <trkpt lat="43.9402" lon="0.32538">
        <ele>156.6</ele>
        <time>2023-07-03T12:49:18Z</time>
      </trkpt>
      <trkpt lat="43.9402" lon="0.3254">
        <ele>156.4</ele>
        <time>2023-07-03T12:49:19Z</time>
      </trkpt>
      <trkpt lat="43.94023" lon="0.32545">
        <ele>155.8</ele>
        <time>2023-07-03T12:49:22Z</time>
      </trkpt>
      <trkpt lat="43.94023" lon="0.32546">
        <ele>155.8</ele>
        <time>2023-07-03T12:49:23Z</time>
      </trkpt>
      <trkpt lat="43.94023" lon="0.32547">
        <ele>155.8</ele>
        <time>2023-07-03T12:49:24Z</time>
      </trkpt>
      <trkpt lat="43.94025" lon="0.32558">
        <ele>155.4</ele>
        <time>2023-07-03T12:49:31Z</time>
      </trkpt>
      <trkpt lat="43.94025" lon="0.32564">
        <ele>155</ele>
        <time>2023-07-03T12:49:35Z</time>
      </trkpt>
      <trkpt lat="43.94025" lon="0.32566">
        <ele>154.8</ele>
        <time>2023-07-03T12:49:36Z</time>
      </trkpt>
      <trkpt lat="43.94026" lon="0.32569">
        <ele>154.4</ele>
        <time>2023-07-03T12:49:38Z</time>
      </trkpt>
      <trkpt lat="43.94027" lon="0.32572">
        <ele>154.4</ele>
        <time>2023-07-03T12:49:40Z</time>
      </trkpt>
      <trkpt lat="43.9403" lon="0.32577">
        <ele>154</ele>
        <time>2023-07-03T12:49:44Z</time>
      </trkpt>
      <trkpt lat="43.94032" lon="0.32579">
        <ele>154</ele>
        <time>2023-07-03T12:49:45Z</time>
      </trkpt>
      <trkpt lat="43.94032" lon="0.32582">
        <ele>153.8</ele>
        <time>2023-07-03T12:49:46Z</time>
      </trkpt>
      <trkpt lat="43.94033" lon="0.32587">
        <ele>153.8</ele>
        <time>2023-07-03T12:49:48Z</time>
      </trkpt>
      <trkpt lat="43.94033" lon="0.32592">
        <ele>153.4</ele>
        <time>2023-07-03T12:49:50Z</time>
      </trkpt>
      <trkpt lat="43.94034" lon="0.32596">
        <ele>152.8</ele>
        <time>2023-07-03T12:49:53Z</time>
      </trkpt>
      <trkpt lat="43.94037" lon="0.32602">
        <ele>152.2</ele>
        <time>2023-07-03T12:49:57Z</time>
      </trkpt>
      <trkpt lat="43.94039" lon="0.32607">
        <ele>152</ele>
        <time>2023-07-03T12:50:00Z</time>
      </trkpt>
      <trkpt lat="43.9404" lon="0.3261">
        <ele>151.4</ele>
        <time>2023-07-03T12:50:02Z</time>
      </trkpt>
      <trkpt lat="43.94041" lon="0.32611">
        <ele>151.4</ele>
        <time>2023-07-03T12:50:03Z</time>
      </trkpt>
      <trkpt lat="43.94043" lon="0.32617">
        <ele>151</ele>
        <time>2023-07-03T12:50:06Z</time>
      </trkpt>
      <trkpt lat="43.94043" lon="0.32622">
        <ele>150.4</ele>
        <time>2023-07-03T12:50:09Z</time>
      </trkpt>
      <trkpt lat="43.94044" lon="0.32624">
        <ele>150.2</ele>
        <time>2023-07-03T12:50:10Z</time>
      </trkpt>
      <trkpt lat="43.94044" lon="0.32626">
        <ele>150</ele>
        <time>2023-07-03T12:50:11Z</time>
      </trkpt>
      <trkpt lat="43.94044" lon="0.32629">
        <ele>149.8</ele>
        <time>2023-07-03T12:50:13Z</time>
      </trkpt>
      <trkpt lat="43.94045" lon="0.32633">
        <ele>149.4</ele>
        <time>2023-07-03T12:50:15Z</time>
      </trkpt>
      <trkpt lat="43.94045" lon="0.32634">
        <ele>149.2</ele>
        <time>2023-07-03T12:50:16Z</time>
      </trkpt>
      <trkpt lat="43.94045" lon="0.32637">
        <ele>148.8</ele>
        <time>2023-07-03T12:50:18Z</time>
      </trkpt>
      <trkpt lat="43.94045" lon="0.32641">
        <ele>148.4</ele>
        <time>2023-07-03T12:50:20Z</time>
      </trkpt>
      <trkpt lat="43.94046" lon="0.32648">
        <ele>148.4</ele>
        <time>2023-07-03T12:50:24Z</time>
      </trkpt>
      <trkpt lat="43.94047" lon="0.32651">
        <ele>148.2</ele>
        <time>2023-07-03T12:50:26Z</time>
      </trkpt>
      <trkpt lat="43.94049" lon="0.3266">
        <ele>147.4</ele>
        <time>2023-07-03T12:50:31Z</time>
      </trkpt>
      <trkpt lat="43.94049" lon="0.32664">
        <ele>147.2</ele>
        <time>2023-07-03T12:50:33Z</time>
      </trkpt>
      <trkpt lat="43.94049" lon="0.32669">
        <ele>146.6</ele>
        <time>2023-07-03T12:50:36Z</time>
      </trkpt>
      <trkpt lat="43.94049" lon="0.32671">
        <ele>146.4</ele>
        <time>2023-07-03T12:50:37Z</time>
      </trkpt>
      <trkpt lat="43.94051" lon="0.32673">
        <ele>146</ele>
        <time>2023-07-03T12:50:39Z</time>
      </trkpt>
      <trkpt lat="43.94056" lon="0.32679">
        <ele>145.6</ele>
        <time>2023-07-03T12:50:43Z</time>
      </trkpt>
      <trkpt lat="43.94056" lon="0.32684">
        <ele>145</ele>
        <time>2023-07-03T12:50:47Z</time>
      </trkpt>
      <trkpt lat="43.94058" lon="0.32683">
        <ele>144.8</ele>
        <time>2023-07-03T12:50:48Z</time>
      </trkpt>
      <trkpt lat="43.94059" lon="0.32684">
        <ele>144.8</ele>
        <time>2023-07-03T12:50:49Z</time>
      </trkpt>
      <trkpt lat="43.94059" lon="0.32685">
        <ele>144.6</ele>
        <time>2023-07-03T12:50:50Z</time>
      </trkpt>
      <trkpt lat="43.94061" lon="0.32691">
        <ele>144.2</ele>
        <time>2023-07-03T12:50:56Z</time>
      </trkpt>
      <trkpt lat="43.94062" lon="0.32693">
        <ele>144.2</ele>
        <time>2023-07-03T12:50:57Z</time>
      </trkpt>
      <trkpt lat="43.94063" lon="0.32699">
        <ele>143.8</ele>
        <time>2023-07-03T12:51:01Z</time>
      </trkpt>
      <trkpt lat="43.94064" lon="0.32701">
        <ele>143.6</ele>
        <time>2023-07-03T12:51:03Z</time>
      </trkpt>
      <trkpt lat="43.94067" lon="0.32707">
        <ele>143.4</ele>
        <time>2023-07-03T12:51:06Z</time>
      </trkpt>
      <trkpt lat="43.94068" lon="0.32709">
        <ele>143.4</ele>
        <time>2023-07-03T12:51:08Z</time>
      </trkpt>
      <trkpt lat="43.9407" lon="0.32712">
        <ele>143.4</ele>
        <time>2023-07-03T12:51:10Z</time>
      </trkpt>
      <trkpt lat="43.9407" lon="0.32713">
        <ele>143.2</ele>
        <time>2023-07-03T12:51:11Z</time>
      </trkpt>
      <trkpt lat="43.94071" lon="0.3272">
        <ele>142.8</ele>
        <time>2023-07-03T12:51:15Z</time>
      </trkpt>
      <trkpt lat="43.94072" lon="0.32722">
        <ele>142.8</ele>
        <time>2023-07-03T12:51:16Z</time>
      </trkpt>
      <trkpt lat="43.94073" lon="0.32725">
        <ele>142.8</ele>
        <time>2023-07-03T12:51:18Z</time>
      </trkpt>
      <trkpt lat="43.94076" lon="0.32734">
        <ele>142.4</ele>
        <time>2023-07-03T12:51:23Z</time>
      </trkpt>
      <trkpt lat="43.94078" lon="0.32735">
        <ele>142.4</ele>
        <time>2023-07-03T12:51:24Z</time>
      </trkpt>
      <trkpt lat="43.94077" lon="0.32739">
        <ele>142.2</ele>
        <time>2023-07-03T12:51:26Z</time>
      </trkpt>
      <trkpt lat="43.94081" lon="0.32748">
        <ele>142.2</ele>
        <time>2023-07-03T12:51:31Z</time>
      </trkpt>
      <trkpt lat="43.9408" lon="0.32761">
        <ele>141.8</ele>
        <time>2023-07-03T12:51:38Z</time>
      </trkpt>
      <trkpt lat="43.9408" lon="0.32771">
        <ele>141.6</ele>
        <time>2023-07-03T12:51:45Z</time>
      </trkpt>
      <trkpt lat="43.9408" lon="0.32778">
        <ele>141.6</ele>
        <time>2023-07-03T12:51:49Z</time>
      </trkpt>
      <trkpt lat="43.9408" lon="0.32782">
        <ele>141.6</ele>
        <time>2023-07-03T12:51:51Z</time>
      </trkpt>
      <trkpt lat="43.9408" lon="0.32794">
        <ele>141</ele>
        <time>2023-07-03T12:51:57Z</time>
      </trkpt>
      <trkpt lat="43.94083" lon="0.32804">
        <ele>141</ele>
        <time>2023-07-03T12:52:04Z</time>
      </trkpt>
      <trkpt lat="43.94084" lon="0.3281">
        <ele>141</ele>
        <time>2023-07-03T12:52:09Z</time>
      </trkpt>
      <trkpt lat="43.94084" lon="0.32811">
        <ele>141</ele>
        <time>2023-07-03T12:52:10Z</time>
      </trkpt>
      <trkpt lat="43.94084" lon="0.32812">
        <ele>141</ele>
        <time>2023-07-03T12:52:11Z</time>
      </trkpt>
      <trkpt lat="43.94084" lon="0.32821">
        <ele>141.4</ele>
        <time>2023-07-03T12:52:16Z</time>
      </trkpt>
      <trkpt lat="43.94086" lon="0.3283">
        <ele>141.2</ele>
        <time>2023-07-03T12:52:20Z</time>
      </trkpt>
      <trkpt lat="43.94087" lon="0.32833">
        <ele>141.4</ele>
        <time>2023-07-03T12:52:22Z</time>
      </trkpt>
      <trkpt lat="43.94088" lon="0.32834">
        <ele>141.4</ele>
        <time>2023-07-03T12:52:23Z</time>
      </trkpt>
      <trkpt lat="43.94088" lon="0.32836">
        <ele>141.2</ele>
        <time>2023-07-03T12:52:25Z</time>
      </trkpt>
      <trkpt lat="43.94088" lon="0.32839">
        <ele>141.2</ele>
        <time>2023-07-03T12:52:27Z</time>
      </trkpt>
      <trkpt lat="43.94088" lon="0.32842">
        <ele>141.2</ele>
        <time>2023-07-03T12:52:29Z</time>
      </trkpt>
      <trkpt lat="43.94089" lon="0.32845">
        <ele>141.2</ele>
        <time>2023-07-03T12:52:31Z</time>
      </trkpt>
      <trkpt lat="43.9409" lon="0.32854">
        <ele>141.6</ele>
        <time>2023-07-03T12:52:36Z</time>
      </trkpt>
      <trkpt lat="43.94091" lon="0.32858">
        <ele>141.8</ele>
        <time>2023-07-03T12:52:38Z</time>
      </trkpt>
      <trkpt lat="43.94095" lon="0.32867">
        <ele>141.6</ele>
        <time>2023-07-03T12:52:43Z</time>
      </trkpt>
      <trkpt lat="43.94098" lon="0.32874">
        <ele>141.6</ele>
        <time>2023-07-03T12:52:46Z</time>
      </trkpt>
      <trkpt lat="43.94101" lon="0.32882">
        <ele>141.8</ele>
        <time>2023-07-03T12:52:50Z</time>
      </trkpt>
      <trkpt lat="43.94102" lon="0.32884">
        <ele>141.8</ele>
        <time>2023-07-03T12:52:51Z</time>
      </trkpt>
      <trkpt lat="43.94104" lon="0.32891">
        <ele>142.2</ele>
        <time>2023-07-03T12:52:55Z</time>
      </trkpt>
      <trkpt lat="43.94105" lon="0.32894">
        <ele>142.4</ele>
        <time>2023-07-03T12:52:57Z</time>
      </trkpt>
      <trkpt lat="43.94105" lon="0.32897">
        <ele>142.4</ele>
        <time>2023-07-03T12:52:59Z</time>
      </trkpt>
      <trkpt lat="43.94108" lon="0.32904">
        <ele>142</ele>
        <time>2023-07-03T12:53:03Z</time>
      </trkpt>
      <trkpt lat="43.94111" lon="0.32914">
        <ele>142.6</ele>
        <time>2023-07-03T12:53:08Z</time>
      </trkpt>
      <trkpt lat="43.94112" lon="0.32915">
        <ele>142.6</ele>
        <time>2023-07-03T12:53:09Z</time>
      </trkpt>
      <trkpt lat="43.94112" lon="0.32918">
        <ele>142.6</ele>
        <time>2023-07-03T12:53:12Z</time>
      </trkpt>
      <trkpt lat="43.94113" lon="0.32922">
        <ele>142.8</ele>
        <time>2023-07-03T12:53:15Z</time>
      </trkpt>
      <trkpt lat="43.94117" lon="0.32932">
        <ele>143.6</ele>
        <time>2023-07-03T12:53:22Z</time>
      </trkpt>
      <trkpt lat="43.9412" lon="0.32939">
        <ele>143.8</ele>
        <time>2023-07-03T12:53:26Z</time>
      </trkpt>
      <trkpt lat="43.94122" lon="0.32943">
        <ele>144</ele>
        <time>2023-07-03T12:53:28Z</time>
      </trkpt>
      <trkpt lat="43.94124" lon="0.32946">
        <ele>144.2</ele>
        <time>2023-07-03T12:53:30Z</time>
      </trkpt>
      <trkpt lat="43.94128" lon="0.32951">
        <ele>144.4</ele>
        <time>2023-07-03T12:53:34Z</time>
      </trkpt>
      <trkpt lat="43.94129" lon="0.32956">
        <ele>144.6</ele>
        <time>2023-07-03T12:53:37Z</time>
      </trkpt>
      <trkpt lat="43.94129" lon="0.32961">
        <ele>145</ele>
        <time>2023-07-03T12:53:40Z</time>
      </trkpt>
      <trkpt lat="43.94129" lon="0.32968">
        <ele>145</ele>
        <time>2023-07-03T12:53:43Z</time>
      </trkpt>
      <trkpt lat="43.94134" lon="0.32977">
        <ele>145.2</ele>
        <time>2023-07-03T12:53:48Z</time>
      </trkpt>
      <trkpt lat="43.94137" lon="0.32992">
        <ele>145.4</ele>
        <time>2023-07-03T12:53:57Z</time>
      </trkpt>
      <trkpt lat="43.9414" lon="0.33005">
        <ele>145</ele>
        <time>2023-07-03T12:54:04Z</time>
      </trkpt>
      <trkpt lat="43.94145" lon="0.33019">
        <ele>144.8</ele>
        <time>2023-07-03T12:54:12Z</time>
      </trkpt>
      <trkpt lat="43.94146" lon="0.33029">
        <ele>144.4</ele>
        <time>2023-07-03T12:54:18Z</time>
      </trkpt>
      <trkpt lat="43.94146" lon="0.33031">
        <ele>144.4</ele>
        <time>2023-07-03T12:54:19Z</time>
      </trkpt>
      <trkpt lat="43.94148" lon="0.33047">
        <ele>144</ele>
        <time>2023-07-03T12:54:27Z</time>
      </trkpt>
      <trkpt lat="43.94153" lon="0.33057">
        <ele>143.2</ele>
        <time>2023-07-03T12:54:33Z</time>
      </trkpt>
      <trkpt lat="43.94155" lon="0.33062">
        <ele>142.8</ele>
        <time>2023-07-03T12:54:36Z</time>
      </trkpt>
      <trkpt lat="43.94157" lon="0.33073">
        <ele>142</ele>
        <time>2023-07-03T12:54:42Z</time>
      </trkpt>
      <trkpt lat="43.94159" lon="0.33079">
        <ele>141.8</ele>
        <time>2023-07-03T12:54:45Z</time>
      </trkpt>
      <trkpt lat="43.94164" lon="0.33088">
        <ele>140.8</ele>
        <time>2023-07-03T12:54:51Z</time>
      </trkpt>
      <trkpt lat="43.94165" lon="0.3309">
        <ele>140.6</ele>
        <time>2023-07-03T12:54:52Z</time>
      </trkpt>
      <trkpt lat="43.9417" lon="0.33094">
        <ele>140.4</ele>
        <time>2023-07-03T12:54:56Z</time>
      </trkpt>
      <trkpt lat="43.94172" lon="0.33097">
        <ele>140</ele>
        <time>2023-07-03T12:54:59Z</time>
      </trkpt>
      <trkpt lat="43.94174" lon="0.331">
        <ele>139.6</ele>
        <time>2023-07-03T12:55:01Z</time>
      </trkpt>
      <trkpt lat="43.94175" lon="0.33101">
        <ele>139.6</ele>
        <time>2023-07-03T12:55:02Z</time>
      </trkpt>
      <trkpt lat="43.94181" lon="0.33106">
        <ele>139</ele>
        <time>2023-07-03T12:55:07Z</time>
      </trkpt>
      <trkpt lat="43.94186" lon="0.33112">
        <ele>138.4</ele>
        <time>2023-07-03T12:55:12Z</time>
      </trkpt>
      <trkpt lat="43.94187" lon="0.33114">
        <ele>138.4</ele>
        <time>2023-07-03T12:55:13Z</time>
      </trkpt>
      <trkpt lat="43.94194" lon="0.33124">
        <ele>137.4</ele>
        <time>2023-07-03T12:55:20Z</time>
      </trkpt>
      <trkpt lat="43.94195" lon="0.33126">
        <ele>137.2</ele>
        <time>2023-07-03T12:55:22Z</time>
      </trkpt>
      <trkpt lat="43.94203" lon="0.33139">
        <ele>136.4</ele>
        <time>2023-07-03T12:55:31Z</time>
      </trkpt>
      <trkpt lat="43.94204" lon="0.33141">
        <ele>136.4</ele>
        <time>2023-07-03T12:55:32Z</time>
      </trkpt>
      <trkpt lat="43.9421" lon="0.33152">
        <ele>135.2</ele>
        <time>2023-07-03T12:55:38Z</time>
      </trkpt>
      <trkpt lat="43.9421" lon="0.33154">
        <ele>135</ele>
        <time>2023-07-03T12:55:39Z</time>
      </trkpt>
      <trkpt lat="43.94215" lon="0.33166">
        <ele>134.4</ele>
        <time>2023-07-03T12:55:47Z</time>
      </trkpt>
      <trkpt lat="43.94215" lon="0.3317">
        <ele>134</ele>
        <time>2023-07-03T12:55:50Z</time>
      </trkpt>
      <trkpt lat="43.94217" lon="0.33176">
        <ele>133.4</ele>
        <time>2023-07-03T12:55:54Z</time>
      </trkpt>
      <trkpt lat="43.94219" lon="0.33185">
        <ele>133</ele>
        <time>2023-07-03T12:56:00Z</time>
      </trkpt>
      <trkpt lat="43.94221" lon="0.3319">
        <ele>133</ele>
        <time>2023-07-03T12:56:03Z</time>
      </trkpt>
      <trkpt lat="43.94222" lon="0.33195">
        <ele>132.2</ele>
        <time>2023-07-03T12:56:06Z</time>
      </trkpt>
      <trkpt lat="43.94223" lon="0.33198">
        <ele>132</ele>
        <time>2023-07-03T12:56:08Z</time>
      </trkpt>
      <trkpt lat="43.94223" lon="0.332">
        <ele>131.6</ele>
        <time>2023-07-03T12:56:09Z</time>
      </trkpt>
      <trkpt lat="43.94227" lon="0.33208">
        <ele>130.8</ele>
        <time>2023-07-03T12:56:14Z</time>
      </trkpt>
      <trkpt lat="43.94231" lon="0.33215">
        <ele>130.6</ele>
        <time>2023-07-03T12:56:18Z</time>
      </trkpt>
      <trkpt lat="43.94248" lon="0.33229">
        <ele>130.2</ele>
        <time>2023-07-03T12:56:28Z</time>
      </trkpt>
      <trkpt lat="43.94253" lon="0.33233">
        <ele>129.6</ele>
        <time>2023-07-03T12:56:32Z</time>
      </trkpt>
      <trkpt lat="43.94257" lon="0.33237">
        <ele>129.2</ele>
        <time>2023-07-03T12:56:35Z</time>
      </trkpt>
      <trkpt lat="43.94261" lon="0.33244">
        <ele>128.6</ele>
        <time>2023-07-03T12:56:41Z</time>
      </trkpt>
      <trkpt lat="43.94262" lon="0.33245">
        <ele>128.4</ele>
        <time>2023-07-03T12:56:42Z</time>
      </trkpt>
      <trkpt lat="43.94267" lon="0.33255">
        <ele>127.8</ele>
        <time>2023-07-03T12:56:49Z</time>
      </trkpt>
      <trkpt lat="43.94268" lon="0.33255">
        <ele>127.6</ele>
        <time>2023-07-03T12:56:50Z</time>
      </trkpt>
      <trkpt lat="43.94269" lon="0.33256">
        <ele>127.6</ele>
        <time>2023-07-03T12:56:51Z</time>
      </trkpt>
      <trkpt lat="43.94273" lon="0.33263">
        <ele>127.4</ele>
        <time>2023-07-03T12:56:56Z</time>
      </trkpt>
      <trkpt lat="43.94281" lon="0.33273">
        <ele>126.6</ele>
        <time>2023-07-03T12:57:03Z</time>
      </trkpt>
      <trkpt lat="43.94283" lon="0.33274">
        <ele>126.4</ele>
        <time>2023-07-03T12:57:04Z</time>
      </trkpt>
      <trkpt lat="43.94289" lon="0.33282">
        <ele>125.6</ele>
        <time>2023-07-03T12:57:10Z</time>
      </trkpt>
      <trkpt lat="43.9429" lon="0.33285">
        <ele>125.4</ele>
        <time>2023-07-03T12:57:12Z</time>
      </trkpt>
      <trkpt lat="43.94292" lon="0.33288">
        <ele>125.2</ele>
        <time>2023-07-03T12:57:14Z</time>
      </trkpt>
      <trkpt lat="43.94294" lon="0.33293">
        <ele>125</ele>
        <time>2023-07-03T12:57:17Z</time>
      </trkpt>
      <trkpt lat="43.94299" lon="0.33304">
        <ele>124.6</ele>
        <time>2023-07-03T12:57:23Z</time>
      </trkpt>
      <trkpt lat="43.94302" lon="0.33309">
        <ele>124.4</ele>
        <time>2023-07-03T12:57:25Z</time>
      </trkpt>
      <trkpt lat="43.94304" lon="0.33315">
        <ele>124</ele>
        <time>2023-07-03T12:57:28Z</time>
      </trkpt>
      <trkpt lat="43.94305" lon="0.3332">
        <ele>123.8</ele>
        <time>2023-07-03T12:57:31Z</time>
      </trkpt>
      <trkpt lat="43.94308" lon="0.33333">
        <ele>123.6</ele>
        <time>2023-07-03T12:57:38Z</time>
      </trkpt>
      <trkpt lat="43.94309" lon="0.33347">
        <ele>123</ele>
        <time>2023-07-03T12:57:46Z</time>
      </trkpt>
      <trkpt lat="43.94309" lon="0.33349">
        <ele>122.8</ele>
        <time>2023-07-03T12:57:47Z</time>
      </trkpt>
      <trkpt lat="43.94307" lon="0.33361">
        <ele>122</ele>
        <time>2023-07-03T12:57:53Z</time>
      </trkpt>
      <trkpt lat="43.94307" lon="0.33363">
        <ele>122</ele>
        <time>2023-07-03T12:57:54Z</time>
      </trkpt>
      <trkpt lat="43.94307" lon="0.33367">
        <ele>121.8</ele>
        <time>2023-07-03T12:57:56Z</time>
      </trkpt>
      <trkpt lat="43.94306" lon="0.3337">
        <ele>121.4</ele>
        <time>2023-07-03T12:57:58Z</time>
      </trkpt>
      <trkpt lat="43.94306" lon="0.33371">
        <ele>121.4</ele>
        <time>2023-07-03T12:57:59Z</time>
      </trkpt>
      <trkpt lat="43.94307" lon="0.33385">
        <ele>120.8</ele>
        <time>2023-07-03T12:58:07Z</time>
      </trkpt>
      <trkpt lat="43.94307" lon="0.33388">
        <ele>120.4</ele>
        <time>2023-07-03T12:58:09Z</time>
      </trkpt>
      <trkpt lat="43.94306" lon="0.33394">
        <ele>120</ele>
        <time>2023-07-03T12:58:13Z</time>
      </trkpt>
      <trkpt lat="43.94289" lon="0.33565">
        <ele>111.4</ele>
        <time>2023-07-03T12:59:57Z</time>
      </trkpt>
      <trkpt lat="43.94289" lon="0.33585">
        <ele>110.4</ele>
        <time>2023-07-03T13:00:07Z</time>
      </trkpt>
      <trkpt lat="43.94289" lon="0.33586">
        <ele>110.2</ele>
        <time>2023-07-03T13:00:08Z</time>
      </trkpt>
      <trkpt lat="43.94288" lon="0.336">
        <ele>109.2</ele>
        <time>2023-07-03T13:00:15Z</time>
      </trkpt>
      <trkpt lat="43.94287" lon="0.33617">
        <ele>108.8</ele>
        <time>2023-07-03T13:00:24Z</time>
      </trkpt>
      <trkpt lat="43.94287" lon="0.33627">
        <ele>108.2</ele>
        <time>2023-07-03T13:00:29Z</time>
      </trkpt>
      <trkpt lat="43.94287" lon="0.33633">
        <ele>107.6</ele>
        <time>2023-07-03T13:00:32Z</time>
      </trkpt>
      <trkpt lat="43.94289" lon="0.33649">
        <ele>107.2</ele>
        <time>2023-07-03T13:00:41Z</time>
      </trkpt>
      <trkpt lat="43.9429" lon="0.33657">
        <ele>106.6</ele>
        <time>2023-07-03T13:00:45Z</time>
      </trkpt>
      <trkpt lat="43.94292" lon="0.33665">
        <ele>106.2</ele>
        <time>2023-07-03T13:00:49Z</time>
      </trkpt>
      <trkpt lat="43.94293" lon="0.33671">
        <ele>106</ele>
        <time>2023-07-03T13:00:52Z</time>
      </trkpt>
      <trkpt lat="43.94295" lon="0.33677">
        <ele>106</ele>
        <time>2023-07-03T13:00:55Z</time>
      </trkpt>
      <trkpt lat="43.94297" lon="0.33684">
        <ele>105.6</ele>
        <time>2023-07-03T13:00:59Z</time>
      </trkpt>
      <trkpt lat="43.94299" lon="0.33698">
        <ele>105</ele>
        <time>2023-07-03T13:01:06Z</time>
      </trkpt>
      <trkpt lat="43.94301" lon="0.33705">
        <ele>104.8</ele>
        <time>2023-07-03T13:01:10Z</time>
      </trkpt>
      <trkpt lat="43.94302" lon="0.33709">
        <ele>104.6</ele>
        <time>2023-07-03T13:01:12Z</time>
      </trkpt>
      <trkpt lat="43.94304" lon="0.3372">
        <ele>104.4</ele>
        <time>2023-07-03T13:01:18Z</time>
      </trkpt>
      <trkpt lat="43.94306" lon="0.33727">
        <ele>104</ele>
        <time>2023-07-03T13:01:22Z</time>
      </trkpt>
      <trkpt lat="43.94306" lon="0.33729">
        <ele>104</ele>
        <time>2023-07-03T13:01:23Z</time>
      </trkpt>
      <trkpt lat="43.94309" lon="0.33746">
        <ele>103.6</ele>
        <time>2023-07-03T13:01:32Z</time>
      </trkpt>
      <trkpt lat="43.9431" lon="0.33761">
        <ele>103</ele>
        <time>2023-07-03T13:01:41Z</time>
      </trkpt>
      <trkpt lat="43.9431" lon="0.33774">
        <ele>102.8</ele>
        <time>2023-07-03T13:01:49Z</time>
      </trkpt>
      <trkpt lat="43.9431" lon="0.33778">
        <ele>102.6</ele>
        <time>2023-07-03T13:01:51Z</time>
      </trkpt>
      <trkpt lat="43.94314" lon="0.33788">
        <ele>102.4</ele>
        <time>2023-07-03T13:01:56Z</time>
      </trkpt>
      <trkpt lat="43.94317" lon="0.33798">
        <ele>102</ele>
        <time>2023-07-03T13:02:01Z</time>
      </trkpt>
      <trkpt lat="43.94317" lon="0.33799">
        <ele>101.8</ele>
        <time>2023-07-03T13:02:02Z</time>
      </trkpt>
      <trkpt lat="43.94318" lon="0.33804">
        <ele>101.8</ele>
        <time>2023-07-03T13:02:05Z</time>
      </trkpt>
      <trkpt lat="43.94322" lon="0.33816">
        <ele>101.2</ele>
        <time>2023-07-03T13:02:12Z</time>
      </trkpt>
      <trkpt lat="43.94324" lon="0.33824">
        <ele>100.8</ele>
        <time>2023-07-03T13:02:16Z</time>
      </trkpt>
      <trkpt lat="43.94326" lon="0.33833">
        <ele>100.2</ele>
        <time>2023-07-03T13:02:21Z</time>
      </trkpt>
      <trkpt lat="43.94327" lon="0.3384">
        <ele>99.8</ele>
        <time>2023-07-03T13:02:25Z</time>
      </trkpt>
      <trkpt lat="43.94327" lon="0.33847">
        <ele>99.6</ele>
        <time>2023-07-03T13:02:29Z</time>
      </trkpt>
      <trkpt lat="43.94327" lon="0.33852">
        <ele>99.6</ele>
        <time>2023-07-03T13:02:32Z</time>
      </trkpt>
      <trkpt lat="43.94328" lon="0.33858">
        <ele>99</ele>
        <time>2023-07-03T13:02:35Z</time>
      </trkpt>
      <trkpt lat="43.94328" lon="0.3386">
        <ele>99</ele>
        <time>2023-07-03T13:02:36Z</time>
      </trkpt>
      <trkpt lat="43.94331" lon="0.33879">
        <ele>98.8</ele>
        <time>2023-07-03T13:02:46Z</time>
      </trkpt>
      <trkpt lat="43.94331" lon="0.33881">
        <ele>98.6</ele>
        <time>2023-07-03T13:02:47Z</time>
      </trkpt>
      <trkpt lat="43.94333" lon="0.33891">
        <ele>98.6</ele>
        <time>2023-07-03T13:02:54Z</time>
      </trkpt>
      <trkpt lat="43.94337" lon="0.339">
        <ele>98.6</ele>
        <time>2023-07-03T13:02:59Z</time>
      </trkpt>
      <trkpt lat="43.94338" lon="0.33902">
        <ele>98.2</ele>
        <time>2023-07-03T13:03:00Z</time>
      </trkpt>
      <trkpt lat="43.94342" lon="0.3391">
        <ele>98</ele>
        <time>2023-07-03T13:03:05Z</time>
      </trkpt>
      <trkpt lat="43.94344" lon="0.33913">
        <ele>98</ele>
        <time>2023-07-03T13:03:07Z</time>
      </trkpt>
      <trkpt lat="43.94349" lon="0.33926">
        <ele>97.8</ele>
        <time>2023-07-03T13:03:14Z</time>
      </trkpt>
      <trkpt lat="43.94355" lon="0.33938">
        <ele>98</ele>
        <time>2023-07-03T13:03:22Z</time>
      </trkpt>
      <trkpt lat="43.94358" lon="0.33945">
        <ele>98.2</ele>
        <time>2023-07-03T13:03:26Z</time>
      </trkpt>
      <trkpt lat="43.94359" lon="0.33946">
        <ele>98.2</ele>
        <time>2023-07-03T13:03:27Z</time>
      </trkpt>
      <trkpt lat="43.94361" lon="0.3395">
        <ele>98.2</ele>
        <time>2023-07-03T13:03:30Z</time>
      </trkpt>
      <trkpt lat="43.94368" lon="0.33961">
        <ele>98.6</ele>
        <time>2023-07-03T13:03:37Z</time>
      </trkpt>
      <trkpt lat="43.94371" lon="0.33967">
        <ele>98.4</ele>
        <time>2023-07-03T13:03:41Z</time>
      </trkpt>
      <trkpt lat="43.9438" lon="0.33981">
        <ele>99.2</ele>
        <time>2023-07-03T13:03:52Z</time>
      </trkpt>
      <trkpt lat="43.94384" lon="0.33989">
        <ele>99.8</ele>
        <time>2023-07-03T13:03:59Z</time>
      </trkpt>
      <trkpt lat="43.94387" lon="0.33994">
        <ele>100.2</ele>
        <time>2023-07-03T13:04:03Z</time>
      </trkpt>
      <trkpt lat="43.94388" lon="0.33996">
        <ele>100.4</ele>
        <time>2023-07-03T13:04:04Z</time>
      </trkpt>
      <trkpt lat="43.9439" lon="0.34001">
        <ele>100.6</ele>
        <time>2023-07-03T13:04:07Z</time>
      </trkpt>
      <trkpt lat="43.94392" lon="0.34006">
        <ele>100.8</ele>
        <time>2023-07-03T13:04:10Z</time>
      </trkpt>
      <trkpt lat="43.94393" lon="0.34007">
        <ele>100.8</ele>
        <time>2023-07-03T13:04:11Z</time>
      </trkpt>
      <trkpt lat="43.94397" lon="0.3402">
        <ele>101.4</ele>
        <time>2023-07-03T13:04:19Z</time>
      </trkpt>
      <trkpt lat="43.94399" lon="0.34026">
        <ele>102</ele>
        <time>2023-07-03T13:04:23Z</time>
      </trkpt>
      <trkpt lat="43.944" lon="0.34033">
        <ele>102.2</ele>
        <time>2023-07-03T13:04:27Z</time>
      </trkpt>
      <trkpt lat="43.94401" lon="0.34036">
        <ele>102.2</ele>
        <time>2023-07-03T13:04:29Z</time>
      </trkpt>
      <trkpt lat="43.94404" lon="0.34044">
        <ele>102.6</ele>
        <time>2023-07-03T13:04:34Z</time>
      </trkpt>
      <trkpt lat="43.94406" lon="0.34048">
        <ele>102.6</ele>
        <time>2023-07-03T13:04:36Z</time>
      </trkpt>
      <trkpt lat="43.94408" lon="0.34059">
        <ele>103</ele>
        <time>2023-07-03T13:04:42Z</time>
      </trkpt>
      <trkpt lat="43.94409" lon="0.34061">
        <ele>103</ele>
        <time>2023-07-03T13:04:43Z</time>
      </trkpt>
      <trkpt lat="43.9441" lon="0.34068">
        <ele>102.8</ele>
        <time>2023-07-03T13:04:47Z</time>
      </trkpt>
      <trkpt lat="43.94412" lon="0.34077">
        <ele>103</ele>
        <time>2023-07-03T13:04:52Z</time>
      </trkpt>
      <trkpt lat="43.94415" lon="0.34088">
        <ele>103.6</ele>
        <time>2023-07-03T13:04:58Z</time>
      </trkpt>
      <trkpt lat="43.94418" lon="0.34099">
        <ele>103.4</ele>
        <time>2023-07-03T13:05:05Z</time>
      </trkpt>
      <trkpt lat="43.94419" lon="0.34104">
        <ele>103.8</ele>
        <time>2023-07-03T13:05:08Z</time>
      </trkpt>
      <trkpt lat="43.9442" lon="0.3411">
        <ele>104</ele>
        <time>2023-07-03T13:05:11Z</time>
      </trkpt>
      <trkpt lat="43.9442" lon="0.34112">
        <ele>104.2</ele>
        <time>2023-07-03T13:05:12Z</time>
      </trkpt>
      <trkpt lat="43.94423" lon="0.34128">
        <ele>104.2</ele>
        <time>2023-07-03T13:05:21Z</time>
      </trkpt>
      <trkpt lat="43.94425" lon="0.34136">
        <ele>104.8</ele>
        <time>2023-07-03T13:05:25Z</time>
      </trkpt>
      <trkpt lat="43.94426" lon="0.3414">
        <ele>105</ele>
        <time>2023-07-03T13:05:27Z</time>
      </trkpt>
      <trkpt lat="43.94426" lon="0.34143">
        <ele>105</ele>
        <time>2023-07-03T13:05:29Z</time>
      </trkpt>
      <trkpt lat="43.94428" lon="0.34149">
        <ele>105.2</ele>
        <time>2023-07-03T13:05:32Z</time>
      </trkpt>
      <trkpt lat="43.94433" lon="0.34166">
        <ele>105.4</ele>
        <time>2023-07-03T13:05:42Z</time>
      </trkpt>
      <trkpt lat="43.94436" lon="0.34176">
        <ele>105.8</ele>
        <time>2023-07-03T13:05:48Z</time>
      </trkpt>
      <trkpt lat="43.94437" lon="0.34182">
        <ele>106</ele>
        <time>2023-07-03T13:05:51Z</time>
      </trkpt>
      <trkpt lat="43.94437" lon="0.34184">
        <ele>106.2</ele>
        <time>2023-07-03T13:05:52Z</time>
      </trkpt>
      <trkpt lat="43.94441" lon="0.34205">
        <ele>106.6</ele>
        <time>2023-07-03T13:06:04Z</time>
      </trkpt>
      <trkpt lat="43.94441" lon="0.34207">
        <ele>106.6</ele>
        <time>2023-07-03T13:06:05Z</time>
      </trkpt>
      <trkpt lat="43.94445" lon="0.34216">
        <ele>107</ele>
        <time>2023-07-03T13:06:10Z</time>
      </trkpt>
      <trkpt lat="43.94447" lon="0.34225">
        <ele>107.4</ele>
        <time>2023-07-03T13:06:15Z</time>
      </trkpt>
      <trkpt lat="43.9445" lon="0.3424">
        <ele>107.4</ele>
        <time>2023-07-03T13:06:24Z</time>
      </trkpt>
      <trkpt lat="43.94454" lon="0.34254">
        <ele>108.2</ele>
        <time>2023-07-03T13:06:32Z</time>
      </trkpt>
      <trkpt lat="43.94455" lon="0.34258">
        <ele>108.4</ele>
        <time>2023-07-03T13:06:34Z</time>
      </trkpt>
      <trkpt lat="43.94459" lon="0.34274">
        <ele>108.6</ele>
        <time>2023-07-03T13:06:44Z</time>
      </trkpt>
      <trkpt lat="43.94461" lon="0.34289">
        <ele>108</ele>
        <time>2023-07-03T13:06:52Z</time>
      </trkpt>
      <trkpt lat="43.94467" lon="0.34306">
        <ele>108.4</ele>
        <time>2023-07-03T13:07:01Z</time>
      </trkpt>
      <trkpt lat="43.94472" lon="0.34324">
        <ele>108.2</ele>
        <time>2023-07-03T13:07:11Z</time>
      </trkpt>
      <trkpt lat="43.94478" lon="0.34349">
        <ele>107.8</ele>
        <time>2023-07-03T13:07:24Z</time>
      </trkpt>
      <trkpt lat="43.94481" lon="0.34364">
        <ele>107.6</ele>
        <time>2023-07-03T13:07:32Z</time>
      </trkpt>
      <trkpt lat="43.94482" lon="0.34379">
        <ele>107.4</ele>
        <time>2023-07-03T13:07:40Z</time>
      </trkpt>
      <trkpt lat="43.94482" lon="0.3439">
        <ele>107</ele>
        <time>2023-07-03T13:07:45Z</time>
      </trkpt>
      <trkpt lat="43.94482" lon="0.34393">
        <ele>106.8</ele>
        <time>2023-07-03T13:07:47Z</time>
      </trkpt>
      <trkpt lat="43.94482" lon="0.3441">
        <ele>106</ele>
        <time>2023-07-03T13:07:56Z</time>
      </trkpt>
      <trkpt lat="43.94482" lon="0.34412">
        <ele>106</ele>
        <time>2023-07-03T13:07:57Z</time>
      </trkpt>
      <trkpt lat="43.94484" lon="0.34427">
        <ele>105.4</ele>
        <time>2023-07-03T13:08:05Z</time>
      </trkpt>
      <trkpt lat="43.9449" lon="0.3444">
        <ele>105</ele>
        <time>2023-07-03T13:08:13Z</time>
      </trkpt>
      <trkpt lat="43.94491" lon="0.34443">
        <ele>105</ele>
        <time>2023-07-03T13:08:15Z</time>
      </trkpt>
      <trkpt lat="43.94497" lon="0.34451">
        <ele>104.8</ele>
        <time>2023-07-03T13:08:20Z</time>
      </trkpt>
      <trkpt lat="43.94498" lon="0.34453">
        <ele>104.8</ele>
        <time>2023-07-03T13:08:21Z</time>
      </trkpt>
      <trkpt lat="43.94499" lon="0.34454">
        <ele>104.6</ele>
        <time>2023-07-03T13:08:22Z</time>
      </trkpt>
      <trkpt lat="43.945" lon="0.34455">
        <ele>104.6</ele>
        <time>2023-07-03T13:08:23Z</time>
      </trkpt>
      <trkpt lat="43.94505" lon="0.34463">
        <ele>104.2</ele>
        <time>2023-07-03T13:08:28Z</time>
      </trkpt>
      <trkpt lat="43.94508" lon="0.34467">
        <ele>104</ele>
        <time>2023-07-03T13:08:31Z</time>
      </trkpt>
      <trkpt lat="43.94509" lon="0.34468">
        <ele>104</ele>
        <time>2023-07-03T13:08:32Z</time>
      </trkpt>
      <trkpt lat="43.94512" lon="0.34474">
        <ele>103.6</ele>
        <time>2023-07-03T13:08:36Z</time>
      </trkpt>
      <trkpt lat="43.94513" lon="0.34475">
        <ele>103.6</ele>
        <time>2023-07-03T13:08:37Z</time>
      </trkpt>
      <trkpt lat="43.94514" lon="0.34479">
        <ele>103.4</ele>
        <time>2023-07-03T13:08:39Z</time>
      </trkpt>
      <trkpt lat="43.94523" lon="0.3449">
        <ele>103</ele>
        <time>2023-07-03T13:08:47Z</time>
      </trkpt>
      <trkpt lat="43.94526" lon="0.34494">
        <ele>102.8</ele>
        <time>2023-07-03T13:08:50Z</time>
      </trkpt>
      <trkpt lat="43.94534" lon="0.34502">
        <ele>102.2</ele>
        <time>2023-07-03T13:08:57Z</time>
      </trkpt>
      <trkpt lat="43.94538" lon="0.34508">
        <ele>101.8</ele>
        <time>2023-07-03T13:09:02Z</time>
      </trkpt>
      <trkpt lat="43.94541" lon="0.3451">
        <ele>101.8</ele>
        <time>2023-07-03T13:09:04Z</time>
      </trkpt>
      <trkpt lat="43.94552" lon="0.34516">
        <ele>101</ele>
        <time>2023-07-03T13:09:12Z</time>
      </trkpt>
      <trkpt lat="43.94553" lon="0.34516">
        <ele>100.8</ele>
        <time>2023-07-03T13:09:13Z</time>
      </trkpt>
      <trkpt lat="43.94561" lon="0.34519">
        <ele>100.4</ele>
        <time>2023-07-03T13:09:19Z</time>
      </trkpt>
      <trkpt lat="43.94573" lon="0.34524">
        <ele>99.8</ele>
        <time>2023-07-03T13:09:27Z</time>
      </trkpt>
      <trkpt lat="43.94575" lon="0.34525">
        <ele>99.8</ele>
        <time>2023-07-03T13:09:28Z</time>
      </trkpt>
      <trkpt lat="43.94586" lon="0.34529">
        <ele>99.4</ele>
        <time>2023-07-03T13:09:36Z</time>
      </trkpt>
      <trkpt lat="43.94598" lon="0.34533">
        <ele>99.4</ele>
        <time>2023-07-03T13:09:45Z</time>
      </trkpt>
      <trkpt lat="43.94606" lon="0.34537">
        <ele>99.6</ele>
        <time>2023-07-03T13:09:53Z</time>
      </trkpt>
      <trkpt lat="43.94613" lon="0.3454">
        <ele>99.2</ele>
        <time>2023-07-03T13:10:00Z</time>
      </trkpt>
      <trkpt lat="43.94614" lon="0.34541">
        <ele>99.2</ele>
        <time>2023-07-03T13:10:01Z</time>
      </trkpt>
      <trkpt lat="43.94627" lon="0.34543">
        <ele>99.2</ele>
        <time>2023-07-03T13:10:08Z</time>
      </trkpt>
      <trkpt lat="43.94637" lon="0.34549">
        <ele>99.6</ele>
        <time>2023-07-03T13:10:16Z</time>
      </trkpt>
      <trkpt lat="43.94645" lon="0.34556">
        <ele>100.4</ele>
        <time>2023-07-03T13:10:24Z</time>
      </trkpt>
      <trkpt lat="43.94648" lon="0.34559">
        <ele>100.6</ele>
        <time>2023-07-03T13:10:27Z</time>
      </trkpt>
      <trkpt lat="43.94649" lon="0.34561">
        <ele>100.8</ele>
        <time>2023-07-03T13:10:29Z</time>
      </trkpt>
      <trkpt lat="43.94653" lon="0.34566">
        <ele>101.2</ele>
        <time>2023-07-03T13:10:32Z</time>
      </trkpt>
      <trkpt lat="43.94657" lon="0.34574">
        <ele>101.4</ele>
        <time>2023-07-03T13:10:36Z</time>
      </trkpt>
      <trkpt lat="43.9466" lon="0.34577">
        <ele>101.4</ele>
        <time>2023-07-03T13:10:38Z</time>
      </trkpt>
      <trkpt lat="43.94661" lon="0.34579">
        <ele>101.4</ele>
        <time>2023-07-03T13:10:39Z</time>
      </trkpt>
      <trkpt lat="43.94663" lon="0.34582">
        <ele>101.4</ele>
        <time>2023-07-03T13:10:41Z</time>
      </trkpt>
      <trkpt lat="43.94669" lon="0.34591">
        <ele>101.6</ele>
        <time>2023-07-03T13:10:46Z</time>
      </trkpt>
      <trkpt lat="43.9467" lon="0.34594">
        <ele>102</ele>
        <time>2023-07-03T13:10:48Z</time>
      </trkpt>
      <trkpt lat="43.94676" lon="0.34606">
        <ele>102.2</ele>
        <time>2023-07-03T13:10:55Z</time>
      </trkpt>
      <trkpt lat="43.94679" lon="0.3461">
        <ele>102.4</ele>
        <time>2023-07-03T13:10:58Z</time>
      </trkpt>
      <trkpt lat="43.94684" lon="0.3462">
        <ele>102.6</ele>
        <time>2023-07-03T13:11:04Z</time>
      </trkpt>
      <trkpt lat="43.94686" lon="0.34623">
        <ele>103</ele>
        <time>2023-07-03T13:11:06Z</time>
      </trkpt>
      <trkpt lat="43.94689" lon="0.3463">
        <ele>103.2</ele>
        <time>2023-07-03T13:11:10Z</time>
      </trkpt>
      <trkpt lat="43.94692" lon="0.34637">
        <ele>103.2</ele>
        <time>2023-07-03T13:11:14Z</time>
      </trkpt>
      <trkpt lat="43.94695" lon="0.34647">
        <ele>103.2</ele>
        <time>2023-07-03T13:11:20Z</time>
      </trkpt>
      <trkpt lat="43.94696" lon="0.34656">
        <ele>103</ele>
        <time>2023-07-03T13:11:25Z</time>
      </trkpt>
      <trkpt lat="43.94697" lon="0.3466">
        <ele>103</ele>
        <time>2023-07-03T13:11:27Z</time>
      </trkpt>
      <trkpt lat="43.94698" lon="0.34664">
        <ele>103</ele>
        <time>2023-07-03T13:11:29Z</time>
      </trkpt>
      <trkpt lat="43.94701" lon="0.34677">
        <ele>103.2</ele>
        <time>2023-07-03T13:11:36Z</time>
      </trkpt>
      <trkpt lat="43.94705" lon="0.34695">
        <ele>102.8</ele>
        <time>2023-07-03T13:11:46Z</time>
      </trkpt>
      <trkpt lat="43.94707" lon="0.347">
        <ele>102.6</ele>
        <time>2023-07-03T13:11:49Z</time>
      </trkpt>
      <trkpt lat="43.9471" lon="0.34708">
        <ele>102.4</ele>
        <time>2023-07-03T13:11:53Z</time>
      </trkpt>
      <trkpt lat="43.94712" lon="0.34718">
        <ele>102</ele>
        <time>2023-07-03T13:11:59Z</time>
      </trkpt>
      <trkpt lat="43.94712" lon="0.3472">
        <ele>102</ele>
        <time>2023-07-03T13:12:00Z</time>
      </trkpt>
      <trkpt lat="43.94717" lon="0.34735">
        <ele>101.2</ele>
        <time>2023-07-03T13:12:08Z</time>
      </trkpt>
      <trkpt lat="43.94717" lon="0.34737">
        <ele>101</ele>
        <time>2023-07-03T13:12:09Z</time>
      </trkpt>
      <trkpt lat="43.9472" lon="0.3475">
        <ele>100.6</ele>
        <time>2023-07-03T13:12:16Z</time>
      </trkpt>
      <trkpt lat="43.94721" lon="0.34757">
        <ele>100</ele>
        <time>2023-07-03T13:12:20Z</time>
      </trkpt>
      <trkpt lat="43.94722" lon="0.34765">
        <ele>100</ele>
        <time>2023-07-03T13:12:24Z</time>
      </trkpt>
      <trkpt lat="43.94724" lon="0.34773">
        <ele>100</ele>
        <time>2023-07-03T13:12:28Z</time>
      </trkpt>
      <trkpt lat="43.94726" lon="0.3478">
        <ele>100</ele>
        <time>2023-07-03T13:12:32Z</time>
      </trkpt>
      <trkpt lat="43.94726" lon="0.34791">
        <ele>99.6</ele>
        <time>2023-07-03T13:12:38Z</time>
      </trkpt>
      <trkpt lat="43.94726" lon="0.34794">
        <ele>99.4</ele>
        <time>2023-07-03T13:12:40Z</time>
      </trkpt>
      <trkpt lat="43.94728" lon="0.34808">
        <ele>99.4</ele>
        <time>2023-07-03T13:12:48Z</time>
      </trkpt>
      <trkpt lat="43.94729" lon="0.34826">
        <ele>99.2</ele>
        <time>2023-07-03T13:12:56Z</time>
      </trkpt>
      <trkpt lat="43.94731" lon="0.34845">
        <ele>99.2</ele>
        <time>2023-07-03T13:13:05Z</time>
      </trkpt>
      <trkpt lat="43.94735" lon="0.3486">
        <ele>99.6</ele>
        <time>2023-07-03T13:13:13Z</time>
      </trkpt>
      <trkpt lat="43.94737" lon="0.34881">
        <ele>99.4</ele>
        <time>2023-07-03T13:13:24Z</time>
      </trkpt>
      <trkpt lat="43.9474" lon="0.34897">
        <ele>99.4</ele>
        <time>2023-07-03T13:13:32Z</time>
      </trkpt>
      <trkpt lat="43.94741" lon="0.34905">
        <ele>99.4</ele>
        <time>2023-07-03T13:13:36Z</time>
      </trkpt>
      <trkpt lat="43.94741" lon="0.34906">
        <ele>99.6</ele>
        <time>2023-07-03T13:13:37Z</time>
      </trkpt>
      <trkpt lat="43.94743" lon="0.34914">
        <ele>100</ele>
        <time>2023-07-03T13:13:41Z</time>
      </trkpt>
      <trkpt lat="43.94744" lon="0.3492">
        <ele>100.4</ele>
        <time>2023-07-03T13:13:44Z</time>
      </trkpt>
      <trkpt lat="43.94745" lon="0.34926">
        <ele>100.2</ele>
        <time>2023-07-03T13:13:47Z</time>
      </trkpt>
      <trkpt lat="43.94745" lon="0.34929">
        <ele>100.2</ele>
        <time>2023-07-03T13:13:49Z</time>
      </trkpt>
      <trkpt lat="43.94746" lon="0.34935">
        <ele>100.4</ele>
        <time>2023-07-03T13:13:52Z</time>
      </trkpt>
      <trkpt lat="43.94747" lon="0.34939">
        <ele>100.4</ele>
        <time>2023-07-03T13:13:54Z</time>
      </trkpt>
      <trkpt lat="43.94748" lon="0.34952">
        <ele>100.6</ele>
        <time>2023-07-03T13:14:01Z</time>
      </trkpt>
      <trkpt lat="43.9475" lon="0.34966">
        <ele>100.8</ele>
        <time>2023-07-03T13:14:08Z</time>
      </trkpt>
      <trkpt lat="43.94751" lon="0.34979">
        <ele>101</ele>
        <time>2023-07-03T13:14:15Z</time>
      </trkpt>
      <trkpt lat="43.94751" lon="0.34981">
        <ele>101</ele>
        <time>2023-07-03T13:14:16Z</time>
      </trkpt>
      <trkpt lat="43.94753" lon="0.34989">
        <ele>101.4</ele>
        <time>2023-07-03T13:14:20Z</time>
      </trkpt>
      <trkpt lat="43.94754" lon="0.34991">
        <ele>101.4</ele>
        <time>2023-07-03T13:14:21Z</time>
      </trkpt>
      <trkpt lat="43.94754" lon="0.34993">
        <ele>101.4</ele>
        <time>2023-07-03T13:14:22Z</time>
      </trkpt>
      <trkpt lat="43.94754" lon="0.34995">
        <ele>101.4</ele>
        <time>2023-07-03T13:14:23Z</time>
      </trkpt>
      <trkpt lat="43.94754" lon="0.34997">
        <ele>101.4</ele>
        <time>2023-07-03T13:14:24Z</time>
      </trkpt>
      <trkpt lat="43.94754" lon="0.34999">
        <ele>101.4</ele>
        <time>2023-07-03T13:14:25Z</time>
      </trkpt>
      <trkpt lat="43.94755" lon="0.35">
        <ele>101.6</ele>
        <time>2023-07-03T13:14:26Z</time>
      </trkpt>
      <trkpt lat="43.94755" lon="0.35002">
        <ele>101.6</ele>
        <time>2023-07-03T13:14:27Z</time>
      </trkpt>
      <trkpt lat="43.94755" lon="0.35005">
        <ele>101.6</ele>
        <time>2023-07-03T13:14:29Z</time>
      </trkpt>
      <trkpt lat="43.94758" lon="0.35013">
        <ele>102.2</ele>
        <time>2023-07-03T13:14:35Z</time>
      </trkpt>
      <trkpt lat="43.94758" lon="0.35015">
        <ele>102.4</ele>
        <time>2023-07-03T13:14:36Z</time>
      </trkpt>
      <trkpt lat="43.9476" lon="0.35022">
        <ele>102.6</ele>
        <time>2023-07-03T13:14:41Z</time>
      </trkpt>
      <trkpt lat="43.9476" lon="0.35024">
        <ele>102.6</ele>
        <time>2023-07-03T13:14:43Z</time>
      </trkpt>
      <trkpt lat="43.9476" lon="0.35026">
        <ele>102.6</ele>
        <time>2023-07-03T13:14:44Z</time>
      </trkpt>
      <trkpt lat="43.9476" lon="0.35027">
        <ele>102.6</ele>
        <time>2023-07-03T13:14:45Z</time>
      </trkpt>
      <trkpt lat="43.94761" lon="0.35036">
        <ele>103.2</ele>
        <time>2023-07-03T13:14:50Z</time>
      </trkpt>
      <trkpt lat="43.94761" lon="0.35041">
        <ele>103.4</ele>
        <time>2023-07-03T13:14:53Z</time>
      </trkpt>
      <trkpt lat="43.94761" lon="0.35049">
        <ele>103.8</ele>
        <time>2023-07-03T13:14:57Z</time>
      </trkpt>
      <trkpt lat="43.94761" lon="0.35056">
        <ele>104.2</ele>
        <time>2023-07-03T13:15:00Z</time>
      </trkpt>
      <trkpt lat="43.94761" lon="0.35065">
        <ele>104.4</ele>
        <time>2023-07-03T13:15:04Z</time>
      </trkpt>
      <trkpt lat="43.94762" lon="0.35069">
        <ele>104.4</ele>
        <time>2023-07-03T13:15:06Z</time>
      </trkpt>
      <trkpt lat="43.94762" lon="0.35083">
        <ele>104.6</ele>
        <time>2023-07-03T13:15:13Z</time>
      </trkpt>
      <trkpt lat="43.94764" lon="0.35101">
        <ele>105.4</ele>
        <time>2023-07-03T13:15:21Z</time>
      </trkpt>
      <trkpt lat="43.94764" lon="0.35122">
        <ele>105.4</ele>
        <time>2023-07-03T13:15:32Z</time>
      </trkpt>
      <trkpt lat="43.94763" lon="0.3513">
        <ele>105.8</ele>
        <time>2023-07-03T13:15:36Z</time>
      </trkpt>
      <trkpt lat="43.94762" lon="0.35141">
        <ele>105.6</ele>
        <time>2023-07-03T13:15:41Z</time>
      </trkpt>
      <trkpt lat="43.94762" lon="0.35143">
        <ele>105.6</ele>
        <time>2023-07-03T13:15:42Z</time>
      </trkpt>
      <trkpt lat="43.94762" lon="0.3516">
        <ele>106</ele>
        <time>2023-07-03T13:15:50Z</time>
      </trkpt>
      <trkpt lat="43.94761" lon="0.35178">
        <ele>106.2</ele>
        <time>2023-07-03T13:15:59Z</time>
      </trkpt>
      <trkpt lat="43.94757" lon="0.35193">
        <ele>106</ele>
        <time>2023-07-03T13:16:08Z</time>
      </trkpt>
      <trkpt lat="43.94754" lon="0.35212">
        <ele>106</ele>
        <time>2023-07-03T13:16:17Z</time>
      </trkpt>
      <trkpt lat="43.94754" lon="0.35214">
        <ele>106</ele>
        <time>2023-07-03T13:16:18Z</time>
      </trkpt>
      <trkpt lat="43.94754" lon="0.35215">
        <ele>106</ele>
        <time>2023-07-03T13:16:19Z</time>
      </trkpt>
      <trkpt lat="43.94753" lon="0.35223">
        <ele>105.8</ele>
        <time>2023-07-03T13:16:23Z</time>
      </trkpt>
      <trkpt lat="43.94753" lon="0.35225">
        <ele>105.8</ele>
        <time>2023-07-03T13:16:24Z</time>
      </trkpt>
      <trkpt lat="43.94752" lon="0.35245">
        <ele>105.6</ele>
        <time>2023-07-03T13:16:34Z</time>
      </trkpt>
      <trkpt lat="43.94752" lon="0.35253">
        <ele>105.2</ele>
        <time>2023-07-03T13:16:38Z</time>
      </trkpt>
      <trkpt lat="43.94755" lon="0.35264">
        <ele>104.6</ele>
        <time>2023-07-03T13:16:43Z</time>
      </trkpt>
      <trkpt lat="43.94757" lon="0.35268">
        <ele>104.4</ele>
        <time>2023-07-03T13:16:46Z</time>
      </trkpt>
      <trkpt lat="43.94759" lon="0.35273">
        <ele>104.4</ele>
        <time>2023-07-03T13:16:49Z</time>
      </trkpt>
      <trkpt lat="43.9476" lon="0.35274">
        <ele>104.4</ele>
        <time>2023-07-03T13:16:50Z</time>
      </trkpt>
      <trkpt lat="43.94761" lon="0.35278">
        <ele>104.2</ele>
        <time>2023-07-03T13:16:52Z</time>
      </trkpt>
      <trkpt lat="43.94764" lon="0.3529">
        <ele>103.4</ele>
        <time>2023-07-03T13:16:58Z</time>
      </trkpt>
      <trkpt lat="43.94765" lon="0.35294">
        <ele>103.4</ele>
        <time>2023-07-03T13:17:00Z</time>
      </trkpt>
      <trkpt lat="43.94767" lon="0.35299">
        <ele>103.2</ele>
        <time>2023-07-03T13:17:03Z</time>
      </trkpt>
      <trkpt lat="43.94772" lon="0.35305">
        <ele>103</ele>
        <time>2023-07-03T13:17:07Z</time>
      </trkpt>
      <trkpt lat="43.94774" lon="0.35309">
        <ele>102.8</ele>
        <time>2023-07-03T13:17:09Z</time>
      </trkpt>
      <trkpt lat="43.94777" lon="0.35314">
        <ele>102.2</ele>
        <time>2023-07-03T13:17:14Z</time>
      </trkpt>
      <trkpt lat="43.94777" lon="0.35316">
        <ele>102</ele>
        <time>2023-07-03T13:17:15Z</time>
      </trkpt>
      <trkpt lat="43.9478" lon="0.35325">
        <ele>101</ele>
        <time>2023-07-03T13:17:21Z</time>
      </trkpt>
      <trkpt lat="43.9478" lon="0.35326">
        <ele>100.8</ele>
        <time>2023-07-03T13:17:22Z</time>
      </trkpt>
      <trkpt lat="43.94782" lon="0.3533">
        <ele>100.2</ele>
        <time>2023-07-03T13:17:25Z</time>
      </trkpt>
      <trkpt lat="43.94783" lon="0.35331">
        <ele>100</ele>
        <time>2023-07-03T13:17:26Z</time>
      </trkpt>
      <trkpt lat="43.94786" lon="0.35336">
        <ele>99.2</ele>
        <time>2023-07-03T13:17:30Z</time>
      </trkpt>
      <trkpt lat="43.94791" lon="0.3534">
        <ele>99.2</ele>
        <time>2023-07-03T13:17:34Z</time>
      </trkpt>
      <trkpt lat="43.94794" lon="0.35342">
        <ele>98.6</ele>
        <time>2023-07-03T13:17:36Z</time>
      </trkpt>
      <trkpt lat="43.94799" lon="0.35346">
        <ele>97.4</ele>
        <time>2023-07-03T13:17:39Z</time>
      </trkpt>
      <trkpt lat="43.94806" lon="0.35351">
        <ele>96.6</ele>
        <time>2023-07-03T13:17:44Z</time>
      </trkpt>
      <trkpt lat="43.94807" lon="0.35353">
        <ele>96.4</ele>
        <time>2023-07-03T13:17:46Z</time>
      </trkpt>
      <trkpt lat="43.94812" lon="0.35357">
        <ele>95.6</ele>
        <time>2023-07-03T13:17:50Z</time>
      </trkpt>
      <trkpt lat="43.94814" lon="0.35358">
        <ele>95.2</ele>
        <time>2023-07-03T13:17:52Z</time>
      </trkpt>
      <trkpt lat="43.94817" lon="0.35361">
        <ele>94.8</ele>
        <time>2023-07-03T13:17:55Z</time>
      </trkpt>
      <trkpt lat="43.94819" lon="0.35364">
        <ele>94</ele>
        <time>2023-07-03T13:17:59Z</time>
      </trkpt>
      <trkpt lat="43.94823" lon="0.35368">
        <ele>93.6</ele>
        <time>2023-07-03T13:18:02Z</time>
      </trkpt>
      <trkpt lat="43.94828" lon="0.35375">
        <ele>92.8</ele>
        <time>2023-07-03T13:18:07Z</time>
      </trkpt>
      <trkpt lat="43.94829" lon="0.35376">
        <ele>92.6</ele>
        <time>2023-07-03T13:18:08Z</time>
      </trkpt>
      <trkpt lat="43.94835" lon="0.3538">
        <ele>91.6</ele>
        <time>2023-07-03T13:18:12Z</time>
      </trkpt>
      <trkpt lat="43.9484" lon="0.35385">
        <ele>90.6</ele>
        <time>2023-07-03T13:18:16Z</time>
      </trkpt>
      <trkpt lat="43.94843" lon="0.35387">
        <ele>90.4</ele>
        <time>2023-07-03T13:18:17Z</time>
      </trkpt>
      <trkpt lat="43.94852" lon="0.35394">
        <ele>89.4</ele>
        <time>2023-07-03T13:18:23Z</time>
      </trkpt>
      <trkpt lat="43.94853" lon="0.35396">
        <ele>89.4</ele>
        <time>2023-07-03T13:18:24Z</time>
      </trkpt>
      <trkpt lat="43.94854" lon="0.35397">
        <ele>89.4</ele>
        <time>2023-07-03T13:18:25Z</time>
      </trkpt>
      <trkpt lat="43.94855" lon="0.35398">
        <ele>89.4</ele>
        <time>2023-07-03T13:18:26Z</time>
      </trkpt>
      <trkpt lat="43.94856" lon="0.35401">
        <ele>89.2</ele>
        <time>2023-07-03T13:18:28Z</time>
      </trkpt>
      <trkpt lat="43.94857" lon="0.35402">
        <ele>89</ele>
        <time>2023-07-03T13:18:29Z</time>
      </trkpt>
      <trkpt lat="43.94859" lon="0.35404">
        <ele>88.8</ele>
        <time>2023-07-03T13:18:31Z</time>
      </trkpt>
      <trkpt lat="43.9486" lon="0.35405">
        <ele>88.6</ele>
        <time>2023-07-03T13:18:32Z</time>
      </trkpt>
      <trkpt lat="43.94864" lon="0.35408">
        <ele>88.2</ele>
        <time>2023-07-03T13:18:34Z</time>
      </trkpt>
      <trkpt lat="43.94869" lon="0.35412">
        <ele>87.8</ele>
        <time>2023-07-03T13:18:38Z</time>
      </trkpt>
      <trkpt lat="43.94875" lon="0.35417">
        <ele>87.6</ele>
        <time>2023-07-03T13:18:44Z</time>
      </trkpt>
      <trkpt lat="43.9488" lon="0.35426">
        <ele>87.6</ele>
        <time>2023-07-03T13:18:49Z</time>
      </trkpt>
      <trkpt lat="43.94885" lon="0.35433">
        <ele>87.2</ele>
        <time>2023-07-03T13:18:53Z</time>
      </trkpt>
      <trkpt lat="43.94889" lon="0.35436">
        <ele>86.8</ele>
        <time>2023-07-03T13:18:56Z</time>
      </trkpt>
      <trkpt lat="43.94896" lon="0.35444">
        <ele>86.2</ele>
        <time>2023-07-03T13:19:04Z</time>
      </trkpt>
      <trkpt lat="43.94906" lon="0.35452">
        <ele>86.2</ele>
        <time>2023-07-03T13:19:10Z</time>
      </trkpt>
      <trkpt lat="43.94906" lon="0.35454">
        <ele>86.2</ele>
        <time>2023-07-03T13:19:11Z</time>
      </trkpt>
      <trkpt lat="43.94907" lon="0.35458">
        <ele>86.2</ele>
        <time>2023-07-03T13:19:14Z</time>
      </trkpt>
      <trkpt lat="43.94909" lon="0.35467">
        <ele>86</ele>
        <time>2023-07-03T13:19:18Z</time>
      </trkpt>
      <trkpt lat="43.9491" lon="0.35469">
        <ele>86</ele>
        <time>2023-07-03T13:19:19Z</time>
      </trkpt>
      <trkpt lat="43.94913" lon="0.35484">
        <ele>86</ele>
        <time>2023-07-03T13:19:26Z</time>
      </trkpt>
      <trkpt lat="43.94914" lon="0.35496">
        <ele>86</ele>
        <time>2023-07-03T13:19:32Z</time>
      </trkpt>
      <trkpt lat="43.94915" lon="0.35498">
        <ele>86</ele>
        <time>2023-07-03T13:19:33Z</time>
      </trkpt>
      <trkpt lat="43.94918" lon="0.3551">
        <ele>85.4</ele>
        <time>2023-07-03T13:19:39Z</time>
      </trkpt>
      <trkpt lat="43.94919" lon="0.35511">
        <ele>85.4</ele>
        <time>2023-07-03T13:19:40Z</time>
      </trkpt>
      <trkpt lat="43.94919" lon="0.35515">
        <ele>85.2</ele>
        <time>2023-07-03T13:19:42Z</time>
      </trkpt>
      <trkpt lat="43.94922" lon="0.35522">
        <ele>84.8</ele>
        <time>2023-07-03T13:19:45Z</time>
      </trkpt>
      <trkpt lat="43.94927" lon="0.35531">
        <ele>84</ele>
        <time>2023-07-03T13:19:51Z</time>
      </trkpt>
      <trkpt lat="43.94929" lon="0.35539">
        <ele>84</ele>
        <time>2023-07-03T13:19:55Z</time>
      </trkpt>
      <trkpt lat="43.9493" lon="0.35544">
        <ele>84</ele>
        <time>2023-07-03T13:19:58Z</time>
      </trkpt>
      <trkpt lat="43.94931" lon="0.35545">
        <ele>84.2</ele>
        <time>2023-07-03T13:19:59Z</time>
      </trkpt>
      <trkpt lat="43.94936" lon="0.35555">
        <ele>83.6</ele>
        <time>2023-07-03T13:20:05Z</time>
      </trkpt>
      <trkpt lat="43.94939" lon="0.35562">
        <ele>83.6</ele>
        <time>2023-07-03T13:20:09Z</time>
      </trkpt>
      <trkpt lat="43.94939" lon="0.35563">
        <ele>83.6</ele>
        <time>2023-07-03T13:20:10Z</time>
      </trkpt>
      <trkpt lat="43.9494" lon="0.35566">
        <ele>83.6</ele>
        <time>2023-07-03T13:20:12Z</time>
      </trkpt>
      <trkpt lat="43.9494" lon="0.35567">
        <ele>83.6</ele>
        <time>2023-07-03T13:20:13Z</time>
      </trkpt>
      <trkpt lat="43.94941" lon="0.3557">
        <ele>83.4</ele>
        <time>2023-07-03T13:20:15Z</time>
      </trkpt>
      <trkpt lat="43.94943" lon="0.35573">
        <ele>83.6</ele>
        <time>2023-07-03T13:20:17Z</time>
      </trkpt>
      <trkpt lat="43.94945" lon="0.35575">
        <ele>83.4</ele>
        <time>2023-07-03T13:20:19Z</time>
      </trkpt>
      <trkpt lat="43.94946" lon="0.35576">
        <ele>83.4</ele>
        <time>2023-07-03T13:20:20Z</time>
      </trkpt>
      <trkpt lat="43.94949" lon="0.35581">
        <ele>83.6</ele>
        <time>2023-07-03T13:20:23Z</time>
      </trkpt>
      <trkpt lat="43.94951" lon="0.35583">
        <ele>83.6</ele>
        <time>2023-07-03T13:20:25Z</time>
      </trkpt>
      <trkpt lat="43.94957" lon="0.35588">
        <ele>83</ele>
        <time>2023-07-03T13:20:30Z</time>
      </trkpt>
      <trkpt lat="43.94958" lon="0.3559">
        <ele>82.8</ele>
        <time>2023-07-03T13:20:31Z</time>
      </trkpt>
      <trkpt lat="43.94963" lon="0.35601">
        <ele>82.4</ele>
        <time>2023-07-03T13:20:38Z</time>
      </trkpt>
      <trkpt lat="43.94967" lon="0.35608">
        <ele>82</ele>
        <time>2023-07-03T13:20:42Z</time>
      </trkpt>
      <trkpt lat="43.94969" lon="0.35612">
        <ele>81.4</ele>
        <time>2023-07-03T13:20:45Z</time>
      </trkpt>
      <trkpt lat="43.9497" lon="0.35614">
        <ele>81.4</ele>
        <time>2023-07-03T13:20:46Z</time>
      </trkpt>
      <trkpt lat="43.94971" lon="0.35617">
        <ele>81.2</ele>
        <time>2023-07-03T13:20:48Z</time>
      </trkpt>
      <trkpt lat="43.94976" lon="0.35622">
        <ele>81.2</ele>
        <time>2023-07-03T13:20:51Z</time>
      </trkpt>
      <trkpt lat="43.94976" lon="0.35623">
        <ele>81.2</ele>
        <time>2023-07-03T13:20:52Z</time>
      </trkpt>
      <trkpt lat="43.94978" lon="0.35631">
        <ele>80.8</ele>
        <time>2023-07-03T13:20:57Z</time>
      </trkpt>
      <trkpt lat="43.94976" lon="0.35638">
        <ele>80.8</ele>
        <time>2023-07-03T13:21:01Z</time>
      </trkpt>
      <trkpt lat="43.94975" lon="0.35641">
        <ele>80.8</ele>
        <time>2023-07-03T13:21:03Z</time>
      </trkpt>
      <trkpt lat="43.94972" lon="0.35652">
        <ele>80.6</ele>
        <time>2023-07-03T13:21:08Z</time>
      </trkpt>
      <trkpt lat="43.94972" lon="0.35656">
        <ele>80.6</ele>
        <time>2023-07-03T13:21:10Z</time>
      </trkpt>
      <trkpt lat="43.94972" lon="0.3567">
        <ele>80.6</ele>
        <time>2023-07-03T13:21:17Z</time>
      </trkpt>
      <trkpt lat="43.94971" lon="0.35677">
        <ele>80.6</ele>
        <time>2023-07-03T13:21:21Z</time>
      </trkpt>
      <trkpt lat="43.9497" lon="0.35685">
        <ele>80.4</ele>
        <time>2023-07-03T13:21:25Z</time>
      </trkpt>
      <trkpt lat="43.94969" lon="0.35691">
        <ele>80.4</ele>
        <time>2023-07-03T13:21:28Z</time>
      </trkpt>
      <trkpt lat="43.94967" lon="0.35696">
        <ele>80.6</ele>
        <time>2023-07-03T13:21:32Z</time>
      </trkpt>
      <trkpt lat="43.94962" lon="0.35712">
        <ele>83</ele>
        <time>2023-07-03T13:32:31Z</time>
      </trkpt>
      <trkpt lat="43.94963" lon="0.35713">
        <ele>83</ele>
        <time>2023-07-03T13:32:33Z</time>
      </trkpt>
      <trkpt lat="43.94963" lon="0.35715">
        <ele>83.4</ele>
        <time>2023-07-03T13:32:35Z</time>
      </trkpt>
      <trkpt lat="43.94964" lon="0.35717">
        <ele>84</ele>
        <time>2023-07-03T13:32:37Z</time>
      </trkpt>
      <trkpt lat="43.94964" lon="0.35718">
        <ele>84.2</ele>
        <time>2023-07-03T13:32:38Z</time>
      </trkpt>
      <trkpt lat="43.94963" lon="0.35724">
        <ele>84.2</ele>
        <time>2023-07-03T13:32:42Z</time>
      </trkpt>
      <trkpt lat="43.94963" lon="0.35731">
        <ele>84.2</ele>
        <time>2023-07-03T13:32:47Z</time>
      </trkpt>
      <trkpt lat="43.94963" lon="0.35734">
        <ele>84.2</ele>
        <time>2023-07-03T13:32:49Z</time>
      </trkpt>
      <trkpt lat="43.94963" lon="0.35736">
        <ele>84.2</ele>
        <time>2023-07-03T13:32:50Z</time>
      </trkpt>
      <trkpt lat="43.94964" lon="0.35753">
        <ele>83.8</ele>
        <time>2023-07-03T13:32:59Z</time>
      </trkpt>
      <trkpt lat="43.94967" lon="0.35756">
        <ele>83.8</ele>
        <time>2023-07-03T13:33:03Z</time>
      </trkpt>
      <trkpt lat="43.9497" lon="0.35757">
        <ele>83.6</ele>
        <time>2023-07-03T13:33:05Z</time>
      </trkpt>
      <trkpt lat="43.94972" lon="0.35757">
        <ele>83.6</ele>
        <time>2023-07-03T13:33:06Z</time>
      </trkpt>
      <trkpt lat="43.94975" lon="0.35756">
        <ele>84</ele>
        <time>2023-07-03T13:33:09Z</time>
      </trkpt>
      <trkpt lat="43.94978" lon="0.35756">
        <ele>84</ele>
        <time>2023-07-03T13:33:11Z</time>
      </trkpt>
      <trkpt lat="43.9498" lon="0.35756">
        <ele>84</ele>
        <time>2023-07-03T13:33:13Z</time>
      </trkpt>
      <trkpt lat="43.94981" lon="0.35755">
        <ele>84</ele>
        <time>2023-07-03T13:33:14Z</time>
      </trkpt>
      <trkpt lat="43.94987" lon="0.35753">
        <ele>84</ele>
        <time>2023-07-03T13:33:19Z</time>
      </trkpt>
      <trkpt lat="43.94988" lon="0.35752">
        <ele>84</ele>
        <time>2023-07-03T13:33:20Z</time>
      </trkpt>
      <trkpt lat="43.94993" lon="0.35752">
        <ele>84</ele>
        <time>2023-07-03T13:33:25Z</time>
      </trkpt>
      <trkpt lat="43.94996" lon="0.35751">
        <ele>84</ele>
        <time>2023-07-03T13:33:28Z</time>
      </trkpt>
      <trkpt lat="43.95" lon="0.3575">
        <ele>84</ele>
        <time>2023-07-03T13:33:31Z</time>
      </trkpt>
      <trkpt lat="43.95007" lon="0.35749">
        <ele>84</ele>
        <time>2023-07-03T13:33:35Z</time>
      </trkpt>
      <trkpt lat="43.95016" lon="0.35748">
        <ele>84.2</ele>
        <time>2023-07-03T13:33:41Z</time>
      </trkpt>
      <trkpt lat="43.95018" lon="0.35748">
        <ele>84</ele>
        <time>2023-07-03T13:33:42Z</time>
      </trkpt>
      <trkpt lat="43.95025" lon="0.35749">
        <ele>84</ele>
        <time>2023-07-03T13:33:47Z</time>
      </trkpt>
      <trkpt lat="43.95027" lon="0.3575">
        <ele>84</ele>
        <time>2023-07-03T13:33:49Z</time>
      </trkpt>
      <trkpt lat="43.95029" lon="0.35752">
        <ele>84.6</ele>
        <time>2023-07-03T13:33:51Z</time>
      </trkpt>
      <trkpt lat="43.95031" lon="0.35752">
        <ele>84.6</ele>
        <time>2023-07-03T13:33:52Z</time>
      </trkpt>
      <trkpt lat="43.95039" lon="0.35753">
        <ele>84.8</ele>
        <time>2023-07-03T13:33:56Z</time>
      </trkpt>
      <trkpt lat="43.95047" lon="0.35755">
        <ele>84.4</ele>
        <time>2023-07-03T13:34:02Z</time>
      </trkpt>
      <trkpt lat="43.95048" lon="0.35755">
        <ele>84.2</ele>
        <time>2023-07-03T13:34:03Z</time>
      </trkpt>
      <trkpt lat="43.95056" lon="0.35757">
        <ele>84.2</ele>
        <time>2023-07-03T13:34:09Z</time>
      </trkpt>
      <trkpt lat="43.95057" lon="0.35758">
        <ele>84.2</ele>
        <time>2023-07-03T13:34:10Z</time>
      </trkpt>
      <trkpt lat="43.95058" lon="0.35758">
        <ele>84.2</ele>
        <time>2023-07-03T13:34:11Z</time>
      </trkpt>
      <trkpt lat="43.9506" lon="0.35758">
        <ele>84.4</ele>
        <time>2023-07-03T13:34:12Z</time>
      </trkpt>
      <trkpt lat="43.95065" lon="0.35763">
        <ele>84.6</ele>
        <time>2023-07-03T13:34:17Z</time>
      </trkpt>
      <trkpt lat="43.95075" lon="0.35768">
        <ele>85</ele>
        <time>2023-07-03T13:34:25Z</time>
      </trkpt>
      <trkpt lat="43.95079" lon="0.3577">
        <ele>85</ele>
        <time>2023-07-03T13:34:28Z</time>
      </trkpt>
      <trkpt lat="43.95082" lon="0.35772">
        <ele>84.8</ele>
        <time>2023-07-03T13:34:30Z</time>
      </trkpt>
      <trkpt lat="43.95083" lon="0.35773">
        <ele>84.8</ele>
        <time>2023-07-03T13:34:31Z</time>
      </trkpt>
      <trkpt lat="43.95086" lon="0.35778">
        <ele>84.8</ele>
        <time>2023-07-03T13:34:34Z</time>
      </trkpt>
      <trkpt lat="43.95089" lon="0.35784">
        <ele>84.8</ele>
        <time>2023-07-03T13:34:38Z</time>
      </trkpt>
      <trkpt lat="43.95091" lon="0.35789">
        <ele>84.8</ele>
        <time>2023-07-03T13:34:41Z</time>
      </trkpt>
      <trkpt lat="43.95093" lon="0.35794">
        <ele>84.4</ele>
        <time>2023-07-03T13:34:44Z</time>
      </trkpt>
      <trkpt lat="43.95094" lon="0.35796">
        <ele>84.2</ele>
        <time>2023-07-03T13:34:45Z</time>
      </trkpt>
      <trkpt lat="43.95101" lon="0.35801">
        <ele>84.6</ele>
        <time>2023-07-03T13:34:51Z</time>
      </trkpt>
      <trkpt lat="43.95106" lon="0.35806">
        <ele>84.6</ele>
        <time>2023-07-03T13:34:56Z</time>
      </trkpt>
      <trkpt lat="43.95107" lon="0.35808">
        <ele>84.2</ele>
        <time>2023-07-03T13:34:58Z</time>
      </trkpt>
      <trkpt lat="43.95111" lon="0.35817">
        <ele>84.2</ele>
        <time>2023-07-03T13:35:04Z</time>
      </trkpt>
      <trkpt lat="43.95122" lon="0.35829">
        <ele>83.6</ele>
        <time>2023-07-03T13:35:12Z</time>
      </trkpt>
      <trkpt lat="43.95124" lon="0.35839">
        <ele>83.4</ele>
        <time>2023-07-03T13:35:18Z</time>
      </trkpt>
      <trkpt lat="43.95127" lon="0.3585">
        <ele>83</ele>
        <time>2023-07-03T13:35:25Z</time>
      </trkpt>
      <trkpt lat="43.95128" lon="0.35852">
        <ele>83</ele>
        <time>2023-07-03T13:35:26Z</time>
      </trkpt>
      <trkpt lat="43.95129" lon="0.35853">
        <ele>83</ele>
        <time>2023-07-03T13:35:27Z</time>
      </trkpt>
      <trkpt lat="43.95131" lon="0.35856">
        <ele>83</ele>
        <time>2023-07-03T13:35:29Z</time>
      </trkpt>
      <trkpt lat="43.95133" lon="0.35859">
        <ele>82.8</ele>
        <time>2023-07-03T13:35:31Z</time>
      </trkpt>
      <trkpt lat="43.95136" lon="0.35868">
        <ele>82.2</ele>
        <time>2023-07-03T13:35:37Z</time>
      </trkpt>
      <trkpt lat="43.95137" lon="0.35869">
        <ele>82</ele>
        <time>2023-07-03T13:35:38Z</time>
      </trkpt>
      <trkpt lat="43.95137" lon="0.35871">
        <ele>82</ele>
        <time>2023-07-03T13:35:39Z</time>
      </trkpt>
      <trkpt lat="43.95142" lon="0.35882">
        <ele>81.8</ele>
        <time>2023-07-03T13:35:45Z</time>
      </trkpt>
      <trkpt lat="43.95146" lon="0.35894">
        <ele>81.8</ele>
        <time>2023-07-03T13:35:53Z</time>
      </trkpt>
      <trkpt lat="43.95151" lon="0.35907">
        <ele>81.4</ele>
        <time>2023-07-03T13:36:00Z</time>
      </trkpt>
      <trkpt lat="43.95158" lon="0.3592">
        <ele>81</ele>
        <time>2023-07-03T13:36:06Z</time>
      </trkpt>
      <trkpt lat="43.95157" lon="0.35932">
        <ele>80.8</ele>
        <time>2023-07-03T13:36:13Z</time>
      </trkpt>
      <trkpt lat="43.95158" lon="0.35936">
        <ele>80.8</ele>
        <time>2023-07-03T13:36:15Z</time>
      </trkpt>
      <trkpt lat="43.95159" lon="0.35945">
        <ele>80.8</ele>
        <time>2023-07-03T13:36:20Z</time>
      </trkpt>
      <trkpt lat="43.95161" lon="0.35951">
        <ele>80.8</ele>
        <time>2023-07-03T13:36:23Z</time>
      </trkpt>
      <trkpt lat="43.95164" lon="0.35957">
        <ele>80.8</ele>
        <time>2023-07-03T13:36:26Z</time>
      </trkpt>
      <trkpt lat="43.95167" lon="0.35966">
        <ele>80.2</ele>
        <time>2023-07-03T13:36:32Z</time>
      </trkpt>
      <trkpt lat="43.95168" lon="0.35972">
        <ele>80</ele>
        <time>2023-07-03T13:36:35Z</time>
      </trkpt>
      <trkpt lat="43.95171" lon="0.35982">
        <ele>79.8</ele>
        <time>2023-07-03T13:36:41Z</time>
      </trkpt>
      <trkpt lat="43.95176" lon="0.35991">
        <ele>79.8</ele>
        <time>2023-07-03T13:36:47Z</time>
      </trkpt>
      <trkpt lat="43.95179" lon="0.36006">
        <ele>79.8</ele>
        <time>2023-07-03T13:36:55Z</time>
      </trkpt>
      <trkpt lat="43.95187" lon="0.36022">
        <ele>79.8</ele>
        <time>2023-07-03T13:37:04Z</time>
      </trkpt>
      <trkpt lat="43.9519" lon="0.36032">
        <ele>79.6</ele>
        <time>2023-07-03T13:37:10Z</time>
      </trkpt>
      <trkpt lat="43.95193" lon="0.36045">
        <ele>79</ele>
        <time>2023-07-03T13:37:18Z</time>
      </trkpt>
      <trkpt lat="43.95196" lon="0.36051">
        <ele>79.2</ele>
        <time>2023-07-03T13:37:23Z</time>
      </trkpt>
      <trkpt lat="43.95196" lon="0.36052">
        <ele>79</ele>
        <time>2023-07-03T13:37:24Z</time>
      </trkpt>
      <trkpt lat="43.95197" lon="0.36055">
        <ele>78.8</ele>
        <time>2023-07-03T13:37:26Z</time>
      </trkpt>
      <trkpt lat="43.95199" lon="0.36062">
        <ele>78.6</ele>
        <time>2023-07-03T13:37:30Z</time>
      </trkpt>
      <trkpt lat="43.95202" lon="0.36075">
        <ele>78.6</ele>
        <time>2023-07-03T13:37:37Z</time>
      </trkpt>
      <trkpt lat="43.95213" lon="0.36091">
        <ele>78.4</ele>
        <time>2023-07-03T13:37:45Z</time>
      </trkpt>
      <trkpt lat="43.95218" lon="0.361">
        <ele>78.2</ele>
        <time>2023-07-03T13:37:51Z</time>
      </trkpt>
      <trkpt lat="43.95219" lon="0.36106">
        <ele>77.8</ele>
        <time>2023-07-03T13:37:54Z</time>
      </trkpt>
      <trkpt lat="43.95227" lon="0.36113">
        <ele>78</ele>
        <time>2023-07-03T13:37:59Z</time>
      </trkpt>
      <trkpt lat="43.95231" lon="0.36125">
        <ele>77.6</ele>
        <time>2023-07-03T13:38:06Z</time>
      </trkpt>
      <trkpt lat="43.95233" lon="0.36131">
        <ele>77.4</ele>
        <time>2023-07-03T13:38:09Z</time>
      </trkpt>
      <trkpt lat="43.95235" lon="0.36137">
        <ele>77.4</ele>
        <time>2023-07-03T13:38:12Z</time>
      </trkpt>
      <trkpt lat="43.95237" lon="0.36148">
        <ele>77.4</ele>
        <time>2023-07-03T13:38:19Z</time>
      </trkpt>
      <trkpt lat="43.9524" lon="0.36156">
        <ele>77.2</ele>
        <time>2023-07-03T13:38:24Z</time>
      </trkpt>
      <trkpt lat="43.95243" lon="0.36164">
        <ele>76.8</ele>
        <time>2023-07-03T13:38:30Z</time>
      </trkpt>
      <trkpt lat="43.95245" lon="0.36168">
        <ele>77</ele>
        <time>2023-07-03T13:38:33Z</time>
      </trkpt>
      <trkpt lat="43.95246" lon="0.36171">
        <ele>77</ele>
        <time>2023-07-03T13:38:35Z</time>
      </trkpt>
      <trkpt lat="43.95252" lon="0.36178">
        <ele>77</ele>
        <time>2023-07-03T13:38:41Z</time>
      </trkpt>
      <trkpt lat="43.95259" lon="0.36188">
        <ele>76.6</ele>
        <time>2023-07-03T13:38:48Z</time>
      </trkpt>
      <trkpt lat="43.95267" lon="0.36194">
        <ele>76.2</ele>
        <time>2023-07-03T13:38:55Z</time>
      </trkpt>
      <trkpt lat="43.95277" lon="0.36198">
        <ele>75.6</ele>
        <time>2023-07-03T13:39:00Z</time>
      </trkpt>
      <trkpt lat="43.95281" lon="0.362">
        <ele>75.2</ele>
        <time>2023-07-03T13:39:02Z</time>
      </trkpt>
      <trkpt lat="43.95293" lon="0.36206">
        <ele>74.4</ele>
        <time>2023-07-03T13:39:10Z</time>
      </trkpt>
      <trkpt lat="43.95293" lon="0.36207">
        <ele>74.2</ele>
        <time>2023-07-03T13:39:11Z</time>
      </trkpt>
      <trkpt lat="43.95305" lon="0.36214">
        <ele>73.4</ele>
        <time>2023-07-03T13:39:19Z</time>
      </trkpt>
      <trkpt lat="43.95307" lon="0.36215">
        <ele>73.2</ele>
        <time>2023-07-03T13:39:20Z</time>
      </trkpt>
      <trkpt lat="43.95308" lon="0.36216">
        <ele>73.2</ele>
        <time>2023-07-03T13:39:21Z</time>
      </trkpt>
      <trkpt lat="43.95311" lon="0.36218">
        <ele>72.6</ele>
        <time>2023-07-03T13:39:23Z</time>
      </trkpt>
      <trkpt lat="43.95318" lon="0.36219">
        <ele>72.2</ele>
        <time>2023-07-03T13:39:25Z</time>
      </trkpt>
      <trkpt lat="43.95319" lon="0.36219">
        <ele>72.2</ele>
        <time>2023-07-03T13:39:26Z</time>
      </trkpt>
      <trkpt lat="43.9532" lon="0.36219">
        <ele>72</ele>
        <time>2023-07-03T13:39:28Z</time>
      </trkpt>
      <trkpt lat="43.95325" lon="0.36219">
        <ele>71.2</ele>
        <time>2023-07-03T13:39:33Z</time>
      </trkpt>
      <trkpt lat="43.95326" lon="0.36219">
        <ele>71</ele>
        <time>2023-07-03T13:39:35Z</time>
      </trkpt>
      <trkpt lat="43.95327" lon="0.36219">
        <ele>71</ele>
        <time>2023-07-03T13:39:36Z</time>
      </trkpt>
      <trkpt lat="43.95332" lon="0.36222">
        <ele>70.4</ele>
        <time>2023-07-03T13:39:40Z</time>
      </trkpt>
      <trkpt lat="43.95337" lon="0.36222">
        <ele>70.2</ele>
        <time>2023-07-03T13:39:45Z</time>
      </trkpt>
      <trkpt lat="43.95341" lon="0.36223">
        <ele>70</ele>
        <time>2023-07-03T13:39:48Z</time>
      </trkpt>
      <trkpt lat="43.95349" lon="0.36226">
        <ele>70.4</ele>
        <time>2023-07-03T13:39:53Z</time>
      </trkpt>
      <trkpt lat="43.95352" lon="0.36227">
        <ele>70.4</ele>
        <time>2023-07-03T13:39:55Z</time>
      </trkpt>
      <trkpt lat="43.95365" lon="0.36227">
        <ele>70</ele>
        <time>2023-07-03T13:40:03Z</time>
      </trkpt>
      <trkpt lat="43.95369" lon="0.36226">
        <ele>70.4</ele>
        <time>2023-07-03T13:40:09Z</time>
      </trkpt>
      <trkpt lat="43.9537" lon="0.36227">
        <ele>70.4</ele>
        <time>2023-07-03T13:40:10Z</time>
      </trkpt>
      <trkpt lat="43.95379" lon="0.36239">
        <ele>70.2</ele>
        <time>2023-07-03T13:40:18Z</time>
      </trkpt>
      <trkpt lat="43.95387" lon="0.36247">
        <ele>70.2</ele>
        <time>2023-07-03T13:40:24Z</time>
      </trkpt>
      <trkpt lat="43.95388" lon="0.36249">
        <ele>70.2</ele>
        <time>2023-07-03T13:40:25Z</time>
      </trkpt>
      <trkpt lat="43.95394" lon="0.36259">
        <ele>70.8</ele>
        <time>2023-07-03T13:40:31Z</time>
      </trkpt>
      <trkpt lat="43.95397" lon="0.36264">
        <ele>71</ele>
        <time>2023-07-03T13:40:34Z</time>
      </trkpt>
      <trkpt lat="43.95394" lon="0.36269">
        <ele>71.2</ele>
        <time>2023-07-03T13:40:37Z</time>
      </trkpt>
      <trkpt lat="43.95386" lon="0.36277">
        <ele>70.6</ele>
        <time>2023-07-03T13:40:45Z</time>
      </trkpt>
      <trkpt lat="43.9538" lon="0.36287">
        <ele>70.6</ele>
        <time>2023-07-03T13:40:52Z</time>
      </trkpt>
      <trkpt lat="43.95379" lon="0.36291">
        <ele>70.6</ele>
        <time>2023-07-03T13:40:54Z</time>
      </trkpt>
      <trkpt lat="43.95377" lon="0.36294">
        <ele>70.6</ele>
        <time>2023-07-03T13:40:56Z</time>
      </trkpt>
      <trkpt lat="43.95375" lon="0.36298">
        <ele>70.4</ele>
        <time>2023-07-03T13:40:59Z</time>
      </trkpt>
      <trkpt lat="43.95372" lon="0.36302">
        <ele>70</ele>
        <time>2023-07-03T13:41:01Z</time>
      </trkpt>
      <trkpt lat="43.9537" lon="0.36306">
        <ele>69.8</ele>
        <time>2023-07-03T13:41:03Z</time>
      </trkpt>
      <trkpt lat="43.95369" lon="0.36307">
        <ele>69.8</ele>
        <time>2023-07-03T13:41:04Z</time>
      </trkpt>
      <trkpt lat="43.95362" lon="0.36317">
        <ele>69.8</ele>
        <time>2023-07-03T13:41:10Z</time>
      </trkpt>
      <trkpt lat="43.9536" lon="0.36321">
        <ele>70.2</ele>
        <time>2023-07-03T13:41:12Z</time>
      </trkpt>
      <trkpt lat="43.95359" lon="0.36328">
        <ele>70.2</ele>
        <time>2023-07-03T13:41:16Z</time>
      </trkpt>
      <trkpt lat="43.95359" lon="0.36329">
        <ele>70</ele>
        <time>2023-07-03T13:41:17Z</time>
      </trkpt>
      <trkpt lat="43.95355" lon="0.36337">
        <ele>69.8</ele>
        <time>2023-07-03T13:41:24Z</time>
      </trkpt>
      <trkpt lat="43.95354" lon="0.36348">
        <ele>69.6</ele>
        <time>2023-07-03T13:41:30Z</time>
      </trkpt>
      <trkpt lat="43.95353" lon="0.36354">
        <ele>69.2</ele>
        <time>2023-07-03T13:41:33Z</time>
      </trkpt>
      <trkpt lat="43.95352" lon="0.36361">
        <ele>69.2</ele>
        <time>2023-07-03T13:41:36Z</time>
      </trkpt>
      <trkpt lat="43.95351" lon="0.36363">
        <ele>69.2</ele>
        <time>2023-07-03T13:41:37Z</time>
      </trkpt>
      <trkpt lat="43.95351" lon="0.36372">
        <ele>69.2</ele>
        <time>2023-07-03T13:41:42Z</time>
      </trkpt>
      <trkpt lat="43.95349" lon="0.36378">
        <ele>69.2</ele>
        <time>2023-07-03T13:41:45Z</time>
      </trkpt>
      <trkpt lat="43.95348" lon="0.36385">
        <ele>69.2</ele>
        <time>2023-07-03T13:41:48Z</time>
      </trkpt>
      <trkpt lat="43.95348" lon="0.36387">
        <ele>69</ele>
        <time>2023-07-03T13:41:49Z</time>
      </trkpt>
      <trkpt lat="43.95348" lon="0.36391">
        <ele>69</ele>
        <time>2023-07-03T13:41:51Z</time>
      </trkpt>
      <trkpt lat="43.95348" lon="0.36396">
        <ele>69</ele>
        <time>2023-07-03T13:41:53Z</time>
      </trkpt>
      <trkpt lat="43.95347" lon="0.36399">
        <ele>68.8</ele>
        <time>2023-07-03T13:41:55Z</time>
      </trkpt>
      <trkpt lat="43.95347" lon="0.36403">
        <ele>68.8</ele>
        <time>2023-07-03T13:41:57Z</time>
      </trkpt>
      <trkpt lat="43.95346" lon="0.36405">
        <ele>68.8</ele>
        <time>2023-07-03T13:41:58Z</time>
      </trkpt>
      <trkpt lat="43.95347" lon="0.36417">
        <ele>68.8</ele>
        <time>2023-07-03T13:42:05Z</time>
      </trkpt>
      <trkpt lat="43.95347" lon="0.3642">
        <ele>69</ele>
        <time>2023-07-03T13:42:07Z</time>
      </trkpt>
      <trkpt lat="43.9535" lon="0.36431">
        <ele>69.4</ele>
        <time>2023-07-03T13:42:14Z</time>
      </trkpt>
      <trkpt lat="43.95351" lon="0.36432">
        <ele>69.4</ele>
        <time>2023-07-03T13:42:15Z</time>
      </trkpt>
      <trkpt lat="43.95351" lon="0.36433">
        <ele>69.4</ele>
        <time>2023-07-03T13:42:16Z</time>
      </trkpt>
      <trkpt lat="43.95353" lon="0.36435">
        <ele>69.2</ele>
        <time>2023-07-03T13:42:19Z</time>
      </trkpt>
      <trkpt lat="43.95355" lon="0.36437">
        <ele>69.2</ele>
        <time>2023-07-03T13:42:21Z</time>
      </trkpt>
      <trkpt lat="43.95356" lon="0.36437">
        <ele>69.2</ele>
        <time>2023-07-03T13:42:23Z</time>
      </trkpt>
      <trkpt lat="43.95359" lon="0.36438">
        <ele>69.4</ele>
        <time>2023-07-03T13:42:26Z</time>
      </trkpt>
      <trkpt lat="43.95366" lon="0.36442">
        <ele>69.6</ele>
        <time>2023-07-03T13:42:32Z</time>
      </trkpt>
      <trkpt lat="43.95368" lon="0.36442">
        <ele>69.6</ele>
        <time>2023-07-03T13:42:33Z</time>
      </trkpt>
      <trkpt lat="43.95369" lon="0.36442">
        <ele>69.6</ele>
        <time>2023-07-03T13:42:34Z</time>
      </trkpt>
      <trkpt lat="43.95374" lon="0.36442">
        <ele>69.6</ele>
        <time>2023-07-03T13:42:38Z</time>
      </trkpt>
      <trkpt lat="43.95385" lon="0.36446">
        <ele>69.6</ele>
        <time>2023-07-03T13:42:46Z</time>
      </trkpt>
      <trkpt lat="43.95386" lon="0.36447">
        <ele>69.6</ele>
        <time>2023-07-03T13:42:47Z</time>
      </trkpt>
      <trkpt lat="43.95388" lon="0.36448">
        <ele>69.6</ele>
        <time>2023-07-03T13:42:48Z</time>
      </trkpt>
      <trkpt lat="43.95389" lon="0.36448">
        <ele>69.6</ele>
        <time>2023-07-03T13:42:49Z</time>
      </trkpt>
      <trkpt lat="43.95395" lon="0.3645">
        <ele>69.4</ele>
        <time>2023-07-03T13:42:54Z</time>
      </trkpt>
      <trkpt lat="43.95396" lon="0.3645">
        <ele>69.4</ele>
        <time>2023-07-03T13:42:55Z</time>
      </trkpt>
      <trkpt lat="43.95399" lon="0.3645">
        <ele>69.6</ele>
        <time>2023-07-03T13:42:58Z</time>
      </trkpt>
      <trkpt lat="43.95402" lon="0.36451">
        <ele>69.6</ele>
        <time>2023-07-03T13:43:00Z</time>
      </trkpt>
      <trkpt lat="43.95403" lon="0.36452">
        <ele>69.6</ele>
        <time>2023-07-03T13:43:01Z</time>
      </trkpt>
      <trkpt lat="43.95416" lon="0.36457">
        <ele>69.4</ele>
        <time>2023-07-03T13:43:09Z</time>
      </trkpt>
      <trkpt lat="43.95424" lon="0.36459">
        <ele>69.4</ele>
        <time>2023-07-03T13:43:16Z</time>
      </trkpt>
      <trkpt lat="43.95431" lon="0.36461">
        <ele>69.4</ele>
        <time>2023-07-03T13:43:22Z</time>
      </trkpt>
      <trkpt lat="43.95436" lon="0.36463">
        <ele>69.4</ele>
        <time>2023-07-03T13:43:26Z</time>
      </trkpt>
      <trkpt lat="43.9544" lon="0.36466">
        <ele>69.6</ele>
        <time>2023-07-03T13:43:29Z</time>
      </trkpt>
      <trkpt lat="43.95444" lon="0.36468">
        <ele>69.8</ele>
        <time>2023-07-03T13:43:32Z</time>
      </trkpt>
      <trkpt lat="43.95447" lon="0.3647">
        <ele>70</ele>
        <time>2023-07-03T13:43:34Z</time>
      </trkpt>
      <trkpt lat="43.9545" lon="0.36472">
        <ele>70.2</ele>
        <time>2023-07-03T13:43:36Z</time>
      </trkpt>
      <trkpt lat="43.95452" lon="0.36473">
        <ele>70.2</ele>
        <time>2023-07-03T13:43:37Z</time>
      </trkpt>
      <trkpt lat="43.95463" lon="0.36482">
        <ele>69.4</ele>
        <time>2023-07-03T13:43:45Z</time>
      </trkpt>
      <trkpt lat="43.9547" lon="0.36487">
        <ele>69.4</ele>
        <time>2023-07-03T13:43:52Z</time>
      </trkpt>
      <trkpt lat="43.95474" lon="0.36492">
        <ele>69.4</ele>
        <time>2023-07-03T13:43:56Z</time>
      </trkpt>
      <trkpt lat="43.95479" lon="0.36502">
        <ele>69.2</ele>
        <time>2023-07-03T13:44:03Z</time>
      </trkpt>
      <trkpt lat="43.95479" lon="0.36503">
        <ele>69.2</ele>
        <time>2023-07-03T13:44:04Z</time>
      </trkpt>
      <trkpt lat="43.9548" lon="0.36505">
        <ele>69.2</ele>
        <time>2023-07-03T13:44:05Z</time>
      </trkpt>
      <trkpt lat="43.95481" lon="0.36506">
        <ele>69.2</ele>
        <time>2023-07-03T13:44:06Z</time>
      </trkpt>
      <trkpt lat="43.95481" lon="0.36508">
        <ele>69</ele>
        <time>2023-07-03T13:44:07Z</time>
      </trkpt>
      <trkpt lat="43.95483" lon="0.36509">
        <ele>69</ele>
        <time>2023-07-03T13:44:08Z</time>
      </trkpt>
      <trkpt lat="43.95483" lon="0.36511">
        <ele>69</ele>
        <time>2023-07-03T13:44:09Z</time>
      </trkpt>
      <trkpt lat="43.95484" lon="0.36512">
        <ele>69</ele>
        <time>2023-07-03T13:44:10Z</time>
      </trkpt>
      <trkpt lat="43.95485" lon="0.36513">
        <ele>69</ele>
        <time>2023-07-03T13:44:11Z</time>
      </trkpt>
      <trkpt lat="43.95486" lon="0.36516">
        <ele>69</ele>
        <time>2023-07-03T13:44:13Z</time>
      </trkpt>
      <trkpt lat="43.95488" lon="0.36518">
        <ele>69</ele>
        <time>2023-07-03T13:44:14Z</time>
      </trkpt>
      <trkpt lat="43.95489" lon="0.36519">
        <ele>69</ele>
        <time>2023-07-03T13:44:15Z</time>
      </trkpt>
      <trkpt lat="43.95493" lon="0.36524">
        <ele>69.4</ele>
        <time>2023-07-03T13:44:18Z</time>
      </trkpt>
      <trkpt lat="43.95498" lon="0.36529">
        <ele>69.4</ele>
        <time>2023-07-03T13:44:22Z</time>
      </trkpt>
      <trkpt lat="43.95502" lon="0.36531">
        <ele>69.4</ele>
        <time>2023-07-03T13:44:24Z</time>
      </trkpt>
      <trkpt lat="43.95505" lon="0.36537">
        <ele>69.4</ele>
        <time>2023-07-03T13:44:29Z</time>
      </trkpt>
      <trkpt lat="43.95507" lon="0.3654">
        <ele>69.4</ele>
        <time>2023-07-03T13:44:32Z</time>
      </trkpt>
      <trkpt lat="43.95508" lon="0.36541">
        <ele>69.4</ele>
        <time>2023-07-03T13:44:34Z</time>
      </trkpt>
      <trkpt lat="43.95509" lon="0.36544">
        <ele>69.4</ele>
        <time>2023-07-03T13:44:36Z</time>
      </trkpt>
      <trkpt lat="43.95511" lon="0.36549">
        <ele>69</ele>
        <time>2023-07-03T13:44:39Z</time>
      </trkpt>
      <trkpt lat="43.95512" lon="0.36553">
        <ele>69</ele>
        <time>2023-07-03T13:44:42Z</time>
      </trkpt>
      <trkpt lat="43.95513" lon="0.36555">
        <ele>68.8</ele>
        <time>2023-07-03T13:44:43Z</time>
      </trkpt>
      <trkpt lat="43.95514" lon="0.36557">
        <ele>68.8</ele>
        <time>2023-07-03T13:44:45Z</time>
      </trkpt>
      <trkpt lat="43.95517" lon="0.36561">
        <ele>68.8</ele>
        <time>2023-07-03T13:44:48Z</time>
      </trkpt>
      <trkpt lat="43.95519" lon="0.36564">
        <ele>68.6</ele>
        <time>2023-07-03T13:44:50Z</time>
      </trkpt>
      <trkpt lat="43.95524" lon="0.36572">
        <ele>68.6</ele>
        <time>2023-07-03T13:44:56Z</time>
      </trkpt>
      <trkpt lat="43.95528" lon="0.36577">
        <ele>68.6</ele>
        <time>2023-07-03T13:44:59Z</time>
      </trkpt>
      <trkpt lat="43.95533" lon="0.36582">
        <ele>68.6</ele>
        <time>2023-07-03T13:45:02Z</time>
      </trkpt>
      <trkpt lat="43.95537" lon="0.36587">
        <ele>68.6</ele>
        <time>2023-07-03T13:45:05Z</time>
      </trkpt>
      <trkpt lat="43.95539" lon="0.36595">
        <ele>68.6</ele>
        <time>2023-07-03T13:45:10Z</time>
      </trkpt>
      <trkpt lat="43.95543" lon="0.36608">
        <ele>69</ele>
        <time>2023-07-03T13:45:18Z</time>
      </trkpt>
      <trkpt lat="43.95545" lon="0.36613">
        <ele>69</ele>
        <time>2023-07-03T13:45:21Z</time>
      </trkpt>
      <trkpt lat="43.95547" lon="0.36621">
        <ele>68.8</ele>
        <time>2023-07-03T13:45:26Z</time>
      </trkpt>
      <trkpt lat="43.95547" lon="0.36623">
        <ele>68.8</ele>
        <time>2023-07-03T13:45:27Z</time>
      </trkpt>
      <trkpt lat="43.95549" lon="0.36628">
        <ele>68.8</ele>
        <time>2023-07-03T13:45:30Z</time>
      </trkpt>
      <trkpt lat="43.9555" lon="0.36633">
        <ele>68.8</ele>
        <time>2023-07-03T13:45:33Z</time>
      </trkpt>
      <trkpt lat="43.9555" lon="0.36651">
        <ele>68.8</ele>
        <time>2023-07-03T13:45:43Z</time>
      </trkpt>
      <trkpt lat="43.95551" lon="0.36653">
        <ele>68.8</ele>
        <time>2023-07-03T13:45:44Z</time>
      </trkpt>
      <trkpt lat="43.9555" lon="0.3667">
        <ele>69</ele>
        <time>2023-07-03T13:45:53Z</time>
      </trkpt>
      <trkpt lat="43.95551" lon="0.36674">
        <ele>69</ele>
        <time>2023-07-03T13:45:55Z</time>
      </trkpt>
      <trkpt lat="43.95551" lon="0.36691">
        <ele>68.8</ele>
        <time>2023-07-03T13:46:04Z</time>
      </trkpt>
      <trkpt lat="43.95551" lon="0.36694">
        <ele>68.8</ele>
        <time>2023-07-03T13:46:06Z</time>
      </trkpt>
      <trkpt lat="43.95551" lon="0.36699">
        <ele>68.8</ele>
        <time>2023-07-03T13:46:09Z</time>
      </trkpt>
      <trkpt lat="43.95551" lon="0.36703">
        <ele>68.8</ele>
        <time>2023-07-03T13:46:11Z</time>
      </trkpt>
      <trkpt lat="43.95551" lon="0.36706">
        <ele>68.8</ele>
        <time>2023-07-03T13:46:13Z</time>
      </trkpt>
      <trkpt lat="43.95552" lon="0.3671">
        <ele>69</ele>
        <time>2023-07-03T13:46:15Z</time>
      </trkpt>
      <trkpt lat="43.95552" lon="0.36712">
        <ele>69</ele>
        <time>2023-07-03T13:46:16Z</time>
      </trkpt>
      <trkpt lat="43.95552" lon="0.36722">
        <ele>68.8</ele>
        <time>2023-07-03T13:46:21Z</time>
      </trkpt>
      <trkpt lat="43.95552" lon="0.36724">
        <ele>68.8</ele>
        <time>2023-07-03T13:46:22Z</time>
      </trkpt>
      <trkpt lat="43.95553" lon="0.36736">
        <ele>68.6</ele>
        <time>2023-07-03T13:46:29Z</time>
      </trkpt>
      <trkpt lat="43.95553" lon="0.36738">
        <ele>68.6</ele>
        <time>2023-07-03T13:46:30Z</time>
      </trkpt>
      <trkpt lat="43.95552" lon="0.3674">
        <ele>68.6</ele>
        <time>2023-07-03T13:46:31Z</time>
      </trkpt>
      <trkpt lat="43.95551" lon="0.36747">
        <ele>68.8</ele>
        <time>2023-07-03T13:46:35Z</time>
      </trkpt>
      <trkpt lat="43.95553" lon="0.36752">
        <ele>68.8</ele>
        <time>2023-07-03T13:46:37Z</time>
      </trkpt>
      <trkpt lat="43.95555" lon="0.36756">
        <ele>68.8</ele>
        <time>2023-07-03T13:46:39Z</time>
      </trkpt>
      <trkpt lat="43.95557" lon="0.36769">
        <ele>68.4</ele>
        <time>2023-07-03T13:46:47Z</time>
      </trkpt>
      <trkpt lat="43.95562" lon="0.36781">
        <ele>68.4</ele>
        <time>2023-07-03T13:46:54Z</time>
      </trkpt>
      <trkpt lat="43.95564" lon="0.36786">
        <ele>68.2</ele>
        <time>2023-07-03T13:46:57Z</time>
      </trkpt>
      <trkpt lat="43.95564" lon="0.36787">
        <ele>68.4</ele>
        <time>2023-07-03T13:46:58Z</time>
      </trkpt>
      <trkpt lat="43.95564" lon="0.36789">
        <ele>68.2</ele>
        <time>2023-07-03T13:46:59Z</time>
      </trkpt>
      <trkpt lat="43.95564" lon="0.36791">
        <ele>68.2</ele>
        <time>2023-07-03T13:47:00Z</time>
      </trkpt>
      <trkpt lat="43.95565" lon="0.36793">
        <ele>68.2</ele>
        <time>2023-07-03T13:47:01Z</time>
      </trkpt>
      <trkpt lat="43.95565" lon="0.36795">
        <ele>68.2</ele>
        <time>2023-07-03T13:47:02Z</time>
      </trkpt>
      <trkpt lat="43.95566" lon="0.36797">
        <ele>68.2</ele>
        <time>2023-07-03T13:47:03Z</time>
      </trkpt>
      <trkpt lat="43.95567" lon="0.36798">
        <ele>68.4</ele>
        <time>2023-07-03T13:47:04Z</time>
      </trkpt>
      <trkpt lat="43.95567" lon="0.368">
        <ele>68.4</ele>
        <time>2023-07-03T13:47:05Z</time>
      </trkpt>
      <trkpt lat="43.95568" lon="0.36801">
        <ele>68.4</ele>
        <time>2023-07-03T13:47:06Z</time>
      </trkpt>
      <trkpt lat="43.9557" lon="0.36805">
        <ele>68.6</ele>
        <time>2023-07-03T13:47:08Z</time>
      </trkpt>
      <trkpt lat="43.95571" lon="0.36806">
        <ele>68.6</ele>
        <time>2023-07-03T13:47:09Z</time>
      </trkpt>
      <trkpt lat="43.95574" lon="0.36811">
        <ele>68.4</ele>
        <time>2023-07-03T13:47:12Z</time>
      </trkpt>
      <trkpt lat="43.9558" lon="0.36818">
        <ele>68.2</ele>
        <time>2023-07-03T13:47:18Z</time>
      </trkpt>
      <trkpt lat="43.95581" lon="0.3682">
        <ele>68.4</ele>
        <time>2023-07-03T13:47:20Z</time>
      </trkpt>
      <trkpt lat="43.95586" lon="0.36822">
        <ele>68.4</ele>
        <time>2023-07-03T13:47:24Z</time>
      </trkpt>
      <trkpt lat="43.9559" lon="0.36825">
        <ele>68.4</ele>
        <time>2023-07-03T13:47:28Z</time>
      </trkpt>
      <trkpt lat="43.95596" lon="0.36827">
        <ele>68.6</ele>
        <time>2023-07-03T13:47:32Z</time>
      </trkpt>
      <trkpt lat="43.95603" lon="0.36828">
        <ele>68.4</ele>
        <time>2023-07-03T13:47:36Z</time>
      </trkpt>
      <trkpt lat="43.9561" lon="0.36828">
        <ele>68.4</ele>
        <time>2023-07-03T13:47:41Z</time>
      </trkpt>
      <trkpt lat="43.95611" lon="0.36828">
        <ele>68.4</ele>
        <time>2023-07-03T13:47:42Z</time>
      </trkpt>
      <trkpt lat="43.95614" lon="0.36828">
        <ele>68.6</ele>
        <time>2023-07-03T13:47:44Z</time>
      </trkpt>
      <trkpt lat="43.95614" lon="0.36828">
        <ele>68.6</ele>
        <time>2023-07-03T13:47:45Z</time>
      </trkpt>
      <trkpt lat="43.95616" lon="0.36828">
        <ele>68.6</ele>
        <time>2023-07-03T13:47:46Z</time>
      </trkpt>
      <trkpt lat="43.9562" lon="0.36825">
        <ele>68.4</ele>
        <time>2023-07-03T13:47:52Z</time>
      </trkpt>
      <trkpt lat="43.95624" lon="0.36825">
        <ele>68.8</ele>
        <time>2023-07-03T13:47:57Z</time>
      </trkpt>
      <trkpt lat="43.95625" lon="0.36825">
        <ele>68.8</ele>
        <time>2023-07-03T13:47:58Z</time>
      </trkpt>
      <trkpt lat="43.95628" lon="0.36826">
        <ele>68.4</ele>
        <time>2023-07-03T13:48:00Z</time>
      </trkpt>
      <trkpt lat="43.95629" lon="0.36827">
        <ele>68.4</ele>
        <time>2023-07-03T13:48:02Z</time>
      </trkpt>
      <trkpt lat="43.95634" lon="0.36831">
        <ele>68.2</ele>
        <time>2023-07-03T13:48:05Z</time>
      </trkpt>
      <trkpt lat="43.95635" lon="0.36832">
        <ele>68.6</ele>
        <time>2023-07-03T13:48:07Z</time>
      </trkpt>
      <trkpt lat="43.95647" lon="0.36832">
        <ele>68</ele>
        <time>2023-07-03T13:48:12Z</time>
      </trkpt>
      <trkpt lat="43.95647" lon="0.36834">
        <ele>67.8</ele>
        <time>2023-07-03T13:48:13Z</time>
      </trkpt>
      <trkpt lat="43.95652" lon="0.36833">
        <ele>67.8</ele>
        <time>2023-07-03T13:48:17Z</time>
      </trkpt>
      <trkpt lat="43.95653" lon="0.36832">
        <ele>68</ele>
        <time>2023-07-03T13:48:18Z</time>
      </trkpt>
      <trkpt lat="43.95664" lon="0.36832">
        <ele>67.4</ele>
        <time>2023-07-03T13:48:24Z</time>
      </trkpt>
      <trkpt lat="43.95665" lon="0.36832">
        <ele>67.2</ele>
        <time>2023-07-03T13:48:25Z</time>
      </trkpt>
      <trkpt lat="43.95666" lon="0.36832">
        <ele>67.2</ele>
        <time>2023-07-03T13:48:26Z</time>
      </trkpt>
      <trkpt lat="43.95667" lon="0.36832">
        <ele>67.2</ele>
        <time>2023-07-03T13:48:27Z</time>
      </trkpt>
      <trkpt lat="43.95669" lon="0.36832">
        <ele>67.2</ele>
        <time>2023-07-03T13:48:29Z</time>
      </trkpt>
      <trkpt lat="43.9567" lon="0.36833">
        <ele>67.2</ele>
        <time>2023-07-03T13:48:30Z</time>
      </trkpt>
      <trkpt lat="43.9567" lon="0.36834">
        <ele>67.2</ele>
        <time>2023-07-03T13:48:31Z</time>
      </trkpt>
      <trkpt lat="43.95671" lon="0.36837">
        <ele>67.2</ele>
        <time>2023-07-03T13:48:33Z</time>
      </trkpt>
      <trkpt lat="43.95673" lon="0.36852">
        <ele>67.6</ele>
        <time>2023-07-03T13:48:41Z</time>
      </trkpt>
      <trkpt lat="43.95673" lon="0.36857">
        <ele>67.6</ele>
        <time>2023-07-03T13:48:44Z</time>
      </trkpt>
      <trkpt lat="43.95673" lon="0.36866">
        <ele>68.2</ele>
        <time>2023-07-03T13:48:49Z</time>
      </trkpt>
      <trkpt lat="43.95673" lon="0.36868">
        <ele>68.2</ele>
        <time>2023-07-03T13:48:50Z</time>
      </trkpt>
      <trkpt lat="43.95672" lon="0.36877">
        <ele>68.6</ele>
        <time>2023-07-03T13:48:55Z</time>
      </trkpt>
      <trkpt lat="43.95672" lon="0.36878">
        <ele>68.6</ele>
        <time>2023-07-03T13:48:56Z</time>
      </trkpt>
      <trkpt lat="43.95672" lon="0.36882">
        <ele>68.8</ele>
        <time>2023-07-03T13:48:58Z</time>
      </trkpt>
      <trkpt lat="43.95673" lon="0.36887">
        <ele>68.8</ele>
        <time>2023-07-03T13:49:01Z</time>
      </trkpt>
      <trkpt lat="43.95673" lon="0.3689">
        <ele>69</ele>
        <time>2023-07-03T13:49:02Z</time>
      </trkpt>
      <trkpt lat="43.95673" lon="0.36892">
        <ele>69</ele>
        <time>2023-07-03T13:49:03Z</time>
      </trkpt>
      <trkpt lat="43.95673" lon="0.36894">
        <ele>69</ele>
        <time>2023-07-03T13:49:04Z</time>
      </trkpt>
      <trkpt lat="43.95675" lon="0.36907">
        <ele>69.8</ele>
        <time>2023-07-03T13:49:10Z</time>
      </trkpt>
      <trkpt lat="43.9567" lon="0.36912">
        <ele>69.4</ele>
        <time>2023-07-03T13:49:15Z</time>
      </trkpt>
      <trkpt lat="43.95669" lon="0.36914">
        <ele>69.4</ele>
        <time>2023-07-03T13:49:17Z</time>
      </trkpt>
      <trkpt lat="43.9567" lon="0.36916">
        <ele>69.4</ele>
        <time>2023-07-03T13:49:18Z</time>
      </trkpt>
      <trkpt lat="43.95673" lon="0.36921">
        <ele>69.6</ele>
        <time>2023-07-03T13:49:22Z</time>
      </trkpt>
      <trkpt lat="43.95674" lon="0.36922">
        <ele>69.6</ele>
        <time>2023-07-03T13:49:23Z</time>
      </trkpt>
      <trkpt lat="43.95674" lon="0.36925">
        <ele>69.6</ele>
        <time>2023-07-03T13:49:27Z</time>
      </trkpt>
      <trkpt lat="43.95677" lon="0.36926">
        <ele>69.6</ele>
        <time>2023-07-03T13:49:29Z</time>
      </trkpt>
      <trkpt lat="43.95682" lon="0.36928">
        <ele>69.6</ele>
        <time>2023-07-03T13:49:33Z</time>
      </trkpt>
      <trkpt lat="43.95684" lon="0.36929">
        <ele>69.6</ele>
        <time>2023-07-03T13:49:35Z</time>
      </trkpt>
      <trkpt lat="43.95685" lon="0.36929">
        <ele>69.6</ele>
        <time>2023-07-03T13:49:36Z</time>
      </trkpt>
      <trkpt lat="43.95687" lon="0.36928">
        <ele>69.6</ele>
        <time>2023-07-03T13:49:39Z</time>
      </trkpt>
      <trkpt lat="43.95688" lon="0.36936">
        <ele>70.8</ele>
        <time>2023-07-03T13:50:24Z</time>
      </trkpt>
      <trkpt lat="43.95689" lon="0.36937">
        <ele>70.8</ele>
        <time>2023-07-03T13:50:26Z</time>
      </trkpt>
      <trkpt lat="43.95701" lon="0.3695">
        <ele>71.2</ele>
        <time>2023-07-03T13:50:33Z</time>
      </trkpt>
      <trkpt lat="43.95702" lon="0.3695">
        <ele>71.4</ele>
        <time>2023-07-03T13:50:35Z</time>
      </trkpt>
      <trkpt lat="43.95706" lon="0.36952">
        <ele>71.4</ele>
        <time>2023-07-03T13:50:39Z</time>
      </trkpt>
      <trkpt lat="43.95709" lon="0.36951">
        <ele>71.6</ele>
        <time>2023-07-03T13:50:41Z</time>
      </trkpt>
      <trkpt lat="43.95711" lon="0.36952">
        <ele>71.8</ele>
        <time>2023-07-03T13:50:43Z</time>
      </trkpt>
      <trkpt lat="43.95712" lon="0.36953">
        <ele>71.8</ele>
        <time>2023-07-03T13:50:44Z</time>
      </trkpt>
      <trkpt lat="43.95716" lon="0.36954">
        <ele>71.8</ele>
        <time>2023-07-03T13:50:47Z</time>
      </trkpt>
      <trkpt lat="43.95717" lon="0.36954">
        <ele>71.8</ele>
        <time>2023-07-03T13:50:48Z</time>
      </trkpt>
      <trkpt lat="43.9572" lon="0.36957">
        <ele>72.2</ele>
        <time>2023-07-03T13:50:51Z</time>
      </trkpt>
      <trkpt lat="43.9572" lon="0.36963">
        <ele>72.6</ele>
        <time>2023-07-03T13:50:56Z</time>
      </trkpt>
      <trkpt lat="43.9572" lon="0.36963">
        <ele>72.4</ele>
        <time>2023-07-03T13:50:57Z</time>
      </trkpt>
      <trkpt lat="43.95721" lon="0.36965">
        <ele>72.2</ele>
        <time>2023-07-03T13:50:58Z</time>
      </trkpt>
      <trkpt lat="43.95721" lon="0.36966">
        <ele>72.2</ele>
        <time>2023-07-03T13:50:59Z</time>
      </trkpt>
      <trkpt lat="43.95721" lon="0.36966">
        <ele>72.2</ele>
        <time>2023-07-03T13:51:01Z</time>
      </trkpt>
      <trkpt lat="43.9572" lon="0.36966">
        <ele>72.4</ele>
        <time>2023-07-03T13:51:03Z</time>
      </trkpt>
      <trkpt lat="43.9572" lon="0.36966">
        <ele>72.6</ele>
        <time>2023-07-03T13:51:04Z</time>
      </trkpt>
      <trkpt lat="43.95718" lon="0.36982">
        <ele>73</ele>
        <time>2023-07-03T13:51:11Z</time>
      </trkpt>
      <trkpt lat="43.95722" lon="0.36987">
        <ele>73.2</ele>
        <time>2023-07-03T13:51:13Z</time>
      </trkpt>
      <trkpt lat="43.95727" lon="0.36993">
        <ele>73.2</ele>
        <time>2023-07-03T13:51:17Z</time>
      </trkpt>
      <trkpt lat="43.95737" lon="0.36999">
        <ele>74</ele>
        <time>2023-07-03T13:51:22Z</time>
      </trkpt>
      <trkpt lat="43.9574" lon="0.37001">
        <ele>74.2</ele>
        <time>2023-07-03T13:51:24Z</time>
      </trkpt>
      <trkpt lat="43.9574" lon="0.37004">
        <ele>74.4</ele>
        <time>2023-07-03T13:51:29Z</time>
      </trkpt>
      <trkpt lat="43.9574" lon="0.37006">
        <ele>74.4</ele>
        <time>2023-07-03T13:51:31Z</time>
      </trkpt>
      <trkpt lat="43.95738" lon="0.3701">
        <ele>74.8</ele>
        <time>2023-07-03T13:51:34Z</time>
      </trkpt>
      <trkpt lat="43.95739" lon="0.37014">
        <ele>75</ele>
        <time>2023-07-03T13:51:37Z</time>
      </trkpt>
      <trkpt lat="43.95738" lon="0.37015">
        <ele>75</ele>
        <time>2023-07-03T13:51:38Z</time>
      </trkpt>
      <trkpt lat="43.95737" lon="0.37017">
        <ele>75.2</ele>
        <time>2023-07-03T13:51:40Z</time>
      </trkpt>
      <trkpt lat="43.95737" lon="0.3702">
        <ele>75.2</ele>
        <time>2023-07-03T13:51:42Z</time>
      </trkpt>
      <trkpt lat="43.95737" lon="0.37026">
        <ele>75.6</ele>
        <time>2023-07-03T13:51:45Z</time>
      </trkpt>
      <trkpt lat="43.95738" lon="0.37028">
        <ele>76.2</ele>
        <time>2023-07-03T13:51:47Z</time>
      </trkpt>
      <trkpt lat="43.95735" lon="0.37038">
        <ele>76.6</ele>
        <time>2023-07-03T13:51:54Z</time>
      </trkpt>
      <trkpt lat="43.95737" lon="0.37048">
        <ele>77.4</ele>
        <time>2023-07-03T13:51:59Z</time>
      </trkpt>
      <trkpt lat="43.95737" lon="0.37054">
        <ele>77.8</ele>
        <time>2023-07-03T13:52:02Z</time>
      </trkpt>
      <trkpt lat="43.95741" lon="0.37063">
        <ele>78</ele>
        <time>2023-07-03T13:52:08Z</time>
      </trkpt>
      <trkpt lat="43.95749" lon="0.37074">
        <ele>78.4</ele>
        <time>2023-07-03T13:52:12Z</time>
      </trkpt>
      <trkpt lat="43.95751" lon="0.37085">
        <ele>79.2</ele>
        <time>2023-07-03T13:52:18Z</time>
      </trkpt>
      <trkpt lat="43.95752" lon="0.37087">
        <ele>79.2</ele>
        <time>2023-07-03T13:52:19Z</time>
      </trkpt>
      <trkpt lat="43.95754" lon="0.37091">
        <ele>79.6</ele>
        <time>2023-07-03T13:52:21Z</time>
      </trkpt>
      <trkpt lat="43.95755" lon="0.37097">
        <ele>79.8</ele>
        <time>2023-07-03T13:52:25Z</time>
      </trkpt>
      <trkpt lat="43.95753" lon="0.37102">
        <ele>80</ele>
        <time>2023-07-03T13:52:29Z</time>
      </trkpt>
      <trkpt lat="43.95753" lon="0.37104">
        <ele>80</ele>
        <time>2023-07-03T13:52:30Z</time>
      </trkpt>
      <trkpt lat="43.95751" lon="0.37105">
        <ele>80</ele>
        <time>2023-07-03T13:52:31Z</time>
      </trkpt>
      <trkpt lat="43.95746" lon="0.37113">
        <ele>80.4</ele>
        <time>2023-07-03T13:52:35Z</time>
      </trkpt>
      <trkpt lat="43.95746" lon="0.37116">
        <ele>80.6</ele>
        <time>2023-07-03T13:52:36Z</time>
      </trkpt>
      <trkpt lat="43.95746" lon="0.37119">
        <ele>80.8</ele>
        <time>2023-07-03T13:52:37Z</time>
      </trkpt>
      <trkpt lat="43.95745" lon="0.37129">
        <ele>80.8</ele>
        <time>2023-07-03T13:52:43Z</time>
      </trkpt>
      <trkpt lat="43.95744" lon="0.37132">
        <ele>81</ele>
        <time>2023-07-03T13:52:45Z</time>
      </trkpt>
      <trkpt lat="43.9574" lon="0.37136">
        <ele>81.2</ele>
        <time>2023-07-03T13:52:48Z</time>
      </trkpt>
      <trkpt lat="43.95739" lon="0.37138">
        <ele>81.2</ele>
        <time>2023-07-03T13:52:49Z</time>
      </trkpt>
      <trkpt lat="43.95738" lon="0.3714">
        <ele>81.4</ele>
        <time>2023-07-03T13:52:50Z</time>
      </trkpt>
      <trkpt lat="43.95735" lon="0.37142">
        <ele>81.4</ele>
        <time>2023-07-03T13:52:52Z</time>
      </trkpt>
      <trkpt lat="43.95734" lon="0.37146">
        <ele>81.6</ele>
        <time>2023-07-03T13:52:55Z</time>
      </trkpt>
      <trkpt lat="43.95735" lon="0.37148">
        <ele>81.6</ele>
        <time>2023-07-03T13:52:56Z</time>
      </trkpt>
      <trkpt lat="43.95734" lon="0.37155">
        <ele>81.8</ele>
        <time>2023-07-03T13:52:59Z</time>
      </trkpt>
      <trkpt lat="43.95737" lon="0.37159">
        <ele>81.8</ele>
        <time>2023-07-03T13:53:01Z</time>
      </trkpt>
      <trkpt lat="43.95741" lon="0.37162">
        <ele>81.8</ele>
        <time>2023-07-03T13:53:03Z</time>
      </trkpt>
      <trkpt lat="43.95746" lon="0.37169">
        <ele>82</ele>
        <time>2023-07-03T13:53:06Z</time>
      </trkpt>
      <trkpt lat="43.95749" lon="0.37172">
        <ele>82.2</ele>
        <time>2023-07-03T13:53:08Z</time>
      </trkpt>
      <trkpt lat="43.95753" lon="0.37178">
        <ele>82.2</ele>
        <time>2023-07-03T13:53:12Z</time>
      </trkpt>
      <trkpt lat="43.95752" lon="0.3718">
        <ele>82.2</ele>
        <time>2023-07-03T13:53:13Z</time>
      </trkpt>
      <trkpt lat="43.95753" lon="0.37185">
        <ele>82.2</ele>
        <time>2023-07-03T13:53:16Z</time>
      </trkpt>
      <trkpt lat="43.95754" lon="0.37186">
        <ele>82.2</ele>
        <time>2023-07-03T13:53:17Z</time>
      </trkpt>
      <trkpt lat="43.95757" lon="0.37189">
        <ele>82.6</ele>
        <time>2023-07-03T13:53:19Z</time>
      </trkpt>
      <trkpt lat="43.95758" lon="0.3719">
        <ele>82.8</ele>
        <time>2023-07-03T13:53:20Z</time>
      </trkpt>
      <trkpt lat="43.95759" lon="0.37194">
        <ele>82.8</ele>
        <time>2023-07-03T13:53:22Z</time>
      </trkpt>
      <trkpt lat="43.95759" lon="0.37195">
        <ele>83</ele>
        <time>2023-07-03T13:53:23Z</time>
      </trkpt>
      <trkpt lat="43.95759" lon="0.37196">
        <ele>83</ele>
        <time>2023-07-03T13:53:24Z</time>
      </trkpt>
      <trkpt lat="43.9576" lon="0.37198">
        <ele>83</ele>
        <time>2023-07-03T13:53:26Z</time>
      </trkpt>
      <trkpt lat="43.9576" lon="0.372">
        <ele>82.8</ele>
        <time>2023-07-03T13:53:27Z</time>
      </trkpt>
      <trkpt lat="43.95759" lon="0.37203">
        <ele>83</ele>
        <time>2023-07-03T13:53:30Z</time>
      </trkpt>
      <trkpt lat="43.95754" lon="0.37212">
        <ele>83.6</ele>
        <time>2023-07-03T13:53:36Z</time>
      </trkpt>
      <trkpt lat="43.95752" lon="0.37215">
        <ele>83.8</ele>
        <time>2023-07-03T13:53:38Z</time>
      </trkpt>
      <trkpt lat="43.95754" lon="0.37221">
        <ele>84</ele>
        <time>2023-07-03T13:53:40Z</time>
      </trkpt>
      <trkpt lat="43.95754" lon="0.37227">
        <ele>83.8</ele>
        <time>2023-07-03T13:53:42Z</time>
      </trkpt>
      <trkpt lat="43.95753" lon="0.37229">
        <ele>83.6</ele>
        <time>2023-07-03T13:53:43Z</time>
      </trkpt>
      <trkpt lat="43.9575" lon="0.37233">
        <ele>83.4</ele>
        <time>2023-07-03T13:53:45Z</time>
      </trkpt>
      <trkpt lat="43.9575" lon="0.37234">
        <ele>83.4</ele>
        <time>2023-07-03T13:53:46Z</time>
      </trkpt>
      <trkpt lat="43.95748" lon="0.3724">
        <ele>83.2</ele>
        <time>2023-07-03T13:53:49Z</time>
      </trkpt>
      <trkpt lat="43.95747" lon="0.37246">
        <ele>83.2</ele>
        <time>2023-07-03T13:53:52Z</time>
      </trkpt>
      <trkpt lat="43.95766" lon="0.37258">
        <ele>83.2</ele>
        <time>2023-07-03T13:53:55Z</time>
      </trkpt>
      <trkpt lat="43.95766" lon="0.37263">
        <ele>83.2</ele>
        <time>2023-07-03T13:53:58Z</time>
      </trkpt>
      <trkpt lat="43.95765" lon="0.37266">
        <ele>83.2</ele>
        <time>2023-07-03T13:54:00Z</time>
      </trkpt>
      <trkpt lat="43.95763" lon="0.37267">
        <ele>83.2</ele>
        <time>2023-07-03T13:54:02Z</time>
      </trkpt>
      <trkpt lat="43.9576" lon="0.37269">
        <ele>83.2</ele>
        <time>2023-07-03T13:54:05Z</time>
      </trkpt>
      <trkpt lat="43.95783" lon="0.37281">
        <ele>83.2</ele>
        <time>2023-07-03T13:54:28Z</time>
      </trkpt>
      <trkpt lat="43.95783" lon="0.37282">
        <ele>83.2</ele>
        <time>2023-07-03T13:54:29Z</time>
      </trkpt>
      <trkpt lat="43.95785" lon="0.37289">
        <ele>83.4</ele>
        <time>2023-07-03T13:54:35Z</time>
      </trkpt>
      <trkpt lat="43.95785" lon="0.37297">
        <ele>83.4</ele>
        <time>2023-07-03T13:54:41Z</time>
      </trkpt>
      <trkpt lat="43.95782" lon="0.37301">
        <ele>83.2</ele>
        <time>2023-07-03T13:54:44Z</time>
      </trkpt>
      <trkpt lat="43.9578" lon="0.37305">
        <ele>82.8</ele>
        <time>2023-07-03T13:54:48Z</time>
      </trkpt>
      <trkpt lat="43.95779" lon="0.37307">
        <ele>82.8</ele>
        <time>2023-07-03T13:54:49Z</time>
      </trkpt>
      <trkpt lat="43.95774" lon="0.37309">
        <ele>82.8</ele>
        <time>2023-07-03T13:54:52Z</time>
      </trkpt>
      <trkpt lat="43.95773" lon="0.3731">
        <ele>82.8</ele>
        <time>2023-07-03T13:54:53Z</time>
      </trkpt>
      <trkpt lat="43.95769" lon="0.3732">
        <ele>82.2</ele>
        <time>2023-07-03T13:55:01Z</time>
      </trkpt>
      <trkpt lat="43.95767" lon="0.37325">
        <ele>82</ele>
        <time>2023-07-03T13:55:05Z</time>
      </trkpt>
      <trkpt lat="43.95765" lon="0.37326">
        <ele>82</ele>
        <time>2023-07-03T13:55:07Z</time>
      </trkpt>
      <trkpt lat="43.95763" lon="0.37334">
        <ele>82</ele>
        <time>2023-07-03T13:55:11Z</time>
      </trkpt>
      <trkpt lat="43.95762" lon="0.37335">
        <ele>82</ele>
        <time>2023-07-03T13:55:12Z</time>
      </trkpt>
      <trkpt lat="43.95762" lon="0.37339">
        <ele>81.8</ele>
        <time>2023-07-03T13:55:14Z</time>
      </trkpt>
      <trkpt lat="43.95763" lon="0.37347">
        <ele>81.2</ele>
        <time>2023-07-03T13:55:18Z</time>
      </trkpt>
      <trkpt lat="43.95763" lon="0.37349">
        <ele>81.2</ele>
        <time>2023-07-03T13:55:19Z</time>
      </trkpt>
      <trkpt lat="43.95765" lon="0.37355">
        <ele>80.4</ele>
        <time>2023-07-03T13:55:22Z</time>
      </trkpt>
      <trkpt lat="43.95764" lon="0.3736">
        <ele>80.2</ele>
        <time>2023-07-03T13:55:25Z</time>
      </trkpt>
      <trkpt lat="43.95764" lon="0.37361">
        <ele>80.2</ele>
        <time>2023-07-03T13:55:26Z</time>
      </trkpt>
      <trkpt lat="43.95762" lon="0.37364">
        <ele>80.2</ele>
        <time>2023-07-03T13:55:29Z</time>
      </trkpt>
      <trkpt lat="43.95762" lon="0.37366">
        <ele>80.2</ele>
        <time>2023-07-03T13:55:30Z</time>
      </trkpt>
      <trkpt lat="43.95763" lon="0.37369">
        <ele>80.2</ele>
        <time>2023-07-03T13:55:32Z</time>
      </trkpt>
      <trkpt lat="43.95764" lon="0.37375">
        <ele>80.2</ele>
        <time>2023-07-03T13:55:35Z</time>
      </trkpt>
      <trkpt lat="43.95763" lon="0.37378">
        <ele>80.2</ele>
        <time>2023-07-03T13:55:37Z</time>
      </trkpt>
      <trkpt lat="43.95761" lon="0.37387">
        <ele>79.8</ele>
        <time>2023-07-03T13:55:41Z</time>
      </trkpt>
      <trkpt lat="43.95756" lon="0.37398">
        <ele>79.6</ele>
        <time>2023-07-03T13:55:47Z</time>
      </trkpt>
      <trkpt lat="43.95755" lon="0.37401">
        <ele>79.4</ele>
        <time>2023-07-03T13:55:48Z</time>
      </trkpt>
      <trkpt lat="43.95752" lon="0.37411">
        <ele>79</ele>
        <time>2023-07-03T13:55:53Z</time>
      </trkpt>
      <trkpt lat="43.9575" lon="0.37424">
        <ele>78.6</ele>
        <time>2023-07-03T13:55:59Z</time>
      </trkpt>
      <trkpt lat="43.95749" lon="0.37438">
        <ele>78.4</ele>
        <time>2023-07-03T13:56:06Z</time>
      </trkpt>
      <trkpt lat="43.95747" lon="0.37444">
        <ele>78.4</ele>
        <time>2023-07-03T13:56:10Z</time>
      </trkpt>
      <trkpt lat="43.95746" lon="0.37449">
        <ele>78.2</ele>
        <time>2023-07-03T13:56:13Z</time>
      </trkpt>
      <trkpt lat="43.95746" lon="0.37452">
        <ele>78.2</ele>
        <time>2023-07-03T13:56:14Z</time>
      </trkpt>
      <trkpt lat="43.9574" lon="0.37463">
        <ele>78</ele>
        <time>2023-07-03T13:56:21Z</time>
      </trkpt>
      <trkpt lat="43.95728" lon="0.37472">
        <ele>78</ele>
        <time>2023-07-03T13:56:29Z</time>
      </trkpt>
      <trkpt lat="43.95724" lon="0.37479">
        <ele>77.6</ele>
        <time>2023-07-03T13:56:35Z</time>
      </trkpt>
      <trkpt lat="43.95727" lon="0.37493">
        <ele>78</ele>
        <time>2023-07-03T13:56:41Z</time>
      </trkpt>
      <trkpt lat="43.95728" lon="0.37498">
        <ele>78</ele>
        <time>2023-07-03T13:56:43Z</time>
      </trkpt>
      <trkpt lat="43.95724" lon="0.37504">
        <ele>78</ele>
        <time>2023-07-03T13:56:47Z</time>
      </trkpt>
      <trkpt lat="43.95722" lon="0.37513">
        <ele>77.6</ele>
        <time>2023-07-03T13:56:52Z</time>
      </trkpt>
      <trkpt lat="43.95717" lon="0.37523">
        <ele>78</ele>
        <time>2023-07-03T13:56:59Z</time>
      </trkpt>
      <trkpt lat="43.95715" lon="0.37528">
        <ele>77.8</ele>
        <time>2023-07-03T13:57:02Z</time>
      </trkpt>
      <trkpt lat="43.95714" lon="0.37535">
        <ele>77.6</ele>
        <time>2023-07-03T13:57:06Z</time>
      </trkpt>
      <trkpt lat="43.9571" lon="0.37548">
        <ele>77.8</ele>
        <time>2023-07-03T13:57:13Z</time>
      </trkpt>
      <trkpt lat="43.95705" lon="0.37555">
        <ele>77.6</ele>
        <time>2023-07-03T13:57:19Z</time>
      </trkpt>
      <trkpt lat="43.95703" lon="0.37557">
        <ele>78.2</ele>
        <time>2023-07-03T14:02:46Z</time>
      </trkpt>
      <trkpt lat="43.95703" lon="0.37559">
        <ele>78.2</ele>
        <time>2023-07-03T14:02:47Z</time>
      </trkpt>
      <trkpt lat="43.95695" lon="0.37559">
        <ele>78.2</ele>
        <time>2023-07-03T14:02:50Z</time>
      </trkpt>
      <trkpt lat="43.95693" lon="0.37559">
        <ele>78.2</ele>
        <time>2023-07-03T14:02:51Z</time>
      </trkpt>
      <trkpt lat="43.95691" lon="0.37559">
        <ele>78.2</ele>
        <time>2023-07-03T14:02:52Z</time>
      </trkpt>
      <trkpt lat="43.9569" lon="0.3756">
        <ele>78.2</ele>
        <time>2023-07-03T14:02:53Z</time>
      </trkpt>
      <trkpt lat="43.95693" lon="0.37564">
        <ele>78.2</ele>
        <time>2023-07-03T14:02:55Z</time>
      </trkpt>
      <trkpt lat="43.95699" lon="0.37571">
        <ele>78.2</ele>
        <time>2023-07-03T14:02:57Z</time>
      </trkpt>
      <trkpt lat="43.95698" lon="0.37575">
        <ele>78.2</ele>
        <time>2023-07-03T14:02:59Z</time>
      </trkpt>
      <trkpt lat="43.95695" lon="0.37589">
        <ele>78.4</ele>
        <time>2023-07-03T14:03:07Z</time>
      </trkpt>
      <trkpt lat="43.95691" lon="0.37588">
        <ele>78.4</ele>
        <time>2023-07-03T14:03:10Z</time>
      </trkpt>
      <trkpt lat="43.95689" lon="0.37594">
        <ele>78.6</ele>
        <time>2023-07-03T14:03:14Z</time>
      </trkpt>
      <trkpt lat="43.95687" lon="0.376">
        <ele>78.6</ele>
        <time>2023-07-03T14:03:18Z</time>
      </trkpt>
      <trkpt lat="43.95687" lon="0.37602">
        <ele>78.4</ele>
        <time>2023-07-03T14:03:19Z</time>
      </trkpt>
      <trkpt lat="43.95687" lon="0.37611">
        <ele>78.4</ele>
        <time>2023-07-03T14:03:24Z</time>
      </trkpt>
      <trkpt lat="43.95688" lon="0.37611">
        <ele>78.2</ele>
        <time>2023-07-03T14:03:25Z</time>
      </trkpt>
      <trkpt lat="43.95697" lon="0.37622">
        <ele>78.4</ele>
        <time>2023-07-03T14:03:33Z</time>
      </trkpt>
      <trkpt lat="43.95703" lon="0.37633">
        <ele>78</ele>
        <time>2023-07-03T14:03:41Z</time>
      </trkpt>
      <trkpt lat="43.95704" lon="0.37634">
        <ele>78</ele>
        <time>2023-07-03T14:03:42Z</time>
      </trkpt>
      <trkpt lat="43.95708" lon="0.37642">
        <ele>78.2</ele>
        <time>2023-07-03T14:03:48Z</time>
      </trkpt>
      <trkpt lat="43.95709" lon="0.37644">
        <ele>78.2</ele>
        <time>2023-07-03T14:03:49Z</time>
      </trkpt>
      <trkpt lat="43.95709" lon="0.37649">
        <ele>78.2</ele>
        <time>2023-07-03T14:03:51Z</time>
      </trkpt>
      <trkpt lat="43.95708" lon="0.37654">
        <ele>78</ele>
        <time>2023-07-03T14:03:53Z</time>
      </trkpt>
      <trkpt lat="43.95706" lon="0.37658">
        <ele>78</ele>
        <time>2023-07-03T14:03:55Z</time>
      </trkpt>
      <trkpt lat="43.957" lon="0.37672">
        <ele>77.6</ele>
        <time>2023-07-03T14:04:03Z</time>
      </trkpt>
      <trkpt lat="43.95698" lon="0.37675">
        <ele>77.2</ele>
        <time>2023-07-03T14:04:05Z</time>
      </trkpt>
      <trkpt lat="43.95695" lon="0.3768">
        <ele>77.2</ele>
        <time>2023-07-03T14:04:08Z</time>
      </trkpt>
      <trkpt lat="43.95693" lon="0.37684">
        <ele>77</ele>
        <time>2023-07-03T14:04:10Z</time>
      </trkpt>
      <trkpt lat="43.9569" lon="0.37691">
        <ele>77.2</ele>
        <time>2023-07-03T14:04:15Z</time>
      </trkpt>
      <trkpt lat="43.9569" lon="0.37693">
        <ele>77.2</ele>
        <time>2023-07-03T14:04:17Z</time>
      </trkpt>
      <trkpt lat="43.9569" lon="0.37693">
        <ele>77.2</ele>
        <time>2023-07-03T14:04:18Z</time>
      </trkpt>
      <trkpt lat="43.9569" lon="0.37693">
        <ele>77.2</ele>
        <time>2023-07-03T14:04:20Z</time>
      </trkpt>
      <trkpt lat="43.95683" lon="0.37695">
        <ele>77.2</ele>
        <time>2023-07-03T14:04:54Z</time>
      </trkpt>
      <trkpt lat="43.95683" lon="0.37696">
        <ele>77</ele>
        <time>2023-07-03T14:04:55Z</time>
      </trkpt>
      <trkpt lat="43.95683" lon="0.37703">
        <ele>77</ele>
        <time>2023-07-03T14:04:59Z</time>
      </trkpt>
      <trkpt lat="43.95683" lon="0.37704">
        <ele>77</ele>
        <time>2023-07-03T14:05:00Z</time>
      </trkpt>
      <trkpt lat="43.95683" lon="0.37706">
        <ele>77</ele>
        <time>2023-07-03T14:05:01Z</time>
      </trkpt>
      <trkpt lat="43.95682" lon="0.37707">
        <ele>77</ele>
        <time>2023-07-03T14:05:02Z</time>
      </trkpt>
      <trkpt lat="43.95679" lon="0.37715">
        <ele>77</ele>
        <time>2023-07-03T14:05:08Z</time>
      </trkpt>
      <trkpt lat="43.95678" lon="0.37724">
        <ele>77</ele>
        <time>2023-07-03T14:05:14Z</time>
      </trkpt>
      <trkpt lat="43.95676" lon="0.37743">
        <ele>76.8</ele>
        <time>2023-07-03T14:05:23Z</time>
      </trkpt>
      <trkpt lat="43.95674" lon="0.37759">
        <ele>76.8</ele>
        <time>2023-07-03T14:05:31Z</time>
      </trkpt>
      <trkpt lat="43.95672" lon="0.37775">
        <ele>76.6</ele>
        <time>2023-07-03T14:05:39Z</time>
      </trkpt>
      <trkpt lat="43.9567" lon="0.3779">
        <ele>76.4</ele>
        <time>2023-07-03T14:05:47Z</time>
      </trkpt>
      <trkpt lat="43.95665" lon="0.37801">
        <ele>76.4</ele>
        <time>2023-07-03T14:05:54Z</time>
      </trkpt>
      <trkpt lat="43.95665" lon="0.37803">
        <ele>76.2</ele>
        <time>2023-07-03T14:05:55Z</time>
      </trkpt>
      <trkpt lat="43.95664" lon="0.37815">
        <ele>76.2</ele>
        <time>2023-07-03T14:06:01Z</time>
      </trkpt>
      <trkpt lat="43.95665" lon="0.37821">
        <ele>76.4</ele>
        <time>2023-07-03T14:06:05Z</time>
      </trkpt>
      <trkpt lat="43.95665" lon="0.37821">
        <ele>76.4</ele>
        <time>2023-07-03T14:06:06Z</time>
      </trkpt>
      <trkpt lat="43.95664" lon="0.37821">
        <ele>76</ele>
        <time>2023-07-03T14:06:08Z</time>
      </trkpt>
      <trkpt lat="43.95669" lon="0.37827">
        <ele>75.8</ele>
        <time>2023-07-03T14:06:11Z</time>
      </trkpt>
      <trkpt lat="43.95676" lon="0.37833">
        <ele>75.8</ele>
        <time>2023-07-03T14:06:12Z</time>
      </trkpt>
      <trkpt lat="43.9568" lon="0.37838">
        <ele>75.8</ele>
        <time>2023-07-03T14:06:14Z</time>
      </trkpt>
      <trkpt lat="43.95684" lon="0.37846">
        <ele>75.8</ele>
        <time>2023-07-03T14:06:18Z</time>
      </trkpt>
      <trkpt lat="43.95686" lon="0.37856">
        <ele>75.4</ele>
        <time>2023-07-03T14:06:24Z</time>
      </trkpt>
      <trkpt lat="43.95686" lon="0.37858">
        <ele>75.2</ele>
        <time>2023-07-03T14:06:25Z</time>
      </trkpt>
      <trkpt lat="43.95686" lon="0.3786">
        <ele>75.2</ele>
        <time>2023-07-03T14:06:26Z</time>
      </trkpt>
      <trkpt lat="43.95686" lon="0.37871">
        <ele>75.4</ele>
        <time>2023-07-03T14:06:33Z</time>
      </trkpt>
      <trkpt lat="43.95685" lon="0.37872">
        <ele>75.6</ele>
        <time>2023-07-03T14:06:34Z</time>
      </trkpt>
      <trkpt lat="43.95685" lon="0.37873">
        <ele>75.6</ele>
        <time>2023-07-03T14:06:35Z</time>
      </trkpt>
    </trkseg>
  </trk>
</gpx>